<?xml version='1.0' encoding='UTF-8'?><gpx version="1.1" creator="JPX - https://github.com/jenetics/jpx" xmlns="http://www.topografix.com/GPX/1/1"><trk><trkseg><trkpt lat="45.38160255473613" lon="9.095117108807166"><ele>104.0</ele><time>2026-04-10T15:03:21Z</time></trkpt><trkpt lat="45.381713969883265" lon="9.095059590834577"><ele>104.0</ele><time>2026-04-10T15:03:23Z</time></trkpt><trkpt lat="45.38178797389446" lon="9.09506103728457"><ele>104.0</ele><time>2026-04-10T15:03:25Z</time></trkpt><trkpt lat="45.381868115848015" lon="9.09500035404857"><ele>104.0</ele><time>2026-04-10T15:03:28Z</time></trkpt><trkpt lat="45.38193327787404" lon="9.094968275085277"><ele>104.0</ele><time>2026-04-10T15:03:30Z</time></trkpt><trkpt lat="45.382043942444" lon="9.09494854524404"><ele>103.75</ele><time>2026-04-10T15:03:32Z</time></trkpt><trkpt lat="45.38211706395911" lon="9.094871565330811"><ele>103.5</ele><time>2026-04-10T15:03:33Z</time></trkpt><trkpt lat="45.382201429377574" lon="9.09475662254087"><ele>103.25</ele><time>2026-04-10T15:03:34Z</time></trkpt><trkpt lat="45.38230616907638" lon="9.094662600517658"><ele>103.0</ele><time>2026-04-10T15:03:35Z</time></trkpt><trkpt lat="45.382413540953785" lon="9.094552512277057"><ele>103.0</ele><time>2026-04-10T15:03:36Z</time></trkpt><trkpt lat="45.382530783564896" lon="9.09442259924232"><ele>103.0</ele><time>2026-04-10T15:03:37Z</time></trkpt><trkpt lat="45.38265984489418" lon="9.094283476812887"><ele>103.0</ele><time>2026-04-10T15:03:38Z</time></trkpt><trkpt lat="45.382778523159665" lon="9.094159877356871"><ele>103.33333333333334</ele><time>2026-04-10T15:03:39Z</time></trkpt><trkpt lat="45.38290667349147" lon="9.094023091086441"><ele>103.66666666666666</ele><time>2026-04-10T15:03:40Z</time></trkpt><trkpt lat="45.383034369718686" lon="9.093888836053768"><ele>104.0</ele><time>2026-04-10T15:03:41Z</time></trkpt><trkpt lat="45.38314239930544" lon="9.093775557609186"><ele>104.75</ele><time>2026-04-10T15:03:42Z</time></trkpt><trkpt lat="45.383245161470136" lon="9.093671096720023"><ele>105.5</ele><time>2026-04-10T15:03:43Z</time></trkpt><trkpt lat="45.38336239928944" lon="9.093551455243588"><ele>106.25</ele><time>2026-04-10T15:03:44Z</time></trkpt><trkpt lat="45.383495428591296" lon="9.093424217373078"><ele>107.0</ele><time>2026-04-10T15:03:45Z</time></trkpt><trkpt lat="45.38363562527523" lon="9.09330272839628"><ele>108.0</ele><time>2026-04-10T15:03:46Z</time></trkpt><trkpt lat="45.383792334859365" lon="9.093201840616906"><ele>109.0</ele><time>2026-04-10T15:03:47Z</time></trkpt><trkpt lat="45.383944505239995" lon="9.093055243149932"><ele>110.0</ele><time>2026-04-10T15:03:48Z</time></trkpt><trkpt lat="45.38410980803547" lon="9.092929750300659"><ele>108.0</ele><time>2026-04-10T15:03:49Z</time></trkpt><trkpt lat="45.38426427470155" lon="9.092805279142336"><ele>106.0</ele><time>2026-04-10T15:03:50Z</time></trkpt><trkpt lat="45.384426543861004" lon="9.09267204830368"><ele>104.0</ele><time>2026-04-10T15:03:51Z</time></trkpt><trkpt lat="45.38459071271784" lon="9.092535868115384"><ele>104.66666666666666</ele><time>2026-04-10T15:03:52Z</time></trkpt><trkpt lat="45.38475869561126" lon="9.092400546357494"><ele>105.33333333333334</ele><time>2026-04-10T15:03:53Z</time></trkpt><trkpt lat="45.384933080794944" lon="9.092266547024012"><ele>106.0</ele><time>2026-04-10T15:03:54Z</time></trkpt><trkpt lat="45.38510481547657" lon="9.092129905465438"><ele>106.0</ele><time>2026-04-10T15:03:55Z</time></trkpt><trkpt lat="45.38526909961495" lon="9.09199641286157"><ele>106.0</ele><time>2026-04-10T15:03:56Z</time></trkpt><trkpt lat="45.38544166921487" lon="9.091864276182674"><ele>106.0</ele><time>2026-04-10T15:03:57Z</time></trkpt><trkpt lat="45.38561549337013" lon="9.09173273281209"><ele>106.0</ele><time>2026-04-10T15:03:58Z</time></trkpt><trkpt lat="45.385804971835846" lon="9.091638918733471"><ele>106.0</ele><time>2026-04-10T15:03:59Z</time></trkpt><trkpt lat="45.3859846160825" lon="9.09150740963049"><ele>106.0</ele><time>2026-04-10T15:04:00Z</time></trkpt><trkpt lat="45.38617218799663" lon="9.091398427589667"><ele>106.0</ele><time>2026-04-10T15:04:01Z</time></trkpt><trkpt lat="45.38636269431893" lon="9.0912904692059"><ele>106.0</ele><time>2026-04-10T15:04:02Z</time></trkpt><trkpt lat="45.386556171206074" lon="9.09117182866718"><ele>106.0</ele><time>2026-04-10T15:04:03Z</time></trkpt><trkpt lat="45.38675105792573" lon="9.091054494529462"><ele>106.0</ele><time>2026-04-10T15:04:04Z</time></trkpt><trkpt lat="45.38694188960187" lon="9.090937463135285"><ele>106.0</ele><time>2026-04-10T15:04:05Z</time></trkpt><trkpt lat="45.38711702637102" lon="9.090831782771286"><ele>106.0</ele><time>2026-04-10T15:04:06Z</time></trkpt><trkpt lat="45.38727486239176" lon="9.090738548330972"><ele>105.66666666666667</ele><time>2026-04-10T15:04:07Z</time></trkpt><trkpt lat="45.38741879797512" lon="9.0906537482715"><ele>105.33333333333334</ele><time>2026-04-10T15:04:08Z</time></trkpt><trkpt lat="45.3875640137109" lon="9.090567837818249"><ele>105.0</ele><time>2026-04-10T15:04:09Z</time></trkpt><trkpt lat="45.38770103401234" lon="9.090482357813691"><ele>105.0</ele><time>2026-04-10T15:04:10Z</time></trkpt><trkpt lat="45.38784392813039" lon="9.090395800734798"><ele>105.0</ele><time>2026-04-10T15:04:11Z</time></trkpt><trkpt lat="45.38798788414587" lon="9.09031183572197"><ele>105.0</ele><time>2026-04-10T15:04:12Z</time></trkpt><trkpt lat="45.38813901567837" lon="9.090221687194171"><ele>105.0</ele><time>2026-04-10T15:04:13Z</time></trkpt><trkpt lat="45.38829811378499" lon="9.090122931424428"><ele>105.0</ele><time>2026-04-10T15:04:14Z</time></trkpt><trkpt lat="45.3884541510775" lon="9.090032285263343"><ele>105.0</ele><time>2026-04-10T15:04:15Z</time></trkpt><trkpt lat="45.38861321562508" lon="9.089940884846156"><ele>105.0</ele><time>2026-04-10T15:04:16Z</time></trkpt><trkpt lat="45.38877598652384" lon="9.08984149185298"><ele>105.0</ele><time>2026-04-10T15:04:17Z</time></trkpt><trkpt lat="45.388944411934084" lon="9.089736375458603"><ele>105.0</ele><time>2026-04-10T15:04:18Z</time></trkpt><trkpt lat="45.389117826081865" lon="9.089624315411111"><ele>105.0</ele><time>2026-04-10T15:04:19Z</time></trkpt><trkpt lat="45.38928294184417" lon="9.089532777591591"><ele>105.0</ele><time>2026-04-10T15:04:20Z</time></trkpt><trkpt lat="45.38945950155999" lon="9.08942613787915"><ele>105.0</ele><time>2026-04-10T15:04:21Z</time></trkpt><trkpt lat="45.38963181745612" lon="9.089327518521657"><ele>105.33333333333334</ele><time>2026-04-10T15:04:22Z</time></trkpt><trkpt lat="45.389804867499464" lon="9.089222427829375"><ele>105.66666666666667</ele><time>2026-04-10T15:04:23Z</time></trkpt><trkpt lat="45.38998427571145" lon="9.089114713009241"><ele>106.0</ele><time>2026-04-10T15:04:24Z</time></trkpt><trkpt lat="45.39016663975122" lon="9.089009685210824"><ele>106.0</ele><time>2026-04-10T15:04:25Z</time></trkpt><trkpt lat="45.39034189409508" lon="9.088903746880504"><ele>106.0</ele><time>2026-04-10T15:04:26Z</time></trkpt><trkpt lat="45.390505279276546" lon="9.088810297729722"><ele>106.0</ele><time>2026-04-10T15:04:27Z</time></trkpt><trkpt lat="45.39066499956192" lon="9.088707946139312"><ele>106.66666666666667</ele><time>2026-04-10T15:04:28Z</time></trkpt><trkpt lat="45.39081725143696" lon="9.088614194746157"><ele>107.33333333333334</ele><time>2026-04-10T15:04:29Z</time></trkpt><trkpt lat="45.39097416427105" lon="9.088521798791776"><ele>108.0</ele><time>2026-04-10T15:04:30Z</time></trkpt><trkpt lat="45.39113602634748" lon="9.088421126842034"><ele>108.0</ele><time>2026-04-10T15:04:31Z</time></trkpt><trkpt lat="45.39129452165605" lon="9.08832254277966"><ele>108.0</ele><time>2026-04-10T15:04:32Z</time></trkpt><trkpt lat="45.3914608367676" lon="9.088219724083217"><ele>108.0</ele><time>2026-04-10T15:04:33Z</time></trkpt><trkpt lat="45.391640401199695" lon="9.088106398428986"><ele>107.0</ele><time>2026-04-10T15:04:34Z</time></trkpt><trkpt lat="45.39179997990196" lon="9.087997357958594"><ele>106.0</ele><time>2026-04-10T15:04:35Z</time></trkpt><trkpt lat="45.391963191245566" lon="9.087860456066586"><ele>105.0</ele><time>2026-04-10T15:04:36Z</time></trkpt><trkpt lat="45.39211758575296" lon="9.087729050447852"><ele>105.0</ele><time>2026-04-10T15:04:37Z</time></trkpt><trkpt lat="45.39227622314513" lon="9.087587869382652"><ele>105.0</ele><time>2026-04-10T15:04:38Z</time></trkpt><trkpt lat="45.39244106414826" lon="9.08744544912897"><ele>105.0</ele><time>2026-04-10T15:04:39Z</time></trkpt><trkpt lat="45.39260278873862" lon="9.08730204242458"><ele>105.0</ele><time>2026-04-10T15:04:40Z</time></trkpt><trkpt lat="45.39276650918266" lon="9.087155195782774"><ele>105.0</ele><time>2026-04-10T15:04:41Z</time></trkpt><trkpt lat="45.39293034465089" lon="9.087008209238512"><ele>105.0</ele><time>2026-04-10T15:04:42Z</time></trkpt><trkpt lat="45.39310020497596" lon="9.08686237205837"><ele>105.0</ele><time>2026-04-10T15:04:43Z</time></trkpt><trkpt lat="45.39326720053861" lon="9.086718123199121"><ele>105.0</ele><time>2026-04-10T15:04:44Z</time></trkpt><trkpt lat="45.39343126548443" lon="9.08657366820157"><ele>105.0</ele><time>2026-04-10T15:04:45Z</time></trkpt><trkpt lat="45.393582071638285" lon="9.086446215682194"><ele>105.0</ele><time>2026-04-10T15:04:46Z</time></trkpt><trkpt lat="45.39373475081169" lon="9.086312218334339"><ele>105.0</ele><time>2026-04-10T15:04:47Z</time></trkpt><trkpt lat="45.393888154348964" lon="9.086178530841316"><ele>105.0</ele><time>2026-04-10T15:04:48Z</time></trkpt><trkpt lat="45.39405760679993" lon="9.086032287036389"><ele>105.33333333333334</ele><time>2026-04-10T15:04:49Z</time></trkpt><trkpt lat="45.394222044969105" lon="9.08589437845753"><ele>105.66666666666667</ele><time>2026-04-10T15:04:50Z</time></trkpt><trkpt lat="45.394397164249284" lon="9.085740617755716"><ele>106.0</ele><time>2026-04-10T15:04:51Z</time></trkpt><trkpt lat="45.39457529747424" lon="9.0855748561687"><ele>106.0</ele><time>2026-04-10T15:04:52Z</time></trkpt><trkpt lat="45.39477514983525" lon="9.085421336470407"><ele>106.0</ele><time>2026-04-10T15:04:53Z</time></trkpt><trkpt lat="45.394975395215134" lon="9.085246897771535"><ele>106.0</ele><time>2026-04-10T15:04:54Z</time></trkpt><trkpt lat="45.39517575634595" lon="9.08507229149386"><ele>106.0</ele><time>2026-04-10T15:04:55Z</time></trkpt><trkpt lat="45.39537964999728" lon="9.084895021229544"><ele>106.66666666666667</ele><time>2026-04-10T15:04:56Z</time></trkpt><trkpt lat="45.39557163239333" lon="9.084728530772562"><ele>107.33333333333334</ele><time>2026-04-10T15:04:57Z</time></trkpt><trkpt lat="45.39575097792736" lon="9.084572999529101"><ele>108.0</ele><time>2026-04-10T15:04:58Z</time></trkpt><trkpt lat="45.3959191626821" lon="9.084408326611536"><ele>108.0</ele><time>2026-04-10T15:04:59Z</time></trkpt><trkpt lat="45.39609245897709" lon="9.084262951204035"><ele>108.0</ele><time>2026-04-10T15:05:00Z</time></trkpt><trkpt lat="45.39626688747381" lon="9.084110544266538"><ele>108.0</ele><time>2026-04-10T15:05:01Z</time></trkpt><trkpt lat="45.39644323720738" lon="9.083955843172253"><ele>108.0</ele><time>2026-04-10T15:05:02Z</time></trkpt><trkpt lat="45.39661349740781" lon="9.083808417340505"><ele>108.0</ele><time>2026-04-10T15:05:03Z</time></trkpt><trkpt lat="45.39678533984129" lon="9.08365757499111"><ele>108.0</ele><time>2026-04-10T15:05:04Z</time></trkpt><trkpt lat="45.39696101791918" lon="9.083500638413835"><ele>108.0</ele><time>2026-04-10T15:05:05Z</time></trkpt><trkpt lat="45.39714354961251" lon="9.083338728943366"><ele>108.0</ele><time>2026-04-10T15:05:06Z</time></trkpt><trkpt lat="45.397333251273984" lon="9.083174323657465"><ele>108.0</ele><time>2026-04-10T15:05:07Z</time></trkpt><trkpt lat="45.39753296417271" lon="9.083021960806645"><ele>107.66666666666666</ele><time>2026-04-10T15:05:08Z</time></trkpt><trkpt lat="45.397704486209854" lon="9.082872620093607"><ele>107.33333333333333</ele><time>2026-04-10T15:05:09Z</time></trkpt><trkpt lat="45.397866031139976" lon="9.082732273928368"><ele>107.0</ele><time>2026-04-10T15:05:10Z</time></trkpt><trkpt lat="45.398008334689315" lon="9.082582560562129"><ele>107.0</ele><time>2026-04-10T15:05:11Z</time></trkpt><trkpt lat="45.39816731937809" lon="9.082446358881372"><ele>107.0</ele><time>2026-04-10T15:05:12Z</time></trkpt><trkpt lat="45.39833275115704" lon="9.082302017025468"><ele>107.0</ele><time>2026-04-10T15:05:13Z</time></trkpt><trkpt lat="45.39853223349553" lon="9.082155744537433"><ele>106.5</ele><time>2026-04-10T15:05:14Z</time></trkpt><trkpt lat="45.39874426335189" lon="9.081971788082015"><ele>106.0</ele><time>2026-04-10T15:05:15Z</time></trkpt><trkpt lat="45.39894956926074" lon="9.08179402702338"><ele>106.0</ele><time>2026-04-10T15:05:16Z</time></trkpt><trkpt lat="45.399120881619595" lon="9.081619217039634"><ele>106.0</ele><time>2026-04-10T15:05:17Z</time></trkpt><trkpt lat="45.399289489589385" lon="9.081486705946482"><ele>106.0</ele><time>2026-04-10T15:05:18Z</time></trkpt><trkpt lat="45.39945117710529" lon="9.081344375127355"><ele>106.0</ele><time>2026-04-10T15:05:19Z</time></trkpt><trkpt lat="45.399615534868424" lon="9.081186291362835"><ele>106.0</ele><time>2026-04-10T15:05:20Z</time></trkpt><trkpt lat="45.399769831305704" lon="9.081016616075292"><ele>106.0</ele><time>2026-04-10T15:05:21Z</time></trkpt><trkpt lat="45.399912664209495" lon="9.080837755069549"><ele>106.66666666666667</ele><time>2026-04-10T15:05:22Z</time></trkpt><trkpt lat="45.40003777378943" lon="9.080652651939436"><ele>107.33333333333334</ele><time>2026-04-10T15:05:23Z</time></trkpt><trkpt lat="45.40015111117756" lon="9.080475542084981"><ele>108.0</ele><time>2026-04-10T15:05:24Z</time></trkpt><trkpt lat="45.400258436293555" lon="9.08031895580941"><ele>108.0</ele><time>2026-04-10T15:05:25Z</time></trkpt><trkpt lat="45.40037158569733" lon="9.080155109071796"><ele>108.0</ele><time>2026-04-10T15:05:26Z</time></trkpt><trkpt lat="45.40047933041775" lon="9.079996055758635"><ele>108.0</ele><time>2026-04-10T15:05:27Z</time></trkpt><trkpt lat="45.40060618138498" lon="9.079812006338656"><ele>108.33333333333334</ele><time>2026-04-10T15:05:28Z</time></trkpt><trkpt lat="45.40072528947871" lon="9.079644794693067"><ele>108.66666666666667</ele><time>2026-04-10T15:05:29Z</time></trkpt><trkpt lat="45.40084439247487" lon="9.079481719920125"><ele>109.0</ele><time>2026-04-10T15:05:30Z</time></trkpt><trkpt lat="45.40098341867372" lon="9.079306316984782"><ele>109.0</ele><time>2026-04-10T15:05:31Z</time></trkpt><trkpt lat="45.4011238046308" lon="9.079154467291428"><ele>109.0</ele><time>2026-04-10T15:05:32Z</time></trkpt><trkpt lat="45.40129267482685" lon="9.079022517007628"><ele>109.0</ele><time>2026-04-10T15:05:33Z</time></trkpt><trkpt lat="45.40143873623367" lon="9.078879985987298"><ele>109.0</ele><time>2026-04-10T15:05:34Z</time></trkpt><trkpt lat="45.40161245982679" lon="9.078744587705932"><ele>109.0</ele><time>2026-04-10T15:05:35Z</time></trkpt><trkpt lat="45.401777803954005" lon="9.07861657085637"><ele>109.0</ele><time>2026-04-10T15:05:36Z</time></trkpt><trkpt lat="45.40193216802916" lon="9.07849023060681"><ele>109.0</ele><time>2026-04-10T15:05:37Z</time></trkpt><trkpt lat="45.4021040127296" lon="9.078380786943818"><ele>109.0</ele><time>2026-04-10T15:05:38Z</time></trkpt><trkpt lat="45.40226832959407" lon="9.078251819310266"><ele>109.0</ele><time>2026-04-10T15:05:39Z</time></trkpt><trkpt lat="45.402440291461104" lon="9.078116851279301"><ele>110.0</ele><time>2026-04-10T15:05:40Z</time></trkpt><trkpt lat="45.40263626816357" lon="9.077963034783995"><ele>111.0</ele><time>2026-04-10T15:05:41Z</time></trkpt><trkpt lat="45.40285901533369" lon="9.077785913827062"><ele>111.5</ele><time>2026-04-10T15:05:42Z</time></trkpt><trkpt lat="45.40309909246081" lon="9.077596257988615"><ele>112.0</ele><time>2026-04-10T15:05:43Z</time></trkpt><trkpt lat="45.40330936990791" lon="9.077419148363859"><ele>111.66666666666667</ele><time>2026-04-10T15:05:44Z</time></trkpt><trkpt lat="45.403483795356976" lon="9.077223586830623"><ele>111.33333333333334</ele><time>2026-04-10T15:05:45Z</time></trkpt><trkpt lat="45.403660444559634" lon="9.07701999727226"><ele>111.0</ele><time>2026-04-10T15:05:46Z</time></trkpt><trkpt lat="45.40383622515908" lon="9.076803102768345"><ele>111.5</ele><time>2026-04-10T15:05:47Z</time></trkpt><trkpt lat="45.4040175191225" lon="9.07654568179901"><ele>112.0</ele><time>2026-04-10T15:05:48Z</time></trkpt><trkpt lat="45.40418569190078" lon="9.076311268146275"><ele>112.0</ele><time>2026-04-10T15:05:49Z</time></trkpt><trkpt lat="45.404356269328495" lon="9.076093497396702"><ele>112.0</ele><time>2026-04-10T15:05:50Z</time></trkpt><trkpt lat="45.404533052953695" lon="9.075894818157398"><ele>111.0</ele><time>2026-04-10T15:05:51Z</time></trkpt><trkpt lat="45.40470718074363" lon="9.075721573431798"><ele>110.0</ele><time>2026-04-10T15:05:52Z</time></trkpt><trkpt lat="45.40489416117414" lon="9.075566438232107"><ele>109.0</ele><time>2026-04-10T15:05:53Z</time></trkpt><trkpt lat="45.40509366298752" lon="9.075433958243748"><ele>109.0</ele><time>2026-04-10T15:05:54Z</time></trkpt><trkpt lat="45.40531125140186" lon="9.075316829818481"><ele>109.0</ele><time>2026-04-10T15:05:55Z</time></trkpt><trkpt lat="45.40555033701278" lon="9.075226228337439"><ele>109.5</ele><time>2026-04-10T15:05:56Z</time></trkpt><trkpt lat="45.405796903432474" lon="9.07512764082177"><ele>110.0</ele><time>2026-04-10T15:05:57Z</time></trkpt><trkpt lat="45.4060202689371" lon="9.07507569284057"><ele>110.0</ele><time>2026-04-10T15:05:58Z</time></trkpt><trkpt lat="45.40622575290423" lon="9.075020061990159"><ele>110.0</ele><time>2026-04-10T15:05:59Z</time></trkpt><trkpt lat="45.40643422310164" lon="9.074961643756238"><ele>110.0</ele><time>2026-04-10T15:06:00Z</time></trkpt><trkpt lat="45.406647557806586" lon="9.074902480249742"><ele>108.5</ele><time>2026-04-10T15:06:01Z</time></trkpt><trkpt lat="45.40686618326241" lon="9.074864807447325"><ele>107.0</ele><time>2026-04-10T15:06:02Z</time></trkpt><trkpt lat="45.407099079146036" lon="9.074802967961322"><ele>106.0</ele><time>2026-04-10T15:06:03Z</time></trkpt><trkpt lat="45.40732378333243" lon="9.074724755500466"><ele>105.0</ele><time>2026-04-10T15:06:04Z</time></trkpt><trkpt lat="45.407561740256426" lon="9.074680053942874"><ele>105.0</ele><time>2026-04-10T15:06:05Z</time></trkpt><trkpt lat="45.40779369506718" lon="9.07462612490105"><ele>105.0</ele><time>2026-04-10T15:06:06Z</time></trkpt><trkpt lat="45.40799820878505" lon="9.07457154507185"><ele>105.0</ele><time>2026-04-10T15:06:07Z</time></trkpt><trkpt lat="45.40818376829221" lon="9.074520264365468"><ele>105.66666666666666</ele><time>2026-04-10T15:06:08Z</time></trkpt><trkpt lat="45.408366179573015" lon="9.074469700353065"><ele>106.33333333333333</ele><time>2026-04-10T15:06:09Z</time></trkpt><trkpt lat="45.408544780555616" lon="9.074416911079027"><ele>107.0</ele><time>2026-04-10T15:06:10Z</time></trkpt><trkpt lat="45.40874704532051" lon="9.074359488551293"><ele>108.0</ele><time>2026-04-10T15:06:11Z</time></trkpt><trkpt lat="45.4089474218396" lon="9.074307366464303"><ele>109.0</ele><time>2026-04-10T15:06:12Z</time></trkpt><trkpt lat="45.40915568840158" lon="9.07425120382723"><ele>110.0</ele><time>2026-04-10T15:06:13Z</time></trkpt><trkpt lat="45.40936580941427" lon="9.074192396005"><ele>110.0</ele><time>2026-04-10T15:06:14Z</time></trkpt><trkpt lat="45.40959347684191" lon="9.074128291282259"><ele>110.0</ele><time>2026-04-10T15:06:15Z</time></trkpt><trkpt lat="45.409808036112096" lon="9.074066582581255"><ele>109.33333333333333</ele><time>2026-04-10T15:06:16Z</time></trkpt><trkpt lat="45.41001231888347" lon="9.074011196856173"><ele>108.66666666666666</ele><time>2026-04-10T15:06:17Z</time></trkpt><trkpt lat="45.410219263375" lon="9.073954807356213"><ele>108.0</ele><time>2026-04-10T15:06:18Z</time></trkpt><trkpt lat="45.41042940261426" lon="9.073897545098028"><ele>108.0</ele><time>2026-04-10T15:06:19Z</time></trkpt><trkpt lat="45.41062467122374" lon="9.073844297211819"><ele>108.0</ele><time>2026-04-10T15:06:20Z</time></trkpt><trkpt lat="45.41080881808392" lon="9.073792527845304"><ele>108.0</ele><time>2026-04-10T15:06:21Z</time></trkpt><trkpt lat="45.41097965615133" lon="9.073742460615204"><ele>108.0</ele><time>2026-04-10T15:06:22Z</time></trkpt><trkpt lat="45.411136737874436" lon="9.07369383480463"><ele>108.0</ele><time>2026-04-10T15:06:23Z</time></trkpt><trkpt lat="45.41127958671833" lon="9.073645810448348"><ele>108.0</ele><time>2026-04-10T15:06:24Z</time></trkpt><trkpt lat="45.411411248245976" lon="9.073596489296412"><ele>108.0</ele><time>2026-04-10T15:06:25Z</time></trkpt><trkpt lat="45.411538868615295" lon="9.0735453687655"><ele>108.0</ele><time>2026-04-10T15:06:26Z</time></trkpt><trkpt lat="45.41166103330801" lon="9.073493571322315"><ele>108.0</ele><time>2026-04-10T15:06:27Z</time></trkpt><trkpt lat="45.41177962325533" lon="9.073444221839619"><ele>108.0</ele><time>2026-04-10T15:06:28Z</time></trkpt><trkpt lat="45.4118939315955" lon="9.073396825264197"><ele>108.0</ele><time>2026-04-10T15:06:29Z</time></trkpt><trkpt lat="45.41200352021239" lon="9.07334979044918"><ele>108.0</ele><time>2026-04-10T15:06:30Z</time></trkpt><trkpt lat="45.41211521700817" lon="9.073301029357234"><ele>108.0</ele><time>2026-04-10T15:06:31Z</time></trkpt><trkpt lat="45.41223138337036" lon="9.073250518437339"><ele>108.0</ele><time>2026-04-10T15:06:32Z</time></trkpt><trkpt lat="45.41234880533742" lon="9.073206257293197"><ele>108.0</ele><time>2026-04-10T15:06:33Z</time></trkpt><trkpt lat="45.41244144862789" lon="9.073164169882308"><ele>108.2</ele><time>2026-04-10T15:06:34Z</time></trkpt><trkpt lat="45.412536429572704" lon="9.073127218290132"><ele>108.4</ele><time>2026-04-10T15:06:35Z</time></trkpt><trkpt lat="45.412626891816615" lon="9.07308639649958"><ele>108.60000000000001</ele><time>2026-04-10T15:06:36Z</time></trkpt><trkpt lat="45.412739667125564" lon="9.073058655188383"><ele>108.80000000000001</ele><time>2026-04-10T15:06:37Z</time></trkpt><trkpt lat="45.41286378259609" lon="9.073007326231773"><ele>109.0</ele><time>2026-04-10T15:06:38Z</time></trkpt><trkpt lat="45.41300796855767" lon="9.07294769693853"><ele>109.25</ele><time>2026-04-10T15:06:39Z</time></trkpt><trkpt lat="45.413132504173795" lon="9.072896473914392"><ele>109.5</ele><time>2026-04-10T15:06:40Z</time></trkpt><trkpt lat="45.413251622434295" lon="9.072847565699876"><ele>109.75</ele><time>2026-04-10T15:06:41Z</time></trkpt><trkpt lat="45.413385367204306" lon="9.072792652141555"><ele>110.0</ele><time>2026-04-10T15:06:42Z</time></trkpt><trkpt lat="45.41351445496474" lon="9.072739650602252"><ele>110.0</ele><time>2026-04-10T15:06:43Z</time></trkpt><trkpt lat="45.413629264230295" lon="9.072692511731415"><ele>110.0</ele><time>2026-04-10T15:06:44Z</time></trkpt><trkpt lat="45.413745663879354" lon="9.072644719704185"><ele>110.0</ele><time>2026-04-10T15:06:45Z</time></trkpt><trkpt lat="45.41385659914416" lon="9.07259917129868"><ele>110.0</ele><time>2026-04-10T15:06:46Z</time></trkpt><trkpt lat="45.41397035769382" lon="9.072559698163856"><ele>111.0</ele><time>2026-04-10T15:06:47Z</time></trkpt><trkpt lat="45.41409180743456" lon="9.072518854648777"><ele>112.0</ele><time>2026-04-10T15:06:48Z</time></trkpt><trkpt lat="45.41422063029028" lon="9.072449306583664"><ele>113.0</ele><time>2026-04-10T15:06:49Z</time></trkpt><trkpt lat="45.41434786304635" lon="9.072408058232957"><ele>114.0</ele><time>2026-04-10T15:06:50Z</time></trkpt><trkpt lat="45.41445981285624" lon="9.072363934503858"><ele>114.0</ele><time>2026-04-10T15:06:51Z</time></trkpt><trkpt lat="45.41457294714682" lon="9.072317223952899"><ele>114.0</ele><time>2026-04-10T15:06:52Z</time></trkpt><trkpt lat="45.414679670222284" lon="9.07226679028261"><ele>114.0</ele><time>2026-04-10T15:06:53Z</time></trkpt><trkpt lat="45.41480518780175" lon="9.072202981118235"><ele>114.0</ele><time>2026-04-10T15:06:54Z</time></trkpt><trkpt lat="45.41495443870126" lon="9.072137690458034"><ele>113.5</ele><time>2026-04-10T15:06:55Z</time></trkpt><trkpt lat="45.41509921381604" lon="9.072079247601112"><ele>113.0</ele><time>2026-04-10T15:06:56Z</time></trkpt><trkpt lat="45.41523915276317" lon="9.072020449307695"><ele>112.5</ele><time>2026-04-10T15:06:57Z</time></trkpt><trkpt lat="45.41538309887595" lon="9.071961285077085"><ele>112.0</ele><time>2026-04-10T15:06:58Z</time></trkpt><trkpt lat="45.41551068315975" lon="9.071900256192553"><ele>112.0</ele><time>2026-04-10T15:06:59Z</time></trkpt><trkpt lat="45.41563437063829" lon="9.071834568849695"><ele>112.0</ele><time>2026-04-10T15:07:00Z</time></trkpt><trkpt lat="45.415744448461005" lon="9.07176040205841"><ele>112.0</ele><time>2026-04-10T15:07:01Z</time></trkpt><trkpt lat="45.41583952897617" lon="9.07168038548833"><ele>112.0</ele><time>2026-04-10T15:07:02Z</time></trkpt><trkpt lat="45.4159292510329" lon="9.071595808499362"><ele>112.00000000000001</ele><time>2026-04-10T15:07:03Z</time></trkpt><trkpt lat="45.41601104287198" lon="9.071512562438231"><ele>112.0</ele><time>2026-04-10T15:07:04Z</time></trkpt><trkpt lat="45.416077675457494" lon="9.071433565333068"><ele>112.0</ele><time>2026-04-10T15:07:05Z</time></trkpt><trkpt lat="45.4161285365286" lon="9.071361886985507"><ele>112.0</ele><time>2026-04-10T15:07:06Z</time></trkpt><trkpt lat="45.41619413610963" lon="9.07126881077511"><ele>112.00000000000001</ele><time>2026-04-10T15:07:07Z</time></trkpt><trkpt lat="45.416240769857325" lon="9.07118454342928"><ele>112.0</ele><time>2026-04-10T15:07:08Z</time></trkpt><trkpt lat="45.41630596837307" lon="9.071117239683687"><ele>112.19999999999999</ele><time>2026-04-10T15:07:09Z</time></trkpt><trkpt lat="45.41636882767241" lon="9.071024441636832"><ele>112.39999999999999</ele><time>2026-04-10T15:07:10Z</time></trkpt><trkpt lat="45.41646521591111" lon="9.070882145475842"><ele>112.60000000000001</ele><time>2026-04-10T15:07:12Z</time></trkpt><trkpt lat="45.41651571319167" lon="9.070807588957823"><ele>112.80000000000001</ele><time>2026-04-10T15:07:13Z</time></trkpt><trkpt lat="45.4165746374335" lon="9.070694660051362"><ele>113.0</ele><time>2026-04-10T15:07:14Z</time></trkpt><trkpt lat="45.416667211627725" lon="9.070564244373262"><ele>113.0</ele><time>2026-04-10T15:07:15Z</time></trkpt><trkpt lat="45.416747253900425" lon="9.070456417005616"><ele>113.00000000000001</ele><time>2026-04-10T15:07:16Z</time></trkpt><trkpt lat="45.41683040289084" lon="9.070396842834255"><ele>113.00000000000001</ele><time>2026-04-10T15:07:17Z</time></trkpt><trkpt lat="45.4168965009452" lon="9.070343950870845"><ele>113.0</ele><time>2026-04-10T15:07:18Z</time></trkpt><trkpt lat="45.41699050239062" lon="9.070280301841843"><ele>113.0</ele><time>2026-04-10T15:07:20Z</time></trkpt><trkpt lat="45.41707575886967" lon="9.07027559510284"><ele>113.80000000000001</ele><time>2026-04-10T15:07:22Z</time></trkpt><trkpt lat="45.41715994310096" lon="9.070257444704236"><ele>114.60000000000001</ele><time>2026-04-10T15:07:42Z</time></trkpt><trkpt lat="45.41722793393166" lon="9.070402451644814"><ele>115.39999999999999</ele><time>2026-04-10T15:07:43Z</time></trkpt><trkpt lat="45.41726087741786" lon="9.070529924887847"><ele>116.19999999999999</ele><time>2026-04-10T15:07:44Z</time></trkpt><trkpt lat="45.41731053603987" lon="9.070699260101488"><ele>117.0</ele><time>2026-04-10T15:07:45Z</time></trkpt><trkpt lat="45.41736786494156" lon="9.070901731868755"><ele>116.75</ele><time>2026-04-10T15:07:46Z</time></trkpt><trkpt lat="45.417422536957915" lon="9.071099377102822"><ele>116.5</ele><time>2026-04-10T15:07:47Z</time></trkpt><trkpt lat="45.41747399506939" lon="9.071278047960675"><ele>116.25</ele><time>2026-04-10T15:07:48Z</time></trkpt><trkpt lat="45.417531801608455" lon="9.071443307439552"><ele>116.0</ele><time>2026-04-10T15:07:49Z</time></trkpt><trkpt lat="45.41758511031024" lon="9.071608027197108"><ele>116.0</ele><time>2026-04-10T15:07:50Z</time></trkpt><trkpt lat="45.41763471937797" lon="9.071744980334083"><ele>116.0</ele><time>2026-04-10T15:07:51Z</time></trkpt><trkpt lat="45.41768228097928" lon="9.071873080689295"><ele>116.0</ele><time>2026-04-10T15:07:52Z</time></trkpt><trkpt lat="45.4177410148423" lon="9.072004358331345"><ele>116.0</ele><time>2026-04-10T15:07:53Z</time></trkpt><trkpt lat="45.417825608058216" lon="9.072153000778085"><ele>116.0</ele><time>2026-04-10T15:07:54Z</time></trkpt><trkpt lat="45.417900139687305" lon="9.07228182541426"><ele>116.0</ele><time>2026-04-10T15:07:55Z</time></trkpt><trkpt lat="45.41796029784977" lon="9.07238110365"><ele>116.0</ele><time>2026-04-10T15:07:56Z</time></trkpt><trkpt lat="45.41803359652886" lon="9.072483240948484"><ele>116.0</ele><time>2026-04-10T15:07:58Z</time></trkpt><trkpt lat="45.41808104006422" lon="9.072548081093327"><ele>116.0</ele><time>2026-04-10T15:08:00Z</time></trkpt><trkpt lat="45.418152449634455" lon="9.07262479848877"><ele>115.83333333333333</ele><time>2026-04-10T15:08:02Z</time></trkpt><trkpt lat="45.41824618128151" lon="9.072725278228083"><ele>115.66666666666666</ele><time>2026-04-10T15:08:04Z</time></trkpt><trkpt lat="45.41830401812383" lon="9.072779586923348"><ele>115.5</ele><time>2026-04-10T15:08:05Z</time></trkpt><trkpt lat="45.41837253389345" lon="9.072835672776588"><ele>115.33333333333334</ele><time>2026-04-10T15:08:06Z</time></trkpt><trkpt lat="45.41843311229568" lon="9.07288447916751"><ele>115.16666666666667</ele><time>2026-04-10T15:08:07Z</time></trkpt><trkpt lat="45.418500418602044" lon="9.072927139893963"><ele>115.0</ele><time>2026-04-10T15:08:09Z</time></trkpt><trkpt lat="45.4185976024495" lon="9.072995862038667"><ele>115.00000000000001</ele><time>2026-04-10T15:08:11Z</time></trkpt><trkpt lat="45.41865808427977" lon="9.07305019423218"><ele>115.0</ele><time>2026-04-10T15:08:12Z</time></trkpt><trkpt lat="45.418715079246866" lon="9.073093650288314"><ele>115.0</ele><time>2026-04-10T15:08:13Z</time></trkpt><trkpt lat="45.418771436690584" lon="9.073137495833999"><ele>115.0</ele><time>2026-04-10T15:08:14Z</time></trkpt><trkpt lat="45.41883097011747" lon="9.073178035221295"><ele>115.00000000000001</ele><time>2026-04-10T15:08:15Z</time></trkpt><trkpt lat="45.41897673022619" lon="9.07321364941975"><ele>115.0</ele><time>2026-04-10T15:08:17Z</time></trkpt><trkpt lat="45.4190969946365" lon="9.073249962967536"><ele>114.5</ele><time>2026-04-10T15:08:18Z</time></trkpt><trkpt lat="45.419218550669626" lon="9.073317464117212"><ele>114.0</ele><time>2026-04-10T15:08:19Z</time></trkpt><trkpt lat="45.419333812948096" lon="9.073395446403984"><ele>113.5</ele><time>2026-04-10T15:08:20Z</time></trkpt><trkpt lat="45.41946896717856" lon="9.073519094053974"><ele>113.0</ele><time>2026-04-10T15:08:21Z</time></trkpt><trkpt lat="45.419607749530805" lon="9.073670274824751"><ele>113.0</ele><time>2026-04-10T15:08:22Z</time></trkpt><trkpt lat="45.41974964476159" lon="9.07382815429184"><ele>113.0</ele><time>2026-04-10T15:08:23Z</time></trkpt><trkpt lat="45.419880661715034" lon="9.074002184625835"><ele>113.0</ele><time>2026-04-10T15:08:24Z</time></trkpt><trkpt lat="45.41998868323894" lon="9.07418331045037"><ele>113.33333333333333</ele><time>2026-04-10T15:08:25Z</time></trkpt><trkpt lat="45.42008428729733" lon="9.074368128303908"><ele>113.66666666666666</ele><time>2026-04-10T15:08:26Z</time></trkpt><trkpt lat="45.42018171796015" lon="9.074565518187798"><ele>114.0</ele><time>2026-04-10T15:08:27Z</time></trkpt><trkpt lat="45.420266718002544" lon="9.074731490214521"><ele>114.0</ele><time>2026-04-10T15:08:28Z</time></trkpt><trkpt lat="45.42037726579849" lon="9.074930783352025"><ele>114.0</ele><time>2026-04-10T15:08:29Z</time></trkpt><trkpt lat="45.420484887687266" lon="9.075145467035352"><ele>114.0</ele><time>2026-04-10T15:08:30Z</time></trkpt><trkpt lat="45.42059927482961" lon="9.075385264990668"><ele>113.66666666666666</ele><time>2026-04-10T15:08:31Z</time></trkpt><trkpt lat="45.42070729431988" lon="9.075625948422317"><ele>113.33333333333333</ele><time>2026-04-10T15:08:32Z</time></trkpt><trkpt lat="45.4208229230549" lon="9.075867147493426"><ele>113.0</ele><time>2026-04-10T15:08:33Z</time></trkpt><trkpt lat="45.42094046223137" lon="9.076095143424896"><ele>113.0</ele><time>2026-04-10T15:08:34Z</time></trkpt><trkpt lat="45.42104943791325" lon="9.076304708846802"><ele>113.0</ele><time>2026-04-10T15:08:35Z</time></trkpt><trkpt lat="45.4211580015155" lon="9.07651781235944"><ele>113.0</ele><time>2026-04-10T15:08:36Z</time></trkpt><trkpt lat="45.42127503828477" lon="9.076747550327733"><ele>113.33333333333333</ele><time>2026-04-10T15:08:37Z</time></trkpt><trkpt lat="45.42139838299078" lon="9.07699080304847"><ele>113.66666666666666</ele><time>2026-04-10T15:08:38Z</time></trkpt><trkpt lat="45.42151587528572" lon="9.077229812678594"><ele>114.0</ele><time>2026-04-10T15:08:39Z</time></trkpt><trkpt lat="45.421615964522886" lon="9.077444741566248"><ele>114.33333333333334</ele><time>2026-04-10T15:08:40Z</time></trkpt><trkpt lat="45.421715344683435" lon="9.077648290114082"><ele>114.66666666666667</ele><time>2026-04-10T15:08:41Z</time></trkpt><trkpt lat="45.421805059354625" lon="9.07782942895747"><ele>115.0</ele><time>2026-04-10T15:08:42Z</time></trkpt><trkpt lat="45.421898337073515" lon="9.07801972966941"><ele>115.0</ele><time>2026-04-10T15:08:43Z</time></trkpt><trkpt lat="45.42197537629083" lon="9.078183948326805"><ele>115.0</ele><time>2026-04-10T15:08:44Z</time></trkpt><trkpt lat="45.42205678313238" lon="9.07835268061731"><ele>115.0</ele><time>2026-04-10T15:08:45Z</time></trkpt><trkpt lat="45.42212970971721" lon="9.078509193180993"><ele>115.0</ele><time>2026-04-10T15:08:46Z</time></trkpt><trkpt lat="45.42219695153882" lon="9.078659316823508"><ele>114.75</ele><time>2026-04-10T15:08:47Z</time></trkpt><trkpt lat="45.42225945906683" lon="9.07880361727836"><ele>114.5</ele><time>2026-04-10T15:08:48Z</time></trkpt><trkpt lat="45.422316797294094" lon="9.078939960598811"><ele>114.25</ele><time>2026-04-10T15:08:49Z</time></trkpt><trkpt lat="45.42237799569568" lon="9.079081867804087"><ele>114.0</ele><time>2026-04-10T15:08:50Z</time></trkpt><trkpt lat="45.42244928238819" lon="9.079231133772895"><ele>114.5</ele><time>2026-04-10T15:08:51Z</time></trkpt><trkpt lat="45.42253179182811" lon="9.079397596432326"><ele>115.0</ele><time>2026-04-10T15:08:52Z</time></trkpt><trkpt lat="45.42261632470283" lon="9.079570294026883"><ele>115.5</ele><time>2026-04-10T15:08:53Z</time></trkpt><trkpt lat="45.422697091903686" lon="9.07974458096695"><ele>116.0</ele><time>2026-04-10T15:08:54Z</time></trkpt><trkpt lat="45.42276384625559" lon="9.079895779746685"><ele>116.0</ele><time>2026-04-10T15:08:55Z</time></trkpt><trkpt lat="45.42281075768964" lon="9.080006691264126"><ele>116.0</ele><time>2026-04-10T15:08:56Z</time></trkpt><trkpt lat="45.422843318932586" lon="9.080128660695982"><ele>116.0</ele><time>2026-04-10T15:08:57Z</time></trkpt><trkpt lat="45.42289340498237" lon="9.080227645818102"><ele>116.0</ele><time>2026-04-10T15:08:58Z</time></trkpt><trkpt lat="45.42276725772092" lon="9.080447123039196"><ele>116.0</ele><time>2026-04-10T15:09:00Z</time></trkpt><trkpt lat="45.422671306271184" lon="9.080524792821429"><ele>116.0</ele><time>2026-04-10T15:09:01Z</time></trkpt><trkpt lat="45.422557109555015" lon="9.08058113511126"><ele>116.0</ele><time>2026-04-10T15:09:02Z</time></trkpt><trkpt lat="45.42242222757997" lon="9.08064031706818"><ele>116.0</ele><time>2026-04-10T15:09:03Z</time></trkpt><trkpt lat="45.42227514501884" lon="9.080717784320411"><ele>116.33333333333333</ele><time>2026-04-10T15:09:04Z</time></trkpt><trkpt lat="45.42210964511459" lon="9.080814242883681"><ele>116.66666666666666</ele><time>2026-04-10T15:09:05Z</time></trkpt><trkpt lat="45.42195113461625" lon="9.08090577015641"><ele>117.0</ele><time>2026-04-10T15:09:06Z</time></trkpt><trkpt lat="45.42178658067905" lon="9.081004997495954"><ele>117.0</ele><time>2026-04-10T15:09:07Z</time></trkpt><trkpt lat="45.42164346963121" lon="9.081088842206581"><ele>117.0</ele><time>2026-04-10T15:09:08Z</time></trkpt><trkpt lat="45.42151160945325" lon="9.08116595579343"><ele>117.0</ele><time>2026-04-10T15:09:09Z</time></trkpt><trkpt lat="45.42135716301835" lon="9.081254088409354"><ele>116.66666666666666</ele><time>2026-04-10T15:09:10Z</time></trkpt><trkpt lat="45.42119576429052" lon="9.081346054741985"><ele>116.33333333333333</ele><time>2026-04-10T15:09:11Z</time></trkpt><trkpt lat="45.42103631774056" lon="9.081444571209117"><ele>116.0</ele><time>2026-04-10T15:09:12Z</time></trkpt><trkpt lat="45.420880781413175" lon="9.081552042547166"><ele>116.0</ele><time>2026-04-10T15:09:13Z</time></trkpt><trkpt lat="45.42073213303009" lon="9.081700970716238"><ele>116.0</ele><time>2026-04-10T15:09:14Z</time></trkpt><trkpt lat="45.420608493143135" lon="9.081875233824999"><ele>116.0</ele><time>2026-04-10T15:09:15Z</time></trkpt><trkpt lat="45.420509802191454" lon="9.08205940483988"><ele>115.5</ele><time>2026-04-10T15:09:16Z</time></trkpt><trkpt lat="45.42042668325952" lon="9.0822220902081"><ele>115.0</ele><time>2026-04-10T15:09:17Z</time></trkpt><trkpt lat="45.4203438601704" lon="9.082370621108906"><ele>114.5</ele><time>2026-04-10T15:09:18Z</time></trkpt><trkpt lat="45.42025529413356" lon="9.082507813364218"><ele>114.0</ele><time>2026-04-10T15:09:19Z</time></trkpt><trkpt lat="45.4201700456902" lon="9.082613917365148"><ele>113.80000000000001</ele><time>2026-04-10T15:09:20Z</time></trkpt><trkpt lat="45.42008411372261" lon="9.082691951305637"><ele>113.60000000000001</ele><time>2026-04-10T15:09:21Z</time></trkpt><trkpt lat="45.41999639458291" lon="9.082733738363318"><ele>113.4</ele><time>2026-04-10T15:09:22Z</time></trkpt><trkpt lat="45.41991045886486" lon="9.082732568287103"><ele>113.2</ele><time>2026-04-10T15:09:23Z</time></trkpt><trkpt lat="45.41983634091328" lon="9.08266553408054"><ele>113.0</ele><time>2026-04-10T15:09:24Z</time></trkpt><trkpt lat="45.41978125376242" lon="9.08255877327304"><ele>113.0</ele><time>2026-04-10T15:09:25Z</time></trkpt><trkpt lat="45.419761408270254" lon="9.082433878387208"><ele>113.00000000000001</ele><time>2026-04-10T15:09:26Z</time></trkpt><trkpt lat="45.41978915188953" lon="9.082313884786837"><ele>113.00000000000001</ele><time>2026-04-10T15:09:27Z</time></trkpt><trkpt lat="45.41985576104204" lon="9.082205774430761"><ele>113.0</ele><time>2026-04-10T15:09:28Z</time></trkpt><trkpt lat="45.419945431916034" lon="9.082109831014675"><ele>113.0</ele><time>2026-04-10T15:09:29Z</time></trkpt><trkpt lat="45.42005226460308" lon="9.082006643363979"><ele>113.33333333333333</ele><time>2026-04-10T15:09:30Z</time></trkpt><trkpt lat="45.420186431783186" lon="9.081885930359487"><ele>113.66666666666666</ele><time>2026-04-10T15:09:31Z</time></trkpt><trkpt lat="45.4203229300769" lon="9.08176631759845"><ele>114.0</ele><time>2026-04-10T15:09:32Z</time></trkpt><trkpt lat="45.42046789243413" lon="9.08164022945713"><ele>114.5</ele><time>2026-04-10T15:09:33Z</time></trkpt><trkpt lat="45.42059302669744" lon="9.081529104588093"><ele>115.0</ele><time>2026-04-10T15:09:34Z</time></trkpt><trkpt lat="45.42071400893013" lon="9.081412018878494"><ele>115.5</ele><time>2026-04-10T15:09:35Z</time></trkpt><trkpt lat="45.42082904765477" lon="9.081298608476757"><ele>116.0</ele><time>2026-04-10T15:09:36Z</time></trkpt><trkpt lat="45.42093611344026" lon="9.081207651081117"><ele>116.0</ele><time>2026-04-10T15:09:37Z</time></trkpt><trkpt lat="45.42104394528515" lon="9.081123925526867"><ele>116.0</ele><time>2026-04-10T15:09:38Z</time></trkpt><trkpt lat="45.42114911550527" lon="9.081045238646565"><ele>116.0</ele><time>2026-04-10T15:09:39Z</time></trkpt><trkpt lat="45.42124223340727" lon="9.080980043497483"><ele>116.0</ele><time>2026-04-10T15:09:40Z</time></trkpt><trkpt lat="45.42132045395282" lon="9.08092659875295"><ele>116.0</ele><time>2026-04-10T15:09:41Z</time></trkpt><trkpt lat="45.42138412411342" lon="9.080873603655569"><ele>116.19999999999999</ele><time>2026-04-10T15:09:42Z</time></trkpt><trkpt lat="45.42143822511905" lon="9.080821113642473"><ele>116.39999999999999</ele><time>2026-04-10T15:09:43Z</time></trkpt><trkpt lat="45.421545027872135" lon="9.080717184569192"><ele>116.6</ele><time>2026-04-10T15:09:45Z</time></trkpt><trkpt lat="45.4216244448403" lon="9.080664885743753"><ele>116.8</ele><time>2026-04-10T15:09:46Z</time></trkpt><trkpt lat="45.421710238503614" lon="9.080610597482847"><ele>117.0</ele><time>2026-04-10T15:09:47Z</time></trkpt><trkpt lat="45.42178347043262" lon="9.080569957090017"><ele>117.0</ele><time>2026-04-10T15:09:48Z</time></trkpt><trkpt lat="45.42185487531839" lon="9.080522788269407"><ele>116.99999999999999</ele><time>2026-04-10T15:09:49Z</time></trkpt><trkpt lat="45.42191988427949" lon="9.080485129954756"><ele>116.99999999999999</ele><time>2026-04-10T15:09:50Z</time></trkpt><trkpt lat="45.42200529454993" lon="9.08044203423942"><ele>117.0</ele><time>2026-04-10T15:09:51Z</time></trkpt><trkpt lat="45.422102252823514" lon="9.080374864881017"><ele>117.0</ele><time>2026-04-10T15:09:52Z</time></trkpt><trkpt lat="45.42220722781764" lon="9.080307955163528"><ele>116.75</ele><time>2026-04-10T15:09:53Z</time></trkpt><trkpt lat="45.42230189327538" lon="9.080247243895231"><ele>116.5</ele><time>2026-04-10T15:09:54Z</time></trkpt><trkpt lat="45.422413915187235" lon="9.080174024516905"><ele>116.25</ele><time>2026-04-10T15:09:55Z</time></trkpt><trkpt lat="45.42254076535963" lon="9.080094885742422"><ele>116.0</ele><time>2026-04-10T15:09:56Z</time></trkpt><trkpt lat="45.42268480480321" lon="9.08001967736576"><ele>116.0</ele><time>2026-04-10T15:09:57Z</time></trkpt><trkpt lat="45.42281986285734" lon="9.079936335921706"><ele>116.0</ele><time>2026-04-10T15:09:58Z</time></trkpt><trkpt lat="45.42296915093478" lon="9.079823412941101"><ele>116.0</ele><time>2026-04-10T15:09:59Z</time></trkpt><trkpt lat="45.42311030207128" lon="9.07974114051025"><ele>115.25</ele><time>2026-04-10T15:10:00Z</time></trkpt><trkpt lat="45.423257326381496" lon="9.079653787166649"><ele>114.5</ele><time>2026-04-10T15:10:01Z</time></trkpt><trkpt lat="45.423399539994094" lon="9.079569571246411"><ele>113.75</ele><time>2026-04-10T15:10:02Z</time></trkpt><trkpt lat="45.42350031622244" lon="9.079512099413646"><ele>113.0</ele><time>2026-04-10T15:10:03Z</time></trkpt><trkpt lat="45.42362922606749" lon="9.079424817323453"><ele>113.0</ele><time>2026-04-10T15:10:04Z</time></trkpt><trkpt lat="45.42376076889643" lon="9.07933043474705"><ele>113.0</ele><time>2026-04-10T15:10:05Z</time></trkpt><trkpt lat="45.42388554880693" lon="9.079262917443167"><ele>113.0</ele><time>2026-04-10T15:10:06Z</time></trkpt><trkpt lat="45.42400652602085" lon="9.079195112632824"><ele>113.0</ele><time>2026-04-10T15:10:07Z</time></trkpt><trkpt lat="45.42411607108519" lon="9.079131045219487"><ele>113.4</ele><time>2026-04-10T15:10:08Z</time></trkpt><trkpt lat="45.42421961208111" lon="9.079069166268592"><ele>113.80000000000001</ele><time>2026-04-10T15:10:09Z</time></trkpt><trkpt lat="45.424312538273426" lon="9.079009002286048"><ele>114.2</ele><time>2026-04-10T15:10:10Z</time></trkpt><trkpt lat="45.42439081389434" lon="9.078958324678736"><ele>114.6</ele><time>2026-04-10T15:10:11Z</time></trkpt><trkpt lat="45.42446215751186" lon="9.07891609850051"><ele>115.0</ele><time>2026-04-10T15:10:12Z</time></trkpt><trkpt lat="45.42454683414085" lon="9.078863270883538"><ele>115.00000000000001</ele><time>2026-04-10T15:10:14Z</time></trkpt><trkpt lat="45.42464073008132" lon="9.078802444112293"><ele>115.0</ele><time>2026-04-10T15:10:17Z</time></trkpt><trkpt lat="45.424697466625" lon="9.078756810661462"><ele>115.0</ele><time>2026-04-10T15:10:19Z</time></trkpt><trkpt lat="45.42477555527301" lon="9.078717866709793"><ele>115.0</ele><time>2026-04-10T15:10:24Z</time></trkpt><trkpt lat="45.42485805427844" lon="9.07866568949742"><ele>115.00000000000001</ele><time>2026-04-10T15:10:26Z</time></trkpt><trkpt lat="45.42494764792827" lon="9.078608040050572"><ele>115.0</ele><time>2026-04-10T15:10:28Z</time></trkpt><trkpt lat="45.42501068821518" lon="9.078566318432484"><ele>115.66666666666667</ele><time>2026-04-10T15:10:29Z</time></trkpt><trkpt lat="45.42508100845663" lon="9.07852918851876"><ele>116.33333333333334</ele><time>2026-04-10T15:10:30Z</time></trkpt><trkpt lat="45.42515339690103" lon="9.078486521179324"><ele>117.0</ele><time>2026-04-10T15:10:31Z</time></trkpt><trkpt lat="45.42521585092416" lon="9.078445739737315"><ele>117.66666666666666</ele><time>2026-04-10T15:10:32Z</time></trkpt><trkpt lat="45.425324019092265" lon="9.078377538137334"><ele>118.33333333333333</ele><time>2026-04-10T15:10:34Z</time></trkpt><trkpt lat="45.42538414973803" lon="9.078341597773745"><ele>119.0</ele><time>2026-04-10T15:10:35Z</time></trkpt><trkpt lat="45.425450739971446" lon="9.07830180782531"><ele>118.75</ele><time>2026-04-10T15:10:36Z</time></trkpt><trkpt lat="45.42552977048319" lon="9.078251972679634"><ele>118.5</ele><time>2026-04-10T15:10:37Z</time></trkpt><trkpt lat="45.42563233056748" lon="9.078201868689803"><ele>118.25</ele><time>2026-04-10T15:10:38Z</time></trkpt><trkpt lat="45.42575456957996" lon="9.078130791625728"><ele>118.0</ele><time>2026-04-10T15:10:39Z</time></trkpt><trkpt lat="45.425877204756375" lon="9.07805208920933"><ele>118.0</ele><time>2026-04-10T15:10:40Z</time></trkpt><trkpt lat="45.426011053062794" lon="9.077952146746679"><ele>118.0</ele><time>2026-04-10T15:10:41Z</time></trkpt><trkpt lat="45.42614380513982" lon="9.077848278710807"><ele>118.0</ele><time>2026-04-10T15:10:42Z</time></trkpt><trkpt lat="45.42627086768574" lon="9.077758522401595"><ele>118.0</ele><time>2026-04-10T15:10:43Z</time></trkpt><trkpt lat="45.42637637636289" lon="9.077698888764306"><ele>118.5</ele><time>2026-04-10T15:10:44Z</time></trkpt><trkpt lat="45.42648402856729" lon="9.077655112086891"><ele>119.0</ele><time>2026-04-10T15:10:45Z</time></trkpt><trkpt lat="45.42659349823041" lon="9.077593198123319"><ele>119.5</ele><time>2026-04-10T15:10:46Z</time></trkpt><trkpt lat="45.426712329179416" lon="9.077517258432781"><ele>120.0</ele><time>2026-04-10T15:10:47Z</time></trkpt><trkpt lat="45.426821654237784" lon="9.077450486390955"><ele>119.75</ele><time>2026-04-10T15:10:48Z</time></trkpt><trkpt lat="45.42691687631267" lon="9.077388401796133"><ele>119.5</ele><time>2026-04-10T15:10:49Z</time></trkpt><trkpt lat="45.42701540038991" lon="9.077328463612377"><ele>119.25</ele><time>2026-04-10T15:10:50Z</time></trkpt><trkpt lat="45.427121666015736" lon="9.077264157180123"><ele>119.0</ele><time>2026-04-10T15:10:51Z</time></trkpt><trkpt lat="45.42723461447895" lon="9.077196239343321"><ele>118.99999999999999</ele><time>2026-04-10T15:10:52Z</time></trkpt><trkpt lat="45.42732550982029" lon="9.077141707680079"><ele>119.0</ele><time>2026-04-10T15:10:53Z</time></trkpt><trkpt lat="45.427397526809195" lon="9.077096035272763"><ele>119.0</ele><time>2026-04-10T15:10:54Z</time></trkpt><trkpt lat="45.42746171493909" lon="9.077059032427044"><ele>119.0</ele><time>2026-04-10T15:10:55Z</time></trkpt><trkpt lat="45.4275494910254" lon="9.077001803371502"><ele>118.99999999999999</ele><time>2026-04-10T15:10:57Z</time></trkpt><trkpt lat="45.427643611415604" lon="9.076943201868549"><ele>119.0</ele><time>2026-04-10T15:10:59Z</time></trkpt><trkpt lat="45.427712959921394" lon="9.076900942599712"><ele>119.0</ele><time>2026-04-10T15:11:00Z</time></trkpt><trkpt lat="45.427778589180505" lon="9.076859259400155"><ele>119.0</ele><time>2026-04-10T15:11:01Z</time></trkpt><trkpt lat="45.427840587316105" lon="9.076822748188405"><ele>119.0</ele><time>2026-04-10T15:11:02Z</time></trkpt><trkpt lat="45.42789859350589" lon="9.076786174296437"><ele>119.0</ele><time>2026-04-10T15:11:03Z</time></trkpt><trkpt lat="45.42795964584651" lon="9.076749904558467"><ele>119.0</ele><time>2026-04-10T15:11:04Z</time></trkpt><trkpt lat="45.428028151546684" lon="9.076706396148483"><ele>119.0</ele><time>2026-04-10T15:11:05Z</time></trkpt><trkpt lat="45.42811956469951" lon="9.076651749034868"><ele>119.0</ele><time>2026-04-10T15:11:06Z</time></trkpt><trkpt lat="45.428232616690536" lon="9.076580485591435"><ele>118.0</ele><time>2026-04-10T15:11:07Z</time></trkpt><trkpt lat="45.4283464153009" lon="9.076502747863078"><ele>117.0</ele><time>2026-04-10T15:11:08Z</time></trkpt><trkpt lat="45.42845664599035" lon="9.076434565401172"><ele>116.0</ele><time>2026-04-10T15:11:09Z</time></trkpt><trkpt lat="45.42856241569209" lon="9.07637206982728"><ele>115.0</ele><time>2026-04-10T15:11:10Z</time></trkpt><trkpt lat="45.42865781684423" lon="9.076318300238785"><ele>115.0</ele><time>2026-04-10T15:11:11Z</time></trkpt><trkpt lat="45.42874889461486" lon="9.076268373756553"><ele>115.0</ele><time>2026-04-10T15:11:12Z</time></trkpt><trkpt lat="45.4288401391032" lon="9.076214202155025"><ele>115.0</ele><time>2026-04-10T15:11:13Z</time></trkpt><trkpt lat="45.42892928269848" lon="9.076159450388179"><ele>115.0</ele><time>2026-04-10T15:11:14Z</time></trkpt><trkpt lat="45.42900410258782" lon="9.07611841984626"><ele>115.0</ele><time>2026-04-10T15:11:15Z</time></trkpt><trkpt lat="45.42908476868511" lon="9.076072906555854"><ele>115.50000000000001</ele><time>2026-04-10T15:11:16Z</time></trkpt><trkpt lat="45.429165332364995" lon="9.076025284251081"><ele>116.0</ele><time>2026-04-10T15:11:17Z</time></trkpt><trkpt lat="45.42924739771467" lon="9.075984619226922"><ele>116.5</ele><time>2026-04-10T15:11:18Z</time></trkpt><trkpt lat="45.42933154702906" lon="9.075940486578046"><ele>117.0</ele><time>2026-04-10T15:11:19Z</time></trkpt><trkpt lat="45.429407077080256" lon="9.075895715774674"><ele>117.50000000000001</ele><time>2026-04-10T15:11:20Z</time></trkpt><trkpt lat="45.42949637048761" lon="9.075843381971366"><ele>118.0</ele><time>2026-04-10T15:11:21Z</time></trkpt><trkpt lat="45.42960264496471" lon="9.075794432659038"><ele>117.75</ele><time>2026-04-10T15:11:22Z</time></trkpt><trkpt lat="45.42971098375623" lon="9.075741352022929"><ele>117.5</ele><time>2026-04-10T15:11:23Z</time></trkpt><trkpt lat="45.429827329519775" lon="9.075685855846935"><ele>117.25</ele><time>2026-04-10T15:11:24Z</time></trkpt><trkpt lat="45.42995205980749" lon="9.075631394646454"><ele>117.0</ele><time>2026-04-10T15:11:25Z</time></trkpt><trkpt lat="45.43007456946494" lon="9.07557023876794"><ele>117.0</ele><time>2026-04-10T15:11:26Z</time></trkpt><trkpt lat="45.430189366255185" lon="9.075516321696941"><ele>116.99999999999999</ele><time>2026-04-10T15:11:27Z</time></trkpt><trkpt lat="45.430296419891604" lon="9.075470563356928"><ele>116.99999999999999</ele><time>2026-04-10T15:11:28Z</time></trkpt><trkpt lat="45.430395589452594" lon="9.075430338017295"><ele>117.0</ele><time>2026-04-10T15:11:29Z</time></trkpt><trkpt lat="45.43047776323563" lon="9.075397171387563"><ele>117.0</ele><time>2026-04-10T15:11:30Z</time></trkpt><trkpt lat="45.430584819396685" lon="9.07535080308386"><ele>116.8</ele><time>2026-04-10T15:11:32Z</time></trkpt><trkpt lat="45.430703391106064" lon="9.075298571793429"><ele>116.6</ele><time>2026-04-10T15:11:34Z</time></trkpt><trkpt lat="45.4308316650701" lon="9.07524979657057"><ele>116.39999999999999</ele><time>2026-04-10T15:11:36Z</time></trkpt><trkpt lat="45.430911379420884" lon="9.07522800915878"><ele>116.19999999999999</ele><time>2026-04-10T15:11:37Z</time></trkpt><trkpt lat="45.43099459066227" lon="9.075198894548947"><ele>116.0</ele><time>2026-04-10T15:11:38Z</time></trkpt><trkpt lat="45.43107261721082" lon="9.075170574369999"><ele>115.99999999999999</ele><time>2026-04-10T15:11:39Z</time></trkpt><trkpt lat="45.43113848942951" lon="9.075146928650689"><ele>116.0</ele><time>2026-04-10T15:11:40Z</time></trkpt><trkpt lat="45.43124446810704" lon="9.075121311725225"><ele>116.0</ele><time>2026-04-10T15:11:42Z</time></trkpt><trkpt lat="45.43134260935822" lon="9.075079327419566"><ele>116.0</ele><time>2026-04-10T15:11:44Z</time></trkpt><trkpt lat="45.431409117048204" lon="9.07505388044995"><ele>115.99999999999999</ele><time>2026-04-10T15:11:46Z</time></trkpt><trkpt lat="45.43149063285661" lon="9.075031693252297"><ele>116.0</ele><time>2026-04-10T15:11:48Z</time></trkpt><trkpt lat="45.43158150507076" lon="9.075000907909482"><ele>116.0</ele><time>2026-04-10T15:11:50Z</time></trkpt><trkpt lat="45.43164710749091" lon="9.074986277731357"><ele>116.0</ele><time>2026-04-10T15:11:51Z</time></trkpt><trkpt lat="45.431774052829574" lon="9.074956710806683"><ele>116.0</ele><time>2026-04-10T15:11:53Z</time></trkpt><trkpt lat="45.43187132889414" lon="9.074927031349574"><ele>116.0</ele><time>2026-04-10T15:11:54Z</time></trkpt><trkpt lat="45.43198490504342" lon="9.07489661129721"><ele>116.0</ele><time>2026-04-10T15:11:55Z</time></trkpt><trkpt lat="45.43211100430294" lon="9.074869440338336"><ele>115.5</ele><time>2026-04-10T15:11:56Z</time></trkpt><trkpt lat="45.43224202539374" lon="9.074837067382534"><ele>115.0</ele><time>2026-04-10T15:11:57Z</time></trkpt><trkpt lat="45.4323801274593" lon="9.074803014649055"><ele>114.5</ele><time>2026-04-10T15:11:58Z</time></trkpt><trkpt lat="45.43253331657717" lon="9.07477556899978"><ele>114.0</ele><time>2026-04-10T15:11:59Z</time></trkpt><trkpt lat="45.4326741586117" lon="9.074748315587266"><ele>114.0</ele><time>2026-04-10T15:12:00Z</time></trkpt><trkpt lat="45.43280898441876" lon="9.074716576575623"><ele>114.0</ele><time>2026-04-10T15:12:01Z</time></trkpt><trkpt lat="45.43294501319232" lon="9.074693483157954"><ele>114.0</ele><time>2026-04-10T15:12:02Z</time></trkpt><trkpt lat="45.43308813260603" lon="9.074670939573359"><ele>114.0</ele><time>2026-04-10T15:12:03Z</time></trkpt><trkpt lat="45.43324777197094" lon="9.074656620566339"><ele>115.33333333333334</ele><time>2026-04-10T15:12:04Z</time></trkpt><trkpt lat="45.433425285185" lon="9.0746383941298"><ele>116.66666666666667</ele><time>2026-04-10T15:12:05Z</time></trkpt><trkpt lat="45.43360700246014" lon="9.07460174401318"><ele>118.0</ele><time>2026-04-10T15:12:06Z</time></trkpt><trkpt lat="45.43376690173687" lon="9.074575320045508"><ele>117.66666666666667</ele><time>2026-04-10T15:12:07Z</time></trkpt><trkpt lat="45.433926713497335" lon="9.074558358187113"><ele>117.33333333333334</ele><time>2026-04-10T15:12:08Z</time></trkpt><trkpt lat="45.43409708246786" lon="9.074542084466412"><ele>117.0</ele><time>2026-04-10T15:12:09Z</time></trkpt><trkpt lat="45.434242310569644" lon="9.074529938823789"><ele>117.0</ele><time>2026-04-10T15:12:10Z</time></trkpt><trkpt lat="45.43437756441116" lon="9.074516063857846"><ele>117.0</ele><time>2026-04-10T15:12:11Z</time></trkpt><trkpt lat="45.43450618725154" lon="9.074505075210515"><ele>117.0</ele><time>2026-04-10T15:12:12Z</time></trkpt><trkpt lat="45.43463582351823" lon="9.074490394398934"><ele>117.0</ele><time>2026-04-10T15:12:13Z</time></trkpt><trkpt lat="45.43477660567284" lon="9.074474558884209"><ele>117.25</ele><time>2026-04-10T15:12:14Z</time></trkpt><trkpt lat="45.4349124525416" lon="9.074461649951141"><ele>117.5</ele><time>2026-04-10T15:12:15Z</time></trkpt><trkpt lat="45.43504097647617" lon="9.074451023042377"><ele>117.75</ele><time>2026-04-10T15:12:16Z</time></trkpt><trkpt lat="45.435160541313245" lon="9.074442197391038"><ele>118.0</ele><time>2026-04-10T15:12:17Z</time></trkpt><trkpt lat="45.435280438902154" lon="9.074428881396804"><ele>118.0</ele><time>2026-04-10T15:12:18Z</time></trkpt><trkpt lat="45.43541768709378" lon="9.07440693704795"><ele>118.0</ele><time>2026-04-10T15:12:19Z</time></trkpt><trkpt lat="45.43555494898607" lon="9.074388424847008"><ele>118.0</ele><time>2026-04-10T15:12:20Z</time></trkpt><trkpt lat="45.43569277049828" lon="9.074378151647723"><ele>118.0</ele><time>2026-04-10T15:12:21Z</time></trkpt><trkpt lat="45.43582497284563" lon="9.074372935407114"><ele>118.0</ele><time>2026-04-10T15:12:22Z</time></trkpt><trkpt lat="45.43597497318433" lon="9.074361990245585"><ele>118.0</ele><time>2026-04-10T15:12:23Z</time></trkpt><trkpt lat="45.43613925767717" lon="9.074333992883627"><ele>118.0</ele><time>2026-04-10T15:12:24Z</time></trkpt><trkpt lat="45.43630102575186" lon="9.07430990822329"><ele>117.0</ele><time>2026-04-10T15:12:25Z</time></trkpt><trkpt lat="45.43646199783362" lon="9.07429143650204"><ele>116.0</ele><time>2026-04-10T15:12:26Z</time></trkpt><trkpt lat="45.436634947080485" lon="9.074271793093843"><ele>115.0</ele><time>2026-04-10T15:12:27Z</time></trkpt><trkpt lat="45.436796854866635" lon="9.074255294773627"><ele>115.0</ele><time>2026-04-10T15:12:28Z</time></trkpt><trkpt lat="45.436958979268496" lon="9.074239526388629"><ele>115.0</ele><time>2026-04-10T15:12:29Z</time></trkpt><trkpt lat="45.43713827708479" lon="9.074215269866427"><ele>115.0</ele><time>2026-04-10T15:12:30Z</time></trkpt><trkpt lat="45.437338559595446" lon="9.074181699368648"><ele>114.66666666666667</ele><time>2026-04-10T15:12:31Z</time></trkpt><trkpt lat="45.43755913322165" lon="9.074155941470785"><ele>114.33333333333334</ele><time>2026-04-10T15:12:32Z</time></trkpt><trkpt lat="45.437780471986365" lon="9.074134450626591"><ele>114.0</ele><time>2026-04-10T15:12:33Z</time></trkpt><trkpt lat="45.43800998189135" lon="9.07411317764654"><ele>115.5</ele><time>2026-04-10T15:12:34Z</time></trkpt><trkpt lat="45.4382324020889" lon="9.074088931074161"><ele>117.0</ele><time>2026-04-10T15:12:35Z</time></trkpt><trkpt lat="45.438458859196196" lon="9.074064011710586"><ele>117.0</ele><time>2026-04-10T15:12:36Z</time></trkpt><trkpt lat="45.438684546246726" lon="9.074040517074199"><ele>117.0</ele><time>2026-04-10T15:12:37Z</time></trkpt><trkpt lat="45.43891198944742" lon="9.074016181999633"><ele>116.5</ele><time>2026-04-10T15:12:38Z</time></trkpt><trkpt lat="45.43914213923317" lon="9.073992988503653"><ele>116.0</ele><time>2026-04-10T15:12:39Z</time></trkpt><trkpt lat="45.43937013583532" lon="9.07396664189115"><ele>116.0</ele><time>2026-04-10T15:12:40Z</time></trkpt><trkpt lat="45.43959916353502" lon="9.073938871626659"><ele>116.0</ele><time>2026-04-10T15:12:41Z</time></trkpt><trkpt lat="45.43983355344321" lon="9.073911854616474"><ele>117.0</ele><time>2026-04-10T15:12:42Z</time></trkpt><trkpt lat="45.440065584318134" lon="9.073886994924964"><ele>118.0</ele><time>2026-04-10T15:12:43Z</time></trkpt><trkpt lat="45.44029670311621" lon="9.073860796818394"><ele>118.5</ele><time>2026-04-10T15:12:44Z</time></trkpt><trkpt lat="45.4405278365669" lon="9.073837610316675"><ele>119.0</ele><time>2026-04-10T15:12:45Z</time></trkpt><trkpt lat="45.440764126359376" lon="9.073815690647752"><ele>119.0</ele><time>2026-04-10T15:12:46Z</time></trkpt><trkpt lat="45.44099870458401" lon="9.07380193998799"><ele>119.0</ele><time>2026-04-10T15:12:47Z</time></trkpt><trkpt lat="45.44123359714231" lon="9.073791112189516"><ele>120.0</ele><time>2026-04-10T15:12:48Z</time></trkpt><trkpt lat="45.441471906275524" lon="9.073788856300581"><ele>121.0</ele><time>2026-04-10T15:12:49Z</time></trkpt><trkpt lat="45.4417087747562" lon="9.07378961932478"><ele>121.0</ele><time>2026-04-10T15:12:50Z</time></trkpt><trkpt lat="45.441957929814" lon="9.073793975863413"><ele>121.0</ele><time>2026-04-10T15:12:51Z</time></trkpt><trkpt lat="45.44222307972465" lon="9.073790957476243"><ele>118.5</ele><time>2026-04-10T15:12:52Z</time></trkpt><trkpt lat="45.44246124181613" lon="9.073793004233922"><ele>116.0</ele><time>2026-04-10T15:12:53Z</time></trkpt><trkpt lat="45.44270522427593" lon="9.073793632895464"><ele>116.0</ele><time>2026-04-10T15:12:54Z</time></trkpt><trkpt lat="45.442944585162344" lon="9.073798976716041"><ele>116.0</ele><time>2026-04-10T15:12:55Z</time></trkpt><trkpt lat="45.44318807841852" lon="9.073816720328695"><ele>117.5</ele><time>2026-04-10T15:12:56Z</time></trkpt><trkpt lat="45.44342890814489" lon="9.073844187601676"><ele>119.0</ele><time>2026-04-10T15:12:57Z</time></trkpt><trkpt lat="45.44367498280828" lon="9.073875436085968"><ele>120.0</ele><time>2026-04-10T15:12:58Z</time></trkpt><trkpt lat="45.443906088602255" lon="9.073915363833311"><ele>121.0</ele><time>2026-04-10T15:12:59Z</time></trkpt><trkpt lat="45.44413739340932" lon="9.073941873465166"><ele>121.0</ele><time>2026-04-10T15:13:00Z</time></trkpt><trkpt lat="45.44438127669271" lon="9.074001214507273"><ele>121.0</ele><time>2026-04-10T15:13:01Z</time></trkpt><trkpt lat="45.44463341638058" lon="9.074059002561544"><ele>121.0</ele><time>2026-04-10T15:13:02Z</time></trkpt><trkpt lat="45.44486983306933" lon="9.074116021102785"><ele>121.0</ele><time>2026-04-10T15:13:03Z</time></trkpt><trkpt lat="45.445109065492154" lon="9.0741855307558"><ele>121.0</ele><time>2026-04-10T15:13:04Z</time></trkpt><trkpt lat="45.44536252204328" lon="9.074283149124398"><ele>121.0</ele><time>2026-04-10T15:13:05Z</time></trkpt><trkpt lat="45.44563385579773" lon="9.074376251276112"><ele>121.5</ele><time>2026-04-10T15:13:06Z</time></trkpt><trkpt lat="45.44591155711528" lon="9.074450911551862"><ele>122.0</ele><time>2026-04-10T15:13:07Z</time></trkpt><trkpt lat="45.44616346853699" lon="9.074527072869143"><ele>121.5</ele><time>2026-04-10T15:13:08Z</time></trkpt><trkpt lat="45.4464024560425" lon="9.074613964431773"><ele>121.0</ele><time>2026-04-10T15:13:09Z</time></trkpt><trkpt lat="45.44661902774401" lon="9.074699749844138"><ele>121.0</ele><time>2026-04-10T15:13:10Z</time></trkpt><trkpt lat="45.44686158984389" lon="9.074797345303214"><ele>121.0</ele><time>2026-04-10T15:13:11Z</time></trkpt><trkpt lat="45.44712752067087" lon="9.074870177637449"><ele>120.5</ele><time>2026-04-10T15:13:12Z</time></trkpt><trkpt lat="45.447393447395484" lon="9.074916407039781"><ele>120.0</ele><time>2026-04-10T15:13:13Z</time></trkpt><trkpt lat="45.44765382062991" lon="9.074961858663977"><ele>120.0</ele><time>2026-04-10T15:13:14Z</time></trkpt><trkpt lat="45.44788881564704" lon="9.075018618259723"><ele>120.0</ele><time>2026-04-10T15:13:15Z</time></trkpt><trkpt lat="45.448104675889674" lon="9.075097332462564"><ele>120.5</ele><time>2026-04-10T15:13:16Z</time></trkpt><trkpt lat="45.44832017934264" lon="9.075168856805037"><ele>121.0</ele><time>2026-04-10T15:13:17Z</time></trkpt><trkpt lat="45.44855400101028" lon="9.075234704859387"><ele>121.0</ele><time>2026-04-10T15:13:18Z</time></trkpt><trkpt lat="45.44877609476943" lon="9.0752963636488"><ele>121.0</ele><time>2026-04-10T15:13:19Z</time></trkpt><trkpt lat="45.44900163716016" lon="9.075371694666247"><ele>121.5</ele><time>2026-04-10T15:13:20Z</time></trkpt><trkpt lat="45.44922992954505" lon="9.075446087147665"><ele>122.0</ele><time>2026-04-10T15:13:21Z</time></trkpt><trkpt lat="45.44944221098188" lon="9.075509365613378"><ele>122.0</ele><time>2026-04-10T15:13:22Z</time></trkpt><trkpt lat="45.449657102007734" lon="9.07557906379657"><ele>122.0</ele><time>2026-04-10T15:13:23Z</time></trkpt><trkpt lat="45.44985916988163" lon="9.075641121111273"><ele>122.0</ele><time>2026-04-10T15:13:24Z</time></trkpt><trkpt lat="45.45009113393722" lon="9.075701619658695"><ele>122.0</ele><time>2026-04-10T15:13:25Z</time></trkpt><trkpt lat="45.45034091776166" lon="9.075773792202448"><ele>122.0</ele><time>2026-04-10T15:13:26Z</time></trkpt><trkpt lat="45.45058617058095" lon="9.075856228862481"><ele>122.0</ele><time>2026-04-10T15:13:27Z</time></trkpt><trkpt lat="45.45082323321384" lon="9.075934109598672"><ele>122.0</ele><time>2026-04-10T15:13:28Z</time></trkpt><trkpt lat="45.45104254719437" lon="9.075996826421452"><ele>122.0</ele><time>2026-04-10T15:13:29Z</time></trkpt><trkpt lat="45.45127349220398" lon="9.076069217121683"><ele>122.0</ele><time>2026-04-10T15:13:30Z</time></trkpt><trkpt lat="45.45151405714571" lon="9.076138102339034"><ele>122.0</ele><time>2026-04-10T15:13:31Z</time></trkpt><trkpt lat="45.4517531568439" lon="9.076211181934225"><ele>122.0</ele><time>2026-04-10T15:13:32Z</time></trkpt><trkpt lat="45.451996585361314" lon="9.076283212801052"><ele>122.0</ele><time>2026-04-10T15:13:33Z</time></trkpt><trkpt lat="45.45223856162987" lon="9.076355781320697"><ele>122.0</ele><time>2026-04-10T15:13:34Z</time></trkpt><trkpt lat="45.45248181569351" lon="9.076434909577785"><ele>122.0</ele><time>2026-04-10T15:13:35Z</time></trkpt><trkpt lat="45.45272546446372" lon="9.07651047944111"><ele>122.0</ele><time>2026-04-10T15:13:36Z</time></trkpt><trkpt lat="45.45297233807916" lon="9.076583753781563"><ele>122.5</ele><time>2026-04-10T15:13:37Z</time></trkpt><trkpt lat="45.45321846124839" lon="9.076665415996619"><ele>123.0</ele><time>2026-04-10T15:13:38Z</time></trkpt><trkpt lat="45.45346217569112" lon="9.076752590711491"><ele>123.0</ele><time>2026-04-10T15:13:39Z</time></trkpt><trkpt lat="45.45372149696478" lon="9.076817168556708"><ele>123.0</ele><time>2026-04-10T15:13:40Z</time></trkpt><trkpt lat="45.4539950761741" lon="9.07687623690128"><ele>123.0</ele><time>2026-04-10T15:13:41Z</time></trkpt><trkpt lat="45.45425391712269" lon="9.07695656412952"><ele>123.0</ele><time>2026-04-10T15:13:42Z</time></trkpt><trkpt lat="45.454506116880836" lon="9.07704873099919"><ele>122.5</ele><time>2026-04-10T15:13:43Z</time></trkpt><trkpt lat="45.45474694252097" lon="9.077137192731513"><ele>122.0</ele><time>2026-04-10T15:13:44Z</time></trkpt><trkpt lat="45.45499478561475" lon="9.077216207983785"><ele>122.0</ele><time>2026-04-10T15:13:45Z</time></trkpt><trkpt lat="45.45524850616953" lon="9.077288966414716"><ele>122.0</ele><time>2026-04-10T15:13:46Z</time></trkpt><trkpt lat="45.45549084350647" lon="9.077350102829417"><ele>122.5</ele><time>2026-04-10T15:13:47Z</time></trkpt><trkpt lat="45.45571420757917" lon="9.077404203838345"><ele>123.0</ele><time>2026-04-10T15:13:48Z</time></trkpt><trkpt lat="45.45594330311876" lon="9.077458954049618"><ele>124.0</ele><time>2026-04-10T15:13:49Z</time></trkpt><trkpt lat="45.45617690860828" lon="9.077499056434041"><ele>125.0</ele><time>2026-04-10T15:13:50Z</time></trkpt><trkpt lat="45.456401744480516" lon="9.07752412710417"><ele>125.33333333333333</ele><time>2026-04-10T15:13:51Z</time></trkpt><trkpt lat="45.456611461188054" lon="9.07753796779445"><ele>125.66666666666666</ele><time>2026-04-10T15:13:52Z</time></trkpt><trkpt lat="45.456833908636014" lon="9.077546649164267"><ele>126.0</ele><time>2026-04-10T15:13:53Z</time></trkpt><trkpt lat="45.45706188529074" lon="9.077543962688255"><ele>125.66666666666666</ele><time>2026-04-10T15:13:54Z</time></trkpt><trkpt lat="45.45728094034006" lon="9.077541914924923"><ele>125.33333333333333</ele><time>2026-04-10T15:13:55Z</time></trkpt><trkpt lat="45.45749918262619" lon="9.077537772219731"><ele>125.0</ele><time>2026-04-10T15:13:56Z</time></trkpt><trkpt lat="45.45771762863268" lon="9.077526774728135"><ele>125.0</ele><time>2026-04-10T15:13:57Z</time></trkpt><trkpt lat="45.45792911305805" lon="9.077510282634695"><ele>125.0</ele><time>2026-04-10T15:13:58Z</time></trkpt><trkpt lat="45.458133361295765" lon="9.077483057862338"><ele>125.0</ele><time>2026-04-10T15:13:59Z</time></trkpt><trkpt lat="45.4583376916124" lon="9.077440821129246"><ele>125.66666666666666</ele><time>2026-04-10T15:14:00Z</time></trkpt><trkpt lat="45.45852031303681" lon="9.077395642341683"><ele>126.33333333333334</ele><time>2026-04-10T15:14:01Z</time></trkpt><trkpt lat="45.4587113741007" lon="9.077342112329207"><ele>127.0</ele><time>2026-04-10T15:14:02Z</time></trkpt><trkpt lat="45.45890541215224" lon="9.077295666090963"><ele>127.0</ele><time>2026-04-10T15:14:03Z</time></trkpt><trkpt lat="45.45911284110667" lon="9.077252198444372"><ele>127.0</ele><time>2026-04-10T15:14:04Z</time></trkpt><trkpt lat="45.459341610023266" lon="9.07717381615628"><ele>127.0</ele><time>2026-04-10T15:14:05Z</time></trkpt><trkpt lat="45.45957934346814" lon="9.077088211897516"><ele>127.0</ele><time>2026-04-10T15:14:06Z</time></trkpt><trkpt lat="45.45979441523785" lon="9.077036514977214"><ele>127.0</ele><time>2026-04-10T15:14:07Z</time></trkpt><trkpt lat="45.45998521227201" lon="9.076993979158617"><ele>127.0</ele><time>2026-04-10T15:14:08Z</time></trkpt><trkpt lat="45.46015974543143" lon="9.07695122462228"><ele>127.0</ele><time>2026-04-10T15:14:09Z</time></trkpt><trkpt lat="45.46032723604249" lon="9.076907781879191"><ele>127.0</ele><time>2026-04-10T15:14:10Z</time></trkpt><trkpt lat="45.460497825526815" lon="9.076869376874658"><ele>127.0</ele><time>2026-04-10T15:14:11Z</time></trkpt><trkpt lat="45.46066682165677" lon="9.076835654386437"><ele>127.66666666666667</ele><time>2026-04-10T15:14:12Z</time></trkpt><trkpt lat="45.46082552295087" lon="9.076800268448306"><ele>128.33333333333334</ele><time>2026-04-10T15:14:13Z</time></trkpt><trkpt lat="45.46097967542372" lon="9.076754443256068"><ele>129.0</ele><time>2026-04-10T15:14:14Z</time></trkpt><trkpt lat="45.461122941690135" lon="9.076698278436275"><ele>129.0</ele><time>2026-04-10T15:14:15Z</time></trkpt><trkpt lat="45.46127833033197" lon="9.076639323206992"><ele>129.0</ele><time>2026-04-10T15:14:16Z</time></trkpt><trkpt lat="45.46145525178416" lon="9.07659410823195"><ele>129.0</ele><time>2026-04-10T15:14:17Z</time></trkpt><trkpt lat="45.461641573770414" lon="9.07654937912651"><ele>128.33333333333334</ele><time>2026-04-10T15:14:18Z</time></trkpt><trkpt lat="45.46181445260681" lon="9.076508128408994"><ele>127.66666666666667</ele><time>2026-04-10T15:14:19Z</time></trkpt><trkpt lat="45.46198904854136" lon="9.07646230994694"><ele>127.0</ele><time>2026-04-10T15:14:20Z</time></trkpt><trkpt lat="45.46216784747515" lon="9.076413265709299"><ele>127.0</ele><time>2026-04-10T15:14:21Z</time></trkpt><trkpt lat="45.46232718320341" lon="9.076370295852268"><ele>127.0</ele><time>2026-04-10T15:14:22Z</time></trkpt><trkpt lat="45.4624831683853" lon="9.076329072545724"><ele>127.0</ele><time>2026-04-10T15:14:23Z</time></trkpt><trkpt lat="45.46262212332098" lon="9.076299299811405"><ele>127.0</ele><time>2026-04-10T15:14:24Z</time></trkpt><trkpt lat="45.462767927689754" lon="9.076268147690378"><ele>127.0</ele><time>2026-04-10T15:14:25Z</time></trkpt><trkpt lat="45.46291173909301" lon="9.076241400894714"><ele>127.0</ele><time>2026-04-10T15:14:26Z</time></trkpt><trkpt lat="45.46305453785867" lon="9.076222272988504"><ele>127.0</ele><time>2026-04-10T15:14:27Z</time></trkpt><trkpt lat="45.463199231017015" lon="9.076206875512073"><ele>127.5</ele><time>2026-04-10T15:14:28Z</time></trkpt><trkpt lat="45.463333994829966" lon="9.076197310832494"><ele>128.0</ele><time>2026-04-10T15:14:29Z</time></trkpt><trkpt lat="45.46345717011626" lon="9.076193811261753"><ele>128.5</ele><time>2026-04-10T15:14:30Z</time></trkpt><trkpt lat="45.463573653177086" lon="9.076192754432146"><ele>129.0</ele><time>2026-04-10T15:14:31Z</time></trkpt><trkpt lat="45.46368362098204" lon="9.076189527647283"><ele>129.25</ele><time>2026-04-10T15:14:32Z</time></trkpt><trkpt lat="45.46379549844725" lon="9.076185659126512"><ele>129.5</ele><time>2026-04-10T15:14:33Z</time></trkpt><trkpt lat="45.46390965238076" lon="9.076186557917563"><ele>129.75</ele><time>2026-04-10T15:14:34Z</time></trkpt><trkpt lat="45.464018092587914" lon="9.076193472049223"><ele>130.0</ele><time>2026-04-10T15:14:35Z</time></trkpt><trkpt lat="45.46413700973076" lon="9.076202169187987"><ele>130.0</ele><time>2026-04-10T15:14:36Z</time></trkpt><trkpt lat="45.464264560214225" lon="9.076205085093319"><ele>130.0</ele><time>2026-04-10T15:14:37Z</time></trkpt><trkpt lat="45.46439732210115" lon="9.076217462714045"><ele>130.0</ele><time>2026-04-10T15:14:38Z</time></trkpt><trkpt lat="45.464513317262785" lon="9.076235303710144"><ele>130.0</ele><time>2026-04-10T15:14:39Z</time></trkpt><trkpt lat="45.464620627023365" lon="9.076255980484415"><ele>130.0</ele><time>2026-04-10T15:14:40Z</time></trkpt><trkpt lat="45.4647243282369" lon="9.076278094760378"><ele>130.0</ele><time>2026-04-10T15:14:41Z</time></trkpt><trkpt lat="45.46482393826421" lon="9.076303015331009"><ele>130.0</ele><time>2026-04-10T15:14:42Z</time></trkpt><trkpt lat="45.46492139589073" lon="9.07632717237908"><ele>130.0</ele><time>2026-04-10T15:14:43Z</time></trkpt><trkpt lat="45.465021323365605" lon="9.076349900461958"><ele>130.0</ele><time>2026-04-10T15:14:44Z</time></trkpt><trkpt lat="45.46511971280175" lon="9.076376689068358"><ele>130.0</ele><time>2026-04-10T15:14:45Z</time></trkpt><trkpt lat="45.46522335941166" lon="9.076408573119892"><ele>130.0</ele><time>2026-04-10T15:14:46Z</time></trkpt><trkpt lat="45.4653309644784" lon="9.076442160951206"><ele>130.0</ele><time>2026-04-10T15:14:47Z</time></trkpt><trkpt lat="45.46544081286917" lon="9.076478636927632"><ele>130.0</ele><time>2026-04-10T15:14:48Z</time></trkpt><trkpt lat="45.465560484735455" lon="9.076516868276997"><ele>129.25</ele><time>2026-04-10T15:14:49Z</time></trkpt><trkpt lat="45.46568708311469" lon="9.076564877223705"><ele>128.5</ele><time>2026-04-10T15:14:50Z</time></trkpt><trkpt lat="45.46581314044836" lon="9.076620308640843"><ele>127.75</ele><time>2026-04-10T15:14:51Z</time></trkpt><trkpt lat="45.465951886675484" lon="9.076681312195738"><ele>127.0</ele><time>2026-04-10T15:14:52Z</time></trkpt><trkpt lat="45.466100218626565" lon="9.076749696460757"><ele>127.0</ele><time>2026-04-10T15:14:53Z</time></trkpt><trkpt lat="45.46624270711544" lon="9.076822701728956"><ele>127.0</ele><time>2026-04-10T15:14:54Z</time></trkpt><trkpt lat="45.466379934700704" lon="9.076901149743865"><ele>127.0</ele><time>2026-04-10T15:14:55Z</time></trkpt><trkpt lat="45.466517796602496" lon="9.076977306576767"><ele>127.0</ele><time>2026-04-10T15:14:56Z</time></trkpt><trkpt lat="45.466673404536294" lon="9.077056862254555"><ele>127.33333333333334</ele><time>2026-04-10T15:14:57Z</time></trkpt><trkpt lat="45.46686210412982" lon="9.077155198488374"><ele>127.66666666666666</ele><time>2026-04-10T15:14:58Z</time></trkpt><trkpt lat="45.46705954530611" lon="9.077272197948028"><ele>128.0</ele><time>2026-04-10T15:14:59Z</time></trkpt><trkpt lat="45.46726310630692" lon="9.077394001868752"><ele>128.33333333333331</ele><time>2026-04-10T15:15:00Z</time></trkpt><trkpt lat="45.46745402518715" lon="9.077505138839754"><ele>128.66666666666666</ele><time>2026-04-10T15:15:01Z</time></trkpt><trkpt lat="45.467635895224625" lon="9.07761168322139"><ele>129.0</ele><time>2026-04-10T15:15:02Z</time></trkpt><trkpt lat="45.46780637807813" lon="9.077713541287608"><ele>128.33333333333334</ele><time>2026-04-10T15:15:03Z</time></trkpt><trkpt lat="45.46798758942058" lon="9.077816260828529"><ele>127.66666666666667</ele><time>2026-04-10T15:15:04Z</time></trkpt><trkpt lat="45.46816025102287" lon="9.077914916378838"><ele>127.0</ele><time>2026-04-10T15:15:05Z</time></trkpt><trkpt lat="45.46835231598599" lon="9.07802658022641"><ele>127.0</ele><time>2026-04-10T15:15:06Z</time></trkpt><trkpt lat="45.468555360460265" lon="9.078146944507635"><ele>127.0</ele><time>2026-04-10T15:15:07Z</time></trkpt><trkpt lat="45.46876759239945" lon="9.078273854234428"><ele>128.5</ele><time>2026-04-10T15:15:08Z</time></trkpt><trkpt lat="45.46899248357849" lon="9.078417859754255"><ele>130.0</ele><time>2026-04-10T15:15:09Z</time></trkpt><trkpt lat="45.469225846435144" lon="9.078552550545078"><ele>130.0</ele><time>2026-04-10T15:15:10Z</time></trkpt><trkpt lat="45.46947081778558" lon="9.07867908684115"><ele>130.0</ele><time>2026-04-10T15:15:11Z</time></trkpt><trkpt lat="45.46971971563276" lon="9.078803394076923"><ele>129.0</ele><time>2026-04-10T15:15:12Z</time></trkpt><trkpt lat="45.469955749172954" lon="9.078934382062672"><ele>128.0</ele><time>2026-04-10T15:15:13Z</time></trkpt><trkpt lat="45.47017290799957" lon="9.079063329010634"><ele>128.0</ele><time>2026-04-10T15:15:14Z</time></trkpt><trkpt lat="45.47038344060525" lon="9.079183742333536"><ele>128.0</ele><time>2026-04-10T15:15:15Z</time></trkpt><trkpt lat="45.47060325432583" lon="9.079300890736768"><ele>128.0</ele><time>2026-04-10T15:15:16Z</time></trkpt><trkpt lat="45.47083003620183" lon="9.079407620476047"><ele>128.0</ele><time>2026-04-10T15:15:17Z</time></trkpt><trkpt lat="45.47105700395025" lon="9.079500878208078"><ele>128.0</ele><time>2026-04-10T15:15:18Z</time></trkpt><trkpt lat="45.471280939429704" lon="9.079581373254577"><ele>128.0</ele><time>2026-04-10T15:15:19Z</time></trkpt><trkpt lat="45.4715156164706" lon="9.079647437767495"><ele>128.0</ele><time>2026-04-10T15:15:20Z</time></trkpt><trkpt lat="45.47174393834339" lon="9.079698520224552"><ele>128.0</ele><time>2026-04-10T15:15:21Z</time></trkpt><trkpt lat="45.47196057312025" lon="9.079736712445245"><ele>128.0</ele><time>2026-04-10T15:15:22Z</time></trkpt><trkpt lat="45.472170433867085" lon="9.07976103994078"><ele>128.0</ele><time>2026-04-10T15:15:23Z</time></trkpt><trkpt lat="45.47239427651637" lon="9.079772429066729"><ele>128.0</ele><time>2026-04-10T15:15:24Z</time></trkpt><trkpt lat="45.47262611342653" lon="9.079773543318733"><ele>128.0</ele><time>2026-04-10T15:15:25Z</time></trkpt><trkpt lat="45.472851201645916" lon="9.079763580658934"><ele>128.0</ele><time>2026-04-10T15:15:26Z</time></trkpt><trkpt lat="45.473082015122785" lon="9.079728141346724"><ele>129.0</ele><time>2026-04-10T15:15:27Z</time></trkpt><trkpt lat="45.473319705926166" lon="9.079678655069625"><ele>130.0</ele><time>2026-04-10T15:15:28Z</time></trkpt><trkpt lat="45.47354828928022" lon="9.079619977550339"><ele>130.0</ele><time>2026-04-10T15:15:29Z</time></trkpt><trkpt lat="45.473747168922266" lon="9.07955731033957"><ele>130.0</ele><time>2026-04-10T15:15:30Z</time></trkpt><trkpt lat="45.473918810810105" lon="9.079498026203606"><ele>130.0</ele><time>2026-04-10T15:15:31Z</time></trkpt><trkpt lat="45.4740831951828" lon="9.079429915077075"><ele>130.0</ele><time>2026-04-10T15:15:32Z</time></trkpt><trkpt lat="45.47424252107918" lon="9.079352452080194"><ele>130.0</ele><time>2026-04-10T15:15:33Z</time></trkpt><trkpt lat="45.47439683153082" lon="9.079269827105485"><ele>130.0</ele><time>2026-04-10T15:15:34Z</time></trkpt><trkpt lat="45.4745597671177" lon="9.07917650188609"><ele>130.66666666666669</ele><time>2026-04-10T15:15:35Z</time></trkpt><trkpt lat="45.474712341765795" lon="9.079083090200154"><ele>131.33333333333334</ele><time>2026-04-10T15:15:36Z</time></trkpt><trkpt lat="45.47485623896868" lon="9.078987166914384"><ele>132.0</ele><time>2026-04-10T15:15:37Z</time></trkpt><trkpt lat="45.475008558333535" lon="9.078873942766029"><ele>132.0</ele><time>2026-04-10T15:15:38Z</time></trkpt><trkpt lat="45.475160666097885" lon="9.078753948088421"><ele>132.0</ele><time>2026-04-10T15:15:39Z</time></trkpt><trkpt lat="45.475299951687354" lon="9.07864835235635"><ele>132.0</ele><time>2026-04-10T15:15:40Z</time></trkpt><trkpt lat="45.47543984342208" lon="9.078530042836247"><ele>131.75</ele><time>2026-04-10T15:15:41Z</time></trkpt><trkpt lat="45.47556084007084" lon="9.07841641743815"><ele>131.5</ele><time>2026-04-10T15:15:42Z</time></trkpt><trkpt lat="45.475686303756845" lon="9.078291619240824"><ele>131.25</ele><time>2026-04-10T15:15:43Z</time></trkpt><trkpt lat="45.47580334760852" lon="9.078174154200829"><ele>131.0</ele><time>2026-04-10T15:15:44Z</time></trkpt><trkpt lat="45.47593812952987" lon="9.078042828367126"><ele>131.0</ele><time>2026-04-10T15:15:45Z</time></trkpt><trkpt lat="45.47608317650588" lon="9.077906050585733"><ele>131.0</ele><time>2026-04-10T15:15:46Z</time></trkpt><trkpt lat="45.476243384291855" lon="9.077745916509125"><ele>131.0</ele><time>2026-04-10T15:15:47Z</time></trkpt><trkpt lat="45.476397054081914" lon="9.077587563080005"><ele>131.0</ele><time>2026-04-10T15:15:48Z</time></trkpt><trkpt lat="45.47655131979992" lon="9.077438895976442"><ele>131.0</ele><time>2026-04-10T15:15:49Z</time></trkpt><trkpt lat="45.47671888585497" lon="9.077279673797639"><ele>131.0</ele><time>2026-04-10T15:15:50Z</time></trkpt><trkpt lat="45.47688584888477" lon="9.07712489483024"><ele>131.0</ele><time>2026-04-10T15:15:51Z</time></trkpt><trkpt lat="45.47705295851023" lon="9.076966509569125"><ele>131.0</ele><time>2026-04-10T15:15:52Z</time></trkpt><trkpt lat="45.477222996630324" lon="9.076804833963102"><ele>131.0</ele><time>2026-04-10T15:15:53Z</time></trkpt><trkpt lat="45.477389782985185" lon="9.07664751388501"><ele>131.0</ele><time>2026-04-10T15:15:54Z</time></trkpt><trkpt lat="45.4775638013274" lon="9.076482771165251"><ele>131.0</ele><time>2026-04-10T15:15:55Z</time></trkpt><trkpt lat="45.47773636601879" lon="9.07631833938727"><ele>131.0</ele><time>2026-04-10T15:15:56Z</time></trkpt><trkpt lat="45.47790428356185" lon="9.07616702774193"><ele>131.33333333333331</ele><time>2026-04-10T15:15:57Z</time></trkpt><trkpt lat="45.47808120877793" lon="9.075996515157202"><ele>131.66666666666666</ele><time>2026-04-10T15:15:58Z</time></trkpt><trkpt lat="45.47825456861875" lon="9.075826105796159"><ele>132.0</ele><time>2026-04-10T15:15:59Z</time></trkpt><trkpt lat="45.47842214202791" lon="9.075658455306353"><ele>132.0</ele><time>2026-04-10T15:16:00Z</time></trkpt><trkpt lat="45.47859946992542" lon="9.075492139874706"><ele>132.0</ele><time>2026-04-10T15:16:01Z</time></trkpt><trkpt lat="45.478782903009524" lon="9.07532887612576"><ele>132.0</ele><time>2026-04-10T15:16:02Z</time></trkpt><trkpt lat="45.478965225996085" lon="9.075166077244818"><ele>132.0</ele><time>2026-04-10T15:16:03Z</time></trkpt><trkpt lat="45.47915142874113" lon="9.074995269983098"><ele>132.0</ele><time>2026-04-10T15:16:04Z</time></trkpt><trkpt lat="45.47933869583277" lon="9.074824065226554"><ele>132.0</ele><time>2026-04-10T15:16:05Z</time></trkpt><trkpt lat="45.47952994257416" lon="9.074649469921733"><ele>132.66666666666666</ele><time>2026-04-10T15:16:06Z</time></trkpt><trkpt lat="45.47971079001753" lon="9.074479018833031"><ele>133.33333333333331</ele><time>2026-04-10T15:16:07Z</time></trkpt><trkpt lat="45.47989786184295" lon="9.074300551617958"><ele>134.0</ele><time>2026-04-10T15:16:08Z</time></trkpt><trkpt lat="45.48008278364108" lon="9.074126989039003"><ele>133.33333333333331</ele><time>2026-04-10T15:16:09Z</time></trkpt><trkpt lat="45.4802666107986" lon="9.07395568922277"><ele>132.66666666666666</ele><time>2026-04-10T15:16:10Z</time></trkpt><trkpt lat="45.48042981397293" lon="9.073799335837473"><ele>132.0</ele><time>2026-04-10T15:16:11Z</time></trkpt><trkpt lat="45.48060017393373" lon="9.073630902068908"><ele>130.5</ele><time>2026-04-10T15:16:12Z</time></trkpt><trkpt lat="45.48078715634329" lon="9.073442233510784"><ele>129.0</ele><time>2026-04-10T15:16:13Z</time></trkpt><trkpt lat="45.480981000871644" lon="9.073256859738065"><ele>129.0</ele><time>2026-04-10T15:16:14Z</time></trkpt><trkpt lat="45.4811792106547" lon="9.073080207069093"><ele>129.0</ele><time>2026-04-10T15:16:15Z</time></trkpt><trkpt lat="45.48137956447347" lon="9.072898436186398"><ele>129.5</ele><time>2026-04-10T15:16:16Z</time></trkpt><trkpt lat="45.481581527865735" lon="9.072704611022377"><ele>130.0</ele><time>2026-04-10T15:16:17Z</time></trkpt><trkpt lat="45.48178300790017" lon="9.072513507395676"><ele>130.0</ele><time>2026-04-10T15:16:18Z</time></trkpt><trkpt lat="45.48198591915449" lon="9.072319800401079"><ele>130.0</ele><time>2026-04-10T15:16:19Z</time></trkpt><trkpt lat="45.48218594245512" lon="9.07212184252703"><ele>131.0</ele><time>2026-04-10T15:16:20Z</time></trkpt><trkpt lat="45.48237959056057" lon="9.07192418191856"><ele>132.0</ele><time>2026-04-10T15:16:21Z</time></trkpt><trkpt lat="45.482559540590145" lon="9.07173599706164"><ele>131.66666666666666</ele><time>2026-04-10T15:16:22Z</time></trkpt><trkpt lat="45.482746503590135" lon="9.071544814475548"><ele>131.33333333333331</ele><time>2026-04-10T15:16:23Z</time></trkpt><trkpt lat="45.482924454363" lon="9.071364985430366"><ele>131.0</ele><time>2026-04-10T15:16:24Z</time></trkpt><trkpt lat="45.48310818425659" lon="9.071176805938851"><ele>131.0</ele><time>2026-04-10T15:16:25Z</time></trkpt><trkpt lat="45.483287330999765" lon="9.07099666862686"><ele>131.0</ele><time>2026-04-10T15:16:26Z</time></trkpt><trkpt lat="45.48345895829301" lon="9.070827853043655"><ele>131.0</ele><time>2026-04-10T15:16:27Z</time></trkpt><trkpt lat="45.48363011004309" lon="9.070662134410519"><ele>130.33333333333331</ele><time>2026-04-10T15:16:28Z</time></trkpt><trkpt lat="45.48380003847208" lon="9.070498228772692"><ele>129.66666666666666</ele><time>2026-04-10T15:16:29Z</time></trkpt><trkpt lat="45.48396590284885" lon="9.070339405489113"><ele>129.0</ele><time>2026-04-10T15:16:30Z</time></trkpt><trkpt lat="45.4841371748292" lon="9.070177026080897"><ele>129.0</ele><time>2026-04-10T15:16:31Z</time></trkpt><trkpt lat="45.4843083858058" lon="9.070014772507207"><ele>129.0</ele><time>2026-04-10T15:16:32Z</time></trkpt><trkpt lat="45.48447925923038" lon="9.069847042084751"><ele>129.0</ele><time>2026-04-10T15:16:33Z</time></trkpt><trkpt lat="45.484646140899486" lon="9.069685278727945"><ele>130.33333333333334</ele><time>2026-04-10T15:16:34Z</time></trkpt><trkpt lat="45.484808956992005" lon="9.06952821792518"><ele>131.66666666666669</ele><time>2026-04-10T15:16:35Z</time></trkpt><trkpt lat="45.4849751162233" lon="9.069374552932251"><ele>133.0</ele><time>2026-04-10T15:16:36Z</time></trkpt><trkpt lat="45.48516592967712" lon="9.069190188048594"><ele>132.5</ele><time>2026-04-10T15:16:37Z</time></trkpt><trkpt lat="45.485365897847394" lon="9.069009858948395"><ele>132.0</ele><time>2026-04-10T15:16:38Z</time></trkpt><trkpt lat="45.485593128220906" lon="9.068831125260479"><ele>132.0</ele><time>2026-04-10T15:16:39Z</time></trkpt><trkpt lat="45.48583098226336" lon="9.06863495046109"><ele>132.0</ele><time>2026-04-10T15:16:40Z</time></trkpt><trkpt lat="45.486069421926146" lon="9.068432376355723"><ele>133.0</ele><time>2026-04-10T15:16:41Z</time></trkpt><trkpt lat="45.48630730913432" lon="9.06823334586689"><ele>134.0</ele><time>2026-04-10T15:16:42Z</time></trkpt><trkpt lat="45.48655198280444" lon="9.068037615386197"><ele>134.0</ele><time>2026-04-10T15:16:43Z</time></trkpt><trkpt lat="45.486798570179694" lon="9.067870787017835"><ele>134.0</ele><time>2026-04-10T15:16:44Z</time></trkpt><trkpt lat="45.48703790114154" lon="9.067743025683477"><ele>135.0</ele><time>2026-04-10T15:16:45Z</time></trkpt><trkpt lat="45.487278998119585" lon="9.067627147893338"><ele>136.0</ele><time>2026-04-10T15:16:46Z</time></trkpt><trkpt lat="45.48751853278213" lon="9.06751679761466"><ele>136.0</ele><time>2026-04-10T15:16:47Z</time></trkpt><trkpt lat="45.48775208822414" lon="9.067401502839182"><ele>136.0</ele><time>2026-04-10T15:16:48Z</time></trkpt><trkpt lat="45.48798935849479" lon="9.067284106710266"><ele>136.0</ele><time>2026-04-10T15:16:49Z</time></trkpt><trkpt lat="45.48821028512549" lon="9.067175100553275"><ele>136.0</ele><time>2026-04-10T15:16:50Z</time></trkpt><trkpt lat="45.4884331552123" lon="9.067075575810485"><ele>136.0</ele><time>2026-04-10T15:16:51Z</time></trkpt><trkpt lat="45.488679529368824" lon="9.066983835527571"><ele>136.0</ele><time>2026-04-10T15:16:52Z</time></trkpt><trkpt lat="45.4889230373369" lon="9.066907267858692"><ele>136.0</ele><time>2026-04-10T15:16:53Z</time></trkpt><trkpt lat="45.489171866613844" lon="9.066834472798947"><ele>136.0</ele><time>2026-04-10T15:16:54Z</time></trkpt><trkpt lat="45.4894239911988" lon="9.06677312523537"><ele>136.0</ele><time>2026-04-10T15:16:55Z</time></trkpt><trkpt lat="45.48967412457307" lon="9.066717314122924"><ele>136.0</ele><time>2026-04-10T15:16:56Z</time></trkpt><trkpt lat="45.48992650162899" lon="9.066672121973735"><ele>136.0</ele><time>2026-04-10T15:16:57Z</time></trkpt><trkpt lat="45.490182462542656" lon="9.066636139877545"><ele>136.0</ele><time>2026-04-10T15:16:58Z</time></trkpt><trkpt lat="45.49043972439329" lon="9.066608872948144"><ele>135.0</ele><time>2026-04-10T15:16:59Z</time></trkpt><trkpt lat="45.4906916565519" lon="9.066591514276709"><ele>134.0</ele><time>2026-04-10T15:17:00Z</time></trkpt><trkpt lat="45.49092869040119" lon="9.066578115407264"><ele>134.0</ele><time>2026-04-10T15:17:01Z</time></trkpt><trkpt lat="45.491157431382206" lon="9.066571831146732"><ele>134.0</ele><time>2026-04-10T15:17:02Z</time></trkpt><trkpt lat="45.49137085354581" lon="9.06657491139013"><ele>134.0</ele><time>2026-04-10T15:17:03Z</time></trkpt><trkpt lat="45.491593740940814" lon="9.066584093396232"><ele>134.0</ele><time>2026-04-10T15:17:04Z</time></trkpt><trkpt lat="45.49181735441894" lon="9.066592510866295"><ele>134.0</ele><time>2026-04-10T15:17:05Z</time></trkpt><trkpt lat="45.49205750596396" lon="9.066597256447174"><ele>134.0</ele><time>2026-04-10T15:17:06Z</time></trkpt><trkpt lat="45.49230296629026" lon="9.066605684552435"><ele>134.0</ele><time>2026-04-10T15:17:07Z</time></trkpt><trkpt lat="45.492550697561" lon="9.066616364423455"><ele>134.0</ele><time>2026-04-10T15:17:08Z</time></trkpt><trkpt lat="45.49280226002508" lon="9.06662669496461"><ele>134.0</ele><time>2026-04-10T15:17:09Z</time></trkpt><trkpt lat="45.49306051668644" lon="9.066646694954235"><ele>136.0</ele><time>2026-04-10T15:17:10Z</time></trkpt><trkpt lat="45.49332428926572" lon="9.066669179397985"><ele>138.0</ele><time>2026-04-10T15:17:11Z</time></trkpt><trkpt lat="45.49358542363719" lon="9.066686564972096"><ele>137.0</ele><time>2026-04-10T15:17:12Z</time></trkpt><trkpt lat="45.49384748780029" lon="9.066704613004188"><ele>136.0</ele><time>2026-04-10T15:17:13Z</time></trkpt><trkpt lat="45.494093493495185" lon="9.066715922943665"><ele>136.0</ele><time>2026-04-10T15:17:14Z</time></trkpt><trkpt lat="45.49433918919573" lon="9.066728134032768"><ele>136.0</ele><time>2026-04-10T15:17:15Z</time></trkpt><trkpt lat="45.494588916449246" lon="9.066734477601557"><ele>135.5</ele><time>2026-04-10T15:17:16Z</time></trkpt><trkpt lat="45.49483549443797" lon="9.066741061471447"><ele>135.0</ele><time>2026-04-10T15:17:17Z</time></trkpt><trkpt lat="45.49508931608541" lon="9.066752157189608"><ele>135.0</ele><time>2026-04-10T15:17:18Z</time></trkpt><trkpt lat="45.495338609033745" lon="9.066763384362503"><ele>135.0</ele><time>2026-04-10T15:17:19Z</time></trkpt><trkpt lat="45.49558421347227" lon="9.066771484912426"><ele>135.5</ele><time>2026-04-10T15:17:20Z</time></trkpt><trkpt lat="45.49584058858914" lon="9.06678169169852"><ele>136.0</ele><time>2026-04-10T15:17:21Z</time></trkpt><trkpt lat="45.49608999732054" lon="9.066790457407121"><ele>136.5</ele><time>2026-04-10T15:17:22Z</time></trkpt><trkpt lat="45.49634735514545" lon="9.066803957079326"><ele>137.0</ele><time>2026-04-10T15:17:23Z</time></trkpt><trkpt lat="45.49659736203675" lon="9.066815636189554"><ele>137.0</ele><time>2026-04-10T15:17:24Z</time></trkpt><trkpt lat="45.496857223467" lon="9.066829883085905"><ele>137.0</ele><time>2026-04-10T15:17:25Z</time></trkpt><trkpt lat="45.49711480414442" lon="9.066839567026298"><ele>137.0</ele><time>2026-04-10T15:17:26Z</time></trkpt><trkpt lat="45.49737775113023" lon="9.066852516399306"><ele>137.0</ele><time>2026-04-10T15:17:27Z</time></trkpt><trkpt lat="45.49763707280541" lon="9.06686031958606"><ele>137.0</ele><time>2026-04-10T15:17:28Z</time></trkpt><trkpt lat="45.497898099911296" lon="9.066867920598014"><ele>137.0</ele><time>2026-04-10T15:17:29Z</time></trkpt><trkpt lat="45.49816446437242" lon="9.066872741078239"><ele>136.5</ele><time>2026-04-10T15:17:30Z</time></trkpt><trkpt lat="45.49842385116481" lon="9.066875562861624"><ele>136.0</ele><time>2026-04-10T15:17:31Z</time></trkpt><trkpt lat="45.49869937850572" lon="9.066888309940287"><ele>135.5</ele><time>2026-04-10T15:17:32Z</time></trkpt><trkpt lat="45.49896369465058" lon="9.066889914185444"><ele>135.0</ele><time>2026-04-10T15:17:33Z</time></trkpt><trkpt lat="45.49923231439378" lon="9.066893455415789"><ele>135.0</ele><time>2026-04-10T15:17:34Z</time></trkpt><trkpt lat="45.499500872484205" lon="9.06689069432884"><ele>135.0</ele><time>2026-04-10T15:17:35Z</time></trkpt><trkpt lat="45.4997704300819" lon="9.066874595372303"><ele>136.5</ele><time>2026-04-10T15:17:36Z</time></trkpt><trkpt lat="45.500036812255935" lon="9.066842836574175"><ele>138.0</ele><time>2026-04-10T15:17:37Z</time></trkpt><trkpt lat="45.50029881491297" lon="9.066800623967879"><ele>137.5</ele><time>2026-04-10T15:17:38Z</time></trkpt><trkpt lat="45.50056411638808" lon="9.06676523756886"><ele>137.0</ele><time>2026-04-10T15:17:39Z</time></trkpt><trkpt lat="45.50082602388051" lon="9.066725031659299"><ele>137.0</ele><time>2026-04-10T15:17:40Z</time></trkpt><trkpt lat="45.501087353960266" lon="9.066672758422147"><ele>137.0</ele><time>2026-04-10T15:17:41Z</time></trkpt><trkpt lat="45.501355351647305" lon="9.066614159274424"><ele>137.5</ele><time>2026-04-10T15:17:42Z</time></trkpt><trkpt lat="45.50161188291493" lon="9.066537392739075"><ele>138.0</ele><time>2026-04-10T15:17:43Z</time></trkpt><trkpt lat="45.501873147858994" lon="9.066451877012256"><ele>139.5</ele><time>2026-04-10T15:17:44Z</time></trkpt><trkpt lat="45.50212954719172" lon="9.06635152900808"><ele>141.0</ele><time>2026-04-10T15:17:45Z</time></trkpt><trkpt lat="45.50238470785637" lon="9.066239839208633"><ele>141.0</ele><time>2026-04-10T15:17:46Z</time></trkpt><trkpt lat="45.50264289282817" lon="9.066124409154213"><ele>141.0</ele><time>2026-04-10T15:17:47Z</time></trkpt><trkpt lat="45.50289805621776" lon="9.066004600668208"><ele>140.5</ele><time>2026-04-10T15:17:48Z</time></trkpt><trkpt lat="45.503157724472246" lon="9.065887118468059"><ele>140.0</ele><time>2026-04-10T15:17:49Z</time></trkpt><trkpt lat="45.503417352688345" lon="9.065772527473149"><ele>139.5</ele><time>2026-04-10T15:17:50Z</time></trkpt><trkpt lat="45.50367599448092" lon="9.065660129239635"><ele>139.0</ele><time>2026-04-10T15:17:51Z</time></trkpt><trkpt lat="45.503938624329166" lon="9.065553138494382"><ele>139.0</ele><time>2026-04-10T15:17:52Z</time></trkpt><trkpt lat="45.50420340623194" lon="9.065451832459292"><ele>139.0</ele><time>2026-04-10T15:17:53Z</time></trkpt><trkpt lat="45.50446039280338" lon="9.06534523183157"><ele>140.0</ele><time>2026-04-10T15:17:54Z</time></trkpt><trkpt lat="45.50471915874405" lon="9.065238636409159"><ele>141.0</ele><time>2026-04-10T15:17:55Z</time></trkpt><trkpt lat="45.50498183931835" lon="9.06513550597798"><ele>141.0</ele><time>2026-04-10T15:17:56Z</time></trkpt><trkpt lat="45.50524040335908" lon="9.065031845833143"><ele>141.0</ele><time>2026-04-10T15:17:57Z</time></trkpt><trkpt lat="45.5055023910045" lon="9.0649371160861"><ele>142.5</ele><time>2026-04-10T15:17:58Z</time></trkpt><trkpt lat="45.505759801508376" lon="9.064837345640154"><ele>144.0</ele><time>2026-04-10T15:17:59Z</time></trkpt><trkpt lat="45.50601856759917" lon="9.064740584760665"><ele>143.0</ele><time>2026-04-10T15:18:00Z</time></trkpt><trkpt lat="45.50627533643483" lon="9.06464393815974"><ele>142.0</ele><time>2026-04-10T15:18:01Z</time></trkpt><trkpt lat="45.506532628546374" lon="9.064548236865315"><ele>142.0</ele><time>2026-04-10T15:18:02Z</time></trkpt><trkpt lat="45.50679169338128" lon="9.064454732172454"><ele>142.0</ele><time>2026-04-10T15:18:03Z</time></trkpt><trkpt lat="45.50705096015808" lon="9.064360055515616"><ele>143.5</ele><time>2026-04-10T15:18:04Z</time></trkpt><trkpt lat="45.507303218970634" lon="9.064251577326361"><ele>145.0</ele><time>2026-04-10T15:18:05Z</time></trkpt><trkpt lat="45.50755703944453" lon="9.064138738941834"><ele>145.5</ele><time>2026-04-10T15:18:06Z</time></trkpt><trkpt lat="45.507802912067355" lon="9.064002206623858"><ele>146.0</ele><time>2026-04-10T15:18:07Z</time></trkpt><trkpt lat="45.508039578277376" lon="9.063841597409596"><ele>146.0</ele><time>2026-04-10T15:18:08Z</time></trkpt><trkpt lat="45.50826675945303" lon="9.063655602718073"><ele>146.0</ele><time>2026-04-10T15:18:09Z</time></trkpt><trkpt lat="45.508487352001055" lon="9.06345268255152"><ele>146.5</ele><time>2026-04-10T15:18:10Z</time></trkpt><trkpt lat="45.50870597557211" lon="9.063248688042417"><ele>147.0</ele><time>2026-04-10T15:18:11Z</time></trkpt><trkpt lat="45.508919057319794" lon="9.063031712623483"><ele>147.0</ele><time>2026-04-10T15:18:12Z</time></trkpt><trkpt lat="45.509122619661774" lon="9.062804623793438"><ele>147.0</ele><time>2026-04-10T15:18:13Z</time></trkpt><trkpt lat="45.509321132725205" lon="9.062558472360022"><ele>147.0</ele><time>2026-04-10T15:18:14Z</time></trkpt><trkpt lat="45.50950609664243" lon="9.062295399146633"><ele>147.0</ele><time>2026-04-10T15:18:15Z</time></trkpt><trkpt lat="45.509681205280124" lon="9.062018353799301"><ele>147.0</ele><time>2026-04-10T15:18:16Z</time></trkpt><trkpt lat="45.50986000179359" lon="9.061743066909715"><ele>147.0</ele><time>2026-04-10T15:18:17Z</time></trkpt><trkpt lat="45.510052370985164" lon="9.0614806731025"><ele>147.0</ele><time>2026-04-10T15:18:18Z</time></trkpt><trkpt lat="45.51024068363701" lon="9.061225579247283"><ele>147.0</ele><time>2026-04-10T15:18:19Z</time></trkpt><trkpt lat="45.51044347625153" lon="9.060990935343156"><ele>146.0</ele><time>2026-04-10T15:18:20Z</time></trkpt><trkpt lat="45.51065634722204" lon="9.060771872110193"><ele>145.0</ele><time>2026-04-10T15:18:21Z</time></trkpt><trkpt lat="45.51087682888519" lon="9.060574369431427"><ele>145.0</ele><time>2026-04-10T15:18:22Z</time></trkpt><trkpt lat="45.51110101800437" lon="9.060387696673276"><ele>145.0</ele><time>2026-04-10T15:18:23Z</time></trkpt><trkpt lat="45.511337677395375" lon="9.060224897647151"><ele>145.0</ele><time>2026-04-10T15:18:24Z</time></trkpt><trkpt lat="45.51157900855638" lon="9.060080715589907"><ele>145.0</ele><time>2026-04-10T15:18:25Z</time></trkpt><trkpt lat="45.511830296653365" lon="9.05995840724447"><ele>145.0</ele><time>2026-04-10T15:18:26Z</time></trkpt><trkpt lat="45.51207332857094" lon="9.059854776082444"><ele>145.0</ele><time>2026-04-10T15:18:27Z</time></trkpt><trkpt lat="45.51232184034288" lon="9.05976789077084"><ele>145.0</ele><time>2026-04-10T15:18:28Z</time></trkpt><trkpt lat="45.51257695669776" lon="9.05969843774735"><ele>145.0</ele><time>2026-04-10T15:18:29Z</time></trkpt><trkpt lat="45.512826300548866" lon="9.059643334497206"><ele>145.5</ele><time>2026-04-10T15:18:30Z</time></trkpt><trkpt lat="45.513081967036605" lon="9.059606050592103"><ele>146.0</ele><time>2026-04-10T15:18:31Z</time></trkpt><trkpt lat="45.51333738058081" lon="9.059591881151364"><ele>146.0</ele><time>2026-04-10T15:18:32Z</time></trkpt><trkpt lat="45.51359293372937" lon="9.059605148184676"><ele>146.0</ele><time>2026-04-10T15:18:33Z</time></trkpt><trkpt lat="45.5138485202618" lon="9.05964047891419"><ele>146.5</ele><time>2026-04-10T15:18:34Z</time></trkpt><trkpt lat="45.51410040528341" lon="9.059693870179721"><ele>147.0</ele><time>2026-04-10T15:18:35Z</time></trkpt><trkpt lat="45.51433779565913" lon="9.059758439048135"><ele>147.0</ele><time>2026-04-10T15:18:36Z</time></trkpt><trkpt lat="45.514583132280066" lon="9.059834098445823"><ele>147.0</ele><time>2026-04-10T15:18:37Z</time></trkpt><trkpt lat="45.514823413046145" lon="9.059903140545332"><ele>148.5</ele><time>2026-04-10T15:18:38Z</time></trkpt><trkpt lat="45.5150578224071" lon="9.059972127794044"><ele>150.0</ele><time>2026-04-10T15:18:39Z</time></trkpt><trkpt lat="45.51527255933633" lon="9.060034243313225"><ele>150.0</ele><time>2026-04-10T15:18:40Z</time></trkpt><trkpt lat="45.51547963890158" lon="9.060081914196475"><ele>150.0</ele><time>2026-04-10T15:18:41Z</time></trkpt><trkpt lat="45.51567320795253" lon="9.060096842969298"><ele>150.0</ele><time>2026-04-10T15:18:42Z</time></trkpt><trkpt lat="45.51585866644306" lon="9.060108456721453"><ele>150.0</ele><time>2026-04-10T15:18:43Z</time></trkpt><trkpt lat="45.516029784476956" lon="9.060119666414485"><ele>150.0</ele><time>2026-04-10T15:18:44Z</time></trkpt><trkpt lat="45.51620474890983" lon="9.060126210099131"><ele>150.0</ele><time>2026-04-10T15:18:45Z</time></trkpt><trkpt lat="45.516411611335144" lon="9.06010890741857"><ele>149.66666666666666</ele><time>2026-04-10T15:18:46Z</time></trkpt><trkpt lat="45.51660599810579" lon="9.06009077189071"><ele>149.33333333333331</ele><time>2026-04-10T15:18:47Z</time></trkpt><trkpt lat="45.516808891337575" lon="9.060064714679134"><ele>149.0</ele><time>2026-04-10T15:18:48Z</time></trkpt><trkpt lat="45.5170097658529" lon="9.06003750072377"><ele>149.0</ele><time>2026-04-10T15:18:49Z</time></trkpt><trkpt lat="45.517225828126996" lon="9.05999518743382"><ele>149.0</ele><time>2026-04-10T15:18:50Z</time></trkpt><trkpt lat="45.51743334694925" lon="9.059938619463292"><ele>149.0</ele><time>2026-04-10T15:18:51Z</time></trkpt><trkpt lat="45.51763398054037" lon="9.059870436776247"><ele>148.0</ele><time>2026-04-10T15:18:52Z</time></trkpt><trkpt lat="45.51781128116219" lon="9.05981240452436"><ele>147.0</ele><time>2026-04-10T15:18:53Z</time></trkpt><trkpt lat="45.51798371918098" lon="9.05976733177898"><ele>146.0</ele><time>2026-04-10T15:18:54Z</time></trkpt><trkpt lat="45.518154804057346" lon="9.059706482735196"><ele>146.0</ele><time>2026-04-10T15:18:55Z</time></trkpt><trkpt lat="45.51831145950084" lon="9.059641891686166"><ele>146.0</ele><time>2026-04-10T15:18:56Z</time></trkpt><trkpt lat="45.51848447934857" lon="9.059571895709807"><ele>146.0</ele><time>2026-04-10T15:18:57Z</time></trkpt><trkpt lat="45.518690371181336" lon="9.0594858701436"><ele>146.66666666666666</ele><time>2026-04-10T15:18:58Z</time></trkpt><trkpt lat="45.5189118306956" lon="9.059397543285264"><ele>147.33333333333334</ele><time>2026-04-10T15:18:59Z</time></trkpt><trkpt lat="45.51912723688254" lon="9.059339659742863"><ele>148.0</ele><time>2026-04-10T15:19:00Z</time></trkpt><trkpt lat="45.519328765285294" lon="9.05930720616919"><ele>148.0</ele><time>2026-04-10T15:19:01Z</time></trkpt><trkpt lat="45.51952333091257" lon="9.059274370261033"><ele>148.0</ele><time>2026-04-10T15:19:02Z</time></trkpt><trkpt lat="45.51971325158788" lon="9.059250501117761"><ele>148.0</ele><time>2026-04-10T15:19:03Z</time></trkpt><trkpt lat="45.51990477114254" lon="9.059239946881839"><ele>148.0</ele><time>2026-04-10T15:19:04Z</time></trkpt><trkpt lat="45.52008000423653" lon="9.059242143953242"><ele>148.0</ele><time>2026-04-10T15:19:05Z</time></trkpt><trkpt lat="45.5202457846285" lon="9.05925898971095"><ele>148.0</ele><time>2026-04-10T15:19:06Z</time></trkpt><trkpt lat="45.52040920669923" lon="9.059286962858389"><ele>148.0</ele><time>2026-04-10T15:19:07Z</time></trkpt><trkpt lat="45.52053809211224" lon="9.059352106950826"><ele>148.0</ele><time>2026-04-10T15:19:08Z</time></trkpt><trkpt lat="45.520660692067054" lon="9.05942253901549"><ele>148.0</ele><time>2026-04-10T15:19:09Z</time></trkpt><trkpt lat="45.52078539648178" lon="9.059478807938394"><ele>148.0</ele><time>2026-04-10T15:19:10Z</time></trkpt><trkpt lat="45.52093923160251" lon="9.059542998148224"><ele>148.0</ele><time>2026-04-10T15:19:11Z</time></trkpt><trkpt lat="45.52108714934619" lon="9.059608164396376"><ele>148.0</ele><time>2026-04-10T15:19:12Z</time></trkpt><trkpt lat="45.521229713010925" lon="9.05966246757195"><ele>148.0</ele><time>2026-04-10T15:19:13Z</time></trkpt><trkpt lat="45.52137606647491" lon="9.059722336372431"><ele>148.33333333333334</ele><time>2026-04-10T15:19:14Z</time></trkpt><trkpt lat="45.521536483396225" lon="9.059802857011235"><ele>148.66666666666666</ele><time>2026-04-10T15:19:15Z</time></trkpt><trkpt lat="45.52171314603757" lon="9.059915240191684"><ele>149.0</ele><time>2026-04-10T15:19:16Z</time></trkpt><trkpt lat="45.521892210225296" lon="9.06004704384037"><ele>149.66666666666666</ele><time>2026-04-10T15:19:17Z</time></trkpt><trkpt lat="45.52205492864828" lon="9.060216783191017"><ele>150.33333333333334</ele><time>2026-04-10T15:19:18Z</time></trkpt><trkpt lat="45.52219964254614" lon="9.060406630182786"><ele>151.0</ele><time>2026-04-10T15:19:19Z</time></trkpt><trkpt lat="45.52233762529306" lon="9.060626463842034"><ele>150.66666666666669</ele><time>2026-04-10T15:19:20Z</time></trkpt><trkpt lat="45.522460278186635" lon="9.06086434064171"><ele>150.33333333333334</ele><time>2026-04-10T15:19:21Z</time></trkpt><trkpt lat="45.522567064115" lon="9.061101661126322"><ele>150.0</ele><time>2026-04-10T15:19:22Z</time></trkpt><trkpt lat="45.522659657002386" lon="9.061326777808071"><ele>150.0</ele><time>2026-04-10T15:19:23Z</time></trkpt><trkpt lat="45.52273290334206" lon="9.061523967362753"><ele>150.0</ele><time>2026-04-10T15:19:24Z</time></trkpt><trkpt lat="45.52280506419769" lon="9.061710432345365"><ele>150.0</ele><time>2026-04-10T15:19:25Z</time></trkpt><trkpt lat="45.5228571283014" lon="9.061887955970677"><ele>150.0</ele><time>2026-04-10T15:19:26Z</time></trkpt><trkpt lat="45.52288752321111" lon="9.06208589689141"><ele>149.66666666666666</ele><time>2026-04-10T15:19:27Z</time></trkpt><trkpt lat="45.522872919206606" lon="9.06229796720477"><ele>149.33333333333331</ele><time>2026-04-10T15:19:28Z</time></trkpt><trkpt lat="45.522817593174686" lon="9.062503535119761"><ele>149.0</ele><time>2026-04-10T15:19:29Z</time></trkpt><trkpt lat="45.52273168730929" lon="9.062726611043834"><ele>149.0</ele><time>2026-04-10T15:19:30Z</time></trkpt><trkpt lat="45.522642582798525" lon="9.062975847799521"><ele>149.0</ele><time>2026-04-10T15:19:31Z</time></trkpt><trkpt lat="45.522559074147054" lon="9.06323529536112"><ele>149.0</ele><time>2026-04-10T15:19:32Z</time></trkpt><trkpt lat="45.52246148974058" lon="9.063503595916576"><ele>149.33333333333331</ele><time>2026-04-10T15:19:33Z</time></trkpt><trkpt lat="45.522378108916705" lon="9.063763606800372"><ele>149.66666666666666</ele><time>2026-04-10T15:19:34Z</time></trkpt><trkpt lat="45.522274713846315" lon="9.064019475608818"><ele>150.0</ele><time>2026-04-10T15:19:35Z</time></trkpt><trkpt lat="45.52214865883728" lon="9.064268280922004"><ele>150.0</ele><time>2026-04-10T15:19:36Z</time></trkpt><trkpt lat="45.52201847773322" lon="9.06451380654098"><ele>150.0</ele><time>2026-04-10T15:19:37Z</time></trkpt><trkpt lat="45.52189574042655" lon="9.064771885573343"><ele>150.0</ele><time>2026-04-10T15:19:38Z</time></trkpt><trkpt lat="45.521773942432986" lon="9.06502750499901"><ele>150.0</ele><time>2026-04-10T15:19:39Z</time></trkpt><trkpt lat="45.5216709091583" lon="9.065279940875529"><ele>150.0</ele><time>2026-04-10T15:19:40Z</time></trkpt><trkpt lat="45.5215641826179" lon="9.065524130880922"><ele>150.0</ele><time>2026-04-10T15:19:41Z</time></trkpt><trkpt lat="45.521450520948584" lon="9.065757630966331"><ele>150.0</ele><time>2026-04-10T15:19:42Z</time></trkpt><trkpt lat="45.521324828934496" lon="9.065998406742512"><ele>150.0</ele><time>2026-04-10T15:19:43Z</time></trkpt><trkpt lat="45.52118958166225" lon="9.066249280513041"><ele>150.0</ele><time>2026-04-10T15:19:44Z</time></trkpt><trkpt lat="45.52104397943077" lon="9.066518366675016"><ele>149.0</ele><time>2026-04-10T15:19:45Z</time></trkpt><trkpt lat="45.52088264014268" lon="9.066809788145882"><ele>148.0</ele><time>2026-04-10T15:19:46Z</time></trkpt><trkpt lat="45.52072219846705" lon="9.067101131637198"><ele>148.0</ele><time>2026-04-10T15:19:47Z</time></trkpt><trkpt lat="45.52055963245758" lon="9.067380986637298"><ele>148.0</ele><time>2026-04-10T15:19:48Z</time></trkpt><trkpt lat="45.52039961022329" lon="9.067665838215758"><ele>147.5</ele><time>2026-04-10T15:19:49Z</time></trkpt><trkpt lat="45.5202286540479" lon="9.067969420154439"><ele>147.0</ele><time>2026-04-10T15:19:50Z</time></trkpt><trkpt lat="45.520057253131306" lon="9.068276114258651"><ele>146.0</ele><time>2026-04-10T15:19:51Z</time></trkpt><trkpt lat="45.51988827515121" lon="9.068579915035105"><ele>145.0</ele><time>2026-04-10T15:19:52Z</time></trkpt><trkpt lat="45.51967835777707" lon="9.068851021771444"><ele>144.0</ele><time>2026-04-10T15:19:53Z</time></trkpt><trkpt lat="45.519609147692506" lon="9.0692576859508"><ele>143.0</ele><time>2026-04-10T15:19:54Z</time></trkpt><trkpt lat="45.51944379096681" lon="9.069569569021205"><ele>144.5</ele><time>2026-04-10T15:19:55Z</time></trkpt><trkpt lat="45.51928159864191" lon="9.069875154451724"><ele>146.0</ele><time>2026-04-10T15:19:56Z</time></trkpt><trkpt lat="45.519126901428216" lon="9.070190125150985"><ele>146.0</ele><time>2026-04-10T15:19:57Z</time></trkpt><trkpt lat="45.51897174013404" lon="9.07051485447532"><ele>146.0</ele><time>2026-04-10T15:19:58Z</time></trkpt><trkpt lat="45.518827534840675" lon="9.070845988605544"><ele>146.0</ele><time>2026-04-10T15:19:59Z</time></trkpt><trkpt lat="45.51867196122375" lon="9.071168617802675"><ele>146.0</ele><time>2026-04-10T15:20:00Z</time></trkpt><trkpt lat="45.5185230547743" lon="9.071496520090239"><ele>146.0</ele><time>2026-04-10T15:20:01Z</time></trkpt><trkpt lat="45.518378476404855" lon="9.071829821739366"><ele>146.0</ele><time>2026-04-10T15:20:02Z</time></trkpt><trkpt lat="45.518237845503954" lon="9.072168686480811"><ele>146.0</ele><time>2026-04-10T15:20:03Z</time></trkpt><trkpt lat="45.51810160785094" lon="9.072521061716303"><ele>146.0</ele><time>2026-04-10T15:20:04Z</time></trkpt><trkpt lat="45.51795824672396" lon="9.072864446652138"><ele>146.0</ele><time>2026-04-10T15:20:05Z</time></trkpt><trkpt lat="45.51782225098675" lon="9.073221862129929"><ele>146.0</ele><time>2026-04-10T15:20:06Z</time></trkpt><trkpt lat="45.517682633588585" lon="9.073581673972868"><ele>145.0</ele><time>2026-04-10T15:20:07Z</time></trkpt><trkpt lat="45.5175441016376" lon="9.073927753196106"><ele>144.0</ele><time>2026-04-10T15:20:08Z</time></trkpt><trkpt lat="45.51739214616337" lon="9.074298625659738"><ele>144.0</ele><time>2026-04-10T15:20:09.076Z</time></trkpt><trkpt lat="45.517257036482555" lon="9.074630301836484"><ele>144.0</ele><time>2026-04-10T15:20:10.03Z</time></trkpt><trkpt lat="45.51711759621428" lon="9.074972318366404"><ele>144.0</ele><time>2026-04-10T15:20:11.026Z</time></trkpt><trkpt lat="45.51698122147418" lon="9.075317258229877"><ele>144.0</ele><time>2026-04-10T15:20:12.026Z</time></trkpt><trkpt lat="45.51587994259887" lon="9.079665790783949"><ele>144.5</ele><time>2026-04-10T15:20:25Z</time></trkpt><trkpt lat="45.516017539799584" lon="9.080021623606672"><ele>145.0</ele><time>2026-04-10T15:20:26Z</time></trkpt><trkpt lat="45.51586235698839" lon="9.080355097880478"><ele>145.0</ele><time>2026-04-10T15:20:27Z</time></trkpt><trkpt lat="45.51574412910344" lon="9.080683463185133"><ele>145.0</ele><time>2026-04-10T15:20:28Z</time></trkpt><trkpt lat="45.51562029024778" lon="9.08099679017976"><ele>145.0</ele><time>2026-04-10T15:20:29Z</time></trkpt><trkpt lat="45.515490046787605" lon="9.081319880333746"><ele>145.0</ele><time>2026-04-10T15:20:30Z</time></trkpt><trkpt lat="45.51536079400097" lon="9.081644216061726"><ele>145.0</ele><time>2026-04-10T15:20:31Z</time></trkpt><trkpt lat="45.51524977914982" lon="9.081976467055995"><ele>145.0</ele><time>2026-04-10T15:20:32Z</time></trkpt><trkpt lat="45.51515373349546" lon="9.082320543083394"><ele>144.5</ele><time>2026-04-10T15:20:33Z</time></trkpt><trkpt lat="45.515076662752804" lon="9.082664681330431"><ele>144.0</ele><time>2026-04-10T15:20:34Z</time></trkpt><trkpt lat="45.51502155933496" lon="9.083013129707037"><ele>144.5</ele><time>2026-04-10T15:20:35Z</time></trkpt><trkpt lat="45.51499775541499" lon="9.083367050493338"><ele>145.0</ele><time>2026-04-10T15:20:36Z</time></trkpt><trkpt lat="45.51499631700366" lon="9.083719897089107"><ele>145.0</ele><time>2026-04-10T15:20:37Z</time></trkpt><trkpt lat="45.515024198928565" lon="9.084085043427368"><ele>145.0</ele><time>2026-04-10T15:20:38Z</time></trkpt><trkpt lat="45.515075549428076" lon="9.0844536377977"><ele>144.5</ele><time>2026-04-10T15:20:39Z</time></trkpt><trkpt lat="45.51514955314384" lon="9.084823638390668"><ele>144.0</ele><time>2026-04-10T15:20:40Z</time></trkpt><trkpt lat="45.51520800404442" lon="9.085095377083386"><ele>144.0</ele><time>2026-04-10T15:20:41Z</time></trkpt><trkpt lat="45.51532248153733" lon="9.085420994662298"><ele>144.0</ele><time>2026-04-10T15:20:42Z</time></trkpt><trkpt lat="45.515465931441376" lon="9.085724104050353"><ele>145.5</ele><time>2026-04-10T15:20:43Z</time></trkpt><trkpt lat="45.51563291795247" lon="9.086013238213585"><ele>147.0</ele><time>2026-04-10T15:20:44Z</time></trkpt><trkpt lat="45.51581853397633" lon="9.086275826766698"><ele>147.0</ele><time>2026-04-10T15:20:45Z</time></trkpt><trkpt lat="45.5160181481628" lon="9.086515097345995"><ele>147.0</ele><time>2026-04-10T15:20:46Z</time></trkpt><trkpt lat="45.51622889746155" lon="9.086728350325071"><ele>147.5</ele><time>2026-04-10T15:20:47Z</time></trkpt><trkpt lat="45.516453609139226" lon="9.086914127172674"><ele>148.0</ele><time>2026-04-10T15:20:48Z</time></trkpt><trkpt lat="45.51669051896014" lon="9.087068708818778"><ele>148.0</ele><time>2026-04-10T15:20:49Z</time></trkpt><trkpt lat="45.51694047730176" lon="9.087178457489035"><ele>148.0</ele><time>2026-04-10T15:20:50Z</time></trkpt><trkpt lat="45.51720149481096" lon="9.087255794690146"><ele>146.5</ele><time>2026-04-10T15:20:51Z</time></trkpt><trkpt lat="45.517463244901876" lon="9.08732450057902"><ele>145.0</ele><time>2026-04-10T15:20:52Z</time></trkpt><trkpt lat="45.51772737316474" lon="9.087404364123822"><ele>143.5</ele><time>2026-04-10T15:20:53Z</time></trkpt><trkpt lat="45.517991106950944" lon="9.087480348613987"><ele>142.0</ele><time>2026-04-10T15:20:54Z</time></trkpt><trkpt lat="45.51825862165743" lon="9.08756692600382"><ele>142.0</ele><time>2026-04-10T15:20:55Z</time></trkpt><trkpt lat="45.51852544941406" lon="9.08766352951207"><ele>142.0</ele><time>2026-04-10T15:20:56Z</time></trkpt><trkpt lat="45.51879153944896" lon="9.08777297096447"><ele>142.0</ele><time>2026-04-10T15:20:57Z</time></trkpt><trkpt lat="45.519049932878254" lon="9.087901536887609"><ele>142.0</ele><time>2026-04-10T15:20:58Z</time></trkpt><trkpt lat="45.51930067627378" lon="9.08803899904993"><ele>142.0</ele><time>2026-04-10T15:20:59Z</time></trkpt><trkpt lat="45.519558801669675" lon="9.088178269609838"><ele>142.0</ele><time>2026-04-10T15:21:00Z</time></trkpt><trkpt lat="45.519812228452786" lon="9.088334004347985"><ele>143.5</ele><time>2026-04-10T15:21:01Z</time></trkpt><trkpt lat="45.52006004256849" lon="9.088496560196921"><ele>145.0</ele><time>2026-04-10T15:21:02Z</time></trkpt><trkpt lat="45.52030168664487" lon="9.088684587352738"><ele>146.5</ele><time>2026-04-10T15:21:03Z</time></trkpt><trkpt lat="45.52053723192986" lon="9.088871414874255"><ele>148.0</ele><time>2026-04-10T15:21:04Z</time></trkpt><trkpt lat="45.52077034001647" lon="9.08908110882157"><ele>147.0</ele><time>2026-04-10T15:21:05Z</time></trkpt><trkpt lat="45.52099614984319" lon="9.089292822820262"><ele>146.0</ele><time>2026-04-10T15:21:06Z</time></trkpt><trkpt lat="45.521220553750396" lon="9.089507272357439"><ele>146.0</ele><time>2026-04-10T15:21:07Z</time></trkpt><trkpt lat="45.52143941250533" lon="9.089730006707399"><ele>146.0</ele><time>2026-04-10T15:21:08Z</time></trkpt><trkpt lat="45.521653956221904" lon="9.089967043351928"><ele>146.0</ele><time>2026-04-10T15:21:09Z</time></trkpt><trkpt lat="45.5218635159313" lon="9.09020836872617"><ele>146.0</ele><time>2026-04-10T15:21:10Z</time></trkpt><trkpt lat="45.52206918131344" lon="9.09046156521827"><ele>146.5</ele><time>2026-04-10T15:21:11Z</time></trkpt><trkpt lat="45.52227010121976" lon="9.090710611171666"><ele>147.0</ele><time>2026-04-10T15:21:12Z</time></trkpt><trkpt lat="45.52247600215526" lon="9.090952166501344"><ele>147.0</ele><time>2026-04-10T15:21:13Z</time></trkpt><trkpt lat="45.52268391902155" lon="9.091184668797778"><ele>147.0</ele><time>2026-04-10T15:21:14Z</time></trkpt><trkpt lat="45.522895751540844" lon="9.091417536846102"><ele>147.0</ele><time>2026-04-10T15:21:15Z</time></trkpt><trkpt lat="45.52311115574998" lon="9.091645505281491"><ele>147.0</ele><time>2026-04-10T15:21:16Z</time></trkpt><trkpt lat="45.523327976761244" lon="9.09185759792893"><ele>147.0</ele><time>2026-04-10T15:21:17Z</time></trkpt><trkpt lat="45.52355606860462" lon="9.092054221163137"><ele>147.0</ele><time>2026-04-10T15:21:18Z</time></trkpt><trkpt lat="45.523790467472224" lon="9.092227945497733"><ele>147.0</ele><time>2026-04-10T15:21:19Z</time></trkpt><trkpt lat="45.52403367673606" lon="9.092379891866905"><ele>147.0</ele><time>2026-04-10T15:21:20Z</time></trkpt><trkpt lat="45.52428821106159" lon="9.092495953921084"><ele>147.0</ele><time>2026-04-10T15:21:21Z</time></trkpt><trkpt lat="45.524553997778156" lon="9.092567027250544"><ele>147.0</ele><time>2026-04-10T15:21:22Z</time></trkpt><trkpt lat="45.52481490805894" lon="9.092600127719116"><ele>147.0</ele><time>2026-04-10T15:21:23Z</time></trkpt><trkpt lat="45.52508581407077" lon="9.092616031046472"><ele>147.0</ele><time>2026-04-10T15:21:24Z</time></trkpt><trkpt lat="45.5253502777391" lon="9.09260331234213"><ele>147.0</ele><time>2026-04-10T15:21:25Z</time></trkpt><trkpt lat="45.52561094419635" lon="9.092601372748065"><ele>147.0</ele><time>2026-04-10T15:21:26Z</time></trkpt><trkpt lat="45.525879838654504" lon="9.092516633826595"><ele>147.0</ele><time>2026-04-10T15:21:27Z</time></trkpt><trkpt lat="45.52615133665251" lon="9.092493943186334"><ele>147.0</ele><time>2026-04-10T15:21:28Z</time></trkpt><trkpt lat="45.526413052543504" lon="9.092506099457765"><ele>148.0</ele><time>2026-04-10T15:21:29Z</time></trkpt><trkpt lat="45.52668673133644" lon="9.092551311719799"><ele>149.0</ele><time>2026-04-10T15:21:30Z</time></trkpt><trkpt lat="45.52694398564201" lon="9.092626800111598"><ele>147.0</ele><time>2026-04-10T15:21:31Z</time></trkpt><trkpt lat="45.52720372537234" lon="9.092725015036597"><ele>145.0</ele><time>2026-04-10T15:21:32Z</time></trkpt><trkpt lat="45.52745793252132" lon="9.092849479509946"><ele>145.0</ele><time>2026-04-10T15:21:33Z</time></trkpt><trkpt lat="45.52771192469595" lon="9.092991307193682"><ele>145.0</ele><time>2026-04-10T15:21:34Z</time></trkpt><trkpt lat="45.5279601653907" lon="9.093129294929819"><ele>144.5</ele><time>2026-04-10T15:21:35Z</time></trkpt><trkpt lat="45.528207137856995" lon="9.093266964139023"><ele>144.0</ele><time>2026-04-10T15:21:36Z</time></trkpt><trkpt lat="45.528456735414544" lon="9.093425070645742"><ele>144.0</ele><time>2026-04-10T15:21:37Z</time></trkpt><trkpt lat="45.528695186164356" lon="9.093602931860593"><ele>144.0</ele><time>2026-04-10T15:21:38Z</time></trkpt><trkpt lat="45.528912743530135" lon="9.09379264928288"><ele>144.5</ele><time>2026-04-10T15:21:39Z</time></trkpt><trkpt lat="45.52911242401231" lon="9.094005831839546"><ele>145.0</ele><time>2026-04-10T15:21:40Z</time></trkpt><trkpt lat="45.52930398355817" lon="9.094243049055525"><ele>145.0</ele><time>2026-04-10T15:21:40.999Z</time></trkpt><trkpt lat="45.529474351357656" lon="9.094516984117577"><ele>145.0</ele><time>2026-04-10T15:21:41.999Z</time></trkpt><trkpt lat="45.529634529226016" lon="9.094815626010542"><ele>145.5</ele><time>2026-04-10T15:21:42.999Z</time></trkpt><trkpt lat="45.52977082071318" lon="9.095133712566561"><ele>146.0</ele><time>2026-04-10T15:21:43.999Z</time></trkpt><trkpt lat="45.52989300780705" lon="9.095462971789521"><ele>145.5</ele><time>2026-04-10T15:21:44.999Z</time></trkpt><trkpt lat="45.529998000269906" lon="9.095802351200323"><ele>145.0</ele><time>2026-04-10T15:21:45.999Z</time></trkpt><trkpt lat="45.53007496308052" lon="9.096147525494194"><ele>145.0</ele><time>2026-04-10T15:21:46.999Z</time></trkpt><trkpt lat="45.53013438484501" lon="9.096499360991317"><ele>145.0</ele><time>2026-04-10T15:21:47.999Z</time></trkpt><trkpt lat="45.530174124483096" lon="9.096859526767968"><ele>146.0</ele><time>2026-04-10T15:21:48.999Z</time></trkpt><trkpt lat="45.53019227891063" lon="9.097218936055555"><ele>147.0</ele><time>2026-04-10T15:21:49.999Z</time></trkpt><trkpt lat="45.530191653610366" lon="9.097589889737822"><ele>147.0</ele><time>2026-04-10T15:21:50.999Z</time></trkpt><trkpt lat="45.53017332636063" lon="9.097933866108809"><ele>147.0</ele><time>2026-04-10T15:21:52Z</time></trkpt><trkpt lat="45.530140756577204" lon="9.098256847111434"><ele>146.66666666666666</ele><time>2026-04-10T15:21:53Z</time></trkpt><trkpt lat="45.530096210678195" lon="9.09854655573545"><ele>146.33333333333331</ele><time>2026-04-10T15:21:54Z</time></trkpt><trkpt lat="45.53004678790973" lon="9.098807413389945"><ele>146.0</ele><time>2026-04-10T15:21:55Z</time></trkpt><trkpt lat="45.530002846689236" lon="9.099025760646162"><ele>146.0</ele><time>2026-04-10T15:21:56Z</time></trkpt><trkpt lat="45.52996889990577" lon="9.099205742019512"><ele>146.0</ele><time>2026-04-10T15:21:57Z</time></trkpt><trkpt lat="45.52993692598227" lon="9.099385659962582"><ele>146.0</ele><time>2026-04-10T15:21:58Z</time></trkpt><trkpt lat="45.529901519459415" lon="9.09958827576435"><ele>146.0</ele><time>2026-04-10T15:21:59Z</time></trkpt><trkpt lat="45.52986827523449" lon="9.099785190582658"><ele>145.5</ele><time>2026-04-10T15:22:00Z</time></trkpt><trkpt lat="45.5298356022484" lon="9.099989498937056"><ele>145.0</ele><time>2026-04-10T15:22:01Z</time></trkpt><trkpt lat="45.52980594239619" lon="9.100185256753665"><ele>144.5</ele><time>2026-04-10T15:22:02Z</time></trkpt><trkpt lat="45.529776846091764" lon="9.100369527149587"><ele>144.0</ele><time>2026-04-10T15:22:03Z</time></trkpt><trkpt lat="45.5297527766881" lon="9.100558069422103"><ele>144.0</ele><time>2026-04-10T15:22:04Z</time></trkpt><trkpt lat="45.52973104865875" lon="9.100712686917209"><ele>144.0</ele><time>2026-04-10T15:22:05Z</time></trkpt><trkpt lat="45.529714973831936" lon="9.100869210808376"><ele>144.0</ele><time>2026-04-10T15:22:06Z</time></trkpt><trkpt lat="45.52970149623416" lon="9.101039927379107"><ele>144.0</ele><time>2026-04-10T15:22:07Z</time></trkpt><trkpt lat="45.529684940419465" lon="9.101231446898547"><ele>143.5</ele><time>2026-04-10T15:22:08Z</time></trkpt><trkpt lat="45.529669597288624" lon="9.101419329139498"><ele>143.0</ele><time>2026-04-10T15:22:09Z</time></trkpt><trkpt lat="45.52965759453149" lon="9.10160349399276"><ele>142.5</ele><time>2026-04-10T15:22:10Z</time></trkpt><trkpt lat="45.529645000831465" lon="9.1017791401457"><ele>142.0</ele><time>2026-04-10T15:22:11Z</time></trkpt><trkpt lat="45.529637190258406" lon="9.101946369368823"><ele>142.0</ele><time>2026-04-10T15:22:12Z</time></trkpt><trkpt lat="45.529632857260026" lon="9.102095458159779"><ele>142.0</ele><time>2026-04-10T15:22:13Z</time></trkpt><trkpt lat="45.529626181529366" lon="9.102254914722092"><ele>142.0</ele><time>2026-04-10T15:22:14Z</time></trkpt><trkpt lat="45.52962335189306" lon="9.102437747072184"><ele>142.0</ele><time>2026-04-10T15:22:15Z</time></trkpt><trkpt lat="45.529622974262864" lon="9.102628840284522"><ele>143.0</ele><time>2026-04-10T15:22:16Z</time></trkpt><trkpt lat="45.529616802343845" lon="9.102833307000342"><ele>144.0</ele><time>2026-04-10T15:22:17Z</time></trkpt><trkpt lat="45.52961741301225" lon="9.103064956066186"><ele>145.0</ele><time>2026-04-10T15:22:18Z</time></trkpt><trkpt lat="45.52962362322862" lon="9.10330779981985"><ele>145.33333333333334</ele><time>2026-04-10T15:22:19Z</time></trkpt><trkpt lat="45.52962669305015" lon="9.103556927754305"><ele>145.66666666666666</ele><time>2026-04-10T15:22:20Z</time></trkpt><trkpt lat="45.52962480150237" lon="9.103802684991075"><ele>146.0</ele><time>2026-04-10T15:22:21Z</time></trkpt><trkpt lat="45.529628504104835" lon="9.104059802120984"><ele>145.33333333333331</ele><time>2026-04-10T15:22:22Z</time></trkpt><trkpt lat="45.529652198983435" lon="9.104343659929576"><ele>144.66666666666666</ele><time>2026-04-10T15:22:23Z</time></trkpt><trkpt lat="45.5296610945152" lon="9.104619244425507"><ele>144.0</ele><time>2026-04-10T15:22:24Z</time></trkpt><trkpt lat="45.52966426879332" lon="9.104899151342856"><ele>144.33333333333334</ele><time>2026-04-10T15:22:25Z</time></trkpt><trkpt lat="45.529665813017985" lon="9.105171921288616"><ele>144.66666666666669</ele><time>2026-04-10T15:22:26Z</time></trkpt><trkpt lat="45.529672309666815" lon="9.105441580207616"><ele>145.0</ele><time>2026-04-10T15:22:27Z</time></trkpt><trkpt lat="45.529678906987044" lon="9.105689624239062"><ele>144.66666666666669</ele><time>2026-04-10T15:22:28Z</time></trkpt><trkpt lat="45.52968432701762" lon="9.105942951636166"><ele>144.33333333333334</ele><time>2026-04-10T15:22:29Z</time></trkpt><trkpt lat="45.5296894439779" lon="9.106223988497307"><ele>144.0</ele><time>2026-04-10T15:22:30Z</time></trkpt><trkpt lat="45.52969549975385" lon="9.106516832728344"><ele>144.33333333333334</ele><time>2026-04-10T15:22:31Z</time></trkpt><trkpt lat="45.52969950704157" lon="9.10682617546479"><ele>144.66666666666669</ele><time>2026-04-10T15:22:32Z</time></trkpt><trkpt lat="45.529701409226234" lon="9.10714822554653"><ele>145.0</ele><time>2026-04-10T15:22:33Z</time></trkpt><trkpt lat="45.529707522098036" lon="9.107468232681745"><ele>145.5</ele><time>2026-04-10T15:22:34Z</time></trkpt><trkpt lat="45.52972316023589" lon="9.107805522505165"><ele>146.0</ele><time>2026-04-10T15:22:35Z</time></trkpt><trkpt lat="45.52974750297612" lon="9.108142342303639"><ele>146.5</ele><time>2026-04-10T15:22:36Z</time></trkpt><trkpt lat="45.52978188464386" lon="9.108479298368952"><ele>147.0</ele><time>2026-04-10T15:22:37Z</time></trkpt><trkpt lat="45.52982581699475" lon="9.108815472485537"><ele>145.5</ele><time>2026-04-10T15:22:38Z</time></trkpt><trkpt lat="45.52988037183336" lon="9.109155256526309"><ele>144.0</ele><time>2026-04-10T15:22:39Z</time></trkpt><trkpt lat="45.52994485105513" lon="9.10949162906033"><ele>144.0</ele><time>2026-04-10T15:22:40Z</time></trkpt><trkpt lat="45.53002299219097" lon="9.109828416287389"><ele>144.0</ele><time>2026-04-10T15:22:41Z</time></trkpt><trkpt lat="45.530112362591886" lon="9.11014705918379"><ele>144.5</ele><time>2026-04-10T15:22:42Z</time></trkpt><trkpt lat="45.530216988195576" lon="9.110464455022433"><ele>145.0</ele><time>2026-04-10T15:22:43Z</time></trkpt><trkpt lat="45.53033064187035" lon="9.110771646142316"><ele>147.0</ele><time>2026-04-10T15:22:44Z</time></trkpt><trkpt lat="45.530454541296024" lon="9.111065459342273"><ele>149.0</ele><time>2026-04-10T15:22:45Z</time></trkpt><trkpt lat="45.53059517297736" lon="9.111347350130591"><ele>147.5</ele><time>2026-04-10T15:22:46Z</time></trkpt><trkpt lat="45.53074758420309" lon="9.111614037825355"><ele>146.0</ele><time>2026-04-10T15:22:47Z</time></trkpt><trkpt lat="45.53090267622485" lon="9.11186674190508"><ele>146.0</ele><time>2026-04-10T15:22:48Z</time></trkpt><trkpt lat="45.531059044364696" lon="9.11210608148227"><ele>146.0</ele><time>2026-04-10T15:22:49Z</time></trkpt><trkpt lat="45.53120935952557" lon="9.11232590205543"><ele>146.0</ele><time>2026-04-10T15:22:50Z</time></trkpt><trkpt lat="45.531363240296756" lon="9.1125175249159"><ele>145.0</ele><time>2026-04-10T15:22:51Z</time></trkpt><trkpt lat="45.531515401121375" lon="9.112680265198286"><ele>144.0</ele><time>2026-04-10T15:22:52Z</time></trkpt><trkpt lat="45.53166772440231" lon="9.112834780328647"><ele>143.0</ele><time>2026-04-10T15:22:53Z</time></trkpt><trkpt lat="45.53180344019785" lon="9.112969981938996"><ele>143.0</ele><time>2026-04-10T15:22:54Z</time></trkpt><trkpt lat="45.53192188843021" lon="9.11308757015436"><ele>143.0</ele><time>2026-04-10T15:22:55Z</time></trkpt><trkpt lat="45.53203000258039" lon="9.113191165242238"><ele>143.0</ele><time>2026-04-10T15:22:56Z</time></trkpt><trkpt lat="45.5321410980677" lon="9.11329663748975"><ele>143.0</ele><time>2026-04-10T15:22:57Z</time></trkpt><trkpt lat="45.532246396319735" lon="9.113398796030799"><ele>142.75</ele><time>2026-04-10T15:22:58Z</time></trkpt><trkpt lat="45.53235414232076" lon="9.113498571705966"><ele>142.5</ele><time>2026-04-10T15:22:59Z</time></trkpt><trkpt lat="45.5324503155916" lon="9.113592992271245"><ele>142.25</ele><time>2026-04-10T15:23:00Z</time></trkpt><trkpt lat="45.53254207721846" lon="9.113685187150395"><ele>142.0</ele><time>2026-04-10T15:23:01Z</time></trkpt><trkpt lat="45.532626799151146" lon="9.113767816061255"><ele>142.0</ele><time>2026-04-10T15:23:02Z</time></trkpt><trkpt lat="45.532701288565164" lon="9.113848909038508"><ele>142.0</ele><time>2026-04-10T15:23:03Z</time></trkpt><trkpt lat="45.53277233757426" lon="9.113940209683843"><ele>142.0</ele><time>2026-04-10T15:23:04Z</time></trkpt><trkpt lat="45.5328657272485" lon="9.114051575974564"><ele>142.0</ele><time>2026-04-10T15:23:05Z</time></trkpt><trkpt lat="45.53297931943038" lon="9.114187365622834"><ele>143.0</ele><time>2026-04-10T15:23:06Z</time></trkpt><trkpt lat="45.533120008547016" lon="9.114353484509621"><ele>144.0</ele><time>2026-04-10T15:23:06.999Z</time></trkpt><trkpt lat="45.53325236437146" lon="9.114516650578489"><ele>145.0</ele><time>2026-04-10T15:23:07.999Z</time></trkpt><trkpt lat="45.5334008276734" lon="9.114707876384545"><ele>145.0</ele><time>2026-04-10T15:23:08.999Z</time></trkpt><trkpt lat="45.53353405898059" lon="9.114894851892924"><ele>145.0</ele><time>2026-04-10T15:23:09.999Z</time></trkpt><trkpt lat="45.53366460876905" lon="9.11507887506806"><ele>145.0</ele><time>2026-04-10T15:23:10.999Z</time></trkpt><trkpt lat="45.53381921810507" lon="9.115295830637619"><ele>145.66666666666669</ele><time>2026-04-10T15:23:11.999Z</time></trkpt><trkpt lat="45.53396648246717" lon="9.115502707147003"><ele>146.33333333333334</ele><time>2026-04-10T15:23:12.999Z</time></trkpt><trkpt lat="45.534110815152374" lon="9.115713587694826"><ele>147.0</ele><time>2026-04-10T15:23:13.999Z</time></trkpt><trkpt lat="45.53421894268725" lon="9.115929465583944"><ele>147.0</ele><time>2026-04-10T15:23:14.999Z</time></trkpt><trkpt lat="45.53428854666937" lon="9.116203170062658"><ele>147.0</ele><time>2026-04-10T15:23:15.999Z</time></trkpt><trkpt lat="45.534365114022634" lon="9.116395747480142"><ele>147.0</ele><time>2026-04-10T15:23:16.999Z</time></trkpt><trkpt lat="45.53444935803913" lon="9.116623645739693"><ele>146.66666666666666</ele><time>2026-04-10T15:23:17.999Z</time></trkpt><trkpt lat="45.5344927685066" lon="9.11687122942587"><ele>146.33333333333331</ele><time>2026-04-10T15:23:18.999Z</time></trkpt><trkpt lat="45.534549122770485" lon="9.117095729871279"><ele>146.0</ele><time>2026-04-10T15:23:19.999Z</time></trkpt><trkpt lat="45.534604659364526" lon="9.117331001728186"><ele>146.33333333333331</ele><time>2026-04-10T15:23:20.999Z</time></trkpt><trkpt lat="45.53465698996627" lon="9.117561577955804"><ele>146.66666666666666</ele><time>2026-04-10T15:23:21.999Z</time></trkpt><trkpt lat="45.53470919191396" lon="9.11779802341934"><ele>147.0</ele><time>2026-04-10T15:23:22.999Z</time></trkpt><trkpt lat="45.534765472209344" lon="9.118038231675092"><ele>147.0</ele><time>2026-04-10T15:23:23.999Z</time></trkpt><trkpt lat="45.5348195432965" lon="9.1182784385542"><ele>147.0</ele><time>2026-04-10T15:23:24.999Z</time></trkpt><trkpt lat="45.534878060626994" lon="9.118530304224905"><ele>147.0</ele><time>2026-04-10T15:23:25.999Z</time></trkpt><trkpt lat="45.534934014786614" lon="9.11877786456621"><ele>147.0</ele><time>2026-04-10T15:23:26.999Z</time></trkpt><trkpt lat="45.534990803730004" lon="9.119039179539918"><ele>147.0</ele><time>2026-04-10T15:23:27.999Z</time></trkpt><trkpt lat="45.53504677845425" lon="9.119288908809855"><ele>147.0</ele><time>2026-04-10T15:23:28.999Z</time></trkpt><trkpt lat="45.535103535282246" lon="9.119558342058372"><ele>147.0</ele><time>2026-04-10T15:23:29.999Z</time></trkpt><trkpt lat="45.535161026592384" lon="9.119829208099745"><ele>147.0</ele><time>2026-04-10T15:23:30.999Z</time></trkpt><trkpt lat="45.53521827765958" lon="9.120093482867285"><ele>147.0</ele><time>2026-04-10T15:23:31.999Z</time></trkpt><trkpt lat="45.53527553416677" lon="9.120375815332274"><ele>147.0</ele><time>2026-04-10T15:23:32.999Z</time></trkpt><trkpt lat="45.53533636938175" lon="9.120645403174258"><ele>147.0</ele><time>2026-04-10T15:23:33.999Z</time></trkpt><trkpt lat="45.53540218696269" lon="9.120933979325573"><ele>147.0</ele><time>2026-04-10T15:23:34.999Z</time></trkpt><trkpt lat="45.53546592663265" lon="9.121223676658405"><ele>147.33333333333334</ele><time>2026-04-10T15:23:35.999Z</time></trkpt><trkpt lat="45.535528377950044" lon="9.121504688289937"><ele>147.66666666666669</ele><time>2026-04-10T15:23:36.999Z</time></trkpt><trkpt lat="45.535592370147576" lon="9.121804275928199"><ele>148.0</ele><time>2026-04-10T15:23:37.999Z</time></trkpt><trkpt lat="45.535656331214106" lon="9.122094616492934"><ele>146.66666666666669</ele><time>2026-04-10T15:23:38.999Z</time></trkpt><trkpt lat="45.53572143602187" lon="9.122389493197373"><ele>145.33333333333334</ele><time>2026-04-10T15:23:39.999Z</time></trkpt><trkpt lat="45.53578375553524" lon="9.122684100849286"><ele>144.0</ele><time>2026-04-10T15:23:40.999Z</time></trkpt><trkpt lat="45.535848133874026" lon="9.122971414554605"><ele>145.0</ele><time>2026-04-10T15:23:41.999Z</time></trkpt><trkpt lat="45.53591602061272" lon="9.123282273108481"><ele>146.0</ele><time>2026-04-10T15:23:42.999Z</time></trkpt><trkpt lat="45.53599023084956" lon="9.123584558835411"><ele>146.0</ele><time>2026-04-10T15:23:43.999Z</time></trkpt><trkpt lat="45.53608000869034" lon="9.12386934145042"><ele>146.0</ele><time>2026-04-10T15:23:44.999Z</time></trkpt><trkpt lat="45.53618083693281" lon="9.124123920278679"><ele>146.0</ele><time>2026-04-10T15:23:45.999Z</time></trkpt><trkpt lat="45.53629712454945" lon="9.124370800045387"><ele>146.5</ele><time>2026-04-10T15:23:46.999Z</time></trkpt><trkpt lat="45.536425815504685" lon="9.124632306409753"><ele>147.0</ele><time>2026-04-10T15:23:47.999Z</time></trkpt><trkpt lat="45.53656316380988" lon="9.124901246256357"><ele>147.0</ele><time>2026-04-10T15:23:48.999Z</time></trkpt><trkpt lat="45.53670645525138" lon="9.125172825422684"><ele>147.0</ele><time>2026-04-10T15:23:49.999Z</time></trkpt><trkpt lat="45.536846642238494" lon="9.125416465718832"><ele>147.0</ele><time>2026-04-10T15:23:50.999Z</time></trkpt><trkpt lat="45.53698251353383" lon="9.125645857488378"><ele>147.0</ele><time>2026-04-10T15:23:51.999Z</time></trkpt><trkpt lat="45.5371389609219" lon="9.12589208935752"><ele>147.0</ele><time>2026-04-10T15:23:52.999Z</time></trkpt><trkpt lat="45.53728731716688" lon="9.12612438036159"><ele>148.0</ele><time>2026-04-10T15:23:53.999Z</time></trkpt><trkpt lat="45.53742740572259" lon="9.126351967572946"><ele>149.0</ele><time>2026-04-10T15:23:54.999Z</time></trkpt><trkpt lat="45.53757887738065" lon="9.126588350455233"><ele>150.0</ele><time>2026-04-10T15:23:55.999Z</time></trkpt><trkpt lat="45.53773312526665" lon="9.126829189442251"><ele>150.5</ele><time>2026-04-10T15:23:56.999Z</time></trkpt><trkpt lat="45.5378868248744" lon="9.12707239286204"><ele>151.0</ele><time>2026-04-10T15:23:58Z</time></trkpt><trkpt lat="45.53803674817292" lon="9.127313592618275"><ele>151.5</ele><time>2026-04-10T15:23:59Z</time></trkpt><trkpt lat="45.538189187497" lon="9.12755736282133"><ele>152.0</ele><time>2026-04-10T15:24:00Z</time></trkpt><trkpt lat="45.53834591644911" lon="9.127788372844767"><ele>152.0</ele><time>2026-04-10T15:24:01Z</time></trkpt><trkpt lat="45.538500051024315" lon="9.128016782085856"><ele>152.0</ele><time>2026-04-10T15:24:02Z</time></trkpt><trkpt lat="45.53863205599029" lon="9.128230475200905"><ele>152.0</ele><time>2026-04-10T15:24:03Z</time></trkpt><trkpt lat="45.53876912980048" lon="9.128444688969958"><ele>151.66666666666666</ele><time>2026-04-10T15:24:04Z</time></trkpt><trkpt lat="45.53888054027482" lon="9.128609847027475"><ele>151.33333333333334</ele><time>2026-04-10T15:24:05Z</time></trkpt><trkpt lat="45.53899667687022" lon="9.128796558579088"><ele>151.0</ele><time>2026-04-10T15:24:06Z</time></trkpt><trkpt lat="45.53911704905298" lon="9.129004609174855"><ele>151.0</ele><time>2026-04-10T15:24:07Z</time></trkpt><trkpt lat="45.53923494223949" lon="9.129195111148935"><ele>151.0</ele><time>2026-04-10T15:24:08Z</time></trkpt><trkpt lat="45.53935436369959" lon="9.12937088384466"><ele>151.0</ele><time>2026-04-10T15:24:09Z</time></trkpt><trkpt lat="45.539495092025426" lon="9.129564822523651"><ele>151.0</ele><time>2026-04-10T15:24:10Z</time></trkpt><trkpt lat="45.5396211032902" lon="9.129823934873018"><ele>151.0</ele><time>2026-04-10T15:24:11Z</time></trkpt><trkpt lat="45.53977503741597" lon="9.1300088243299"><ele>151.0</ele><time>2026-04-10T15:24:12Z</time></trkpt><trkpt lat="45.539919668213315" lon="9.13022566535514"><ele>151.0</ele><time>2026-04-10T15:24:13Z</time></trkpt><trkpt lat="45.54004302780343" lon="9.130438247429916"><ele>151.0</ele><time>2026-04-10T15:24:14Z</time></trkpt><trkpt lat="45.54017938779718" lon="9.130667430534658"><ele>151.0</ele><time>2026-04-10T15:24:15Z</time></trkpt><trkpt lat="45.54032654666265" lon="9.13089139010855"><ele>151.5</ele><time>2026-04-10T15:24:16Z</time></trkpt><trkpt lat="45.5404827482136" lon="9.13112319994019"><ele>152.0</ele><time>2026-04-10T15:24:17Z</time></trkpt><trkpt lat="45.5406345224876" lon="9.13138262635863"><ele>150.5</ele><time>2026-04-10T15:24:18Z</time></trkpt><trkpt lat="45.54077906779865" lon="9.1316435493625"><ele>149.0</ele><time>2026-04-10T15:24:19Z</time></trkpt><trkpt lat="45.540925714224215" lon="9.131903852882644"><ele>149.0</ele><time>2026-04-10T15:24:20Z</time></trkpt><trkpt lat="45.541056011236606" lon="9.13213923664749"><ele>149.0</ele><time>2026-04-10T15:24:21Z</time></trkpt><trkpt lat="45.541186883315305" lon="9.13238757781412"><ele>149.0</ele><time>2026-04-10T15:24:22Z</time></trkpt><trkpt lat="45.541306413548774" lon="9.132650264949822"><ele>149.33333333333331</ele><time>2026-04-10T15:24:23Z</time></trkpt><trkpt lat="45.541400433036664" lon="9.13291091261584"><ele>149.66666666666666</ele><time>2026-04-10T15:24:24Z</time></trkpt><trkpt lat="45.54148930366394" lon="9.133206651231015"><ele>150.0</ele><time>2026-04-10T15:24:25Z</time></trkpt><trkpt lat="45.541578273508875" lon="9.133492260790137"><ele>150.0</ele><time>2026-04-10T15:24:26Z</time></trkpt><trkpt lat="45.541642689958856" lon="9.133791908541106"><ele>150.0</ele><time>2026-04-10T15:24:27Z</time></trkpt><trkpt lat="45.54170247246953" lon="9.134120484106969"><ele>150.0</ele><time>2026-04-10T15:24:28Z</time></trkpt><trkpt lat="45.54176279301957" lon="9.134468311591565"><ele>150.0</ele><time>2026-04-10T15:24:29Z</time></trkpt><trkpt lat="45.54181070591106" lon="9.134810342733209"><ele>151.0</ele><time>2026-04-10T15:24:30Z</time></trkpt><trkpt lat="45.541851696970056" lon="9.135134709293206"><ele>152.0</ele><time>2026-04-10T15:24:31Z</time></trkpt><trkpt lat="45.541889034799006" lon="9.135467948168227"><ele>151.5</ele><time>2026-04-10T15:24:32Z</time></trkpt><trkpt lat="45.54192414413769" lon="9.13581163574647"><ele>151.0</ele><time>2026-04-10T15:24:33Z</time></trkpt><trkpt lat="45.54195379157519" lon="9.13615902391207"><ele>151.0</ele><time>2026-04-10T15:24:34Z</time></trkpt><trkpt lat="45.5419783003794" lon="9.136507799702454"><ele>151.0</ele><time>2026-04-10T15:24:35Z</time></trkpt><trkpt lat="45.54200033333692" lon="9.136849451587565"><ele>151.0</ele><time>2026-04-10T15:24:36Z</time></trkpt><trkpt lat="45.54202104444582" lon="9.137183080893639"><ele>151.0</ele><time>2026-04-10T15:24:37Z</time></trkpt><trkpt lat="45.542046461662274" lon="9.137504811122012"><ele>150.5</ele><time>2026-04-10T15:24:38Z</time></trkpt><trkpt lat="45.542073885369966" lon="9.1378241156305"><ele>150.0</ele><time>2026-04-10T15:24:39Z</time></trkpt><trkpt lat="45.54210153404186" lon="9.13815329180661"><ele>150.5</ele><time>2026-04-10T15:24:40Z</time></trkpt><trkpt lat="45.54212330253305" lon="9.138493876247354"><ele>151.0</ele><time>2026-04-10T15:24:41Z</time></trkpt><trkpt lat="45.54214115313045" lon="9.138835329415459"><ele>151.5</ele><time>2026-04-10T15:24:42Z</time></trkpt><trkpt lat="45.542163115683515" lon="9.139183731725833"><ele>152.0</ele><time>2026-04-10T15:24:43Z</time></trkpt><trkpt lat="45.54219126215803" lon="9.139506952892"><ele>152.0</ele><time>2026-04-10T15:24:44Z</time></trkpt><trkpt lat="45.54222243818807" lon="9.139829551444052"><ele>152.0</ele><time>2026-04-10T15:24:45Z</time></trkpt><trkpt lat="45.542249297259666" lon="9.14013271895719"><ele>152.0</ele><time>2026-04-10T15:24:46Z</time></trkpt><trkpt lat="45.54227377535692" lon="9.140443780156351"><ele>151.0</ele><time>2026-04-10T15:24:47Z</time></trkpt><trkpt lat="45.542294874224" lon="9.140751714275261"><ele>150.0</ele><time>2026-04-10T15:24:48Z</time></trkpt><trkpt lat="45.54231768817265" lon="9.141068062369005"><ele>149.0</ele><time>2026-04-10T15:24:49Z</time></trkpt><trkpt lat="45.54234460610599" lon="9.141392146396864"><ele>149.0</ele><time>2026-04-10T15:24:50Z</time></trkpt><trkpt lat="45.542366200612875" lon="9.141721336531313"><ele>149.0</ele><time>2026-04-10T15:24:51Z</time></trkpt><trkpt lat="45.54238339803991" lon="9.14204255043949"><ele>149.0</ele><time>2026-04-10T15:24:52Z</time></trkpt><trkpt lat="45.542393625351046" lon="9.142362146985702"><ele>149.0</ele><time>2026-04-10T15:24:53Z</time></trkpt><trkpt lat="45.54240499484569" lon="9.142717795564744"><ele>148.5</ele><time>2026-04-10T15:24:54Z</time></trkpt><trkpt lat="45.54247335975764" lon="9.14305541604528"><ele>148.0</ele><time>2026-04-10T15:24:55Z</time></trkpt><trkpt lat="45.54250321347345" lon="9.143387525275095"><ele>148.0</ele><time>2026-04-10T15:24:56Z</time></trkpt><trkpt lat="45.542525768708806" lon="9.143710845409224"><ele>148.0</ele><time>2026-04-10T15:24:57Z</time></trkpt><trkpt lat="45.54255225389029" lon="9.144042547342082"><ele>148.0</ele><time>2026-04-10T15:24:58Z</time></trkpt><trkpt lat="45.54259497960179" lon="9.144377343482764"><ele>148.0</ele><time>2026-04-10T15:24:59Z</time></trkpt><trkpt lat="45.54266013054462" lon="9.144697286162339"><ele>148.5</ele><time>2026-04-10T15:25:00Z</time></trkpt><trkpt lat="45.5427355271332" lon="9.145006208532616"><ele>149.0</ele><time>2026-04-10T15:25:01Z</time></trkpt><trkpt lat="45.54281714809902" lon="9.145324874351353"><ele>149.5</ele><time>2026-04-10T15:25:02Z</time></trkpt><trkpt lat="45.54291616336983" lon="9.145650231677086"><ele>150.0</ele><time>2026-04-10T15:25:03Z</time></trkpt><trkpt lat="45.543034204759444" lon="9.145955199012766"><ele>150.0</ele><time>2026-04-10T15:25:04Z</time></trkpt><trkpt lat="45.543175128117916" lon="9.146246180407198"><ele>150.0</ele><time>2026-04-10T15:25:05Z</time></trkpt><trkpt lat="45.5433294396881" lon="9.146517811319557"><ele>149.5</ele><time>2026-04-10T15:25:06Z</time></trkpt><trkpt lat="45.54349256629756" lon="9.146783667853926"><ele>149.0</ele><time>2026-04-10T15:25:07Z</time></trkpt><trkpt lat="45.543662778282716" lon="9.147035925323868"><ele>150.5</ele><time>2026-04-10T15:25:08Z</time></trkpt><trkpt lat="45.543841047741616" lon="9.147275307103259"><ele>152.0</ele><time>2026-04-10T15:25:09Z</time></trkpt><trkpt lat="45.54403512883585" lon="9.147496204576829"><ele>152.0</ele><time>2026-04-10T15:25:10Z</time></trkpt><trkpt lat="45.544238058002485" lon="9.147679442682145"><ele>152.0</ele><time>2026-04-10T15:25:11Z</time></trkpt><trkpt lat="45.54444022408196" lon="9.147840254234788"><ele>152.33333333333331</ele><time>2026-04-10T15:25:12Z</time></trkpt><trkpt lat="45.54463169512558" lon="9.147968899845667"><ele>152.66666666666666</ele><time>2026-04-10T15:25:13Z</time></trkpt><trkpt lat="45.544827650712406" lon="9.148078337150444"><ele>153.0</ele><time>2026-04-10T15:25:14Z</time></trkpt><trkpt lat="45.545012685995374" lon="9.148172979098344"><ele>152.66666666666666</ele><time>2026-04-10T15:25:15Z</time></trkpt><trkpt lat="45.54519690508239" lon="9.148249618787382"><ele>152.33333333333331</ele><time>2026-04-10T15:25:16Z</time></trkpt><trkpt lat="45.545377606734" lon="9.14830726357103"><ele>152.0</ele><time>2026-04-10T15:25:17Z</time></trkpt><trkpt lat="45.54557199406753" lon="9.14835259214506"><ele>152.0</ele><time>2026-04-10T15:25:18Z</time></trkpt><trkpt lat="45.54576495298567" lon="9.148385141648287"><ele>152.0</ele><time>2026-04-10T15:25:19Z</time></trkpt><trkpt lat="45.545940364701586" lon="9.148406010947483"><ele>152.0</ele><time>2026-04-10T15:25:20Z</time></trkpt><trkpt lat="45.54612048067486" lon="9.148417298092003"><ele>152.66666666666666</ele><time>2026-04-10T15:25:21Z</time></trkpt><trkpt lat="45.546315849925946" lon="9.148419043492531"><ele>153.33333333333334</ele><time>2026-04-10T15:25:22Z</time></trkpt><trkpt lat="45.546515588779826" lon="9.148402151372734"><ele>154.0</ele><time>2026-04-10T15:25:23Z</time></trkpt><trkpt lat="45.546711635061776" lon="9.148369272664743"><ele>154.0</ele><time>2026-04-10T15:25:24Z</time></trkpt><trkpt lat="45.54692057279761" lon="9.148309088426325"><ele>154.0</ele><time>2026-04-10T15:25:25Z</time></trkpt><trkpt lat="45.54711422305543" lon="9.148237472470125"><ele>154.0</ele><time>2026-04-10T15:25:26Z</time></trkpt><trkpt lat="45.54730142962186" lon="9.148163021704384"><ele>154.0</ele><time>2026-04-10T15:25:27Z</time></trkpt><trkpt lat="45.54749711952482" lon="9.148081058088023"><ele>154.0</ele><time>2026-04-10T15:25:28Z</time></trkpt><trkpt lat="45.54770156514398" lon="9.147995436991117"><ele>154.0</ele><time>2026-04-10T15:25:29Z</time></trkpt><trkpt lat="45.54791088097257" lon="9.147910171178523"><ele>153.66666666666669</ele><time>2026-04-10T15:25:29.999Z</time></trkpt><trkpt lat="45.548113546042444" lon="9.147824227430839"><ele>153.33333333333334</ele><time>2026-04-10T15:25:30.999Z</time></trkpt><trkpt lat="45.548333569238736" lon="9.147731237552248"><ele>153.0</ele><time>2026-04-10T15:25:31.999Z</time></trkpt><trkpt lat="45.548574715314025" lon="9.14763174227471"><ele>153.5</ele><time>2026-04-10T15:25:32.999Z</time></trkpt><trkpt lat="45.54882567318589" lon="9.147531269975836"><ele>154.0</ele><time>2026-04-10T15:25:33.999Z</time></trkpt><trkpt lat="45.54907600301101" lon="9.147417156441609"><ele>153.5</ele><time>2026-04-10T15:25:34.999Z</time></trkpt><trkpt lat="45.5493051934227" lon="9.147309645532813"><ele>153.0</ele><time>2026-04-10T15:25:35.999Z</time></trkpt><trkpt lat="45.549523076374086" lon="9.147216613079589"><ele>152.66666666666666</ele><time>2026-04-10T15:25:36.999Z</time></trkpt><trkpt lat="45.54973713693166" lon="9.147127300977345"><ele>152.33333333333331</ele><time>2026-04-10T15:25:37.999Z</time></trkpt><trkpt lat="45.54994969172918" lon="9.14704203731293"><ele>152.0</ele><time>2026-04-10T15:25:38.999Z</time></trkpt><trkpt lat="45.550173006504956" lon="9.146950219966929"><ele>152.5</ele><time>2026-04-10T15:25:39.999Z</time></trkpt><trkpt lat="45.550409512670775" lon="9.146856343636175"><ele>153.0</ele><time>2026-04-10T15:25:40.999Z</time></trkpt><trkpt lat="45.55064988630242" lon="9.146758468320058"><ele>153.0</ele><time>2026-04-10T15:25:41.999Z</time></trkpt><trkpt lat="45.55089290013191" lon="9.146657449507243"><ele>153.0</ele><time>2026-04-10T15:25:42.999Z</time></trkpt><trkpt lat="45.55113010407947" lon="9.146556942518455"><ele>153.0</ele><time>2026-04-10T15:25:43.999Z</time></trkpt><trkpt lat="45.55137439407544" lon="9.146453707080527"><ele>153.0</ele><time>2026-04-10T15:25:44.999Z</time></trkpt><trkpt lat="45.5516199523212" lon="9.146352003713053"><ele>153.0</ele><time>2026-04-10T15:25:45.999Z</time></trkpt><trkpt lat="45.5518496261043" lon="9.146260574283778"><ele>153.0</ele><time>2026-04-10T15:25:46.999Z</time></trkpt><trkpt lat="45.55206127884086" lon="9.146173003587576"><ele>152.5</ele><time>2026-04-10T15:25:47.999Z</time></trkpt><trkpt lat="45.55228422662725" lon="9.146083571028415"><ele>152.0</ele><time>2026-04-10T15:25:48.999Z</time></trkpt><trkpt lat="45.552518817480184" lon="9.145989703752868"><ele>152.0</ele><time>2026-04-10T15:25:49.999Z</time></trkpt><trkpt lat="45.55276550903694" lon="9.145876580382229"><ele>152.0</ele><time>2026-04-10T15:25:50.999Z</time></trkpt><trkpt lat="45.55301112408028" lon="9.145768420478609"><ele>153.0</ele><time>2026-04-10T15:25:51.999Z</time></trkpt><trkpt lat="45.5532628336833" lon="9.145670773859766"><ele>154.0</ele><time>2026-04-10T15:25:52.999Z</time></trkpt><trkpt lat="45.553504787316825" lon="9.14558345600518"><ele>153.66666666666669</ele><time>2026-04-10T15:25:53.999Z</time></trkpt><trkpt lat="45.553732044104244" lon="9.145518559655779"><ele>153.33333333333334</ele><time>2026-04-10T15:25:54.999Z</time></trkpt><trkpt lat="45.55394110417373" lon="9.145465195470287"><ele>153.0</ele><time>2026-04-10T15:25:55.999Z</time></trkpt><trkpt lat="45.55415075659994" lon="9.1454201383267"><ele>153.0</ele><time>2026-04-10T15:25:56.999Z</time></trkpt><trkpt lat="45.554360076223034" lon="9.145387224923054"><ele>153.0</ele><time>2026-04-10T15:25:57.999Z</time></trkpt><trkpt lat="45.55457350096439" lon="9.145373451902175"><ele>153.0</ele><time>2026-04-10T15:25:58.999Z</time></trkpt><trkpt lat="45.554784217704125" lon="9.1453812035563"><ele>154.0</ele><time>2026-04-10T15:25:59.999Z</time></trkpt><trkpt lat="45.55500580669731" lon="9.145404316581283"><ele>155.0</ele><time>2026-04-10T15:26:00.999Z</time></trkpt><trkpt lat="45.55522483322043" lon="9.14544804887911"><ele>156.0</ele><time>2026-04-10T15:26:01.999Z</time></trkpt><trkpt lat="45.555443099983066" lon="9.145508532468115"><ele>156.5</ele><time>2026-04-10T15:26:02.999Z</time></trkpt><trkpt lat="45.55566636818676" lon="9.145589911624695"><ele>157.0</ele><time>2026-04-10T15:26:04Z</time></trkpt><trkpt lat="45.55588445263713" lon="9.145690616064297"><ele>157.0</ele><time>2026-04-10T15:26:05Z</time></trkpt><trkpt lat="45.556110075075146" lon="9.1458357358113"><ele>157.0</ele><time>2026-04-10T15:26:06Z</time></trkpt><trkpt lat="45.55633473075721" lon="9.14602132470622"><ele>157.0</ele><time>2026-04-10T15:26:07Z</time></trkpt><trkpt lat="45.556556228926546" lon="9.146224604419624"><ele>157.0</ele><time>2026-04-10T15:26:08Z</time></trkpt><trkpt lat="45.55676655449369" lon="9.146439312146294"><ele>157.0</ele><time>2026-04-10T15:26:09Z</time></trkpt><trkpt lat="45.55696765151789" lon="9.14666401055002"><ele>157.0</ele><time>2026-04-10T15:26:10Z</time></trkpt><trkpt lat="45.557160947749416" lon="9.146908472280193"><ele>157.0</ele><time>2026-04-10T15:26:11Z</time></trkpt><trkpt lat="45.55733814195646" lon="9.147170812784719"><ele>157.0</ele><time>2026-04-10T15:26:12Z</time></trkpt><trkpt lat="45.55750045965271" lon="9.147449029341876"><ele>158.5</ele><time>2026-04-10T15:26:13Z</time></trkpt><trkpt lat="45.55765202502233" lon="9.14774785560736"><ele>160.0</ele><time>2026-04-10T15:26:14Z</time></trkpt><trkpt lat="45.557785537670625" lon="9.148057894510854"><ele>159.5</ele><time>2026-04-10T15:26:15Z</time></trkpt><trkpt lat="45.557905582083336" lon="9.14837436135757"><ele>159.0</ele><time>2026-04-10T15:26:16Z</time></trkpt><trkpt lat="45.55801649354868" lon="9.148713923712942"><ele>159.0</ele><time>2026-04-10T15:26:17Z</time></trkpt><trkpt lat="45.558110975623244" lon="9.149052501832257"><ele>159.0</ele><time>2026-04-10T15:26:18Z</time></trkpt><trkpt lat="45.55819043124454" lon="9.149391246502875"><ele>159.0</ele><time>2026-04-10T15:26:19Z</time></trkpt><trkpt lat="45.5582599125828" lon="9.149739074965494"><ele>159.0</ele><time>2026-04-10T15:26:20Z</time></trkpt><trkpt lat="45.558316979841535" lon="9.150088818651367"><ele>159.0</ele><time>2026-04-10T15:26:21Z</time></trkpt><trkpt lat="45.55837643904331" lon="9.150436884159335"><ele>159.0</ele><time>2026-04-10T15:26:22Z</time></trkpt><trkpt lat="45.55843878215192" lon="9.150789526304868"><ele>159.0</ele><time>2026-04-10T15:26:23Z</time></trkpt><trkpt lat="45.55850211285063" lon="9.15113603751529"><ele>159.0</ele><time>2026-04-10T15:26:24Z</time></trkpt><trkpt lat="45.55856743595142" lon="9.151491655890672"><ele>157.5</ele><time>2026-04-10T15:26:25Z</time></trkpt><trkpt lat="45.55863247833604" lon="9.151842111220775"><ele>156.0</ele><time>2026-04-10T15:26:26Z</time></trkpt><trkpt lat="45.558695973263696" lon="9.152189757104097"><ele>157.5</ele><time>2026-04-10T15:26:27Z</time></trkpt><trkpt lat="45.55875988243377" lon="9.15254703561327"><ele>159.0</ele><time>2026-04-10T15:26:28Z</time></trkpt><trkpt lat="45.5588231380681" lon="9.152904459504088"><ele>159.0</ele><time>2026-04-10T15:26:29Z</time></trkpt><trkpt lat="45.558884789210396" lon="9.153263099721924"><ele>159.0</ele><time>2026-04-10T15:26:30Z</time></trkpt><trkpt lat="45.55894239792849" lon="9.153625129737335"><ele>159.0</ele><time>2026-04-10T15:26:31Z</time></trkpt><trkpt lat="45.55898695662218" lon="9.153980045395484"><ele>159.0</ele><time>2026-04-10T15:26:32Z</time></trkpt><trkpt lat="45.55901746418569" lon="9.15433077566145"><ele>159.5</ele><time>2026-04-10T15:26:33Z</time></trkpt><trkpt lat="45.55903209065321" lon="9.154696185379334"><ele>160.0</ele><time>2026-04-10T15:26:34Z</time></trkpt><trkpt lat="45.55902532632049" lon="9.155053646869067"><ele>160.0</ele><time>2026-04-10T15:26:35Z</time></trkpt><trkpt lat="45.55899983087275" lon="9.155408532561525"><ele>160.0</ele><time>2026-04-10T15:26:36Z</time></trkpt><trkpt lat="45.55895271246957" lon="9.155766595853018"><ele>159.5</ele><time>2026-04-10T15:26:37Z</time></trkpt><trkpt lat="45.55888634426545" lon="9.156119114993249"><ele>159.0</ele><time>2026-04-10T15:26:38Z</time></trkpt><trkpt lat="45.558803011052596" lon="9.156462544276728"><ele>159.5</ele><time>2026-04-10T15:26:39Z</time></trkpt><trkpt lat="45.558704988058636" lon="9.156799103344241"><ele>160.0</ele><time>2026-04-10T15:26:40Z</time></trkpt><trkpt lat="45.55859950853106" lon="9.157117860628254"><ele>160.0</ele><time>2026-04-10T15:26:41Z</time></trkpt><trkpt lat="45.558493248915454" lon="9.157422880727575"><ele>160.0</ele><time>2026-04-10T15:26:42Z</time></trkpt><trkpt lat="45.55839045171219" lon="9.157739021064117"><ele>160.0</ele><time>2026-04-10T15:26:43Z</time></trkpt><trkpt lat="45.55829546299647" lon="9.158069364502097"><ele>160.0</ele><time>2026-04-10T15:26:44Z</time></trkpt><trkpt lat="45.55822266268961" lon="9.158381819670412"><ele>160.0</ele><time>2026-04-10T15:26:45Z</time></trkpt><trkpt lat="45.558165081359675" lon="9.158714732504123"><ele>160.0</ele><time>2026-04-10T15:26:46Z</time></trkpt><trkpt lat="45.558126181866356" lon="9.159061135708406"><ele>160.0</ele><time>2026-04-10T15:26:47Z</time></trkpt><trkpt lat="45.55811109259571" lon="9.159420978279433"><ele>160.0</ele><time>2026-04-10T15:26:48Z</time></trkpt><trkpt lat="45.558105884372196" lon="9.159776803648372"><ele>159.5</ele><time>2026-04-10T15:26:49Z</time></trkpt><trkpt lat="45.558107102401266" lon="9.160150640207855"><ele>159.0</ele><time>2026-04-10T15:26:50Z</time></trkpt><trkpt lat="45.558110782090566" lon="9.160515404274035"><ele>158.5</ele><time>2026-04-10T15:26:51Z</time></trkpt><trkpt lat="45.55811500685294" lon="9.160885597606457"><ele>158.0</ele><time>2026-04-10T15:26:52Z</time></trkpt><trkpt lat="45.55811771745262" lon="9.161259554515695"><ele>158.0</ele><time>2026-04-10T15:26:53Z</time></trkpt><trkpt lat="45.558119878719346" lon="9.161630400235232"><ele>158.0</ele><time>2026-04-10T15:26:54Z</time></trkpt><trkpt lat="45.558123021621824" lon="9.16199904437683"><ele>159.5</ele><time>2026-04-10T15:26:55Z</time></trkpt><trkpt lat="45.558125736939594" lon="9.162380396954209"><ele>161.0</ele><time>2026-04-10T15:26:56Z</time></trkpt><trkpt lat="45.558126678031506" lon="9.162753075880637"><ele>161.0</ele><time>2026-04-10T15:26:57Z</time></trkpt><trkpt lat="45.55800528485118" lon="9.163109645779718"><ele>161.0</ele><time>2026-04-10T15:26:58Z</time></trkpt><trkpt lat="45.55798435341498" lon="9.163486040119128"><ele>160.0</ele><time>2026-04-10T15:26:59Z</time></trkpt><trkpt lat="45.55814000240606" lon="9.163889282831247"><ele>159.0</ele><time>2026-04-10T15:27:00Z</time></trkpt><trkpt lat="45.55814703872907" lon="9.164264391670441"><ele>157.5</ele><time>2026-04-10T15:27:01Z</time></trkpt><trkpt lat="45.55815967489763" lon="9.164654246663467"><ele>156.0</ele><time>2026-04-10T15:27:02Z</time></trkpt><trkpt lat="45.55817761141321" lon="9.165035974265573"><ele>156.0</ele><time>2026-04-10T15:27:03Z</time></trkpt><trkpt lat="45.55820230373254" lon="9.165429742368179"><ele>156.0</ele><time>2026-04-10T15:27:04Z</time></trkpt><trkpt lat="45.55823210633242" lon="9.165818416463505"><ele>156.0</ele><time>2026-04-10T15:27:05Z</time></trkpt><trkpt lat="45.558273026868704" lon="9.16620517856559"><ele>156.0</ele><time>2026-04-10T15:27:06Z</time></trkpt><trkpt lat="45.55832787047492" lon="9.166595016637878"><ele>156.5</ele><time>2026-04-10T15:27:07Z</time></trkpt><trkpt lat="45.55839207195467" lon="9.166968388239514"><ele>157.0</ele><time>2026-04-10T15:27:08Z</time></trkpt><trkpt lat="45.558472307835025" lon="9.167347646001842"><ele>158.0</ele><time>2026-04-10T15:27:09Z</time></trkpt><trkpt lat="45.55856111763664" lon="9.167714607081964"><ele>159.0</ele><time>2026-04-10T15:27:10Z</time></trkpt><trkpt lat="45.55866798770799" lon="9.168080259987752"><ele>158.0</ele><time>2026-04-10T15:27:11Z</time></trkpt><trkpt lat="45.55878104686072" lon="9.168435047348517"><ele>157.0</ele><time>2026-04-10T15:27:12Z</time></trkpt><trkpt lat="45.558905768595295" lon="9.168794273555259"><ele>157.0</ele><time>2026-04-10T15:27:13Z</time></trkpt><trkpt lat="45.55903022816425" lon="9.169149093085313"><ele>157.0</ele><time>2026-04-10T15:27:14Z</time></trkpt><trkpt lat="45.55914848137225" lon="9.169516018585833"><ele>157.5</ele><time>2026-04-10T15:27:15Z</time></trkpt><trkpt lat="45.55926832723187" lon="9.169868738373712"><ele>158.0</ele><time>2026-04-10T15:27:16Z</time></trkpt><trkpt lat="45.55939486243621" lon="9.170230500157954"><ele>158.0</ele><time>2026-04-10T15:27:17Z</time></trkpt><trkpt lat="45.55952095834235" lon="9.17058345707695"><ele>158.0</ele><time>2026-04-10T15:27:18Z</time></trkpt><trkpt lat="45.559643932309484" lon="9.170936998962837"><ele>157.5</ele><time>2026-04-10T15:27:19Z</time></trkpt><trkpt lat="45.55976992839701" lon="9.17130982358561"><ele>157.0</ele><time>2026-04-10T15:27:20Z</time></trkpt><trkpt lat="45.55990514602313" lon="9.171700382808238"><ele>157.0</ele><time>2026-04-10T15:27:21Z</time></trkpt><trkpt lat="45.56003592545533" lon="9.172086073510298"><ele>157.0</ele><time>2026-04-10T15:27:21.999Z</time></trkpt><trkpt lat="45.56016106874163" lon="9.172452133687424"><ele>156.5</ele><time>2026-04-10T15:27:22.999Z</time></trkpt><trkpt lat="45.56028790207727" lon="9.172814149077281"><ele>156.0</ele><time>2026-04-10T15:27:23.999Z</time></trkpt><trkpt lat="45.56041341180395" lon="9.173183590991846"><ele>157.5</ele><time>2026-04-10T15:27:24.999Z</time></trkpt><trkpt lat="45.560539125193216" lon="9.173544171022915"><ele>159.0</ele><time>2026-04-10T15:27:25.999Z</time></trkpt><trkpt lat="45.56066651769716" lon="9.173904062622729"><ele>158.5</ele><time>2026-04-10T15:27:26.999Z</time></trkpt><trkpt lat="45.56079238797246" lon="9.174266710634395"><ele>158.0</ele><time>2026-04-10T15:27:27.999Z</time></trkpt><trkpt lat="45.56091523641501" lon="9.174629448527256"><ele>157.5</ele><time>2026-04-10T15:27:28.999Z</time></trkpt><trkpt lat="45.56103428282701" lon="9.174988873934936"><ele>157.0</ele><time>2026-04-10T15:27:29.999Z</time></trkpt><trkpt lat="45.561158264330956" lon="9.175355354717992"><ele>156.5</ele><time>2026-04-10T15:27:30.999Z</time></trkpt><trkpt lat="45.56127477595656" lon="9.175719173867133"><ele>156.0</ele><time>2026-04-10T15:27:31.999Z</time></trkpt><trkpt lat="45.56138398281119" lon="9.176091857714136"><ele>156.0</ele><time>2026-04-10T15:27:32.999Z</time></trkpt><trkpt lat="45.56148774918395" lon="9.176469145507113"><ele>156.0</ele><time>2026-04-10T15:27:33.999Z</time></trkpt><trkpt lat="45.56159497036582" lon="9.176846293310353"><ele>156.5</ele><time>2026-04-10T15:27:34.999Z</time></trkpt><trkpt lat="45.561710369400885" lon="9.177224590802508"><ele>157.0</ele><time>2026-04-10T15:27:35.999Z</time></trkpt><trkpt lat="45.56182791705422" lon="9.177597221567694"><ele>157.0</ele><time>2026-04-10T15:27:36.999Z</time></trkpt><trkpt lat="45.56194277475941" lon="9.177971075160142"><ele>157.0</ele><time>2026-04-10T15:27:37.999Z</time></trkpt><trkpt lat="45.562051506283375" lon="9.178345906790396"><ele>157.5</ele><time>2026-04-10T15:27:38.999Z</time></trkpt><trkpt lat="45.56215670512849" lon="9.178712878461617"><ele>158.0</ele><time>2026-04-10T15:27:39.999Z</time></trkpt><trkpt lat="45.56226460399248" lon="9.179075404154684"><ele>158.0</ele><time>2026-04-10T15:27:40.999Z</time></trkpt><trkpt lat="45.56237406984365" lon="9.179437016919518"><ele>158.0</ele><time>2026-04-10T15:27:41.999Z</time></trkpt><trkpt lat="45.56247807740146" lon="9.179788924875508"><ele>157.0</ele><time>2026-04-10T15:27:42.999Z</time></trkpt><trkpt lat="45.5625770975915" lon="9.180126628953163"><ele>156.0</ele><time>2026-04-10T15:27:43.999Z</time></trkpt><trkpt lat="45.5626730634167" lon="9.180451297932928"><ele>156.0</ele><time>2026-04-10T15:27:44.999Z</time></trkpt><trkpt lat="45.5627593826032" lon="9.180752661706144"><ele>156.0</ele><time>2026-04-10T15:27:45.999Z</time></trkpt><trkpt lat="45.562849860131124" lon="9.181076084100726"><ele>156.5</ele><time>2026-04-10T15:27:46.999Z</time></trkpt><trkpt lat="45.56293540870237" lon="9.181387160687608"><ele>157.0</ele><time>2026-04-10T15:27:47.999Z</time></trkpt><trkpt lat="45.56302624430909" lon="9.181710850620455"><ele>157.0</ele><time>2026-04-10T15:27:48.999Z</time></trkpt><trkpt lat="45.563112377662506" lon="9.1820287434519"><ele>157.0</ele><time>2026-04-10T15:27:49.999Z</time></trkpt><trkpt lat="45.563201680984655" lon="9.1823592847325"><ele>156.0</ele><time>2026-04-10T15:27:50.999Z</time></trkpt><trkpt lat="45.56329333892407" lon="9.182689682139362"><ele>155.0</ele><time>2026-04-10T15:27:51.999Z</time></trkpt><trkpt lat="45.563388957450805" lon="9.183030779878639"><ele>154.5</ele><time>2026-04-10T15:27:52.999Z</time></trkpt><trkpt lat="45.56348103434574" lon="9.183387585531303"><ele>154.0</ele><time>2026-04-10T15:27:53.999Z</time></trkpt><trkpt lat="45.563562719274906" lon="9.183734545666512"><ele>156.0</ele><time>2026-04-10T15:27:54.999Z</time></trkpt><trkpt lat="45.56363467061061" lon="9.184058702169189"><ele>158.0</ele><time>2026-04-10T15:27:55.999Z</time></trkpt><trkpt lat="45.5637108559149" lon="9.184376760105234"><ele>158.0</ele><time>2026-04-10T15:27:56.999Z</time></trkpt><trkpt lat="45.56378492941883" lon="9.18469523979578"><ele>158.0</ele><time>2026-04-10T15:27:57.999Z</time></trkpt><trkpt lat="45.56386065376387" lon="9.185015996166042"><ele>157.33333333333331</ele><time>2026-04-10T15:27:58.999Z</time></trkpt><trkpt lat="45.56393876196779" lon="9.185326428311559"><ele>156.66666666666666</ele><time>2026-04-10T15:27:59.999Z</time></trkpt><trkpt lat="45.56401430063471" lon="9.185609501245821"><ele>156.0</ele><time>2026-04-10T15:28:00.999Z</time></trkpt><trkpt lat="45.564088812550814" lon="9.185884134340121"><ele>155.66666666666666</ele><time>2026-04-10T15:28:01.999Z</time></trkpt><trkpt lat="45.56416357555544" lon="9.186169698997778"><ele>155.33333333333331</ele><time>2026-04-10T15:28:02.999Z</time></trkpt><trkpt lat="45.56422997167854" lon="9.186448523514628"><ele>155.0</ele><time>2026-04-10T15:28:03.999Z</time></trkpt><trkpt lat="45.56430433871234" lon="9.18672748509362"><ele>155.66666666666666</ele><time>2026-04-10T15:28:04.999Z</time></trkpt><trkpt lat="45.564378144488586" lon="9.1869906481701"><ele>156.33333333333334</ele><time>2026-04-10T15:28:05.999Z</time></trkpt><trkpt lat="45.56445404629815" lon="9.187247274087479"><ele>157.0</ele><time>2026-04-10T15:28:06.999Z</time></trkpt><trkpt lat="45.564531034178096" lon="9.187510086636427"><ele>157.66666666666669</ele><time>2026-04-10T15:28:07.999Z</time></trkpt><trkpt lat="45.56461260785858" lon="9.187776608072447"><ele>158.33333333333334</ele><time>2026-04-10T15:28:08.999Z</time></trkpt><trkpt lat="45.56469253838674" lon="9.188038800977854"><ele>159.0</ele><time>2026-04-10T15:28:10Z</time></trkpt><trkpt lat="45.56476848988602" lon="9.188291415799895"><ele>159.0</ele><time>2026-04-10T15:28:11Z</time></trkpt><trkpt lat="45.564840270404" lon="9.188532769030983"><ele>159.0</ele><time>2026-04-10T15:28:12Z</time></trkpt><trkpt lat="45.5649149834689" lon="9.188773776565624"><ele>159.0</ele><time>2026-04-10T15:28:13Z</time></trkpt><trkpt lat="45.56499205715203" lon="9.189023289640648"><ele>158.33333333333334</ele><time>2026-04-10T15:28:14Z</time></trkpt><trkpt lat="45.56507305319766" lon="9.189270460479298"><ele>157.66666666666669</ele><time>2026-04-10T15:28:15Z</time></trkpt><trkpt lat="45.565152305113145" lon="9.189517073357191"><ele>157.0</ele><time>2026-04-10T15:28:16Z</time></trkpt><trkpt lat="45.56522658259106" lon="9.189774499969518"><ele>157.0</ele><time>2026-04-10T15:28:17Z</time></trkpt><trkpt lat="45.56529534945938" lon="9.19004256242003"><ele>157.0</ele><time>2026-04-10T15:28:18Z</time></trkpt><trkpt lat="45.565375986014615" lon="9.190290100310527"><ele>157.0</ele><time>2026-04-10T15:28:19Z</time></trkpt><trkpt lat="45.565455421108595" lon="9.19053848464152"><ele>156.66666666666669</ele><time>2026-04-10T15:28:20Z</time></trkpt><trkpt lat="45.56553709703173" lon="9.190789478407263"><ele>156.33333333333334</ele><time>2026-04-10T15:28:21Z</time></trkpt><trkpt lat="45.5656227977746" lon="9.191046326718716"><ele>156.0</ele><time>2026-04-10T15:28:22Z</time></trkpt><trkpt lat="45.56571274696902" lon="9.191316301667282"><ele>156.33333333333334</ele><time>2026-04-10T15:28:23Z</time></trkpt><trkpt lat="45.565799162583055" lon="9.191589685580654"><ele>156.66666666666669</ele><time>2026-04-10T15:28:24Z</time></trkpt><trkpt lat="45.56588770177917" lon="9.19187075865347"><ele>157.0</ele><time>2026-04-10T15:28:25Z</time></trkpt><trkpt lat="45.56596798483221" lon="9.19214668124819"><ele>157.0</ele><time>2026-04-10T15:28:26Z</time></trkpt><trkpt lat="45.56605399387404" lon="9.19242588016712"><ele>157.0</ele><time>2026-04-10T15:28:27Z</time></trkpt><trkpt lat="45.56613980006962" lon="9.192704563072555"><ele>157.0</ele><time>2026-04-10T15:28:28Z</time></trkpt><trkpt lat="45.56622867162744" lon="9.192984641425682"><ele>157.33333333333334</ele><time>2026-04-10T15:28:29Z</time></trkpt><trkpt lat="45.56630900500003" lon="9.193255378446532"><ele>157.66666666666666</ele><time>2026-04-10T15:28:30Z</time></trkpt><trkpt lat="45.56639915914541" lon="9.193550990783615"><ele>158.0</ele><time>2026-04-10T15:28:31Z</time></trkpt><trkpt lat="45.566485857226475" lon="9.193829380609019"><ele>157.66666666666666</ele><time>2026-04-10T15:28:32Z</time></trkpt><trkpt lat="45.56657045008215" lon="9.194106864428699"><ele>157.33333333333334</ele><time>2026-04-10T15:28:33Z</time></trkpt><trkpt lat="45.56666089310433" lon="9.19436164231677"><ele>157.0</ele><time>2026-04-10T15:28:34Z</time></trkpt><trkpt lat="45.56674303775697" lon="9.194549326927028"><ele>157.0</ele><time>2026-04-10T15:28:35Z</time></trkpt><trkpt lat="45.56683351785126" lon="9.194778046140174"><ele>157.0</ele><time>2026-04-10T15:28:36Z</time></trkpt><trkpt lat="45.56690748726334" lon="9.194967487689109"><ele>157.0</ele><time>2026-04-10T15:28:37Z</time></trkpt><trkpt lat="45.566976416257816" lon="9.195125814616418"><ele>157.5</ele><time>2026-04-10T15:28:38Z</time></trkpt><trkpt lat="45.56704303895911" lon="9.19527196498475"><ele>158.0</ele><time>2026-04-10T15:28:39Z</time></trkpt><trkpt lat="45.56710291071918" lon="9.19540992652356"><ele>158.5</ele><time>2026-04-10T15:28:40Z</time></trkpt><trkpt lat="45.5671602692355" lon="9.195550233771495"><ele>159.0</ele><time>2026-04-10T15:28:41Z</time></trkpt><trkpt lat="45.56723200261506" lon="9.195706388261828"><ele>159.0</ele><time>2026-04-10T15:28:42Z</time></trkpt><trkpt lat="45.56731473417077" lon="9.195863085494194"><ele>159.0</ele><time>2026-04-10T15:28:43Z</time></trkpt><trkpt lat="45.567392609084884" lon="9.196019666651098"><ele>159.0</ele><time>2026-04-10T15:28:44Z</time></trkpt><trkpt lat="45.56750504402508" lon="9.196190819267816"><ele>159.0</ele><time>2026-04-10T15:28:45Z</time></trkpt><trkpt lat="45.56760320420698" lon="9.196369297503562"><ele>159.33333333333334</ele><time>2026-04-10T15:28:46Z</time></trkpt><trkpt lat="45.56770995772342" lon="9.196541080812622"><ele>159.66666666666669</ele><time>2026-04-10T15:28:47Z</time></trkpt><trkpt lat="45.567817598019964" lon="9.196703473062806"><ele>160.0</ele><time>2026-04-10T15:28:48Z</time></trkpt><trkpt lat="45.56792443917972" lon="9.19685609806669"><ele>160.0</ele><time>2026-04-10T15:28:49Z</time></trkpt><trkpt lat="45.568024840096705" lon="9.19698450097916"><ele>160.0</ele><time>2026-04-10T15:28:50Z</time></trkpt><trkpt lat="45.5681212832425" lon="9.197099258510592"><ele>160.0</ele><time>2026-04-10T15:28:51Z</time></trkpt><trkpt lat="45.56822300827787" lon="9.197255508269222"><ele>160.0</ele><time>2026-04-10T15:28:52Z</time></trkpt><trkpt lat="45.56831702238517" lon="9.197370730204062"><ele>159.75</ele><time>2026-04-10T15:28:53Z</time></trkpt><trkpt lat="45.56840653409909" lon="9.197472995005878"><ele>159.5</ele><time>2026-04-10T15:28:54Z</time></trkpt><trkpt lat="45.56849906750257" lon="9.197586240909674"><ele>159.25</ele><time>2026-04-10T15:28:55Z</time></trkpt><trkpt lat="45.568600575031176" lon="9.19771596356291"><ele>159.0</ele><time>2026-04-10T15:28:56Z</time></trkpt><trkpt lat="45.56871926148203" lon="9.19784015399611"><ele>159.0</ele><time>2026-04-10T15:28:57Z</time></trkpt><trkpt lat="45.568859048505196" lon="9.197966831414782"><ele>159.0</ele><time>2026-04-10T15:28:58Z</time></trkpt><trkpt lat="45.56900823403124" lon="9.198102060262801"><ele>159.0</ele><time>2026-04-10T15:28:59Z</time></trkpt><trkpt lat="45.56916175595198" lon="9.198239248350893"><ele>159.0</ele><time>2026-04-10T15:29:00Z</time></trkpt><trkpt lat="45.569312007130804" lon="9.198373246047183"><ele>159.0</ele><time>2026-04-10T15:29:01Z</time></trkpt><trkpt lat="45.56948117687035" lon="9.19851671211529"><ele>159.0</ele><time>2026-04-10T15:29:01.999Z</time></trkpt><trkpt lat="45.56964856921334" lon="9.198647732467261"><ele>159.33333333333334</ele><time>2026-04-10T15:29:02.999Z</time></trkpt><trkpt lat="45.569825657494476" lon="9.198773170264614"><ele>159.66666666666669</ele><time>2026-04-10T15:29:03.999Z</time></trkpt><trkpt lat="45.570010496015634" lon="9.19889809186565"><ele>160.0</ele><time>2026-04-10T15:29:04.999Z</time></trkpt><trkpt lat="45.57019492871224" lon="9.199021892942868"><ele>160.0</ele><time>2026-04-10T15:29:05.999Z</time></trkpt><trkpt lat="45.57037860890807" lon="9.199146989236016"><ele>160.0</ele><time>2026-04-10T15:29:06.999Z</time></trkpt><trkpt lat="45.570575559991944" lon="9.19927535408614"><ele>160.0</ele><time>2026-04-10T15:29:07.999Z</time></trkpt><trkpt lat="45.57077713428149" lon="9.199395645348806"><ele>160.0</ele><time>2026-04-10T15:29:08.999Z</time></trkpt><trkpt lat="45.570979544621" lon="9.19951631932921"><ele>160.0</ele><time>2026-04-10T15:29:09.999Z</time></trkpt><trkpt lat="45.57118499024597" lon="9.199649350458477"><ele>160.0</ele><time>2026-04-10T15:29:10.999Z</time></trkpt><trkpt lat="45.5713862101668" lon="9.19978526647373"><ele>159.66666666666669</ele><time>2026-04-10T15:29:11.999Z</time></trkpt><trkpt lat="45.57158633784803" lon="9.199919721096101"><ele>159.33333333333334</ele><time>2026-04-10T15:29:12.999Z</time></trkpt><trkpt lat="45.57178513671694" lon="9.200056248401433"><ele>159.0</ele><time>2026-04-10T15:29:13.999Z</time></trkpt><trkpt lat="45.571978059920205" lon="9.200186420765103"><ele>160.0</ele><time>2026-04-10T15:29:14.999Z</time></trkpt><trkpt lat="45.57216005133742" lon="9.20030592161235"><ele>161.0</ele><time>2026-04-10T15:29:15.999Z</time></trkpt><trkpt lat="45.57234550882111" lon="9.200426081279927"><ele>162.0</ele><time>2026-04-10T15:29:16.999Z</time></trkpt><trkpt lat="45.572532184302275" lon="9.200550870663445"><ele>162.33333333333334</ele><time>2026-04-10T15:29:17.999Z</time></trkpt><trkpt lat="45.57272402036852" lon="9.200676373735586"><ele>162.66666666666669</ele><time>2026-04-10T15:29:18.999Z</time></trkpt><trkpt lat="45.57291334424017" lon="9.200803989514307"><ele>163.0</ele><time>2026-04-10T15:29:19.999Z</time></trkpt><trkpt lat="45.573104960702445" lon="9.200930975670136"><ele>162.0</ele><time>2026-04-10T15:29:20.999Z</time></trkpt><trkpt lat="45.573294490008195" lon="9.201052952916278"><ele>161.0</ele><time>2026-04-10T15:29:21.999Z</time></trkpt><trkpt lat="45.573489978265066" lon="9.201182664582658"><ele>160.0</ele><time>2026-04-10T15:29:22.999Z</time></trkpt><trkpt lat="45.573677202449296" lon="9.20130415954499"><ele>160.0</ele><time>2026-04-10T15:29:23.999Z</time></trkpt><trkpt lat="45.57386456914031" lon="9.201430410131719"><ele>160.0</ele><time>2026-04-10T15:29:24.999Z</time></trkpt><trkpt lat="45.574053035808575" lon="9.201563489121845"><ele>160.0</ele><time>2026-04-10T15:29:25.999Z</time></trkpt><trkpt lat="45.57424459253626" lon="9.201706366701758"><ele>160.0</ele><time>2026-04-10T15:29:26.999Z</time></trkpt><trkpt lat="45.574436340929886" lon="9.201863028666804"><ele>160.0</ele><time>2026-04-10T15:29:27.999Z</time></trkpt><trkpt lat="45.574623387782054" lon="9.202032581399125"><ele>160.0</ele><time>2026-04-10T15:29:28.999Z</time></trkpt><trkpt lat="45.5748037693097" lon="9.202218499634903"><ele>160.66666666666669</ele><time>2026-04-10T15:29:29.999Z</time></trkpt><trkpt lat="45.57497854297757" lon="9.202415195777629"><ele>161.33333333333334</ele><time>2026-04-10T15:29:30.999Z</time></trkpt><trkpt lat="45.575146174325084" lon="9.2026205710541"><ele>162.0</ele><time>2026-04-10T15:29:31.999Z</time></trkpt><trkpt lat="45.575308156732476" lon="9.202837276431751"><ele>162.0</ele><time>2026-04-10T15:29:32.999Z</time></trkpt><trkpt lat="45.57544437763132" lon="9.20304311586188"><ele>162.0</ele><time>2026-04-10T15:29:33.999Z</time></trkpt><trkpt lat="45.57556832954272" lon="9.203247182178028"><ele>162.0</ele><time>2026-04-10T15:29:34.999Z</time></trkpt><trkpt lat="45.5756769271516" lon="9.203449360974263"><ele>162.66666666666666</ele><time>2026-04-10T15:29:35.999Z</time></trkpt><trkpt lat="45.575777506982824" lon="9.203666395797466"><ele>163.33333333333331</ele><time>2026-04-10T15:29:36.999Z</time></trkpt><trkpt lat="45.575885439114295" lon="9.203910662941368"><ele>164.0</ele><time>2026-04-10T15:29:37.999Z</time></trkpt><trkpt lat="45.57598785080226" lon="9.204155469414212"><ele>164.0</ele><time>2026-04-10T15:29:38.999Z</time></trkpt><trkpt lat="45.57606723922521" lon="9.204359590095278"><ele>164.0</ele><time>2026-04-10T15:29:39.999Z</time></trkpt><trkpt lat="45.57612466304617" lon="9.204529816615054"><ele>164.0</ele><time>2026-04-10T15:29:40.999Z</time></trkpt><trkpt lat="45.57618083938386" lon="9.204706861606876"><ele>164.0</ele><time>2026-04-10T15:29:41.999Z</time></trkpt><trkpt lat="45.57623075382082" lon="9.204881521869476"><ele>164.75</ele><time>2026-04-10T15:29:42.999Z</time></trkpt><trkpt lat="45.57627479400321" lon="9.205045421635763"><ele>165.5</ele><time>2026-04-10T15:29:43.999Z</time></trkpt><trkpt lat="45.576314084041485" lon="9.205196370365755"><ele>166.25</ele><time>2026-04-10T15:29:44.999Z</time></trkpt><trkpt lat="45.576348042941774" lon="9.205338139691507"><ele>167.0</ele><time>2026-04-10T15:29:45.999Z</time></trkpt><trkpt lat="45.57637917353289" lon="9.20549234443249"><ele>167.0</ele><time>2026-04-10T15:29:46.999Z</time></trkpt><trkpt lat="45.57640749887853" lon="9.205644497372777"><ele>167.0</ele><time>2026-04-10T15:29:47.999Z</time></trkpt><trkpt lat="45.57643748424522" lon="9.205808966517761"><ele>167.0</ele><time>2026-04-10T15:29:48.999Z</time></trkpt><trkpt lat="45.57646368857173" lon="9.20598255103945"><ele>167.0</ele><time>2026-04-10T15:29:49.999Z</time></trkpt><trkpt lat="45.57648562213816" lon="9.206170261986491"><ele>166.0</ele><time>2026-04-10T15:29:50.999Z</time></trkpt><trkpt lat="45.57650264582241" lon="9.206371171247081"><ele>165.0</ele><time>2026-04-10T15:29:51.999Z</time></trkpt><trkpt lat="45.576519675375735" lon="9.206616039779501"><ele>164.0</ele><time>2026-04-10T15:29:52.999Z</time></trkpt><trkpt lat="45.576541600829486" lon="9.206847836253601"><ele>164.33333333333331</ele><time>2026-04-10T15:29:53.999Z</time></trkpt><trkpt lat="45.57655905102659" lon="9.207064647198488"><ele>164.66666666666666</ele><time>2026-04-10T15:29:54.999Z</time></trkpt><trkpt lat="45.57656182414376" lon="9.207298243508527"><ele>165.0</ele><time>2026-04-10T15:29:55.999Z</time></trkpt><trkpt lat="45.5765554003996" lon="9.207562968520339"><ele>165.0</ele><time>2026-04-10T15:29:56.999Z</time></trkpt><trkpt lat="45.576546718269434" lon="9.20783747376237"><ele>165.0</ele><time>2026-04-10T15:29:57.999Z</time></trkpt><trkpt lat="45.57654735792999" lon="9.208091789617413"><ele>165.0</ele><time>2026-04-10T15:29:58.999Z</time></trkpt><trkpt lat="45.576556476750994" lon="9.20832493844511"><ele>165.25</ele><time>2026-04-10T15:29:59.999Z</time></trkpt><trkpt lat="45.57656439114397" lon="9.208526914998803"><ele>165.5</ele><time>2026-04-10T15:30:00.999Z</time></trkpt><trkpt lat="45.576556895488174" lon="9.208731884263436"><ele>165.75</ele><time>2026-04-10T15:30:01.999Z</time></trkpt><trkpt lat="45.57653651961608" lon="9.208932605041339"><ele>166.0</ele><time>2026-04-10T15:30:02.999Z</time></trkpt><trkpt lat="45.57649165180463" lon="9.209144709253716"><ele>166.0</ele><time>2026-04-10T15:30:03.999Z</time></trkpt><trkpt lat="45.57641587953733" lon="9.209333926015471"><ele>166.0</ele><time>2026-04-10T15:30:04.999Z</time></trkpt><trkpt lat="45.57631295601035" lon="9.209484039266849"><ele>166.0</ele><time>2026-04-10T15:30:05.999Z</time></trkpt><trkpt lat="45.57618267135001" lon="9.209574133581489"><ele>166.0</ele><time>2026-04-10T15:30:06.999Z</time></trkpt><trkpt lat="45.57606797442222" lon="9.209662491151514"><ele>166.0</ele><time>2026-04-10T15:30:07.999Z</time></trkpt><trkpt lat="45.57595051166146" lon="9.209644156150071"><ele>166.0</ele><time>2026-04-10T15:30:08.999Z</time></trkpt><trkpt lat="45.57583978050117" lon="9.20961760594257"><ele>166.0</ele><time>2026-04-10T15:30:09.999Z</time></trkpt><trkpt lat="45.575742636982554" lon="9.209517506601975"><ele>166.0</ele><time>2026-04-10T15:30:10.999Z</time></trkpt><trkpt lat="45.57566234312358" lon="9.209366536212599"><ele>166.0</ele><time>2026-04-10T15:30:11.999Z</time></trkpt><trkpt lat="45.5756138264066" lon="9.209188267765116"><ele>166.0</ele><time>2026-04-10T15:30:12.999Z</time></trkpt><trkpt lat="45.575608338971776" lon="9.209004349434364"><ele>166.0</ele><time>2026-04-10T15:30:13.999Z</time></trkpt><trkpt lat="45.57563958662885" lon="9.208830637757789"><ele>166.0</ele><time>2026-04-10T15:30:14.999Z</time></trkpt><trkpt lat="45.57571115680154" lon="9.208669069463705"><ele>165.5</ele><time>2026-04-10T15:30:16Z</time></trkpt><trkpt lat="45.57579836319918" lon="9.2085271084363"><ele>165.0</ele><time>2026-04-10T15:30:17Z</time></trkpt><trkpt lat="45.57590452493276" lon="9.208393973425723"><ele>164.5</ele><time>2026-04-10T15:30:18Z</time></trkpt><trkpt lat="45.576023321348536" lon="9.208293620820552"><ele>164.0</ele><time>2026-04-10T15:30:19Z</time></trkpt><trkpt lat="45.57612695767721" lon="9.208231382625684"><ele>164.2</ele><time>2026-04-10T15:30:20Z</time></trkpt><trkpt lat="45.57621442466775" lon="9.208189442214527"><ele>164.39999999999998</ele><time>2026-04-10T15:30:21Z</time></trkpt><trkpt lat="45.57633318735106" lon="9.208136668307022"><ele>164.6</ele><time>2026-04-10T15:30:23.001Z</time></trkpt><trkpt lat="45.57641102539412" lon="9.208109390601464"><ele>164.8</ele><time>2026-04-10T15:30:24.001Z</time></trkpt><trkpt lat="45.576486744892996" lon="9.208088485391075"><ele>165.0</ele><time>2026-04-10T15:30:25.001Z</time></trkpt><trkpt lat="45.57657170545565" lon="9.20806581125981"><ele>165.0</ele><time>2026-04-10T15:30:26.001Z</time></trkpt><trkpt lat="45.57665330746726" lon="9.208047195611725"><ele>165.0</ele><time>2026-04-10T15:30:27.001Z</time></trkpt><trkpt lat="45.57671959916387" lon="9.208033320330266"><ele>165.0</ele><time>2026-04-10T15:30:28.001Z</time></trkpt><trkpt lat="45.57681494573208" lon="9.2080119350953"><ele>165.0</ele><time>2026-04-10T15:30:30.001Z</time></trkpt><trkpt lat="45.576885923966195" lon="9.207997276658002"><ele>165.0</ele><time>2026-04-10T15:30:32.001Z</time></trkpt><trkpt lat="45.57696523721853" lon="9.207972572724128"><ele>165.0</ele><time>2026-04-10T15:30:35.001Z</time></trkpt><trkpt lat="45.57704908500186" lon="9.207954276866314"><ele>165.5</ele><time>2026-04-10T15:30:38.001Z</time></trkpt><trkpt lat="45.57714233490664" lon="9.20793509677639"><ele>166.0</ele><time>2026-04-10T15:30:40.001Z</time></trkpt><trkpt lat="45.57721669197924" lon="9.20792016792982"><ele>166.5</ele><time>2026-04-10T15:30:41.001Z</time></trkpt><trkpt lat="45.5772891686287" lon="9.207906421694336"><ele>167.0</ele><time>2026-04-10T15:30:42.001Z</time></trkpt><trkpt lat="45.57736252064235" lon="9.207889088105189"><ele>167.5</ele><time>2026-04-10T15:30:43.001Z</time></trkpt><trkpt lat="45.57743233250867" lon="9.207871308058264"><ele>168.0</ele><time>2026-04-10T15:30:44.001Z</time></trkpt><trkpt lat="45.57750162351964" lon="9.207857184167628"><ele>168.0</ele><time>2026-04-10T15:30:45.001Z</time></trkpt><trkpt lat="45.57757383844128" lon="9.207847491953506"><ele>168.0</ele><time>2026-04-10T15:30:46.001Z</time></trkpt><trkpt lat="45.57764173829613" lon="9.207839334660054"><ele>168.0</ele><time>2026-04-10T15:30:47.001Z</time></trkpt><trkpt lat="45.57772194304222" lon="9.207830726295397"><ele>168.0</ele><time>2026-04-10T15:30:48.001Z</time></trkpt><trkpt lat="45.57782211458971" lon="9.207824600841857"><ele>168.0</ele><time>2026-04-10T15:30:49.001Z</time></trkpt><trkpt lat="45.577917199495964" lon="9.20778548736463"><ele>168.0</ele><time>2026-04-10T15:30:50.001Z</time></trkpt><trkpt lat="45.57799381186008" lon="9.207785653028093"><ele>168.60000000000002</ele><time>2026-04-10T15:30:51.001Z</time></trkpt><trkpt lat="45.57806789332259" lon="9.207753392865975"><ele>169.20000000000002</ele><time>2026-04-10T15:30:52.001Z</time></trkpt><trkpt lat="45.57818536981243" lon="9.207713749430395"><ele>169.8</ele><time>2026-04-10T15:30:54.001Z</time></trkpt><trkpt lat="45.578289414475414" lon="9.207682832170837"><ele>170.4</ele><time>2026-04-10T15:30:56Z</time></trkpt><trkpt lat="45.57835989737903" lon="9.207659005662045"><ele>171.0</ele><time>2026-04-10T15:30:58Z</time></trkpt><trkpt lat="45.57844072489995" lon="9.207627496068248"><ele>171.0</ele><time>2026-04-10T15:31:00Z</time></trkpt><trkpt lat="45.578519934868275" lon="9.20759951957876"><ele>171.0</ele><time>2026-04-10T15:31:02Z</time></trkpt><trkpt lat="45.578608619814865" lon="9.207563994761783"><ele>171.0</ele><time>2026-04-10T15:31:04Z</time></trkpt><trkpt lat="45.578667267471936" lon="9.207529534550611"><ele>171.0</ele><time>2026-04-10T15:31:05Z</time></trkpt><trkpt lat="45.57876414643435" lon="9.207463617356082"><ele>171.0</ele><time>2026-04-10T15:31:07Z</time></trkpt><trkpt lat="45.57885471070594" lon="9.207411941870262"><ele>171.0</ele><time>2026-04-10T15:31:09Z</time></trkpt><trkpt lat="45.57894107596773" lon="9.207354574357188"><ele>170.5</ele><time>2026-04-10T15:31:11Z</time></trkpt><trkpt lat="45.57901956176768" lon="9.207305690409486"><ele>170.0</ele><time>2026-04-10T15:31:13Z</time></trkpt><trkpt lat="45.57908498624547" lon="9.207255397129318"><ele>169.5</ele><time>2026-04-10T15:31:16Z</time></trkpt><trkpt lat="45.57915009250039" lon="9.207230032195792"><ele>169.0</ele><time>2026-04-10T15:31:18Z</time></trkpt><trkpt lat="45.579241884667184" lon="9.20721579210893"><ele>168.5</ele><time>2026-04-10T15:31:20Z</time></trkpt><trkpt lat="45.5793122362086" lon="9.207264707939316"><ele>168.0</ele><time>2026-04-10T15:31:23Z</time></trkpt><trkpt lat="45.57940077115035" lon="9.207294274216853"><ele>168.0</ele><time>2026-04-10T15:31:27Z</time></trkpt><trkpt lat="45.57948340933026" lon="9.207270826796973"><ele>168.0</ele><time>2026-04-10T15:31:29Z</time></trkpt><trkpt lat="45.57952951675511" lon="9.207196532918212"><ele>168.0</ele><time>2026-04-10T15:31:31Z</time></trkpt><trkpt lat="45.579590964621346" lon="9.207071841224508"><ele>168.0</ele><time>2026-04-10T15:31:33Z</time></trkpt><trkpt lat="45.57972286742885" lon="9.20706722559783"><ele>168.0</ele><time>2026-04-10T15:31:35Z</time></trkpt><trkpt lat="45.57980251640172" lon="9.207061449609407"><ele>168.5</ele><time>2026-04-10T15:31:36Z</time></trkpt><trkpt lat="45.57989419415563" lon="9.207067810426343"><ele>169.0</ele><time>2026-04-10T15:31:37Z</time></trkpt><trkpt lat="45.57996981281207" lon="9.207076509726388"><ele>169.5</ele><time>2026-04-10T15:31:38Z</time></trkpt><trkpt lat="45.58004131082856" lon="9.207082540717888"><ele>170.0</ele><time>2026-04-10T15:31:39Z</time></trkpt><trkpt lat="45.580118752730804" lon="9.207094612121201"><ele>170.5</ele><time>2026-04-10T15:31:40Z</time></trkpt><trkpt lat="45.580202662224295" lon="9.207087735216778"><ele>171.0</ele><time>2026-04-10T15:31:41Z</time></trkpt><trkpt lat="45.580290483329094" lon="9.207073598989727"><ele>170.8</ele><time>2026-04-10T15:31:42Z</time></trkpt><trkpt lat="45.58040972008077" lon="9.207048212561228"><ele>170.60000000000002</ele><time>2026-04-10T15:31:44Z</time></trkpt><trkpt lat="45.58056486960649" lon="9.207011571027316"><ele>170.4</ele><time>2026-04-10T15:31:46Z</time></trkpt><trkpt lat="45.580635473207046" lon="9.206968595668025"><ele>170.2</ele><time>2026-04-10T15:31:47Z</time></trkpt><trkpt lat="45.58070530641904" lon="9.206961448770414"><ele>170.0</ele><time>2026-04-10T15:31:48Z</time></trkpt><trkpt lat="45.580826692776206" lon="9.206916952197721"><ele>170.0</ele><time>2026-04-10T15:31:50Z</time></trkpt><trkpt lat="45.580946930954035" lon="9.206899968028022"><ele>170.0</ele><time>2026-04-10T15:31:54Z</time></trkpt><trkpt lat="45.58104410339092" lon="9.206865960945555"><ele>170.0</ele><time>2026-04-10T15:31:56Z</time></trkpt><trkpt lat="45.58115248239763" lon="9.206841280182509"><ele>170.0</ele><time>2026-04-10T15:31:58Z</time></trkpt><trkpt lat="45.58126754594475" lon="9.206810387467327"><ele>170.0</ele><time>2026-04-10T15:32:00Z</time></trkpt><trkpt lat="45.5813389018624" lon="9.206791199146751"><ele>170.25</ele><time>2026-04-10T15:32:01Z</time></trkpt><trkpt lat="45.581434869319146" lon="9.206760102304955"><ele>170.5</ele><time>2026-04-10T15:32:02Z</time></trkpt><trkpt lat="45.58155778078774" lon="9.206739997929873"><ele>170.75</ele><time>2026-04-10T15:32:03Z</time></trkpt><trkpt lat="45.581682776854436" lon="9.206710347349974"><ele>171.0</ele><time>2026-04-10T15:32:04Z</time></trkpt><trkpt lat="45.58180177234123" lon="9.206676520838409"><ele>171.0</ele><time>2026-04-10T15:32:05Z</time></trkpt><trkpt lat="45.5819195575453" lon="9.206641796430066"><ele>171.0</ele><time>2026-04-10T15:32:06Z</time></trkpt><trkpt lat="45.582057405114654" lon="9.20660944788531"><ele>171.0</ele><time>2026-04-10T15:32:07Z</time></trkpt><trkpt lat="45.58220401320412" lon="9.206568519059882"><ele>171.0</ele><time>2026-04-10T15:32:08Z</time></trkpt><trkpt lat="45.5823293567513" lon="9.20653527809476"><ele>171.4</ele><time>2026-04-10T15:32:09Z</time></trkpt><trkpt lat="45.58244522550685" lon="9.206493848869059"><ele>171.8</ele><time>2026-04-10T15:32:10Z</time></trkpt><trkpt lat="45.58255601087743" lon="9.20645832206206"><ele>172.20000000000002</ele><time>2026-04-10T15:32:11Z</time></trkpt><trkpt lat="45.582660532332426" lon="9.206436009715484"><ele>172.60000000000002</ele><time>2026-04-10T15:32:12Z</time></trkpt><trkpt lat="45.58275998263293" lon="9.206408998182974"><ele>173.0</ele><time>2026-04-10T15:32:13Z</time></trkpt><trkpt lat="45.582836879962" lon="9.20636384764869"><ele>172.83333333333331</ele><time>2026-04-10T15:32:14Z</time></trkpt><trkpt lat="45.58289848389277" lon="9.20640754038339"><ele>172.66666666666666</ele><time>2026-04-10T15:32:15Z</time></trkpt><trkpt lat="45.58294854813897" lon="9.206462758743625"><ele>172.5</ele><time>2026-04-10T15:32:16Z</time></trkpt><trkpt lat="45.582971982313765" lon="9.206568194826309"><ele>172.33333333333334</ele><time>2026-04-10T15:32:17Z</time></trkpt><trkpt lat="45.58297428792877" lon="9.206684711612306"><ele>172.16666666666669</ele><time>2026-04-10T15:32:18Z</time></trkpt><trkpt lat="45.58296457172252" lon="9.206826621371938"><ele>172.0</ele><time>2026-04-10T15:32:19Z</time></trkpt><trkpt lat="45.5829994034834" lon="9.206996495449571"><ele>172.0</ele><time>2026-04-10T15:32:20Z</time></trkpt><trkpt lat="45.58300423369639" lon="9.207155583807447"><ele>172.0</ele><time>2026-04-10T15:32:21Z</time></trkpt><trkpt lat="45.583019905494474" lon="9.20728276365203"><ele>172.0</ele><time>2026-04-10T15:32:22.001Z</time></trkpt><trkpt lat="45.583050507905845" lon="9.207390575882078"><ele>172.0</ele><time>2026-04-10T15:32:23.001Z</time></trkpt><trkpt lat="45.58306357896107" lon="9.207491374903624"><ele>172.0</ele><time>2026-04-10T15:32:24.001Z</time></trkpt><trkpt lat="45.58308485765928" lon="9.207649033129078"><ele>172.0</ele><time>2026-04-10T15:32:26.001Z</time></trkpt><trkpt lat="45.58310399311932" lon="9.207792431116891"><ele>172.0</ele><time>2026-04-10T15:32:28.001Z</time></trkpt><trkpt lat="45.58308011242025" lon="9.20789337922735"><ele>172.0</ele><time>2026-04-10T15:32:30.001Z</time></trkpt><trkpt lat="45.583108414325125" lon="9.208056214109464"><ele>172.0</ele><time>2026-04-10T15:32:54Z</time></trkpt><trkpt lat="45.58314252738247" lon="9.208174637813832"><ele>172.0</ele><time>2026-04-10T15:32:55Z</time></trkpt><trkpt lat="45.58316680414032" lon="9.208305333637101"><ele>172.0</ele><time>2026-04-10T15:32:56Z</time></trkpt><trkpt lat="45.58319482347986" lon="9.208466898284849"><ele>172.0</ele><time>2026-04-10T15:32:57Z</time></trkpt><trkpt lat="45.58322356623444" lon="9.208633913174223"><ele>172.0</ele><time>2026-04-10T15:32:58Z</time></trkpt><trkpt lat="45.58324989806827" lon="9.20881770698922"><ele>172.0</ele><time>2026-04-10T15:32:59Z</time></trkpt><trkpt lat="45.58327696855738" lon="9.209021251799186"><ele>172.5</ele><time>2026-04-10T15:33:00Z</time></trkpt><trkpt lat="45.58331030295782" lon="9.20923598250978"><ele>173.0</ele><time>2026-04-10T15:33:01Z</time></trkpt><trkpt lat="45.58333978781963" lon="9.209427504360505"><ele>173.5</ele><time>2026-04-10T15:33:02Z</time></trkpt><trkpt lat="45.58337397742626" lon="9.20961591790026"><ele>174.0</ele><time>2026-04-10T15:33:03Z</time></trkpt><trkpt lat="45.58343706348723" lon="9.20983493206852"><ele>174.0</ele><time>2026-04-10T15:33:04Z</time></trkpt><trkpt lat="45.58351312802157" lon="9.21002976842231"><ele>174.0</ele><time>2026-04-10T15:33:05Z</time></trkpt><trkpt lat="45.583571755508956" lon="9.210212370443935"><ele>174.0</ele><time>2026-04-10T15:33:06Z</time></trkpt><trkpt lat="45.58361260305512" lon="9.210388066193762"><ele>174.0</ele><time>2026-04-10T15:33:07Z</time></trkpt><trkpt lat="45.58364148808703" lon="9.210552391861015"><ele>173.2</ele><time>2026-04-10T15:33:08Z</time></trkpt><trkpt lat="45.58365349332911" lon="9.210699606140556"><ele>172.39999999999998</ele><time>2026-04-10T15:33:09Z</time></trkpt><trkpt lat="45.583634261685255" lon="9.210823488996141"><ele>171.6</ele><time>2026-04-10T15:33:10Z</time></trkpt><trkpt lat="45.58359245283488" lon="9.210945318360286"><ele>170.8</ele><time>2026-04-10T15:33:11Z</time></trkpt><trkpt lat="45.58356069628186" lon="9.211065113240307"><ele>170.0</ele><time>2026-04-10T15:33:12Z</time></trkpt><trkpt lat="45.58357635439177" lon="9.211198400640232"><ele>170.0</ele><time>2026-04-10T15:33:13Z</time></trkpt><trkpt lat="45.58363655709319" lon="9.211321107268837"><ele>170.0</ele><time>2026-04-10T15:33:14Z</time></trkpt><trkpt lat="45.58372669563823" lon="9.211434276263823"><ele>170.0</ele><time>2026-04-10T15:33:15Z</time></trkpt><trkpt lat="45.58382023693387" lon="9.211560074190265"><ele>170.0</ele><time>2026-04-10T15:33:16Z</time></trkpt><trkpt lat="45.58391271363626" lon="9.211703703591727"><ele>170.0</ele><time>2026-04-10T15:33:17Z</time></trkpt><trkpt lat="45.58390557736613" lon="9.211974597757374"><ele>170.0</ele><time>2026-04-10T15:33:18Z</time></trkpt><trkpt lat="45.583956164327155" lon="9.212245213464923"><ele>170.0</ele><time>2026-04-10T15:33:19Z</time></trkpt><trkpt lat="45.58401646579828" lon="9.212553005605981"><ele>171.0</ele><time>2026-04-10T15:33:20Z</time></trkpt><trkpt lat="45.5840748253789" lon="9.21285844955221"><ele>172.0</ele><time>2026-04-10T15:33:21Z</time></trkpt><trkpt lat="45.5841265982736" lon="9.213129420068087"><ele>173.0</ele><time>2026-04-10T15:33:22Z</time></trkpt><trkpt lat="45.58416635700412" lon="9.213337510388781"><ele>173.25</ele><time>2026-04-10T15:33:23Z</time></trkpt><trkpt lat="45.58420045531268" lon="9.21351597499975"><ele>173.5</ele><time>2026-04-10T15:33:24Z</time></trkpt><trkpt lat="45.58423513864268" lon="9.213697501524608"><ele>173.75</ele><time>2026-04-10T15:33:25Z</time></trkpt><trkpt lat="45.584271791778725" lon="9.213889337845396"><ele>174.0</ele><time>2026-04-10T15:33:26Z</time></trkpt><trkpt lat="45.58432505480153" lon="9.214080973304174"><ele>173.0</ele><time>2026-04-10T15:33:27Z</time></trkpt><trkpt lat="45.58434953960209" lon="9.214296255194219"><ele>172.0</ele><time>2026-04-10T15:33:28Z</time></trkpt><trkpt lat="45.58440694126432" lon="9.214555857241233"><ele>171.0</ele><time>2026-04-10T15:33:29Z</time></trkpt><trkpt lat="45.584466272333316" lon="9.2148593958783"><ele>172.0</ele><time>2026-04-10T15:33:30Z</time></trkpt><trkpt lat="45.58452749842299" lon="9.215192104232122"><ele>173.0</ele><time>2026-04-10T15:33:31Z</time></trkpt><trkpt lat="45.58458972384865" lon="9.215531604705427"><ele>171.5</ele><time>2026-04-10T15:33:32Z</time></trkpt><trkpt lat="45.584650265543345" lon="9.215871217255327"><ele>170.0</ele><time>2026-04-10T15:33:33Z</time></trkpt><trkpt lat="45.58470799614957" lon="9.216226642736414"><ele>171.0</ele><time>2026-04-10T15:33:34Z</time></trkpt><trkpt lat="45.58476492171333" lon="9.216579999128802"><ele>172.0</ele><time>2026-04-10T15:33:35Z</time></trkpt><trkpt lat="45.58482406371568" lon="9.216937425628412"><ele>172.0</ele><time>2026-04-10T15:33:36Z</time></trkpt><trkpt lat="45.58488087839152" lon="9.217293448267545"><ele>172.0</ele><time>2026-04-10T15:33:37Z</time></trkpt><trkpt lat="45.58493574597071" lon="9.21764267678961"><ele>172.0</ele><time>2026-04-10T15:33:38Z</time></trkpt><trkpt lat="45.584991072897765" lon="9.217982323885648"><ele>172.0</ele><time>2026-04-10T15:33:39Z</time></trkpt><trkpt lat="45.58504195654105" lon="9.218306333406796"><ele>172.0</ele><time>2026-04-10T15:33:40Z</time></trkpt><trkpt lat="45.58508609919002" lon="9.218594580176223"><ele>172.0</ele><time>2026-04-10T15:33:41Z</time></trkpt><trkpt lat="45.585124429789204" lon="9.218854868922776"><ele>172.0</ele><time>2026-04-10T15:33:42Z</time></trkpt><trkpt lat="45.58516571835334" lon="9.219094000230832"><ele>172.0</ele><time>2026-04-10T15:33:43Z</time></trkpt><trkpt lat="45.5852222230808" lon="9.219322390468426"><ele>172.0</ele><time>2026-04-10T15:33:44Z</time></trkpt><trkpt lat="45.585312917847325" lon="9.21956034979317"><ele>172.0</ele><time>2026-04-10T15:33:45Z</time></trkpt><trkpt lat="45.58542176643932" lon="9.21975888049737"><ele>172.0</ele><time>2026-04-10T15:33:46Z</time></trkpt><trkpt lat="45.585568235662" lon="9.219936653602844"><ele>172.0</ele><time>2026-04-10T15:33:47Z</time></trkpt><trkpt lat="45.58573022183603" lon="9.220075642714578"><ele>172.0</ele><time>2026-04-10T15:33:48Z</time></trkpt><trkpt lat="45.58591047646642" lon="9.2201732167432"><ele>172.0</ele><time>2026-04-10T15:33:49Z</time></trkpt><trkpt lat="45.586099704299826" lon="9.220225991519959"><ele>172.0</ele><time>2026-04-10T15:33:50Z</time></trkpt><trkpt lat="45.58629882680447" lon="9.220243951667772"><ele>172.0</ele><time>2026-04-10T15:33:51Z</time></trkpt><trkpt lat="45.586493654941194" lon="9.220238669127179"><ele>172.66666666666669</ele><time>2026-04-10T15:33:52Z</time></trkpt><trkpt lat="45.58669770398359" lon="9.220231950202033"><ele>173.33333333333334</ele><time>2026-04-10T15:33:53Z</time></trkpt><trkpt lat="45.58688792150339" lon="9.220231945551712"><ele>174.0</ele><time>2026-04-10T15:33:54Z</time></trkpt><trkpt lat="45.58707559359915" lon="9.220231456742574"><ele>174.0</ele><time>2026-04-10T15:33:55Z</time></trkpt><trkpt lat="45.58724800480787" lon="9.2202289118314"><ele>174.0</ele><time>2026-04-10T15:33:56Z</time></trkpt><trkpt lat="45.58739751414498" lon="9.220226134970089"><ele>174.0</ele><time>2026-04-10T15:33:57Z</time></trkpt><trkpt lat="45.58753312544754" lon="9.220218514397203"><ele>174.0</ele><time>2026-04-10T15:33:58Z</time></trkpt><trkpt lat="45.58765424064747" lon="9.220193242284417"><ele>174.0</ele><time>2026-04-10T15:33:59Z</time></trkpt><trkpt lat="45.587761301815654" lon="9.220152157002374"><ele>174.0</ele><time>2026-04-10T15:34:00Z</time></trkpt><trkpt lat="45.58786773340845" lon="9.220133412209629"><ele>174.0</ele><time>2026-04-10T15:34:01Z</time></trkpt><trkpt lat="45.58797708716644" lon="9.220168133164542"><ele>174.5</ele><time>2026-04-10T15:34:02Z</time></trkpt><trkpt lat="45.588101537142435" lon="9.220185026802989"><ele>175.0</ele><time>2026-04-10T15:34:03Z</time></trkpt><trkpt lat="45.58824037664756" lon="9.220178734369265"><ele>175.5</ele><time>2026-04-10T15:34:04Z</time></trkpt><trkpt lat="45.58838808646819" lon="9.220190240774098"><ele>176.0</ele><time>2026-04-10T15:34:05Z</time></trkpt><trkpt lat="45.58854517557315" lon="9.220202855481908"><ele>175.33333333333331</ele><time>2026-04-10T15:34:06Z</time></trkpt><trkpt lat="45.58872878131484" lon="9.2202008764978"><ele>174.66666666666666</ele><time>2026-04-10T15:34:07Z</time></trkpt><trkpt lat="45.588910564813666" lon="9.220210753034467"><ele>174.0</ele><time>2026-04-10T15:34:08Z</time></trkpt><trkpt lat="45.589089287845844" lon="9.220216340806685"><ele>174.0</ele><time>2026-04-10T15:34:09Z</time></trkpt><trkpt lat="45.58924840538934" lon="9.22021699955587"><ele>174.0</ele><time>2026-04-10T15:34:10Z</time></trkpt><trkpt lat="45.58940513278739" lon="9.220220066365615"><ele>174.0</ele><time>2026-04-10T15:34:11Z</time></trkpt><trkpt lat="45.58955199861654" lon="9.220218901894533"><ele>175.0</ele><time>2026-04-10T15:34:12Z</time></trkpt><trkpt lat="45.58968976324987" lon="9.220214707199816"><ele>176.0</ele><time>2026-04-10T15:34:13Z</time></trkpt><trkpt lat="45.58983744091466" lon="9.220212387209232"><ele>177.0</ele><time>2026-04-10T15:34:14Z</time></trkpt><trkpt lat="45.59000408411252" lon="9.220217013781996"><ele>177.0</ele><time>2026-04-10T15:34:15Z</time></trkpt><trkpt lat="45.59018590648541" lon="9.22022162436485"><ele>177.0</ele><time>2026-04-10T15:34:16Z</time></trkpt><trkpt lat="45.59037747559236" lon="9.22022418766988"><ele>177.0</ele><time>2026-04-10T15:34:17Z</time></trkpt><trkpt lat="45.59055847829739" lon="9.220225403242639"><ele>176.66666666666666</ele><time>2026-04-10T15:34:18Z</time></trkpt><trkpt lat="45.590731220497986" lon="9.220229803149907"><ele>176.33333333333331</ele><time>2026-04-10T15:34:19Z</time></trkpt><trkpt lat="45.59088522669059" lon="9.220234047600755"><ele>176.0</ele><time>2026-04-10T15:34:20Z</time></trkpt><trkpt lat="45.591026648227576" lon="9.220237227201553"><ele>176.0</ele><time>2026-04-10T15:34:21Z</time></trkpt><trkpt lat="45.59116459396517" lon="9.220239555333112"><ele>176.0</ele><time>2026-04-10T15:34:22Z</time></trkpt><trkpt lat="45.591291570724756" lon="9.220243468600831"><ele>176.0</ele><time>2026-04-10T15:34:23Z</time></trkpt><trkpt lat="45.59142029458063" lon="9.220247266540515"><ele>176.0</ele><time>2026-04-10T15:34:24Z</time></trkpt><trkpt lat="45.59154119270452" lon="9.220247973639102"><ele>176.16666666666666</ele><time>2026-04-10T15:34:25Z</time></trkpt><trkpt lat="45.59164779104467" lon="9.220250124997273"><ele>176.33333333333331</ele><time>2026-04-10T15:34:26Z</time></trkpt><trkpt lat="45.591731562132225" lon="9.220252663321824"><ele>176.5</ele><time>2026-04-10T15:34:27Z</time></trkpt><trkpt lat="45.59180037308389" lon="9.220256342989261"><ele>176.66666666666666</ele><time>2026-04-10T15:34:28Z</time></trkpt><trkpt lat="45.591869576928175" lon="9.22027340201595"><ele>176.83333333333334</ele><time>2026-04-10T15:34:29Z</time></trkpt><trkpt lat="45.591931548226626" lon="9.220321013131107"><ele>177.0</ele><time>2026-04-10T15:34:30Z</time></trkpt><trkpt lat="45.59200083448758" lon="9.220397219202676"><ele>177.16666666666666</ele><time>2026-04-10T15:34:31Z</time></trkpt><trkpt lat="45.59207173690584" lon="9.220453733415225"><ele>177.33333333333334</ele><time>2026-04-10T15:34:32Z</time></trkpt><trkpt lat="45.59215375854688" lon="9.220457799136279"><ele>177.5</ele><time>2026-04-10T15:34:33Z</time></trkpt><trkpt lat="45.59223423118072" lon="9.220396456063662"><ele>177.66666666666669</ele><time>2026-04-10T15:34:34Z</time></trkpt><trkpt lat="45.592300964190954" lon="9.220302599786507"><ele>177.83333333333334</ele><time>2026-04-10T15:34:35Z</time></trkpt><trkpt lat="45.59234678694282" lon="9.220210621835585"><ele>178.0</ele><time>2026-04-10T15:34:36Z</time></trkpt><trkpt lat="45.59250323724426" lon="9.220293907321839"><ele>178.0</ele><time>2026-04-10T15:34:37Z</time></trkpt><trkpt lat="45.59263718775902" lon="9.22031412357621"><ele>178.0</ele><time>2026-04-10T15:34:38Z</time></trkpt><trkpt lat="45.59278205296147" lon="9.220338365661544"><ele>178.0</ele><time>2026-04-10T15:34:39Z</time></trkpt><trkpt lat="45.59294739958966" lon="9.22037792615751"><ele>178.0</ele><time>2026-04-10T15:34:40Z</time></trkpt><trkpt lat="45.59312820375085" lon="9.220418736081685"><ele>178.66666666666669</ele><time>2026-04-10T15:34:41Z</time></trkpt><trkpt lat="45.59330834202835" lon="9.220439932441836"><ele>179.33333333333334</ele><time>2026-04-10T15:34:42Z</time></trkpt><trkpt lat="45.593504346601584" lon="9.220448962882493"><ele>180.0</ele><time>2026-04-10T15:34:43Z</time></trkpt><trkpt lat="45.59370871349374" lon="9.22044573908357"><ele>180.33333333333334</ele><time>2026-04-10T15:34:44Z</time></trkpt><trkpt lat="45.59392586423744" lon="9.220479260647894"><ele>180.66666666666669</ele><time>2026-04-10T15:34:45Z</time></trkpt><trkpt lat="45.594123762607886" lon="9.220490323392454"><ele>181.0</ele><time>2026-04-10T15:34:46Z</time></trkpt><trkpt lat="45.59430286265669" lon="9.220478748974049"><ele>181.0</ele><time>2026-04-10T15:34:47Z</time></trkpt><trkpt lat="45.594469676506705" lon="9.220493903574491"><ele>181.0</ele><time>2026-04-10T15:34:48Z</time></trkpt><trkpt lat="45.59464615001409" lon="9.220511955481262"><ele>181.0</ele><time>2026-04-10T15:34:49Z</time></trkpt><trkpt lat="45.59483348846153" lon="9.220521718642999"><ele>181.0</ele><time>2026-04-10T15:34:50Z</time></trkpt><trkpt lat="45.59501071826305" lon="9.220525412216555"><ele>181.0</ele><time>2026-04-10T15:34:51Z</time></trkpt><trkpt lat="45.59516826759879" lon="9.220526683846462"><ele>181.0</ele><time>2026-04-10T15:34:52Z</time></trkpt><trkpt lat="45.5953137371654" lon="9.220531252990344"><ele>181.0</ele><time>2026-04-10T15:34:53Z</time></trkpt><trkpt lat="45.59543008039278" lon="9.22053890257761"><ele>181.0</ele><time>2026-04-10T15:34:54Z</time></trkpt><trkpt lat="45.59551455792666" lon="9.22054535062742"><ele>181.0</ele><time>2026-04-10T15:34:55Z</time></trkpt><trkpt lat="45.595597903084716" lon="9.220565634716705"><ele>181.0</ele><time>2026-04-10T15:34:56Z</time></trkpt><trkpt lat="45.5956771802213" lon="9.22062373993209"><ele>181.0</ele><time>2026-04-10T15:34:57Z</time></trkpt><trkpt lat="45.59573786965319" lon="9.220695062812391"><ele>181.0</ele><time>2026-04-10T15:34:58Z</time></trkpt><trkpt lat="45.59582310572905" lon="9.220722755700118"><ele>181.0</ele><time>2026-04-10T15:34:59Z</time></trkpt><trkpt lat="45.59590010856704" lon="9.220701760726747"><ele>181.0</ele><time>2026-04-10T15:35:00Z</time></trkpt><trkpt lat="45.59597889200785" lon="9.220635487376923"><ele>181.0</ele><time>2026-04-10T15:35:01Z</time></trkpt><trkpt lat="45.59605230042026" lon="9.220524022963215"><ele>181.0</ele><time>2026-04-10T15:35:02Z</time></trkpt><trkpt lat="45.59620613496084" lon="9.220546034440272"><ele>180.66666666666669</ele><time>2026-04-10T15:35:03Z</time></trkpt><trkpt lat="45.596356698974645" lon="9.220545023502764"><ele>180.33333333333334</ele><time>2026-04-10T15:35:04Z</time></trkpt><trkpt lat="45.59652890965445" lon="9.220552792821763"><ele>180.0</ele><time>2026-04-10T15:35:05Z</time></trkpt><trkpt lat="45.59670156973469" lon="9.22056165761466"><ele>180.0</ele><time>2026-04-10T15:35:06Z</time></trkpt><trkpt lat="45.59688745915557" lon="9.220564620276189"><ele>180.0</ele><time>2026-04-10T15:35:07Z</time></trkpt><trkpt lat="45.59707979228267" lon="9.220565140213917"><ele>180.0</ele><time>2026-04-10T15:35:08Z</time></trkpt><trkpt lat="45.5972837230675" lon="9.22056796020106"><ele>180.0</ele><time>2026-04-10T15:35:09Z</time></trkpt><trkpt lat="45.59749029552027" lon="9.220566986563052"><ele>180.0</ele><time>2026-04-10T15:35:10Z</time></trkpt><trkpt lat="45.5977027737881" lon="9.22058714611566"><ele>180.0</ele><time>2026-04-10T15:35:11Z</time></trkpt><trkpt lat="45.597913837971895" lon="9.220568865367234"><ele>180.33333333333334</ele><time>2026-04-10T15:35:12Z</time></trkpt><trkpt lat="45.59813075510797" lon="9.220587230210121"><ele>180.66666666666669</ele><time>2026-04-10T15:35:13Z</time></trkpt><trkpt lat="45.59835487275407" lon="9.22060358129275"><ele>181.0</ele><time>2026-04-10T15:35:14Z</time></trkpt><trkpt lat="45.59858095608479" lon="9.220609062401806"><ele>179.33333333333334</ele><time>2026-04-10T15:35:15Z</time></trkpt><trkpt lat="45.59880756355752" lon="9.22061184129901"><ele>177.66666666666666</ele><time>2026-04-10T15:35:16Z</time></trkpt><trkpt lat="45.59902149136291" lon="9.220617079685617"><ele>176.0</ele><time>2026-04-10T15:35:17Z</time></trkpt><trkpt lat="45.599238262615074" lon="9.2206212041316"><ele>176.0</ele><time>2026-04-10T15:35:18Z</time></trkpt><trkpt lat="45.59946381581616" lon="9.220624130856498"><ele>176.0</ele><time>2026-04-10T15:35:19Z</time></trkpt><trkpt lat="45.59966959628284" lon="9.220636034351589"><ele>176.0</ele><time>2026-04-10T15:35:20Z</time></trkpt><trkpt lat="45.59985862180618" lon="9.220658620301347"><ele>177.66666666666666</ele><time>2026-04-10T15:35:21Z</time></trkpt><trkpt lat="45.60003782450295" lon="9.220692808322884"><ele>179.33333333333334</ele><time>2026-04-10T15:35:22Z</time></trkpt><trkpt lat="45.60020705184937" lon="9.220734345203658"><ele>181.0</ele><time>2026-04-10T15:35:23Z</time></trkpt><trkpt lat="45.600362861423605" lon="9.220789566530522"><ele>181.25</ele><time>2026-04-10T15:35:24Z</time></trkpt><trkpt lat="45.600509575679595" lon="9.22085954791321"><ele>181.5</ele><time>2026-04-10T15:35:25Z</time></trkpt><trkpt lat="45.60062123231433" lon="9.220948553157461"><ele>181.75</ele><time>2026-04-10T15:35:26Z</time></trkpt><trkpt lat="45.60072299771393" lon="9.221042961166859"><ele>182.0</ele><time>2026-04-10T15:35:27Z</time></trkpt><trkpt lat="45.60081109415926" lon="9.221145811544883"><ele>182.0</ele><time>2026-04-10T15:35:28Z</time></trkpt><trkpt lat="45.600893655153456" lon="9.221246571725992"><ele>182.0</ele><time>2026-04-10T15:35:29Z</time></trkpt><trkpt lat="45.60095240237575" lon="9.221341830872717"><ele>182.0</ele><time>2026-04-10T15:35:30Z</time></trkpt><trkpt lat="45.60099504750164" lon="9.221437476112994"><ele>182.0</ele><time>2026-04-10T15:35:31Z</time></trkpt><trkpt lat="45.601009303175026" lon="9.221559059802518"><ele>182.0</ele><time>2026-04-10T15:35:32Z</time></trkpt><trkpt lat="45.60100081676026" lon="9.221697918341063"><ele>181.83333333333331</ele><time>2026-04-10T15:35:33Z</time></trkpt><trkpt lat="45.60099771106808" lon="9.221816447061899"><ele>181.66666666666666</ele><time>2026-04-10T15:35:34Z</time></trkpt><trkpt lat="45.60103774483182" lon="9.221919232217466"><ele>181.5</ele><time>2026-04-10T15:35:35Z</time></trkpt><trkpt lat="45.60110430916792" lon="9.22200057020098"><ele>181.33333333333334</ele><time>2026-04-10T15:35:36Z</time></trkpt><trkpt lat="45.60118292257742" lon="9.222031567143999"><ele>181.16666666666669</ele><time>2026-04-10T15:35:37Z</time></trkpt><trkpt lat="45.601266967489344" lon="9.2220197282836"><ele>181.0</ele><time>2026-04-10T15:35:38Z</time></trkpt><trkpt lat="45.60133102548149" lon="9.22196777911679"><ele>181.0</ele><time>2026-04-10T15:35:39Z</time></trkpt><trkpt lat="45.60137919616101" lon="9.221877972437769"><ele>181.0</ele><time>2026-04-10T15:35:40Z</time></trkpt><trkpt lat="45.60141296790503" lon="9.221765386192036"><ele>181.0</ele><time>2026-04-10T15:35:41Z</time></trkpt><trkpt lat="45.60146321381053" lon="9.22164776635076"><ele>181.0</ele><time>2026-04-10T15:35:42Z</time></trkpt><trkpt lat="45.601538865640194" lon="9.221553472814486"><ele>181.0</ele><time>2026-04-10T15:35:43Z</time></trkpt><trkpt lat="45.60162698807412" lon="9.221493976685363"><ele>181.25</ele><time>2026-04-10T15:35:44Z</time></trkpt><trkpt lat="45.60173038686024" lon="9.221423213254464"><ele>181.5</ele><time>2026-04-10T15:35:45Z</time></trkpt><trkpt lat="45.60186543829048" lon="9.221345153388768"><ele>181.75</ele><time>2026-04-10T15:35:46Z</time></trkpt><trkpt lat="45.60201250671886" lon="9.22128387118937"><ele>182.0</ele><time>2026-04-10T15:35:47Z</time></trkpt><trkpt lat="45.602143958571226" lon="9.22121896635757"><ele>182.25</ele><time>2026-04-10T15:35:48Z</time></trkpt><trkpt lat="45.60226208274806" lon="9.221153020622623"><ele>182.5</ele><time>2026-04-10T15:35:49Z</time></trkpt><trkpt lat="45.60238621939056" lon="9.221079551808137"><ele>182.75</ele><time>2026-04-10T15:35:50Z</time></trkpt><trkpt lat="45.60251902450195" lon="9.220995368816084"><ele>183.0</ele><time>2026-04-10T15:35:51Z</time></trkpt><trkpt lat="45.60265206186805" lon="9.220924201934999"><ele>183.0</ele><time>2026-04-10T15:35:52Z</time></trkpt><trkpt lat="45.602775587598735" lon="9.22086364296989"><ele>183.0</ele><time>2026-04-10T15:35:53Z</time></trkpt><trkpt lat="45.60288926184258" lon="9.220811568605475"><ele>183.0</ele><time>2026-04-10T15:35:54Z</time></trkpt><trkpt lat="45.603008037926394" lon="9.22075621378922"><ele>183.0</ele><time>2026-04-10T15:35:55Z</time></trkpt><trkpt lat="45.603131910079966" lon="9.220695604108696"><ele>183.4</ele><time>2026-04-10T15:35:56Z</time></trkpt><trkpt lat="45.603234388605486" lon="9.22064819291623"><ele>183.8</ele><time>2026-04-10T15:35:57Z</time></trkpt><trkpt lat="45.6033275929567" lon="9.220603116405398"><ele>184.2</ele><time>2026-04-10T15:35:58Z</time></trkpt><trkpt lat="45.60341987907691" lon="9.220556534668631"><ele>184.6</ele><time>2026-04-10T15:35:59Z</time></trkpt><trkpt lat="45.60351785816265" lon="9.220508952363984"><ele>185.0</ele><time>2026-04-10T15:36:00Z</time></trkpt><trkpt lat="45.60364157885281" lon="9.220452161957763"><ele>184.8</ele><time>2026-04-10T15:36:01Z</time></trkpt><trkpt lat="45.603772755584856" lon="9.220402038859428"><ele>184.6</ele><time>2026-04-10T15:36:02Z</time></trkpt><trkpt lat="45.603884554852776" lon="9.220368216792265"><ele>184.39999999999998</ele><time>2026-04-10T15:36:03Z</time></trkpt><trkpt lat="45.603979969657054" lon="9.220342499750892"><ele>184.2</ele><time>2026-04-10T15:36:04Z</time></trkpt><trkpt lat="45.60406002336809" lon="9.220322711459044"><ele>184.0</ele><time>2026-04-10T15:36:05Z</time></trkpt><trkpt lat="45.604161445619184" lon="9.220308432768368"><ele>184.0</ele><time>2026-04-10T15:36:07Z</time></trkpt><trkpt lat="45.60424968267245" lon="9.22028104316154"><ele>184.0</ele><time>2026-04-10T15:36:09Z</time></trkpt><trkpt lat="45.60434634556243" lon="9.220329087254763"><ele>184.0</ele><time>2026-04-10T15:36:11Z</time></trkpt><trkpt lat="45.60442414324355" lon="9.220358847209603"><ele>184.0</ele><time>2026-04-10T15:36:13Z</time></trkpt><trkpt lat="45.60451346813895" lon="9.220412215782456"><ele>184.0</ele><time>2026-04-10T15:36:15Z</time></trkpt><trkpt lat="45.60459264961657" lon="9.220523233506835"><ele>184.39999999999998</ele><time>2026-04-10T15:36:17Z</time></trkpt><trkpt lat="45.60463278177039" lon="9.220602581880048"><ele>184.8</ele><time>2026-04-10T15:36:18Z</time></trkpt><trkpt lat="45.60469380585895" lon="9.220772857145676"><ele>185.2</ele><time>2026-04-10T15:36:20Z</time></trkpt><trkpt lat="45.604729411412094" lon="9.220867460294233"><ele>185.60000000000002</ele><time>2026-04-10T15:36:21Z</time></trkpt><trkpt lat="45.60476947667024" lon="9.220963522525023"><ele>186.0</ele><time>2026-04-10T15:36:22Z</time></trkpt><trkpt lat="45.604818692848276" lon="9.221084902606115"><ele>186.16666666666666</ele><time>2026-04-10T15:36:23Z</time></trkpt><trkpt lat="45.604863995179436" lon="9.22119731262958"><ele>186.33333333333334</ele><time>2026-04-10T15:36:24Z</time></trkpt><trkpt lat="45.604905192128825" lon="9.221313310277974"><ele>186.5</ele><time>2026-04-10T15:36:25Z</time></trkpt><trkpt lat="45.60495065432117" lon="9.221436634106903"><ele>186.66666666666669</ele><time>2026-04-10T15:36:26Z</time></trkpt><trkpt lat="45.604989704678644" lon="9.22153879332062"><ele>186.83333333333334</ele><time>2026-04-10T15:36:27Z</time></trkpt><trkpt lat="45.60502122326514" lon="9.221624414702177"><ele>187.0</ele><time>2026-04-10T15:36:28Z</time></trkpt><trkpt lat="45.60509861665036" lon="9.22180877918421"><ele>187.25</ele><time>2026-04-10T15:36:30Z</time></trkpt><trkpt lat="45.60515110383222" lon="9.221950851999555"><ele>187.5</ele><time>2026-04-10T15:36:31Z</time></trkpt><trkpt lat="45.60520862308762" lon="9.22210500053205"><ele>187.75</ele><time>2026-04-10T15:36:32Z</time></trkpt><trkpt lat="45.60526203768969" lon="9.222247365340316"><ele>188.0</ele><time>2026-04-10T15:36:33Z</time></trkpt><trkpt lat="45.605316016720536" lon="9.222402493459924"><ele>187.8</ele><time>2026-04-10T15:36:34Z</time></trkpt><trkpt lat="45.60533960692276" lon="9.222549172436137"><ele>187.60000000000002</ele><time>2026-04-10T15:36:35Z</time></trkpt><trkpt lat="45.6053689715825" lon="9.22267976501353"><ele>187.39999999999998</ele><time>2026-04-10T15:36:36Z</time></trkpt><trkpt lat="45.605395705310066" lon="9.222805651339593"><ele>187.2</ele><time>2026-04-10T15:36:37Z</time></trkpt><trkpt lat="45.6054351813374" lon="9.222934796164424"><ele>187.0</ele><time>2026-04-10T15:36:38Z</time></trkpt><trkpt lat="45.60545624910231" lon="9.22307452791265"><ele>186.8</ele><time>2026-04-10T15:36:39Z</time></trkpt><trkpt lat="45.60546226234324" lon="9.223228396400703"><ele>186.6</ele><time>2026-04-10T15:36:40Z</time></trkpt><trkpt lat="45.60546488786256" lon="9.22335069549186"><ele>186.4</ele><time>2026-04-10T15:36:41Z</time></trkpt><trkpt lat="45.60545319104836" lon="9.223519788389407"><ele>186.20000000000002</ele><time>2026-04-10T15:36:42Z</time></trkpt><trkpt lat="45.60544237000028" lon="9.223675470205396"><ele>186.0</ele><time>2026-04-10T15:36:43Z</time></trkpt><trkpt lat="45.6054319320587" lon="9.223812575254865"><ele>186.0</ele><time>2026-04-10T15:36:44Z</time></trkpt><trkpt lat="45.60543428472908" lon="9.223929470433333"><ele>186.0</ele><time>2026-04-10T15:36:45Z</time></trkpt><trkpt lat="45.60542685801879" lon="9.224029949283775"><ele>186.0</ele><time>2026-04-10T15:36:46Z</time></trkpt><trkpt lat="45.605420823612995" lon="9.224147774870664"><ele>186.0</ele><time>2026-04-10T15:36:47Z</time></trkpt><trkpt lat="45.605423688867944" lon="9.224274312021386"><ele>186.0</ele><time>2026-04-10T15:36:48Z</time></trkpt><trkpt lat="45.60544406852829" lon="9.22438197309969"><ele>186.0</ele><time>2026-04-10T15:36:49Z</time></trkpt><trkpt lat="45.605500389608515" lon="9.224515584067882"><ele>185.75</ele><time>2026-04-10T15:36:50Z</time></trkpt><trkpt lat="45.60558371293656" lon="9.224633761694562"><ele>185.5</ele><time>2026-04-10T15:36:51Z</time></trkpt><trkpt lat="45.60566386584162" lon="9.2247706438548"><ele>185.25</ele><time>2026-04-10T15:36:52Z</time></trkpt><trkpt lat="45.60579435720705" lon="9.224913665872215"><ele>185.0</ele><time>2026-04-10T15:36:53Z</time></trkpt><trkpt lat="45.60587597896942" lon="9.225078580708498"><ele>185.66666666666666</ele><time>2026-04-10T15:36:54Z</time></trkpt><trkpt lat="45.60594355635427" lon="9.225280978211137"><ele>186.33333333333334</ele><time>2026-04-10T15:36:55Z</time></trkpt><trkpt lat="45.6060093147513" lon="9.225520051409292"><ele>187.0</ele><time>2026-04-10T15:36:56Z</time></trkpt><trkpt lat="45.60609111834826" lon="9.225737049181943"><ele>187.25</ele><time>2026-04-10T15:36:57Z</time></trkpt><trkpt lat="45.60617498373235" lon="9.225907380565065"><ele>187.5</ele><time>2026-04-10T15:36:58Z</time></trkpt><trkpt lat="45.60626141218399" lon="9.226055041909197"><ele>187.75</ele><time>2026-04-10T15:36:59Z</time></trkpt><trkpt lat="45.60634867284083" lon="9.226204356729896"><ele>188.0</ele><time>2026-04-10T15:37:00Z</time></trkpt><trkpt lat="45.60644029314192" lon="9.226340114713784"><ele>188.0</ele><time>2026-04-10T15:37:01Z</time></trkpt><trkpt lat="45.60652874430978" lon="9.226463639730461"><ele>188.0</ele><time>2026-04-10T15:37:02Z</time></trkpt><trkpt lat="45.6066212328222" lon="9.226612149499791"><ele>188.0</ele><time>2026-04-10T15:37:03Z</time></trkpt><trkpt lat="45.606708314231824" lon="9.22674564962232"><ele>188.0</ele><time>2026-04-10T15:37:04Z</time></trkpt><trkpt lat="45.606791238642934" lon="9.226880912991097"><ele>188.0</ele><time>2026-04-10T15:37:05Z</time></trkpt><trkpt lat="45.606860647082335" lon="9.226997092448595"><ele>188.0</ele><time>2026-04-10T15:37:06Z</time></trkpt><trkpt lat="45.60692490816747" lon="9.227099999395561"><ele>188.0</ele><time>2026-04-10T15:37:07Z</time></trkpt><trkpt lat="45.606991283817855" lon="9.22720233928847"><ele>188.0</ele><time>2026-04-10T15:37:08Z</time></trkpt><trkpt lat="45.6070479774725" lon="9.22729354192981"><ele>188.0</ele><time>2026-04-10T15:37:09Z</time></trkpt><trkpt lat="45.60710231982009" lon="9.227378710896998"><ele>187.83333333333331</ele><time>2026-04-10T15:37:10Z</time></trkpt><trkpt lat="45.607153688757194" lon="9.227464222130555"><ele>187.66666666666666</ele><time>2026-04-10T15:37:11Z</time></trkpt><trkpt lat="45.607200915008306" lon="9.227539972967424"><ele>187.5</ele><time>2026-04-10T15:37:12Z</time></trkpt><trkpt lat="45.607277255710045" lon="9.227606514108029"><ele>187.33333333333334</ele><time>2026-04-10T15:37:13Z</time></trkpt><trkpt lat="45.60731991048368" lon="9.227697298312487"><ele>187.16666666666669</ele><time>2026-04-10T15:37:14Z</time></trkpt><trkpt lat="45.607373203487406" lon="9.22777437920063"><ele>187.0</ele><time>2026-04-10T15:37:15Z</time></trkpt><trkpt lat="45.6074355223775" lon="9.227852385070282"><ele>187.0</ele><time>2026-04-10T15:37:16Z</time></trkpt><trkpt lat="45.60747012750497" lon="9.227962229272379"><ele>187.0</ele><time>2026-04-10T15:37:17Z</time></trkpt><trkpt lat="45.60751319288307" lon="9.228049342751856"><ele>187.0</ele><time>2026-04-10T15:37:18Z</time></trkpt><trkpt lat="45.607578974290305" lon="9.22810925431751"><ele>187.0</ele><time>2026-04-10T15:37:19Z</time></trkpt><trkpt lat="45.60765508570213" lon="9.228124223149578"><ele>187.0</ele><time>2026-04-10T15:37:20Z</time></trkpt><trkpt lat="45.60771800225021" lon="9.228085414127499"><ele>187.0</ele><time>2026-04-10T15:37:21Z</time></trkpt><trkpt lat="45.60776813058802" lon="9.228014990280275"><ele>187.0</ele><time>2026-04-10T15:37:22Z</time></trkpt><trkpt lat="45.6078470610759" lon="9.22795117745585"><ele>187.0</ele><time>2026-04-10T15:37:24Z</time></trkpt><trkpt lat="45.607832303912666" lon="9.227847556796835"><ele>187.0</ele><time>2026-04-10T15:37:26Z</time></trkpt><trkpt lat="45.607851021840375" lon="9.227758693175044"><ele>187.0</ele><time>2026-04-10T15:37:30Z</time></trkpt><trkpt lat="45.607823116737904" lon="9.22767737614288"><ele>187.0</ele><time>2026-04-10T15:37:32Z</time></trkpt><trkpt lat="45.607734839776796" lon="9.227530175035577"><ele>187.0</ele><time>2026-04-10T15:37:34Z</time></trkpt><trkpt lat="45.60769206266709" lon="9.227385267369849"><ele>187.25</ele><time>2026-04-10T15:37:35Z</time></trkpt><trkpt lat="45.607628296241494" lon="9.227244262827837"><ele>187.5</ele><time>2026-04-10T15:37:36Z</time></trkpt><trkpt lat="45.6075551329579" lon="9.227106996571662"><ele>187.75</ele><time>2026-04-10T15:37:37Z</time></trkpt><trkpt lat="45.6074731429762" lon="9.226959146374517"><ele>188.0</ele><time>2026-04-10T15:37:38Z</time></trkpt><trkpt lat="45.60739425048124" lon="9.226821316069413"><ele>188.0</ele><time>2026-04-10T15:37:39Z</time></trkpt><trkpt lat="45.6073215045606" lon="9.226693011870363"><ele>188.0</ele><time>2026-04-10T15:37:40Z</time></trkpt><trkpt lat="45.60725224490183" lon="9.226574949864935"><ele>188.0</ele><time>2026-04-10T15:37:41Z</time></trkpt><trkpt lat="45.60719084026833" lon="9.226465367618696"><ele>188.0</ele><time>2026-04-10T15:37:42Z</time></trkpt><trkpt lat="45.607145135524235" lon="9.226354066437274"><ele>188.0</ele><time>2026-04-10T15:37:43Z</time></trkpt><trkpt lat="45.607120970472444" lon="9.226232424014633"><ele>188.0</ele><time>2026-04-10T15:37:44Z</time></trkpt><trkpt lat="45.60712029081376" lon="9.226102962897683"><ele>188.0</ele><time>2026-04-10T15:37:45Z</time></trkpt><trkpt lat="45.60713917563394" lon="9.225960341345946"><ele>188.0</ele><time>2026-04-10T15:37:46Z</time></trkpt><trkpt lat="45.60717567294935" lon="9.225830921163148"><ele>188.0</ele><time>2026-04-10T15:37:47Z</time></trkpt><trkpt lat="45.60723512492049" lon="9.225716053042932"><ele>188.0</ele><time>2026-04-10T15:37:48Z</time></trkpt><trkpt lat="45.60731299820714" lon="9.225615657374002"><ele>187.5</ele><time>2026-04-10T15:37:49Z</time></trkpt><trkpt lat="45.60740742560248" lon="9.225505219044194"><ele>187.0</ele><time>2026-04-10T15:37:50Z</time></trkpt><trkpt lat="45.607521446736904" lon="9.225367222764966"><ele>186.5</ele><time>2026-04-10T15:37:51Z</time></trkpt><trkpt lat="45.60765362765274" lon="9.22519751773814"><ele>186.0</ele><time>2026-04-10T15:37:52Z</time></trkpt><trkpt lat="45.607801544083706" lon="9.225022034539746"><ele>186.66666666666666</ele><time>2026-04-10T15:37:53Z</time></trkpt><trkpt lat="45.6079527793117" lon="9.22484734224414"><ele>187.33333333333331</ele><time>2026-04-10T15:37:54Z</time></trkpt><trkpt lat="45.60810917421368" lon="9.224684527374666"><ele>188.0</ele><time>2026-04-10T15:37:55Z</time></trkpt><trkpt lat="45.608274664584" lon="9.22451641184836"><ele>188.0</ele><time>2026-04-10T15:37:56Z</time></trkpt><trkpt lat="45.608444261356624" lon="9.224363669260004"><ele>188.0</ele><time>2026-04-10T15:37:57Z</time></trkpt><trkpt lat="45.60862365075238" lon="9.224228375212329"><ele>188.0</ele><time>2026-04-10T15:37:58Z</time></trkpt><trkpt lat="45.60881307409498" lon="9.224117239399543"><ele>189.0</ele><time>2026-04-10T15:37:59Z</time></trkpt><trkpt lat="45.60902362282955" lon="9.224039498289079"><ele>190.0</ele><time>2026-04-10T15:38:00Z</time></trkpt><trkpt lat="45.60923785459249" lon="9.223959943695064"><ele>191.0</ele><time>2026-04-10T15:38:01Z</time></trkpt><trkpt lat="45.60943696302108" lon="9.223885253401734"><ele>191.33333333333331</ele><time>2026-04-10T15:38:02Z</time></trkpt><trkpt lat="45.6096315077542" lon="9.223823981023884"><ele>191.66666666666666</ele><time>2026-04-10T15:38:03Z</time></trkpt><trkpt lat="45.60981484604643" lon="9.223787531222833"><ele>192.0</ele><time>2026-04-10T15:38:04Z</time></trkpt><trkpt lat="45.60997831370594" lon="9.223780846172545"><ele>192.0</ele><time>2026-04-10T15:38:05Z</time></trkpt><trkpt lat="45.610153841621944" lon="9.223778956267228"><ele>192.0</ele><time>2026-04-10T15:38:06Z</time></trkpt><trkpt lat="45.610343706146864" lon="9.223780354703111"><ele>192.0</ele><time>2026-04-10T15:38:07Z</time></trkpt><trkpt lat="45.610532223407425" lon="9.223793875369664"><ele>192.0</ele><time>2026-04-10T15:38:08Z</time></trkpt><trkpt lat="45.610736093427604" lon="9.223807656623823"><ele>192.0</ele><time>2026-04-10T15:38:09Z</time></trkpt><trkpt lat="45.61094714678855" lon="9.2238242896773"><ele>192.0</ele><time>2026-04-10T15:38:10Z</time></trkpt><trkpt lat="45.61117224792078" lon="9.223830346182416"><ele>192.0</ele><time>2026-04-10T15:38:11Z</time></trkpt><trkpt lat="45.61142548227301" lon="9.223831937456962"><ele>192.0</ele><time>2026-04-10T15:38:12Z</time></trkpt><trkpt lat="45.61168367834266" lon="9.22383935871014"><ele>192.0</ele><time>2026-04-10T15:38:13Z</time></trkpt><trkpt lat="45.61194425782746" lon="9.223849452780083"><ele>192.0</ele><time>2026-04-10T15:38:14Z</time></trkpt><trkpt lat="45.61221414178387" lon="9.223864977345004"><ele>191.5</ele><time>2026-04-10T15:38:15Z</time></trkpt><trkpt lat="45.61248483543175" lon="9.22389291284984"><ele>191.0</ele><time>2026-04-10T15:38:16Z</time></trkpt><trkpt lat="45.61275456779671" lon="9.223921563513397"><ele>192.0</ele><time>2026-04-10T15:38:17Z</time></trkpt><trkpt lat="45.61301257081202" lon="9.223943851853207"><ele>193.0</ele><time>2026-04-10T15:38:18Z</time></trkpt><trkpt lat="45.61326259941041" lon="9.223961349251464"><ele>193.0</ele><time>2026-04-10T15:38:19Z</time></trkpt><trkpt lat="45.613511568645805" lon="9.223972467376894"><ele>193.0</ele><time>2026-04-10T15:38:20Z</time></trkpt><trkpt lat="45.61377107861111" lon="9.223980831012865"><ele>191.0</ele><time>2026-04-10T15:38:21Z</time></trkpt><trkpt lat="45.6140191269115" lon="9.223989029511932"><ele>189.0</ele><time>2026-04-10T15:38:22Z</time></trkpt><trkpt lat="45.614276379158426" lon="9.224001200580092"><ele>189.5</ele><time>2026-04-10T15:38:23Z</time></trkpt><trkpt lat="45.614529963750115" lon="9.224014829413258"><ele>190.0</ele><time>2026-04-10T15:38:24Z</time></trkpt><trkpt lat="45.614783973634914" lon="9.224030788785752"><ele>190.0</ele><time>2026-04-10T15:38:25Z</time></trkpt><trkpt lat="45.615029828436015" lon="9.224042423380777"><ele>190.0</ele><time>2026-04-10T15:38:26Z</time></trkpt><trkpt lat="45.6152835907731" lon="9.22405184420334"><ele>192.5</ele><time>2026-04-10T15:38:27Z</time></trkpt><trkpt lat="45.61553525327698" lon="9.224057656364105"><ele>195.0</ele><time>2026-04-10T15:38:28Z</time></trkpt><trkpt lat="45.61578707859213" lon="9.224067077850222"><ele>195.0</ele><time>2026-04-10T15:38:29Z</time></trkpt><trkpt lat="45.61602754324955" lon="9.224076617462607"><ele>195.0</ele><time>2026-04-10T15:38:30Z</time></trkpt><trkpt lat="45.6162566344865" lon="9.224091374829767"><ele>194.5</ele><time>2026-04-10T15:38:31Z</time></trkpt><trkpt lat="45.61650091365576" lon="9.224097267008055"><ele>194.0</ele><time>2026-04-10T15:38:32Z</time></trkpt><trkpt lat="45.61674802450078" lon="9.224109238791007"><ele>194.5</ele><time>2026-04-10T15:38:33Z</time></trkpt><trkpt lat="45.61700933257331" lon="9.224122113421512"><ele>195.0</ele><time>2026-04-10T15:38:34Z</time></trkpt><trkpt lat="45.61726774334559" lon="9.224133776148182"><ele>195.0</ele><time>2026-04-10T15:38:35Z</time></trkpt><trkpt lat="45.61752053847488" lon="9.224149141437222"><ele>195.0</ele><time>2026-04-10T15:38:36Z</time></trkpt><trkpt lat="45.61775274449062" lon="9.224163003174294"><ele>195.0</ele><time>2026-04-10T15:38:37Z</time></trkpt><trkpt lat="45.618000648374874" lon="9.224174535169766"><ele>195.0</ele><time>2026-04-10T15:38:38Z</time></trkpt><trkpt lat="45.618245240504436" lon="9.224192122012246"><ele>195.0</ele><time>2026-04-10T15:38:39Z</time></trkpt><trkpt lat="45.618502657876405" lon="9.224208570512264"><ele>195.0</ele><time>2026-04-10T15:38:40Z</time></trkpt><trkpt lat="45.61877145780026" lon="9.224222735090642"><ele>195.0</ele><time>2026-04-10T15:38:41Z</time></trkpt><trkpt lat="45.61903555254981" lon="9.224237856118595"><ele>195.0</ele><time>2026-04-10T15:38:42Z</time></trkpt><trkpt lat="45.6192931396648" lon="9.224246826264006"><ele>195.5</ele><time>2026-04-10T15:38:43Z</time></trkpt><trkpt lat="45.61954114413091" lon="9.224252250310574"><ele>196.0</ele><time>2026-04-10T15:38:44Z</time></trkpt><trkpt lat="45.6197850816073" lon="9.22425966677"><ele>196.0</ele><time>2026-04-10T15:38:45Z</time></trkpt><trkpt lat="45.620042069667086" lon="9.224265062114384"><ele>196.0</ele><time>2026-04-10T15:38:46Z</time></trkpt><trkpt lat="45.620292371755056" lon="9.224278068956314"><ele>197.0</ele><time>2026-04-10T15:38:47Z</time></trkpt><trkpt lat="45.62054519651795" lon="9.224290610983225"><ele>198.0</ele><time>2026-04-10T15:38:48Z</time></trkpt><trkpt lat="45.62079549811522" lon="9.224304403261478"><ele>198.0</ele><time>2026-04-10T15:38:49Z</time></trkpt><trkpt lat="45.621050831636595" lon="9.224320317369488"><ele>198.0</ele><time>2026-04-10T15:38:50Z</time></trkpt><trkpt lat="45.621305796407206" lon="9.224336396609653"><ele>198.5</ele><time>2026-04-10T15:38:51Z</time></trkpt><trkpt lat="45.62156349675432" lon="9.22435212761778"><ele>199.0</ele><time>2026-04-10T15:38:52Z</time></trkpt><trkpt lat="45.621817034099976" lon="9.224366575313214"><ele>198.5</ele><time>2026-04-10T15:38:53Z</time></trkpt><trkpt lat="45.622064621753665" lon="9.224377698901451"><ele>198.0</ele><time>2026-04-10T15:38:54Z</time></trkpt><trkpt lat="45.62230488094259" lon="9.22439152158653"><ele>198.0</ele><time>2026-04-10T15:38:55Z</time></trkpt><trkpt lat="45.62254801345365" lon="9.22440396007256"><ele>198.0</ele><time>2026-04-10T15:38:56Z</time></trkpt><trkpt lat="45.62280184428675" lon="9.22441608343217"><ele>198.0</ele><time>2026-04-10T15:38:57Z</time></trkpt><trkpt lat="45.62305987266043" lon="9.224432704308475"><ele>198.0</ele><time>2026-04-10T15:38:58Z</time></trkpt><trkpt lat="45.623319281109" lon="9.224451876339419"><ele>198.0</ele><time>2026-04-10T15:38:59Z</time></trkpt><trkpt lat="45.62357908600656" lon="9.224467232834098"><ele>198.0</ele><time>2026-04-10T15:39:00Z</time></trkpt><trkpt lat="45.62384335425353" lon="9.22447086360191"><ele>198.0</ele><time>2026-04-10T15:39:01Z</time></trkpt><trkpt lat="45.62411359829045" lon="9.224471352004139"><ele>198.0</ele><time>2026-04-10T15:39:02Z</time></trkpt><trkpt lat="45.6243772152551" lon="9.224483846255211"><ele>198.0</ele><time>2026-04-10T15:39:03Z</time></trkpt><trkpt lat="45.624644232319845" lon="9.224507333896545"><ele>198.0</ele><time>2026-04-10T15:39:04Z</time></trkpt><trkpt lat="45.62490926866734" lon="9.224527726950525"><ele>198.0</ele><time>2026-04-10T15:39:05Z</time></trkpt><trkpt lat="45.62517318137461" lon="9.224540057833046"><ele>198.0</ele><time>2026-04-10T15:39:06Z</time></trkpt><trkpt lat="45.625425469912614" lon="9.224549861732818"><ele>199.0</ele><time>2026-04-10T15:39:07Z</time></trkpt><trkpt lat="45.62566213570733" lon="9.22456244239157"><ele>200.0</ele><time>2026-04-10T15:39:08Z</time></trkpt><trkpt lat="45.62589798462984" lon="9.224577784849586"><ele>200.0</ele><time>2026-04-10T15:39:09Z</time></trkpt><trkpt lat="45.6261508363863" lon="9.224597795134333"><ele>200.0</ele><time>2026-04-10T15:39:10Z</time></trkpt><trkpt lat="45.62641088084093" lon="9.224617249313997"><ele>200.0</ele><time>2026-04-10T15:39:11Z</time></trkpt><trkpt lat="45.626668281219125" lon="9.22462760483405"><ele>200.0</ele><time>2026-04-10T15:39:12Z</time></trkpt><trkpt lat="45.62692082673232" lon="9.22463925227816"><ele>202.0</ele><time>2026-04-10T15:39:13Z</time></trkpt><trkpt lat="45.62716690709576" lon="9.224650836073543"><ele>204.0</ele><time>2026-04-10T15:39:14Z</time></trkpt><trkpt lat="45.62741878076319" lon="9.224664972331169"><ele>204.0</ele><time>2026-04-10T15:39:15Z</time></trkpt><trkpt lat="45.62767237502388" lon="9.22467761378622"><ele>204.0</ele><time>2026-04-10T15:39:16Z</time></trkpt><trkpt lat="45.62793342728289" lon="9.224678745845727"><ele>204.5</ele><time>2026-04-10T15:39:17Z</time></trkpt><trkpt lat="45.62820096680274" lon="9.224686564248115"><ele>205.0</ele><time>2026-04-10T15:39:18Z</time></trkpt><trkpt lat="45.628479800561344" lon="9.224707972374654"><ele>204.0</ele><time>2026-04-10T15:39:19Z</time></trkpt><trkpt lat="45.628752604760486" lon="9.224726638984707"><ele>203.0</ele><time>2026-04-10T15:39:20Z</time></trkpt><trkpt lat="45.62901454639617" lon="9.224753020681517"><ele>203.0</ele><time>2026-04-10T15:39:21Z</time></trkpt><trkpt lat="45.629271887180764" lon="9.224763030494044"><ele>203.0</ele><time>2026-04-10T15:39:22Z</time></trkpt><trkpt lat="45.62951834287715" lon="9.224772480672522"><ele>203.0</ele><time>2026-04-10T15:39:23Z</time></trkpt><trkpt lat="45.62977790632535" lon="9.22478318360696"><ele>203.0</ele><time>2026-04-10T15:39:24Z</time></trkpt><trkpt lat="45.63004969109482" lon="9.224791769033432"><ele>204.0</ele><time>2026-04-10T15:39:25Z</time></trkpt><trkpt lat="45.630312240961146" lon="9.224799118598408"><ele>205.0</ele><time>2026-04-10T15:39:26Z</time></trkpt><trkpt lat="45.6305647091415" lon="9.224811945944335"><ele>205.0</ele><time>2026-04-10T15:39:27Z</time></trkpt><trkpt lat="45.630827364643025" lon="9.224837446010582"><ele>205.0</ele><time>2026-04-10T15:39:28Z</time></trkpt><trkpt lat="45.63109646665365" lon="9.22486508493915"><ele>205.5</ele><time>2026-04-10T15:39:29Z</time></trkpt><trkpt lat="45.63137187585573" lon="9.22488438192057"><ele>206.0</ele><time>2026-04-10T15:39:30Z</time></trkpt><trkpt lat="45.631644277428144" lon="9.224898547614211"><ele>206.0</ele><time>2026-04-10T15:39:31Z</time></trkpt><trkpt lat="45.63191721843549" lon="9.224909732828925"><ele>206.0</ele><time>2026-04-10T15:39:32Z</time></trkpt><trkpt lat="45.63218953389006" lon="9.224919592699155"><ele>206.5</ele><time>2026-04-10T15:39:33Z</time></trkpt><trkpt lat="45.63246262235879" lon="9.22492595358893"><ele>207.0</ele><time>2026-04-10T15:39:34Z</time></trkpt><trkpt lat="45.63273184787948" lon="9.224930416158113"><ele>207.0</ele><time>2026-04-10T15:39:35Z</time></trkpt><trkpt lat="45.633005227722954" lon="9.2249376713167"><ele>207.0</ele><time>2026-04-10T15:39:36Z</time></trkpt><trkpt lat="45.633275964888405" lon="9.224952375971407"><ele>207.0</ele><time>2026-04-10T15:39:37Z</time></trkpt><trkpt lat="45.63354984757424" lon="9.224974196293704"><ele>207.0</ele><time>2026-04-10T15:39:38Z</time></trkpt><trkpt lat="45.63382110742007" lon="9.224994658661114"><ele>207.5</ele><time>2026-04-10T15:39:39Z</time></trkpt><trkpt lat="45.634085735241264" lon="9.225003446145497"><ele>208.0</ele><time>2026-04-10T15:39:40Z</time></trkpt><trkpt lat="45.634350611076464" lon="9.22501189153716"><ele>208.5</ele><time>2026-04-10T15:39:41Z</time></trkpt><trkpt lat="45.63462304964516" lon="9.225027982794398"><ele>209.0</ele><time>2026-04-10T15:39:42Z</time></trkpt><trkpt lat="45.63489785765292" lon="9.22505557572182"><ele>209.0</ele><time>2026-04-10T15:39:43Z</time></trkpt><trkpt lat="45.635175456728874" lon="9.225089049613507"><ele>209.0</ele><time>2026-04-10T15:39:44Z</time></trkpt><trkpt lat="45.63544907036238" lon="9.22511081420459"><ele>210.0</ele><time>2026-04-10T15:39:45Z</time></trkpt><trkpt lat="45.63572875804009" lon="9.22511626347282"><ele>211.0</ele><time>2026-04-10T15:39:46Z</time></trkpt><trkpt lat="45.63600685528319" lon="9.225122445175273"><ele>210.5</ele><time>2026-04-10T15:39:47Z</time></trkpt><trkpt lat="45.63628786747963" lon="9.225135426714232"><ele>210.0</ele><time>2026-04-10T15:39:48Z</time></trkpt><trkpt lat="45.636564689620556" lon="9.225148658474499"><ele>210.0</ele><time>2026-04-10T15:39:49Z</time></trkpt><trkpt lat="45.6368424043502" lon="9.22516217485607"><ele>210.0</ele><time>2026-04-10T15:39:50Z</time></trkpt><trkpt lat="45.637119589804605" lon="9.225175403827738"><ele>210.0</ele><time>2026-04-10T15:39:51Z</time></trkpt><trkpt lat="45.63739529022181" lon="9.225189644524987"><ele>210.0</ele><time>2026-04-10T15:39:52Z</time></trkpt><trkpt lat="45.637675565914336" lon="9.225204956739331"><ele>211.0</ele><time>2026-04-10T15:39:53Z</time></trkpt><trkpt lat="45.63794959505204" lon="9.225220244264717"><ele>212.0</ele><time>2026-04-10T15:39:54Z</time></trkpt><trkpt lat="45.63823253100301" lon="9.225229915838458"><ele>212.0</ele><time>2026-04-10T15:39:55Z</time></trkpt><trkpt lat="45.63851040154839" lon="9.22523522866774"><ele>212.0</ele><time>2026-04-10T15:39:56Z</time></trkpt><trkpt lat="45.63878463330541" lon="9.225240668975994"><ele>213.5</ele><time>2026-04-10T15:39:57Z</time></trkpt><trkpt lat="45.63906164094795" lon="9.225250488584464"><ele>215.0</ele><time>2026-04-10T15:39:58Z</time></trkpt><trkpt lat="45.63933805560894" lon="9.225263002844986"><ele>215.5</ele><time>2026-04-10T15:39:59Z</time></trkpt><trkpt lat="45.63960686031394" lon="9.22527528831949"><ele>216.0</ele><time>2026-04-10T15:40:00Z</time></trkpt><trkpt lat="45.63987734281654" lon="9.225289193861844"><ele>216.0</ele><time>2026-04-10T15:40:01Z</time></trkpt><trkpt lat="45.64014894531877" lon="9.225303516653149"><ele>216.0</ele><time>2026-04-10T15:40:02Z</time></trkpt><trkpt lat="45.640416598667976" lon="9.225319565784076"><ele>215.5</ele><time>2026-04-10T15:40:03Z</time></trkpt><trkpt lat="45.640684181736894" lon="9.225337754654529"><ele>215.0</ele><time>2026-04-10T15:40:04Z</time></trkpt><trkpt lat="45.640956980488575" lon="9.225354380168511"><ele>216.0</ele><time>2026-04-10T15:40:05Z</time></trkpt><trkpt lat="45.6412224142447" lon="9.225370093652485"><ele>217.0</ele><time>2026-04-10T15:40:06Z</time></trkpt><trkpt lat="45.641487285523645" lon="9.225384005735517"><ele>217.0</ele><time>2026-04-10T15:40:07Z</time></trkpt><trkpt lat="45.641754602018764" lon="9.22539606826542"><ele>217.0</ele><time>2026-04-10T15:40:08Z</time></trkpt><trkpt lat="45.64200514812743" lon="9.225409422577561"><ele>217.0</ele><time>2026-04-10T15:40:09Z</time></trkpt><trkpt lat="45.64224964092656" lon="9.225422093425498"><ele>217.0</ele><time>2026-04-10T15:40:10Z</time></trkpt><trkpt lat="45.64247371932303" lon="9.225432974322203"><ele>217.0</ele><time>2026-04-10T15:40:11Z</time></trkpt><trkpt lat="45.642694362115" lon="9.225443366897434"><ele>217.0</ele><time>2026-04-10T15:40:12Z</time></trkpt><trkpt lat="45.64290826346137" lon="9.22545621064254"><ele>217.0</ele><time>2026-04-10T15:40:13Z</time></trkpt><trkpt lat="45.64313844828702" lon="9.225464556117426"><ele>217.66666666666666</ele><time>2026-04-10T15:40:14Z</time></trkpt><trkpt lat="45.6433448744062" lon="9.22547580709323"><ele>218.33333333333331</ele><time>2026-04-10T15:40:15Z</time></trkpt><trkpt lat="45.643554978190416" lon="9.22548863896779"><ele>219.0</ele><time>2026-04-10T15:40:16Z</time></trkpt><trkpt lat="45.64375175353635" lon="9.225502248419769"><ele>219.0</ele><time>2026-04-10T15:40:17Z</time></trkpt><trkpt lat="45.64394255640291" lon="9.225510503657803"><ele>219.0</ele><time>2026-04-10T15:40:18Z</time></trkpt><trkpt lat="45.644166887363944" lon="9.225521973052874"><ele>219.0</ele><time>2026-04-10T15:40:19Z</time></trkpt><trkpt lat="45.64442603400375" lon="9.225527677576798"><ele>218.5</ele><time>2026-04-10T15:40:20Z</time></trkpt><trkpt lat="45.644674699393306" lon="9.225529529447096"><ele>218.0</ele><time>2026-04-10T15:40:21Z</time></trkpt><trkpt lat="45.644933236811994" lon="9.225535213289934"><ele>218.0</ele><time>2026-04-10T15:40:22Z</time></trkpt><trkpt lat="45.64518083288312" lon="9.22555272136193"><ele>218.0</ele><time>2026-04-10T15:40:23Z</time></trkpt><trkpt lat="45.64542808679021" lon="9.225571291643881"><ele>219.0</ele><time>2026-04-10T15:40:24Z</time></trkpt><trkpt lat="45.64566160422734" lon="9.22558539450368"><ele>220.0</ele><time>2026-04-10T15:40:25Z</time></trkpt><trkpt lat="45.645897298527736" lon="9.225600869291355"><ele>221.5</ele><time>2026-04-10T15:40:26Z</time></trkpt><trkpt lat="45.646140561674216" lon="9.225618490785918"><ele>223.0</ele><time>2026-04-10T15:40:27Z</time></trkpt><trkpt lat="45.64638386323567" lon="9.225633145653523"><ele>220.5</ele><time>2026-04-10T15:40:28Z</time></trkpt><trkpt lat="45.646635512042415" lon="9.225646122285884"><ele>218.0</ele><time>2026-04-10T15:40:29Z</time></trkpt><trkpt lat="45.64690667600516" lon="9.22565926511488"><ele>219.0</ele><time>2026-04-10T15:40:30Z</time></trkpt><trkpt lat="45.64718530890248" lon="9.2256731818383"><ele>220.0</ele><time>2026-04-10T15:40:31Z</time></trkpt><trkpt lat="45.647471556118" lon="9.225684167191268"><ele>220.0</ele><time>2026-04-10T15:40:32Z</time></trkpt><trkpt lat="45.64775099789786" lon="9.225696998052157"><ele>220.0</ele><time>2026-04-10T15:40:33Z</time></trkpt><trkpt lat="45.64802009952689" lon="9.225714166012878"><ele>219.5</ele><time>2026-04-10T15:40:34Z</time></trkpt><trkpt lat="45.64829809977808" lon="9.225744019892296"><ele>219.0</ele><time>2026-04-10T15:40:35Z</time></trkpt><trkpt lat="45.64858041737846" lon="9.225771827458727"><ele>220.0</ele><time>2026-04-10T15:40:36Z</time></trkpt><trkpt lat="45.64886685399975" lon="9.225786050062014"><ele>221.0</ele><time>2026-04-10T15:40:37Z</time></trkpt><trkpt lat="45.64915104217807" lon="9.225793048097081"><ele>221.0</ele><time>2026-04-10T15:40:38Z</time></trkpt><trkpt lat="45.649428027588314" lon="9.225799846613544"><ele>221.0</ele><time>2026-04-10T15:40:39Z</time></trkpt><trkpt lat="45.649692048889996" lon="9.225808680224915"><ele>221.0</ele><time>2026-04-10T15:40:40Z</time></trkpt><trkpt lat="45.64996388651203" lon="9.225812252641198"><ele>221.0</ele><time>2026-04-10T15:40:41Z</time></trkpt><trkpt lat="45.65024176781911" lon="9.225824458495467"><ele>222.5</ele><time>2026-04-10T15:40:42Z</time></trkpt><trkpt lat="45.65051988034076" lon="9.225844189325999"><ele>224.0</ele><time>2026-04-10T15:40:43Z</time></trkpt><trkpt lat="45.65081248790903" lon="9.225860970952224"><ele>224.5</ele><time>2026-04-10T15:40:44Z</time></trkpt><trkpt lat="45.65112560497745" lon="9.225877477216944"><ele>225.0</ele><time>2026-04-10T15:40:45Z</time></trkpt><trkpt lat="45.65142135483415" lon="9.225892671454853"><ele>225.0</ele><time>2026-04-10T15:40:46Z</time></trkpt><trkpt lat="45.651717002247416" lon="9.225906179157805"><ele>225.0</ele><time>2026-04-10T15:40:47Z</time></trkpt><trkpt lat="45.652014518105894" lon="9.225925079875672"><ele>224.0</ele><time>2026-04-10T15:40:48Z</time></trkpt><trkpt lat="45.65231507119279" lon="9.225950201077763"><ele>223.0</ele><time>2026-04-10T15:40:49Z</time></trkpt><trkpt lat="45.65260574318059" lon="9.225975591010176"><ele>224.0</ele><time>2026-04-10T15:40:50Z</time></trkpt><trkpt lat="45.65290277383031" lon="9.225990010737611"><ele>225.0</ele><time>2026-04-10T15:40:51Z</time></trkpt><trkpt lat="45.653195882192605" lon="9.226000922868241"><ele>225.0</ele><time>2026-04-10T15:40:52Z</time></trkpt><trkpt lat="45.653489585844525" lon="9.226008244925143"><ele>225.0</ele><time>2026-04-10T15:40:53Z</time></trkpt><trkpt lat="45.65377585637918" lon="9.2260152897379"><ele>225.5</ele><time>2026-04-10T15:40:54Z</time></trkpt><trkpt lat="45.65406196420454" lon="9.22601750246799"><ele>226.0</ele><time>2026-04-10T15:40:55Z</time></trkpt><trkpt lat="45.65435397056172" lon="9.226023150066492"><ele>225.5</ele><time>2026-04-10T15:40:56Z</time></trkpt><trkpt lat="45.654639956526225" lon="9.226041865358049"><ele>225.0</ele><time>2026-04-10T15:40:57Z</time></trkpt><trkpt lat="45.654926480838554" lon="9.226056140547872"><ele>225.0</ele><time>2026-04-10T15:40:58Z</time></trkpt><trkpt lat="45.655210349203685" lon="9.226069059962796"><ele>225.0</ele><time>2026-04-10T15:40:59Z</time></trkpt><trkpt lat="45.655494047609245" lon="9.226075191070668"><ele>227.0</ele><time>2026-04-10T15:41:00Z</time></trkpt><trkpt lat="45.655776048335646" lon="9.226073580439127"><ele>229.0</ele><time>2026-04-10T15:41:01Z</time></trkpt><trkpt lat="45.65606562057449" lon="9.226049757713726"><ele>229.0</ele><time>2026-04-10T15:41:02Z</time></trkpt><trkpt lat="45.65634813375004" lon="9.226001330655865"><ele>229.0</ele><time>2026-04-10T15:41:03Z</time></trkpt><trkpt lat="45.65663048644361" lon="9.225931493021754"><ele>229.0</ele><time>2026-04-10T15:41:04Z</time></trkpt><trkpt lat="45.65690827420847" lon="9.225846485972113"><ele>229.0</ele><time>2026-04-10T15:41:05Z</time></trkpt><trkpt lat="45.657184966635384" lon="9.2257451610094"><ele>229.0</ele><time>2026-04-10T15:41:06Z</time></trkpt><trkpt lat="45.657457900558526" lon="9.225642582033284"><ele>229.0</ele><time>2026-04-10T15:41:07Z</time></trkpt><trkpt lat="45.65773147465384" lon="9.225542074514905"><ele>230.0</ele><time>2026-04-10T15:41:08Z</time></trkpt><trkpt lat="45.657995603704705" lon="9.225447532308493"><ele>231.0</ele><time>2026-04-10T15:41:09Z</time></trkpt><trkpt lat="45.65826955883805" lon="9.225347563929752"><ele>231.0</ele><time>2026-04-10T15:41:10Z</time></trkpt><trkpt lat="45.65853456161381" lon="9.225250009191377"><ele>231.0</ele><time>2026-04-10T15:41:11Z</time></trkpt><trkpt lat="45.658803646038535" lon="9.225153172730483"><ele>231.0</ele><time>2026-04-10T15:41:12Z</time></trkpt><trkpt lat="45.65907842832781" lon="9.225050715451495"><ele>231.0</ele><time>2026-04-10T15:41:13Z</time></trkpt><trkpt lat="45.659346886789514" lon="9.224947232474156"><ele>230.5</ele><time>2026-04-10T15:41:14Z</time></trkpt><trkpt lat="45.659613310580454" lon="9.224845327796082"><ele>230.0</ele><time>2026-04-10T15:41:15Z</time></trkpt><trkpt lat="45.65988154009742" lon="9.224749725164493"><ele>230.0</ele><time>2026-04-10T15:41:16Z</time></trkpt><trkpt lat="45.66014897838842" lon="9.224659472277622"><ele>230.0</ele><time>2026-04-10T15:41:17Z</time></trkpt><trkpt lat="45.660416621374814" lon="9.224566512596983"><ele>230.0</ele><time>2026-04-10T15:41:18Z</time></trkpt><trkpt lat="45.66068438673402" lon="9.224470339089944"><ele>230.0</ele><time>2026-04-10T15:41:19Z</time></trkpt><trkpt lat="45.66095039433787" lon="9.224372433868753"><ele>231.5</ele><time>2026-04-10T15:41:20Z</time></trkpt><trkpt lat="45.66121896017674" lon="9.224273497821041"><ele>233.0</ele><time>2026-04-10T15:41:21Z</time></trkpt><trkpt lat="45.661490416446966" lon="9.224174371295843"><ele>233.0</ele><time>2026-04-10T15:41:22Z</time></trkpt><trkpt lat="45.66176363879549" lon="9.224078555306479"><ele>233.0</ele><time>2026-04-10T15:41:23Z</time></trkpt><trkpt lat="45.6620370627562" lon="9.223985301439791"><ele>233.0</ele><time>2026-04-10T15:41:24Z</time></trkpt><trkpt lat="45.66231053679865" lon="9.223895110051435"><ele>233.0</ele><time>2026-04-10T15:41:25Z</time></trkpt><trkpt lat="45.66258533052274" lon="9.223806611995583"><ele>233.0</ele><time>2026-04-10T15:41:26Z</time></trkpt><trkpt lat="45.66286556658006" lon="9.223712446506905"><ele>233.0</ele><time>2026-04-10T15:41:27Z</time></trkpt><trkpt lat="45.663136704099266" lon="9.223618223856782"><ele>233.0</ele><time>2026-04-10T15:41:28Z</time></trkpt><trkpt lat="45.663410415837944" lon="9.223519248322312"><ele>233.0</ele><time>2026-04-10T15:41:29Z</time></trkpt><trkpt lat="45.663681598962356" lon="9.223423168145263"><ele>233.5</ele><time>2026-04-10T15:41:30Z</time></trkpt><trkpt lat="45.66395033247351" lon="9.223326735382438"><ele>234.0</ele><time>2026-04-10T15:41:31Z</time></trkpt><trkpt lat="45.66422249208039" lon="9.223228123293108"><ele>235.0</ele><time>2026-04-10T15:41:32Z</time></trkpt><trkpt lat="45.6644915793286" lon="9.223134553780445"><ele>236.0</ele><time>2026-04-10T15:41:33Z</time></trkpt><trkpt lat="45.66476449139074" lon="9.223037053966776"><ele>236.0</ele><time>2026-04-10T15:41:34Z</time></trkpt><trkpt lat="45.6650320832142" lon="9.222941661779934"><ele>236.0</ele><time>2026-04-10T15:41:35Z</time></trkpt><trkpt lat="45.66531054872795" lon="9.22283153198859"><ele>236.0</ele><time>2026-04-10T15:41:36Z</time></trkpt><trkpt lat="45.66557676061606" lon="9.222740646540956"><ele>236.0</ele><time>2026-04-10T15:41:37Z</time></trkpt><trkpt lat="45.66584767646462" lon="9.222633023994456"><ele>237.0</ele><time>2026-04-10T15:41:38Z</time></trkpt><trkpt lat="45.666113328688944" lon="9.222538476874147"><ele>238.0</ele><time>2026-04-10T15:41:39Z</time></trkpt><trkpt lat="45.666381075679375" lon="9.222437245209763"><ele>238.0</ele><time>2026-04-10T15:41:40Z</time></trkpt><trkpt lat="45.66664057819011" lon="9.222344894551576"><ele>238.0</ele><time>2026-04-10T15:41:41Z</time></trkpt><trkpt lat="45.66690835972464" lon="9.222243357854866"><ele>236.5</ele><time>2026-04-10T15:41:42Z</time></trkpt><trkpt lat="45.66718034144591" lon="9.222149292159159"><ele>235.0</ele><time>2026-04-10T15:41:43Z</time></trkpt><trkpt lat="45.66744498566862" lon="9.222060372262595"><ele>235.0</ele><time>2026-04-10T15:41:44Z</time></trkpt><trkpt lat="45.66771197104925" lon="9.221967603631812"><ele>235.0</ele><time>2026-04-10T15:41:45Z</time></trkpt><trkpt lat="45.6679846456246" lon="9.221864091266209"><ele>236.0</ele><time>2026-04-10T15:41:46Z</time></trkpt><trkpt lat="45.668250728062624" lon="9.2217701848696"><ele>237.0</ele><time>2026-04-10T15:41:47Z</time></trkpt><trkpt lat="45.66851790887206" lon="9.221673532182002"><ele>236.5</ele><time>2026-04-10T15:41:48Z</time></trkpt><trkpt lat="45.66878474770412" lon="9.221579579852332"><ele>236.0</ele><time>2026-04-10T15:41:49Z</time></trkpt><trkpt lat="45.66905572554998" lon="9.22147976530494"><ele>235.0</ele><time>2026-04-10T15:41:50Z</time></trkpt><trkpt lat="45.66932647690921" lon="9.221381618261242"><ele>234.0</ele><time>2026-04-10T15:41:51Z</time></trkpt><trkpt lat="45.669596924988404" lon="9.221283448235967"><ele>236.5</ele><time>2026-04-10T15:41:52Z</time></trkpt><trkpt lat="45.66987076955994" lon="9.221178990435805"><ele>239.0</ele><time>2026-04-10T15:41:53Z</time></trkpt><trkpt lat="45.67014602643811" lon="9.221090808722652"><ele>238.5</ele><time>2026-04-10T15:41:54Z</time></trkpt><trkpt lat="45.67041928704303" lon="9.22100964444454"><ele>238.0</ele><time>2026-04-10T15:41:55Z</time></trkpt><trkpt lat="45.670693764296196" lon="9.220925021926211"><ele>238.0</ele><time>2026-04-10T15:41:56Z</time></trkpt><trkpt lat="45.670968764480385" lon="9.220827586612447"><ele>238.0</ele><time>2026-04-10T15:41:57Z</time></trkpt><trkpt lat="45.671238876144905" lon="9.220731041919459"><ele>239.0</ele><time>2026-04-10T15:41:58Z</time></trkpt><trkpt lat="45.671510411849795" lon="9.220632919810418"><ele>240.0</ele><time>2026-04-10T15:41:59Z</time></trkpt><trkpt lat="45.671778015649345" lon="9.220536890713605"><ele>241.0</ele><time>2026-04-10T15:42:00Z</time></trkpt><trkpt lat="45.672051867271506" lon="9.22043553449728"><ele>242.0</ele><time>2026-04-10T15:42:01Z</time></trkpt><trkpt lat="45.672317787962626" lon="9.220347170031092"><ele>242.0</ele><time>2026-04-10T15:42:02Z</time></trkpt><trkpt lat="45.67258521430562" lon="9.22025264259794"><ele>242.0</ele><time>2026-04-10T15:42:03Z</time></trkpt><trkpt lat="45.67285332431153" lon="9.220153473657602"><ele>243.0</ele><time>2026-04-10T15:42:04Z</time></trkpt><trkpt lat="45.67311765940285" lon="9.220056314927788"><ele>244.0</ele><time>2026-04-10T15:42:05Z</time></trkpt><trkpt lat="45.67337938021124" lon="9.219963944341492"><ele>244.5</ele><time>2026-04-10T15:42:06Z</time></trkpt><trkpt lat="45.673642012943695" lon="9.21986902964443"><ele>245.0</ele><time>2026-04-10T15:42:07Z</time></trkpt><trkpt lat="45.673904143362385" lon="9.219770347566438"><ele>245.0</ele><time>2026-04-10T15:42:08Z</time></trkpt><trkpt lat="45.67416845644909" lon="9.219664628599887"><ele>245.0</ele><time>2026-04-10T15:42:09Z</time></trkpt><trkpt lat="45.67443099444217" lon="9.219560744692165"><ele>245.5</ele><time>2026-04-10T15:42:10Z</time></trkpt><trkpt lat="45.67469133146306" lon="9.219473098716547"><ele>246.0</ele><time>2026-04-10T15:42:11Z</time></trkpt><trkpt lat="45.67495616748372" lon="9.219379420698791"><ele>246.0</ele><time>2026-04-10T15:42:12Z</time></trkpt><trkpt lat="45.6752208018667" lon="9.21928871561299"><ele>246.0</ele><time>2026-04-10T15:42:13Z</time></trkpt><trkpt lat="45.6754822004549" lon="9.219202979548601"><ele>245.5</ele><time>2026-04-10T15:42:14Z</time></trkpt><trkpt lat="45.67574651742099" lon="9.219114363496189"><ele>245.0</ele><time>2026-04-10T15:42:15Z</time></trkpt><trkpt lat="45.67600958904877" lon="9.219025737468518"><ele>245.5</ele><time>2026-04-10T15:42:16Z</time></trkpt><trkpt lat="45.676270349955466" lon="9.218938594967256"><ele>246.0</ele><time>2026-04-10T15:42:17Z</time></trkpt><trkpt lat="45.676534990237826" lon="9.218843059448826"><ele>246.0</ele><time>2026-04-10T15:42:18Z</time></trkpt><trkpt lat="45.67679526041816" lon="9.218747113072482"><ele>246.0</ele><time>2026-04-10T15:42:19Z</time></trkpt><trkpt lat="45.67705908680543" lon="9.21864751576147"><ele>248.5</ele><time>2026-04-10T15:42:20Z</time></trkpt><trkpt lat="45.677316937985815" lon="9.218555174899006"><ele>251.0</ele><time>2026-04-10T15:42:21Z</time></trkpt><trkpt lat="45.67757968165416" lon="9.218461419326585"><ele>250.0</ele><time>2026-04-10T15:42:22Z</time></trkpt><trkpt lat="45.67783772074733" lon="9.21837527913427"><ele>249.0</ele><time>2026-04-10T15:42:23Z</time></trkpt><trkpt lat="45.6780975283333" lon="9.218290790531942"><ele>249.0</ele><time>2026-04-10T15:42:24Z</time></trkpt><trkpt lat="45.678359277575986" lon="9.218205874020661"><ele>249.0</ele><time>2026-04-10T15:42:25Z</time></trkpt><trkpt lat="45.67861862477432" lon="9.218117079340242"><ele>249.5</ele><time>2026-04-10T15:42:26Z</time></trkpt><trkpt lat="45.678873988676976" lon="9.21802872964522"><ele>250.0</ele><time>2026-04-10T15:42:27Z</time></trkpt><trkpt lat="45.679132480729805" lon="9.21793749100886"><ele>250.0</ele><time>2026-04-10T15:42:28Z</time></trkpt><trkpt lat="45.67938625305249" lon="9.217846238189383"><ele>250.0</ele><time>2026-04-10T15:42:29Z</time></trkpt><trkpt lat="45.679648551282064" lon="9.217745174984442"><ele>250.0</ele><time>2026-04-10T15:42:30Z</time></trkpt><trkpt lat="45.67990558614959" lon="9.217651868071869"><ele>250.0</ele><time>2026-04-10T15:42:31Z</time></trkpt><trkpt lat="45.68016554492881" lon="9.217557292110495"><ele>251.0</ele><time>2026-04-10T15:42:32Z</time></trkpt><trkpt lat="45.68042532039889" lon="9.217463372360973"><ele>252.0</ele><time>2026-04-10T15:42:33Z</time></trkpt><trkpt lat="45.68068567371452" lon="9.217367334092916"><ele>251.5</ele><time>2026-04-10T15:42:34Z</time></trkpt><trkpt lat="45.68094861643868" lon="9.217272950827587"><ele>251.0</ele><time>2026-04-10T15:42:35Z</time></trkpt><trkpt lat="45.68121404760512" lon="9.217178906180258"><ele>251.0</ele><time>2026-04-10T15:42:36Z</time></trkpt><trkpt lat="45.681473334157005" lon="9.217087651172069"><ele>251.0</ele><time>2026-04-10T15:42:37Z</time></trkpt><trkpt lat="45.68173847337793" lon="9.216991807671736"><ele>251.0</ele><time>2026-04-10T15:42:38Z</time></trkpt><trkpt lat="45.68199801007887" lon="9.216897233158948"><ele>251.0</ele><time>2026-04-10T15:42:39Z</time></trkpt><trkpt lat="45.68225873056114" lon="9.216803340467765"><ele>251.0</ele><time>2026-04-10T15:42:40Z</time></trkpt><trkpt lat="45.682521685063065" lon="9.216710337260189"><ele>251.0</ele><time>2026-04-10T15:42:41Z</time></trkpt><trkpt lat="45.682784993803104" lon="9.216616442908009"><ele>252.0</ele><time>2026-04-10T15:42:42Z</time></trkpt><trkpt lat="45.683049520995645" lon="9.21652412024428"><ele>253.0</ele><time>2026-04-10T15:42:43Z</time></trkpt><trkpt lat="45.683312775352924" lon="9.216426996280486"><ele>253.0</ele><time>2026-04-10T15:42:44Z</time></trkpt><trkpt lat="45.68357088880135" lon="9.216334402226892"><ele>253.0</ele><time>2026-04-10T15:42:45Z</time></trkpt><trkpt lat="45.68383657112936" lon="9.216245873929768"><ele>253.0</ele><time>2026-04-10T15:42:46Z</time></trkpt><trkpt lat="45.68408649663247" lon="9.21616306381306"><ele>253.0</ele><time>2026-04-10T15:42:47Z</time></trkpt><trkpt lat="45.68431868012568" lon="9.21609884679093"><ele>254.0</ele><time>2026-04-10T15:42:48Z</time></trkpt><trkpt lat="45.68455100435255" lon="9.216059655342988"><ele>255.0</ele><time>2026-04-10T15:42:49Z</time></trkpt><trkpt lat="45.68478600074685" lon="9.216051180332098"><ele>255.0</ele><time>2026-04-10T15:42:50Z</time></trkpt><trkpt lat="45.68502938534249" lon="9.216064128209842"><ele>255.0</ele><time>2026-04-10T15:42:51Z</time></trkpt><trkpt lat="45.685281073030964" lon="9.216096712178208"><ele>256.0</ele><time>2026-04-10T15:42:52.001Z</time></trkpt><trkpt lat="45.6855223616397" lon="9.216159433049294"><ele>257.0</ele><time>2026-04-10T15:42:53Z</time></trkpt><trkpt lat="45.68576463373091" lon="9.216259529719233"><ele>257.0</ele><time>2026-04-10T15:42:54Z</time></trkpt><trkpt lat="45.68600992912071" lon="9.216387798233072"><ele>257.0</ele><time>2026-04-10T15:42:55Z</time></trkpt><trkpt lat="45.686251065010076" lon="9.216549084322539"><ele>259.0</ele><time>2026-04-10T15:42:56Z</time></trkpt><trkpt lat="45.68648527224548" lon="9.216736463682496"><ele>261.0</ele><time>2026-04-10T15:42:57Z</time></trkpt><trkpt lat="45.68671088157527" lon="9.216944652627355"><ele>260.0</ele><time>2026-04-10T15:42:58Z</time></trkpt><trkpt lat="45.6869317799138" lon="9.217176769692868"><ele>259.0</ele><time>2026-04-10T15:42:59Z</time></trkpt><trkpt lat="45.68714412782644" lon="9.2174178208969"><ele>258.0</ele><time>2026-04-10T15:43:00Z</time></trkpt><trkpt lat="45.68735713459532" lon="9.217657789749495"><ele>257.0</ele><time>2026-04-10T15:43:01Z</time></trkpt><trkpt lat="45.68756961586215" lon="9.217888130206381"><ele>258.5</ele><time>2026-04-10T15:43:02Z</time></trkpt><trkpt lat="45.6877796514954" lon="9.218110671727452"><ele>260.0</ele><time>2026-04-10T15:43:03Z</time></trkpt><trkpt lat="45.68798718181309" lon="9.218327570407002"><ele>261.0</ele><time>2026-04-10T15:43:04Z</time></trkpt><trkpt lat="45.68819752474925" lon="9.218555346160752"><ele>262.0</ele><time>2026-04-10T15:43:05Z</time></trkpt><trkpt lat="45.68841340709907" lon="9.218784513472306"><ele>261.0</ele><time>2026-04-10T15:43:06Z</time></trkpt><trkpt lat="45.688629601646646" lon="9.21901411865837"><ele>260.0</ele><time>2026-04-10T15:43:07Z</time></trkpt><trkpt lat="45.68884636754495" lon="9.219244246364315"><ele>260.0</ele><time>2026-04-10T15:43:08Z</time></trkpt><trkpt lat="45.689066215621715" lon="9.21947972304681"><ele>260.0</ele><time>2026-04-10T15:43:09Z</time></trkpt><trkpt lat="45.68928580118515" lon="9.219714023612628"><ele>261.0</ele><time>2026-04-10T15:43:10Z</time></trkpt><trkpt lat="45.68950138493016" lon="9.219943514833675"><ele>262.0</ele><time>2026-04-10T15:43:11Z</time></trkpt><trkpt lat="45.68972991034809" lon="9.220178118040668"><ele>262.0</ele><time>2026-04-10T15:43:12Z</time></trkpt><trkpt lat="45.68995455192941" lon="9.220413023191872"><ele>262.0</ele><time>2026-04-10T15:43:13Z</time></trkpt><trkpt lat="45.6901762315725" lon="9.220649006615973"><ele>263.0</ele><time>2026-04-10T15:43:14Z</time></trkpt><trkpt lat="45.69040409365751" lon="9.22088396110868"><ele>264.0</ele><time>2026-04-10T15:43:15Z</time></trkpt><trkpt lat="45.69062310515377" lon="9.221115234946101"><ele>264.0</ele><time>2026-04-10T15:43:16Z</time></trkpt><trkpt lat="45.69084136587668" lon="9.221350443626557"><ele>264.0</ele><time>2026-04-10T15:43:17Z</time></trkpt><trkpt lat="45.69105605718572" lon="9.22159097610811"><ele>265.0</ele><time>2026-04-10T15:43:18Z</time></trkpt><trkpt lat="45.69127189744965" lon="9.221829279002856"><ele>266.0</ele><time>2026-04-10T15:43:19Z</time></trkpt><trkpt lat="45.69148856449372" lon="9.222065117943593"><ele>266.0</ele><time>2026-04-10T15:43:20Z</time></trkpt><trkpt lat="45.6917025575996" lon="9.222295331565778"><ele>266.0</ele><time>2026-04-10T15:43:21Z</time></trkpt><trkpt lat="45.691925391824626" lon="9.22252544694879"><ele>267.0</ele><time>2026-04-10T15:43:22Z</time></trkpt><trkpt lat="45.69214744932934" lon="9.222755686484529"><ele>268.0</ele><time>2026-04-10T15:43:23Z</time></trkpt><trkpt lat="45.69237020485956" lon="9.222987781045946"><ele>271.0</ele><time>2026-04-10T15:43:24Z</time></trkpt><trkpt lat="45.69258853758755" lon="9.223219852883382"><ele>274.0</ele><time>2026-04-10T15:43:25Z</time></trkpt><trkpt lat="45.69280597763941" lon="9.223454466918383"><ele>274.5</ele><time>2026-04-10T15:43:26Z</time></trkpt><trkpt lat="45.69302750617233" lon="9.223690474634964"><ele>275.0</ele><time>2026-04-10T15:43:27Z</time></trkpt><trkpt lat="45.69325280133289" lon="9.22392255305056"><ele>276.5</ele><time>2026-04-10T15:43:28Z</time></trkpt><trkpt lat="45.69348665736645" lon="9.22414998439861"><ele>278.0</ele><time>2026-04-10T15:43:29Z</time></trkpt><trkpt lat="45.693724933429856" lon="9.224370653794956"><ele>278.5</ele><time>2026-04-10T15:43:30Z</time></trkpt><trkpt lat="45.69396513406785" lon="9.224587539803036"><ele>279.0</ele><time>2026-04-10T15:43:31Z</time></trkpt><trkpt lat="45.694197272989136" lon="9.224807664935929"><ele>279.5</ele><time>2026-04-10T15:43:32Z</time></trkpt><trkpt lat="45.6944340764019" lon="9.225030352505252"><ele>280.0</ele><time>2026-04-10T15:43:33Z</time></trkpt><trkpt lat="45.69468431691993" lon="9.225260615584224"><ele>280.0</ele><time>2026-04-10T15:43:34Z</time></trkpt><trkpt lat="45.6949480659254" lon="9.225506121539574"><ele>280.0</ele><time>2026-04-10T15:43:35Z</time></trkpt><trkpt lat="45.69521486061796" lon="9.225746765408049"><ele>283.5</ele><time>2026-04-10T15:43:36Z</time></trkpt><trkpt lat="45.69546015597094" lon="9.225961661002078"><ele>287.0</ele><time>2026-04-10T15:43:37Z</time></trkpt><trkpt lat="45.69569597023113" lon="9.226168870578313"><ele>287.0</ele><time>2026-04-10T15:43:38Z</time></trkpt><trkpt lat="45.69591694535938" lon="9.226372155458586"><ele>287.0</ele><time>2026-04-10T15:43:39Z</time></trkpt><trkpt lat="45.69614154022181" lon="9.226583538316822"><ele>289.0</ele><time>2026-04-10T15:43:40Z</time></trkpt><trkpt lat="45.69636028001484" lon="9.22678665051089"><ele>291.0</ele><time>2026-04-10T15:43:41Z</time></trkpt><trkpt lat="45.696571642053534" lon="9.226981271329054"><ele>291.0</ele><time>2026-04-10T15:43:42Z</time></trkpt><trkpt lat="45.6967793899001" lon="9.227174313440443"><ele>291.0</ele><time>2026-04-10T15:43:43Z</time></trkpt><trkpt lat="45.69700077174231" lon="9.227385528894512"><ele>292.5</ele><time>2026-04-10T15:43:44Z</time></trkpt><trkpt lat="45.69723261070329" lon="9.227611081128114"><ele>294.0</ele><time>2026-04-10T15:43:45Z</time></trkpt><trkpt lat="45.69746068914083" lon="9.22782517880955"><ele>294.0</ele><time>2026-04-10T15:43:46Z</time></trkpt><trkpt lat="45.69769762119434" lon="9.228037943632469"><ele>294.0</ele><time>2026-04-10T15:43:47Z</time></trkpt><trkpt lat="45.69791419046517" lon="9.228230461285078"><ele>293.0</ele><time>2026-04-10T15:43:48Z</time></trkpt><trkpt lat="45.698120312629364" lon="9.228412094948778"><ele>292.0</ele><time>2026-04-10T15:43:49Z</time></trkpt><trkpt lat="45.698347617995275" lon="9.228602481496452"><ele>292.0</ele><time>2026-04-10T15:43:50Z</time></trkpt><trkpt lat="45.69857528372926" lon="9.228826358013322"><ele>292.0</ele><time>2026-04-10T15:43:51Z</time></trkpt><trkpt lat="45.698796486347334" lon="9.229040944690437"><ele>290.5</ele><time>2026-04-10T15:43:52Z</time></trkpt><trkpt lat="45.69900724406756" lon="9.229250940995223"><ele>289.0</ele><time>2026-04-10T15:43:53Z</time></trkpt><trkpt lat="45.699226489919475" lon="9.229446996423817"><ele>288.5</ele><time>2026-04-10T15:43:54Z</time></trkpt><trkpt lat="45.699458468650214" lon="9.229645822339872"><ele>288.0</ele><time>2026-04-10T15:43:55Z</time></trkpt><trkpt lat="45.699702616000266" lon="9.229855518639168"><ele>288.0</ele><time>2026-04-10T15:43:56Z</time></trkpt><trkpt lat="45.699935060785926" lon="9.230067630889751"><ele>288.0</ele><time>2026-04-10T15:43:57Z</time></trkpt><trkpt lat="45.7001569803846" lon="9.230274898569387"><ele>288.0</ele><time>2026-04-10T15:43:58Z</time></trkpt><trkpt lat="45.70037157237117" lon="9.230475689764909"><ele>288.0</ele><time>2026-04-10T15:43:59Z</time></trkpt><trkpt lat="45.700598101122544" lon="9.230688995538914"><ele>288.0</ele><time>2026-04-10T15:44:00Z</time></trkpt><trkpt lat="45.70082024240896" lon="9.230904098748077"><ele>288.0</ele><time>2026-04-10T15:44:01Z</time></trkpt><trkpt lat="45.70104429294849" lon="9.231114906608068"><ele>286.0</ele><time>2026-04-10T15:44:02Z</time></trkpt><trkpt lat="45.70126525143053" lon="9.231305519636098"><ele>284.0</ele><time>2026-04-10T15:44:03Z</time></trkpt><trkpt lat="45.701491309381574" lon="9.23146364474607"><ele>283.5</ele><time>2026-04-10T15:44:04Z</time></trkpt><trkpt lat="45.70172946254415" lon="9.23158660971537"><ele>283.0</ele><time>2026-04-10T15:44:05Z</time></trkpt><trkpt lat="45.701986938486264" lon="9.231681859172003"><ele>283.0</ele><time>2026-04-10T15:44:06Z</time></trkpt><trkpt lat="45.702232016067356" lon="9.231743740174547"><ele>283.0</ele><time>2026-04-10T15:44:07Z</time></trkpt><trkpt lat="45.70248664313096" lon="9.231767619577695"><ele>283.0</ele><time>2026-04-10T15:44:08Z</time></trkpt><trkpt lat="45.70273364009464" lon="9.23176289795262"><ele>283.0</ele><time>2026-04-10T15:44:09Z</time></trkpt><trkpt lat="45.70297809957959" lon="9.231725714925435"><ele>285.5</ele><time>2026-04-10T15:44:10Z</time></trkpt><trkpt lat="45.70320551861232" lon="9.231656688811809"><ele>288.0</ele><time>2026-04-10T15:44:11Z</time></trkpt><trkpt lat="45.703422483472096" lon="9.231558976814691"><ele>290.0</ele><time>2026-04-10T15:44:12Z</time></trkpt><trkpt lat="45.70364081565443" lon="9.231429240871991"><ele>292.0</ele><time>2026-04-10T15:44:13Z</time></trkpt><trkpt lat="45.70387198791129" lon="9.231272103190042"><ele>292.0</ele><time>2026-04-10T15:44:14Z</time></trkpt><trkpt lat="45.70409533001105" lon="9.231086406696038"><ele>292.0</ele><time>2026-04-10T15:44:15Z</time></trkpt><trkpt lat="45.70431907917898" lon="9.23086703684732"><ele>293.5</ele><time>2026-04-10T15:44:16Z</time></trkpt><trkpt lat="45.704527928242506" lon="9.230623398400391"><ele>295.0</ele><time>2026-04-10T15:44:17Z</time></trkpt><trkpt lat="45.70473709383541" lon="9.230349566692343"><ele>295.0</ele><time>2026-04-10T15:44:18Z</time></trkpt><trkpt lat="45.70494767640928" lon="9.230075490045339"><ele>295.0</ele><time>2026-04-10T15:44:19Z</time></trkpt><trkpt lat="45.70516406523685" lon="9.229804573796034"><ele>295.5</ele><time>2026-04-10T15:44:20Z</time></trkpt><trkpt lat="45.705372318089495" lon="9.229549943548315"><ele>296.0</ele><time>2026-04-10T15:44:21Z</time></trkpt><trkpt lat="45.70558314773882" lon="9.22931105092398"><ele>296.0</ele><time>2026-04-10T15:44:22Z</time></trkpt><trkpt lat="45.70580387500253" lon="9.229077068939107"><ele>296.0</ele><time>2026-04-10T15:44:23Z</time></trkpt><trkpt lat="45.70603598500716" lon="9.22887459536191"><ele>298.5</ele><time>2026-04-10T15:44:24Z</time></trkpt><trkpt lat="45.70628411178954" lon="9.228699695600676"><ele>301.0</ele><time>2026-04-10T15:44:25Z</time></trkpt><trkpt lat="45.70654416707473" lon="9.228547295436304"><ele>301.0</ele><time>2026-04-10T15:44:26Z</time></trkpt><trkpt lat="45.70681821489823" lon="9.228421894181933"><ele>301.0</ele><time>2026-04-10T15:44:27Z</time></trkpt><trkpt lat="45.70709236317895" lon="9.228318980521948"><ele>301.5</ele><time>2026-04-10T15:44:28Z</time></trkpt><trkpt lat="45.70737313162038" lon="9.228235186373777"><ele>302.0</ele><time>2026-04-10T15:44:29Z</time></trkpt><trkpt lat="45.707661776477984" lon="9.228173507548812"><ele>300.5</ele><time>2026-04-10T15:44:30Z</time></trkpt><trkpt lat="45.70794724185852" lon="9.228130500753014"><ele>299.0</ele><time>2026-04-10T15:44:31Z</time></trkpt><trkpt lat="45.70824156538056" lon="9.228097014431816"><ele>299.0</ele><time>2026-04-10T15:44:32Z</time></trkpt><trkpt lat="45.708529268779294" lon="9.228063328630942"><ele>299.0</ele><time>2026-04-10T15:44:33Z</time></trkpt><trkpt lat="45.70882538485359" lon="9.228028602718764"><ele>297.0</ele><time>2026-04-10T15:44:34Z</time></trkpt><trkpt lat="45.70912167091069" lon="9.227993805480182"><ele>295.0</ele><time>2026-04-10T15:44:35Z</time></trkpt><trkpt lat="45.709410704955225" lon="9.227955799251333"><ele>294.0</ele><time>2026-04-10T15:44:36Z</time></trkpt><trkpt lat="45.709709506873395" lon="9.22792107510364"><ele>293.0</ele><time>2026-04-10T15:44:37Z</time></trkpt><trkpt lat="45.7099900924905" lon="9.227876311528771"><ele>291.0</ele><time>2026-04-10T15:44:38Z</time></trkpt><trkpt lat="45.710292754748494" lon="9.227843685651173"><ele>289.0</ele><time>2026-04-10T15:44:39Z</time></trkpt><trkpt lat="45.710589023709424" lon="9.227804760607977"><ele>289.0</ele><time>2026-04-10T15:44:40Z</time></trkpt><trkpt lat="45.71088989486592" lon="9.227769022650097"><ele>289.0</ele><time>2026-04-10T15:44:41Z</time></trkpt><trkpt lat="45.7111834182944" lon="9.227733833207186"><ele>288.0</ele><time>2026-04-10T15:44:42Z</time></trkpt><trkpt lat="45.71147880959875" lon="9.22769849948718"><ele>287.0</ele><time>2026-04-10T15:44:43Z</time></trkpt><trkpt lat="45.71174764580555" lon="9.227662270225599"><ele>285.0</ele><time>2026-04-10T15:44:44Z</time></trkpt><trkpt lat="45.71201264713902" lon="9.227626383099924"><ele>283.0</ele><time>2026-04-10T15:44:45Z</time></trkpt><trkpt lat="45.71226544759631" lon="9.227589338246128"><ele>283.0</ele><time>2026-04-10T15:44:46Z</time></trkpt><trkpt lat="45.71252291649715" lon="9.227553283309895"><ele>283.0</ele><time>2026-04-10T15:44:47Z</time></trkpt><trkpt lat="45.71278529217732" lon="9.227518405533008"><ele>281.5</ele><time>2026-04-10T15:44:48Z</time></trkpt><trkpt lat="45.71303123611228" lon="9.227488322360644"><ele>280.0</ele><time>2026-04-10T15:44:49Z</time></trkpt><trkpt lat="45.71327039892943" lon="9.227459470102533"><ele>280.0</ele><time>2026-04-10T15:44:50Z</time></trkpt><trkpt lat="45.713496395405926" lon="9.227431655163354"><ele>280.0</ele><time>2026-04-10T15:44:51Z</time></trkpt><trkpt lat="45.71371976424394" lon="9.227400415654705"><ele>276.5</ele><time>2026-04-10T15:44:52Z</time></trkpt><trkpt lat="45.71395424166241" lon="9.227374898848952"><ele>273.0</ele><time>2026-04-10T15:44:53Z</time></trkpt><trkpt lat="45.71418517531102" lon="9.22737778724076"><ele>270.0</ele><time>2026-04-10T15:44:54Z</time></trkpt><trkpt lat="45.714430785407984" lon="9.227418144268375"><ele>267.0</ele><time>2026-04-10T15:44:55Z</time></trkpt><trkpt lat="45.71466995890653" lon="9.227512530472758"><ele>267.0</ele><time>2026-04-10T15:44:56Z</time></trkpt><trkpt lat="45.714908382960516" lon="9.227636400557854"><ele>267.0</ele><time>2026-04-10T15:44:57Z</time></trkpt><trkpt lat="45.71512971535316" lon="9.227788885243204"><ele>265.0</ele><time>2026-04-10T15:44:58Z</time></trkpt><trkpt lat="45.71532825323833" lon="9.2279598077385"><ele>263.0</ele><time>2026-04-10T15:44:59Z</time></trkpt><trkpt lat="45.71551058554285" lon="9.228156828803154"><ele>261.6666666666667</ele><time>2026-04-10T15:45:00Z</time></trkpt><trkpt lat="45.71567072507488" lon="9.228363173777215"><ele>260.3333333333333</ele><time>2026-04-10T15:45:01Z</time></trkpt><trkpt lat="45.71582632592368" lon="9.228600457032645"><ele>259.0</ele><time>2026-04-10T15:45:02Z</time></trkpt><trkpt lat="45.71597469394967" lon="9.22885697575689"><ele>257.5</ele><time>2026-04-10T15:45:03Z</time></trkpt><trkpt lat="45.71611790163053" lon="9.229135814022067"><ele>256.0</ele><time>2026-04-10T15:45:04Z</time></trkpt><trkpt lat="45.7162573807275" lon="9.229400845895645"><ele>256.0</ele><time>2026-04-10T15:45:05Z</time></trkpt><trkpt lat="45.71640418433836" lon="9.229671932175622"><ele>256.0</ele><time>2026-04-10T15:45:06Z</time></trkpt><trkpt lat="45.716538639758326" lon="9.229927199041914"><ele>256.5</ele><time>2026-04-10T15:45:07Z</time></trkpt><trkpt lat="45.71669879242788" lon="9.230205466477363"><ele>257.0</ele><time>2026-04-10T15:45:08Z</time></trkpt><trkpt lat="45.71684053733007" lon="9.23046987256202"><ele>255.0</ele><time>2026-04-10T15:45:09Z</time></trkpt><trkpt lat="45.71698543283588" lon="9.23074666160541"><ele>253.0</ele><time>2026-04-10T15:45:10Z</time></trkpt><trkpt lat="45.717128799208055" lon="9.231022478271525"><ele>253.0</ele><time>2026-04-10T15:45:11Z</time></trkpt><trkpt lat="45.71726763747913" lon="9.231292324570353"><ele>253.0</ele><time>2026-04-10T15:45:12Z</time></trkpt><trkpt lat="45.71740669659743" lon="9.231550220656713"><ele>250.0</ele><time>2026-04-10T15:45:13Z</time></trkpt><trkpt lat="45.7175480513007" lon="9.231817100327879"><ele>247.0</ele><time>2026-04-10T15:45:14Z</time></trkpt><trkpt lat="45.71769671282381" lon="9.232097366466357"><ele>246.0</ele><time>2026-04-10T15:45:15Z</time></trkpt><trkpt lat="45.717851612908106" lon="9.232389311136075"><ele>245.0</ele><time>2026-04-10T15:45:16Z</time></trkpt><trkpt lat="45.718001992547826" lon="9.232677437782852"><ele>245.0</ele><time>2026-04-10T15:45:17Z</time></trkpt><trkpt lat="45.71815038369877" lon="9.232961363254041"><ele>245.0</ele><time>2026-04-10T15:45:18Z</time></trkpt><trkpt lat="45.718300502119924" lon="9.233237824681957"><ele>242.5</ele><time>2026-04-10T15:45:19Z</time></trkpt><trkpt lat="45.718452267158256" lon="9.233518683930866"><ele>240.0</ele><time>2026-04-10T15:45:20Z</time></trkpt><trkpt lat="45.718594974782846" lon="9.233785160699277"><ele>243.0</ele><time>2026-04-10T15:45:21Z</time></trkpt><trkpt lat="45.718739821726544" lon="9.234056333248324"><ele>246.0</ele><time>2026-04-10T15:45:22Z</time></trkpt><trkpt lat="45.71887968505852" lon="9.234319264456477"><ele>246.0</ele><time>2026-04-10T15:45:23Z</time></trkpt><trkpt lat="45.71902954310721" lon="9.23459904402495"><ele>246.0</ele><time>2026-04-10T15:45:24Z</time></trkpt><trkpt lat="45.719183684315276" lon="9.234892321742574"><ele>250.0</ele><time>2026-04-10T15:45:25Z</time></trkpt><trkpt lat="45.719340497880104" lon="9.235196022071559"><ele>254.0</ele><time>2026-04-10T15:45:26Z</time></trkpt><trkpt lat="45.719502469999846" lon="9.235497463618652"><ele>254.5</ele><time>2026-04-10T15:45:27Z</time></trkpt><trkpt lat="45.71966426876156" lon="9.23579280821012"><ele>255.0</ele><time>2026-04-10T15:45:28Z</time></trkpt><trkpt lat="45.719823707645716" lon="9.236091664640295"><ele>255.0</ele><time>2026-04-10T15:45:29Z</time></trkpt><trkpt lat="45.71997737177563" lon="9.236381648718728"><ele>255.0</ele><time>2026-04-10T15:45:30Z</time></trkpt><trkpt lat="45.72013699419264" lon="9.236678113532262"><ele>253.0</ele><time>2026-04-10T15:45:31Z</time></trkpt><trkpt lat="45.72030114302162" lon="9.236982061865278"><ele>251.0</ele><time>2026-04-10T15:45:32Z</time></trkpt><trkpt lat="45.72046593689519" lon="9.237285055060148"><ele>250.0</ele><time>2026-04-10T15:45:33Z</time></trkpt><trkpt lat="45.720627756029025" lon="9.237581266109697"><ele>249.0</ele><time>2026-04-10T15:45:34Z</time></trkpt><trkpt lat="45.720785094793136" lon="9.237869981314079"><ele>245.5</ele><time>2026-04-10T15:45:35Z</time></trkpt><trkpt lat="45.7209397533289" lon="9.238159429893132"><ele>242.0</ele><time>2026-04-10T15:45:36Z</time></trkpt><trkpt lat="45.72109493592506" lon="9.238451072753007"><ele>242.0</ele><time>2026-04-10T15:45:37Z</time></trkpt><trkpt lat="45.721248560759584" lon="9.23874243023409"><ele>242.0</ele><time>2026-04-10T15:45:38Z</time></trkpt><trkpt lat="45.721399926251856" lon="9.239029974749059"><ele>242.0</ele><time>2026-04-10T15:45:39Z</time></trkpt><trkpt lat="45.721552346820694" lon="9.239326460314167"><ele>242.0</ele><time>2026-04-10T15:45:40Z</time></trkpt><trkpt lat="45.72171799492627" lon="9.239657434730015"><ele>243.0</ele><time>2026-04-10T15:45:41Z</time></trkpt><trkpt lat="45.72189642224638" lon="9.239992503693482"><ele>244.0</ele><time>2026-04-10T15:45:42Z</time></trkpt><trkpt lat="45.72207582875612" lon="9.240299008407412"><ele>244.0</ele><time>2026-04-10T15:45:43Z</time></trkpt><trkpt lat="45.72224111990733" lon="9.240586911234148"><ele>244.0</ele><time>2026-04-10T15:45:44Z</time></trkpt><trkpt lat="45.72238917733492" lon="9.240867723885257"><ele>249.5</ele><time>2026-04-10T15:45:45Z</time></trkpt><trkpt lat="45.72253456333141" lon="9.241142672124509"><ele>255.0</ele><time>2026-04-10T15:45:46Z</time></trkpt><trkpt lat="45.72267245124189" lon="9.241395277013394"><ele>256.0</ele><time>2026-04-10T15:45:47Z</time></trkpt><trkpt lat="45.72281676630257" lon="9.241658514249282"><ele>257.0</ele><time>2026-04-10T15:45:48Z</time></trkpt><trkpt lat="45.72296282424768" lon="9.241929839689139"><ele>257.0</ele><time>2026-04-10T15:45:49Z</time></trkpt><trkpt lat="45.72309313652698" lon="9.24217077657203"><ele>257.0</ele><time>2026-04-10T15:45:50Z</time></trkpt><trkpt lat="45.72321963157801" lon="9.242401846665645"><ele>257.0</ele><time>2026-04-10T15:45:51Z</time></trkpt><trkpt lat="45.7233518552411" lon="9.242632165526171"><ele>257.6666666666667</ele><time>2026-04-10T15:45:52Z</time></trkpt><trkpt lat="45.723496295951" lon="9.242866566561043"><ele>258.3333333333333</ele><time>2026-04-10T15:45:53Z</time></trkpt><trkpt lat="45.72364829964198" lon="9.243086996444587"><ele>259.0</ele><time>2026-04-10T15:45:54Z</time></trkpt><trkpt lat="45.723802632076975" lon="9.243288354656023"><ele>261.0</ele><time>2026-04-10T15:45:55Z</time></trkpt><trkpt lat="45.723961704728" lon="9.243477325398489"><ele>263.0</ele><time>2026-04-10T15:45:56Z</time></trkpt><trkpt lat="45.72413030425382" lon="9.243666319773144"><ele>265.0</ele><time>2026-04-10T15:45:57Z</time></trkpt><trkpt lat="45.72431925132523" lon="9.243871017740386"><ele>268.0</ele><time>2026-04-10T15:45:58Z</time></trkpt><trkpt lat="45.7245372224734" lon="9.244100983112007"><ele>271.0</ele><time>2026-04-10T15:45:59Z</time></trkpt><trkpt lat="45.724778103668164" lon="9.244337351128594"><ele>271.0</ele><time>2026-04-10T15:46:00Z</time></trkpt><trkpt lat="45.724992497641075" lon="9.244558493173642"><ele>271.0</ele><time>2026-04-10T15:46:01Z</time></trkpt><trkpt lat="45.72520904676535" lon="9.244778417857063"><ele>270.5</ele><time>2026-04-10T15:46:02Z</time></trkpt><trkpt lat="45.72543813329404" lon="9.244987975522063"><ele>270.0</ele><time>2026-04-10T15:46:03Z</time></trkpt><trkpt lat="45.72565278162183" lon="9.245183958116085"><ele>270.0</ele><time>2026-04-10T15:46:04Z</time></trkpt><trkpt lat="45.72586280860018" lon="9.245391299338122"><ele>270.0</ele><time>2026-04-10T15:46:05Z</time></trkpt><trkpt lat="45.7260688568484" lon="9.24560478147857"><ele>267.0</ele><time>2026-04-10T15:46:06Z</time></trkpt><trkpt lat="45.72628319199838" lon="9.245823901284206"><ele>264.0</ele><time>2026-04-10T15:46:07Z</time></trkpt><trkpt lat="45.72649608401736" lon="9.246035587308638"><ele>264.0</ele><time>2026-04-10T15:46:08Z</time></trkpt><trkpt lat="45.72671485358237" lon="9.246248247969227"><ele>264.0</ele><time>2026-04-10T15:46:09Z</time></trkpt><trkpt lat="45.726935651050326" lon="9.24646514382082"><ele>262.5</ele><time>2026-04-10T15:46:10Z</time></trkpt><trkpt lat="45.72715940406097" lon="9.246687341028634"><ele>261.0</ele><time>2026-04-10T15:46:11Z</time></trkpt><trkpt lat="45.72736920316572" lon="9.246898530873747"><ele>261.0</ele><time>2026-04-10T15:46:12Z</time></trkpt><trkpt lat="45.727584469936225" lon="9.247116893476601"><ele>261.0</ele><time>2026-04-10T15:46:13Z</time></trkpt><trkpt lat="45.72779211410775" lon="9.247329614182176"><ele>258.5</ele><time>2026-04-10T15:46:14Z</time></trkpt><trkpt lat="45.728007329957336" lon="9.247537899265033"><ele>256.0</ele><time>2026-04-10T15:46:15Z</time></trkpt><trkpt lat="45.72821898261943" lon="9.247746202093603"><ele>256.0</ele><time>2026-04-10T15:46:16Z</time></trkpt><trkpt lat="45.728442336484115" lon="9.247968609176658"><ele>256.0</ele><time>2026-04-10T15:46:17Z</time></trkpt><trkpt lat="45.72865773924616" lon="9.248179980779309"><ele>255.5</ele><time>2026-04-10T15:46:18Z</time></trkpt><trkpt lat="45.728885183215624" lon="9.248376563869206"><ele>255.0</ele><time>2026-04-10T15:46:19Z</time></trkpt><trkpt lat="45.729127472107855" lon="9.248533565098311"><ele>254.0</ele><time>2026-04-10T15:46:20Z</time></trkpt><trkpt lat="45.729393835593626" lon="9.248653048888745"><ele>253.0</ele><time>2026-04-10T15:46:21Z</time></trkpt><trkpt lat="45.72966798026494" lon="9.24874406211795"><ele>253.0</ele><time>2026-04-10T15:46:22Z</time></trkpt><trkpt lat="45.729959269488646" lon="9.248816486597823"><ele>253.0</ele><time>2026-04-10T15:46:23Z</time></trkpt><trkpt lat="45.730250173896586" lon="9.248875906632495"><ele>250.0</ele><time>2026-04-10T15:46:24Z</time></trkpt><trkpt lat="45.730541304748286" lon="9.248915442700811"><ele>247.0</ele><time>2026-04-10T15:46:25Z</time></trkpt><trkpt lat="45.7308293001795" lon="9.248953527765591"><ele>245.0</ele><time>2026-04-10T15:46:26Z</time></trkpt><trkpt lat="45.731121861854966" lon="9.248996945855042"><ele>243.0</ele><time>2026-04-10T15:46:27Z</time></trkpt><trkpt lat="45.73141289840785" lon="9.249039431581352"><ele>243.0</ele><time>2026-04-10T15:46:28Z</time></trkpt><trkpt lat="45.73170139159188" lon="9.249079532161973"><ele>243.0</ele><time>2026-04-10T15:46:29Z</time></trkpt><trkpt lat="45.73198477496221" lon="9.249116658801942"><ele>243.0</ele><time>2026-04-10T15:46:30Z</time></trkpt><trkpt lat="45.732265890880605" lon="9.24915346318311"><ele>243.0</ele><time>2026-04-10T15:46:31Z</time></trkpt><trkpt lat="45.73255002710159" lon="9.24919475004046"><ele>243.0</ele><time>2026-04-10T15:46:32Z</time></trkpt><trkpt lat="45.732829074626245" lon="9.249237113195019"><ele>243.0</ele><time>2026-04-10T15:46:33Z</time></trkpt><trkpt lat="45.73310921315901" lon="9.249280741237705"><ele>243.0</ele><time>2026-04-10T15:46:34Z</time></trkpt><trkpt lat="45.73337677486073" lon="9.249320729509561"><ele>243.0</ele><time>2026-04-10T15:46:35Z</time></trkpt><trkpt lat="45.73365424354159" lon="9.249362680995036"><ele>243.0</ele><time>2026-04-10T15:46:36Z</time></trkpt><trkpt lat="45.733927381438264" lon="9.249395669184755"><ele>243.0</ele><time>2026-04-10T15:46:37Z</time></trkpt><trkpt lat="45.734199929753764" lon="9.249438406109391"><ele>242.5</ele><time>2026-04-10T15:46:38Z</time></trkpt><trkpt lat="45.73447657335092" lon="9.249489022067312"><ele>242.0</ele><time>2026-04-10T15:46:39Z</time></trkpt><trkpt lat="45.73474400532402" lon="9.249538170426046"><ele>242.0</ele><time>2026-04-10T15:46:40Z</time></trkpt><trkpt lat="45.73501891220849" lon="9.249585908181606"><ele>242.0</ele><time>2026-04-10T15:46:41Z</time></trkpt><trkpt lat="45.73528166557738" lon="9.249630169655564"><ele>241.5</ele><time>2026-04-10T15:46:42Z</time></trkpt><trkpt lat="45.73554993920313" lon="9.249670820472328"><ele>241.0</ele><time>2026-04-10T15:46:43Z</time></trkpt><trkpt lat="45.73580918286968" lon="9.249715578503489"><ele>241.5</ele><time>2026-04-10T15:46:44Z</time></trkpt><trkpt lat="45.736072333984374" lon="9.249779756244669"><ele>242.0</ele><time>2026-04-10T15:46:45Z</time></trkpt><trkpt lat="45.73632770297158" lon="9.249875214352103"><ele>242.5</ele><time>2026-04-10T15:46:46Z</time></trkpt><trkpt lat="45.736572248120034" lon="9.250003708673242"><ele>243.0</ele><time>2026-04-10T15:46:47Z</time></trkpt><trkpt lat="45.73681563428441" lon="9.250157882821945"><ele>243.0</ele><time>2026-04-10T15:46:48Z</time></trkpt><trkpt lat="45.737042373265375" lon="9.250330503794588"><ele>243.0</ele><time>2026-04-10T15:46:49Z</time></trkpt><trkpt lat="45.73725587684362" lon="9.250520311354824"><ele>244.0</ele><time>2026-04-10T15:46:50Z</time></trkpt><trkpt lat="45.73746718412415" lon="9.250729721919416"><ele>245.0</ele><time>2026-04-10T15:46:51Z</time></trkpt><trkpt lat="45.73766965029992" lon="9.250953624901872"><ele>246.0</ele><time>2026-04-10T15:46:52Z</time></trkpt><trkpt lat="45.737878087311195" lon="9.25118641981597"><ele>247.0</ele><time>2026-04-10T15:46:53Z</time></trkpt><trkpt lat="45.73809538391764" lon="9.251424501344848"><ele>248.0</ele><time>2026-04-10T15:46:54Z</time></trkpt><trkpt lat="45.73831316504383" lon="9.251664619701673"><ele>249.0</ele><time>2026-04-10T15:46:55Z</time></trkpt><trkpt lat="45.73852845940989" lon="9.25191689326359"><ele>250.0</ele><time>2026-04-10T15:46:56Z</time></trkpt><trkpt lat="45.73873936236072" lon="9.252174087904118"><ele>251.0</ele><time>2026-04-10T15:46:57Z</time></trkpt><trkpt lat="45.73895759930702" lon="9.252431521735508"><ele>251.5</ele><time>2026-04-10T15:46:58Z</time></trkpt><trkpt lat="45.7391791797713" lon="9.252672955894493"><ele>252.0</ele><time>2026-04-10T15:46:59Z</time></trkpt><trkpt lat="45.739397628293155" lon="9.252916221730828"><ele>254.5</ele><time>2026-04-10T15:47:00Z</time></trkpt><trkpt lat="45.73961872780995" lon="9.253160638926582"><ele>257.0</ele><time>2026-04-10T15:47:01Z</time></trkpt><trkpt lat="45.739839913960594" lon="9.253402057198537"><ele>257.0</ele><time>2026-04-10T15:47:02Z</time></trkpt><trkpt lat="45.74006279237782" lon="9.253638133237706"><ele>257.0</ele><time>2026-04-10T15:47:03Z</time></trkpt><trkpt lat="45.74029112471361" lon="9.253883298094049"><ele>257.0</ele><time>2026-04-10T15:47:04Z</time></trkpt><trkpt lat="45.74051559715291" lon="9.254124085312807"><ele>257.0</ele><time>2026-04-10T15:47:05Z</time></trkpt><trkpt lat="45.74074199731154" lon="9.254373163152191"><ele>257.0</ele><time>2026-04-10T15:47:06Z</time></trkpt><trkpt lat="45.74096585875886" lon="9.254626499321573"><ele>257.0</ele><time>2026-04-10T15:47:07Z</time></trkpt><trkpt lat="45.74118739587617" lon="9.254878056774446"><ele>256.0</ele><time>2026-04-10T15:47:08Z</time></trkpt><trkpt lat="45.741402709291194" lon="9.255120198262686"><ele>255.0</ele><time>2026-04-10T15:47:09Z</time></trkpt><trkpt lat="45.74159767733843" lon="9.25534256507061"><ele>255.0</ele><time>2026-04-10T15:47:10Z</time></trkpt><trkpt lat="45.741792820688" lon="9.255556230851173"><ele>255.0</ele><time>2026-04-10T15:47:11Z</time></trkpt><trkpt lat="45.7419742120332" lon="9.255756315278093"><ele>254.66666666666669</ele><time>2026-04-10T15:47:12Z</time></trkpt><trkpt lat="45.742143141646025" lon="9.255946343829953"><ele>254.33333333333334</ele><time>2026-04-10T15:47:13Z</time></trkpt><trkpt lat="45.742314040489596" lon="9.256134746503667"><ele>254.0</ele><time>2026-04-10T15:47:14Z</time></trkpt><trkpt lat="45.742473802179035" lon="9.256314846665088"><ele>254.33333333333334</ele><time>2026-04-10T15:47:15Z</time></trkpt><trkpt lat="45.742627410404324" lon="9.256486619680471"><ele>254.66666666666669</ele><time>2026-04-10T15:47:16Z</time></trkpt><trkpt lat="45.74279366113466" lon="9.256669953259093"><ele>255.0</ele><time>2026-04-10T15:47:17Z</time></trkpt><trkpt lat="45.742976136614246" lon="9.256868289486189"><ele>255.5</ele><time>2026-04-10T15:47:18Z</time></trkpt><trkpt lat="45.743167893543486" lon="9.2570958356396"><ele>256.0</ele><time>2026-04-10T15:47:19Z</time></trkpt><trkpt lat="45.743366272052775" lon="9.257329619446494"><ele>256.5</ele><time>2026-04-10T15:47:20Z</time></trkpt><trkpt lat="45.74357280973449" lon="9.257542978983686"><ele>257.0</ele><time>2026-04-10T15:47:21Z</time></trkpt><trkpt lat="45.743762443026725" lon="9.25773733303244"><ele>257.0</ele><time>2026-04-10T15:47:22Z</time></trkpt><trkpt lat="45.74392804164686" lon="9.2579224319844"><ele>257.0</ele><time>2026-04-10T15:47:23Z</time></trkpt><trkpt lat="45.74408096849729" lon="9.258095781401385"><ele>257.0</ele><time>2026-04-10T15:47:24Z</time></trkpt><trkpt lat="45.744236214605515" lon="9.258269250558095"><ele>257.33333333333337</ele><time>2026-04-10T15:47:25Z</time></trkpt><trkpt lat="45.74440045044397" lon="9.258449553788745"><ele>257.6666666666667</ele><time>2026-04-10T15:47:26Z</time></trkpt><trkpt lat="45.74457892379256" lon="9.258643000279443"><ele>258.0</ele><time>2026-04-10T15:47:27Z</time></trkpt><trkpt lat="45.744767743965966" lon="9.258857218994548"><ele>258.0</ele><time>2026-04-10T15:47:28Z</time></trkpt><trkpt lat="45.74494447411409" lon="9.259070091382279"><ele>258.0</ele><time>2026-04-10T15:47:29Z</time></trkpt><trkpt lat="45.74512375711885" lon="9.25927056241597"><ele>257.0</ele><time>2026-04-10T15:47:30Z</time></trkpt><trkpt lat="45.745303926106075" lon="9.259472330488402"><ele>256.0</ele><time>2026-04-10T15:47:31Z</time></trkpt><trkpt lat="45.74549410162883" lon="9.259678388860705"><ele>256.0</ele><time>2026-04-10T15:47:32Z</time></trkpt><trkpt lat="45.745688712869985" lon="9.259888155046426"><ele>256.0</ele><time>2026-04-10T15:47:33Z</time></trkpt><trkpt lat="45.74588256644934" lon="9.260101888000422"><ele>256.0</ele><time>2026-04-10T15:47:34Z</time></trkpt><trkpt lat="45.74605696378157" lon="9.260297554341305"><ele>256.0</ele><time>2026-04-10T15:47:35Z</time></trkpt><trkpt lat="45.74622578299924" lon="9.260487989429764"><ele>256.0</ele><time>2026-04-10T15:47:36Z</time></trkpt><trkpt lat="45.74639907170387" lon="9.260679135477929"><ele>256.66666666666663</ele><time>2026-04-10T15:47:37Z</time></trkpt><trkpt lat="45.74656612530624" lon="9.260865315919832"><ele>257.3333333333333</ele><time>2026-04-10T15:47:38Z</time></trkpt><trkpt lat="45.746742212392775" lon="9.26107389133838"><ele>258.0</ele><time>2026-04-10T15:47:39Z</time></trkpt><trkpt lat="45.74693316725603" lon="9.261296660174546"><ele>260.0</ele><time>2026-04-10T15:47:40Z</time></trkpt><trkpt lat="45.74714760570739" lon="9.261511436479326"><ele>262.0</ele><time>2026-04-10T15:47:41Z</time></trkpt><trkpt lat="45.74736928646468" lon="9.261737212391408"><ele>262.0</ele><time>2026-04-10T15:47:42Z</time></trkpt><trkpt lat="45.74756888998917" lon="9.26196234000377"><ele>262.0</ele><time>2026-04-10T15:47:43Z</time></trkpt><trkpt lat="45.74776268308279" lon="9.26218712519279"><ele>261.5</ele><time>2026-04-10T15:47:44Z</time></trkpt><trkpt lat="45.74796336316216" lon="9.262419532706213"><ele>261.0</ele><time>2026-04-10T15:47:45Z</time></trkpt><trkpt lat="45.7481531213056" lon="9.262642953982335"><ele>261.0</ele><time>2026-04-10T15:47:46Z</time></trkpt><trkpt lat="45.74833975852277" lon="9.262858877474372"><ele>261.0</ele><time>2026-04-10T15:47:47Z</time></trkpt><trkpt lat="45.74853140033246" lon="9.263076576150322"><ele>261.0</ele><time>2026-04-10T15:47:48Z</time></trkpt><trkpt lat="45.748727206000176" lon="9.263300258036658"><ele>261.0</ele><time>2026-04-10T15:47:49Z</time></trkpt><trkpt lat="45.74892942766177" lon="9.263526559503866"><ele>261.0</ele><time>2026-04-10T15:47:50Z</time></trkpt><trkpt lat="45.74914096805819" lon="9.263760029476812"><ele>261.0</ele><time>2026-04-10T15:47:51Z</time></trkpt><trkpt lat="45.74934972910167" lon="9.263991224280478"><ele>262.5</ele><time>2026-04-10T15:47:52Z</time></trkpt><trkpt lat="45.749558336818424" lon="9.264226926463339"><ele>264.0</ele><time>2026-04-10T15:47:53Z</time></trkpt><trkpt lat="45.749764486857515" lon="9.26445673914507"><ele>264.0</ele><time>2026-04-10T15:47:54Z</time></trkpt><trkpt lat="45.74997379350748" lon="9.26468903647355"><ele>264.0</ele><time>2026-04-10T15:47:55Z</time></trkpt><trkpt lat="45.75017651004676" lon="9.264915392629856"><ele>272.5</ele><time>2026-04-10T15:47:56Z</time></trkpt><trkpt lat="45.750392440627" lon="9.265150033303856"><ele>281.0</ele><time>2026-04-10T15:47:57Z</time></trkpt><trkpt lat="45.75060458833069" lon="9.265377489534647"><ele>281.0</ele><time>2026-04-10T15:47:58Z</time></trkpt><trkpt lat="45.750816363545226" lon="9.265604553550313"><ele>281.0</ele><time>2026-04-10T15:47:59Z</time></trkpt><trkpt lat="45.751024617495936" lon="9.265834325977169"><ele>283.0</ele><time>2026-04-10T15:48:00Z</time></trkpt><trkpt lat="45.75123980668185" lon="9.266070682134606"><ele>285.0</ele><time>2026-04-10T15:48:01Z</time></trkpt><trkpt lat="45.75145179344255" lon="9.266310462655163"><ele>280.0</ele><time>2026-04-10T15:48:02Z</time></trkpt><trkpt lat="45.75165114016388" lon="9.266560952179377"><ele>275.0</ele><time>2026-04-10T15:48:03Z</time></trkpt><trkpt lat="45.75184529245545" lon="9.266825826493402"><ele>275.0</ele><time>2026-04-10T15:48:04Z</time></trkpt><trkpt lat="45.75203447964909" lon="9.267100479026215"><ele>275.0</ele><time>2026-04-10T15:48:05Z</time></trkpt><trkpt lat="45.75221643856945" lon="9.267372401310038"><ele>275.0</ele><time>2026-04-10T15:48:06Z</time></trkpt><trkpt lat="45.75239551617497" lon="9.26764251598479"><ele>275.0</ele><time>2026-04-10T15:48:07Z</time></trkpt><trkpt lat="45.75257420935829" lon="9.267909567411294"><ele>275.5</ele><time>2026-04-10T15:48:08Z</time></trkpt><trkpt lat="45.752755067452085" lon="9.268179021550509"><ele>276.0</ele><time>2026-04-10T15:48:09Z</time></trkpt><trkpt lat="45.75293696242648" lon="9.268450913267971"><ele>276.0</ele><time>2026-04-10T15:48:10Z</time></trkpt><trkpt lat="45.753117225256084" lon="9.268720979382069"><ele>276.0</ele><time>2026-04-10T15:48:11Z</time></trkpt><trkpt lat="45.75329224865276" lon="9.268989721808287"><ele>276.5</ele><time>2026-04-10T15:48:12Z</time></trkpt><trkpt lat="45.753468520764" lon="9.269261476973004"><ele>277.0</ele><time>2026-04-10T15:48:13Z</time></trkpt><trkpt lat="45.75364254746148" lon="9.269527017538488"><ele>276.5</ele><time>2026-04-10T15:48:14Z</time></trkpt><trkpt lat="45.753818331324446" lon="9.269790923925125"><ele>276.0</ele><time>2026-04-10T15:48:15Z</time></trkpt><trkpt lat="45.75400077654939" lon="9.270063893452589"><ele>276.0</ele><time>2026-04-10T15:48:16Z</time></trkpt><trkpt lat="45.75418123878324" lon="9.270334994686378"><ele>276.0</ele><time>2026-04-10T15:48:17Z</time></trkpt><trkpt lat="45.75436482047459" lon="9.270613318624184"><ele>275.5</ele><time>2026-04-10T15:48:18Z</time></trkpt><trkpt lat="45.75454085688431" lon="9.270878160124239"><ele>275.0</ele><time>2026-04-10T15:48:19Z</time></trkpt><trkpt lat="45.75472734104471" lon="9.271155282518317"><ele>275.0</ele><time>2026-04-10T15:48:20Z</time></trkpt><trkpt lat="45.75491131850526" lon="9.271432712092741"><ele>275.0</ele><time>2026-04-10T15:48:21Z</time></trkpt><trkpt lat="45.755092848504745" lon="9.271707665075386"><ele>276.0</ele><time>2026-04-10T15:48:22Z</time></trkpt><trkpt lat="45.7552749829832" lon="9.271989157052166"><ele>277.0</ele><time>2026-04-10T15:48:23Z</time></trkpt><trkpt lat="45.75545871674428" lon="9.272273376262065"><ele>277.0</ele><time>2026-04-10T15:48:24Z</time></trkpt><trkpt lat="45.7556401330138" lon="9.272568952222496"><ele>277.0</ele><time>2026-04-10T15:48:25Z</time></trkpt><trkpt lat="45.755815622175355" lon="9.272859755547197"><ele>277.0</ele><time>2026-04-10T15:48:26Z</time></trkpt><trkpt lat="45.755995240471876" lon="9.273144431688287"><ele>277.0</ele><time>2026-04-10T15:48:27Z</time></trkpt><trkpt lat="45.75618041671724" lon="9.273418758164468"><ele>278.0</ele><time>2026-04-10T15:48:28Z</time></trkpt><trkpt lat="45.75636406028104" lon="9.273688610722406"><ele>279.0</ele><time>2026-04-10T15:48:29Z</time></trkpt><trkpt lat="45.75654878727465" lon="9.273953214355188"><ele>279.5</ele><time>2026-04-10T15:48:30Z</time></trkpt><trkpt lat="45.75673212628822" lon="9.2742220335087"><ele>280.0</ele><time>2026-04-10T15:48:31Z</time></trkpt><trkpt lat="45.75691513418053" lon="9.27449438887599"><ele>280.0</ele><time>2026-04-10T15:48:32Z</time></trkpt><trkpt lat="45.757095134054325" lon="9.274753535128022"><ele>280.0</ele><time>2026-04-10T15:48:33Z</time></trkpt><trkpt lat="45.75727739742737" lon="9.275019011679227"><ele>281.0</ele><time>2026-04-10T15:48:34Z</time></trkpt><trkpt lat="45.7574638011784" lon="9.27527571937115"><ele>282.0</ele><time>2026-04-10T15:48:35Z</time></trkpt><trkpt lat="45.75765220859522" lon="9.27553114019808"><ele>284.0</ele><time>2026-04-10T15:48:36Z</time></trkpt><trkpt lat="45.75783673020203" lon="9.27580612038921"><ele>286.0</ele><time>2026-04-10T15:48:37Z</time></trkpt><trkpt lat="45.75801561975124" lon="9.276075801302584"><ele>286.0</ele><time>2026-04-10T15:48:38Z</time></trkpt><trkpt lat="45.758190357515836" lon="9.276350279510915"><ele>286.0</ele><time>2026-04-10T15:48:39Z</time></trkpt><trkpt lat="45.75835805579094" lon="9.276630964899445"><ele>286.5</ele><time>2026-04-10T15:48:40Z</time></trkpt><trkpt lat="45.75851838495908" lon="9.27692034722014"><ele>287.0</ele><time>2026-04-10T15:48:41Z</time></trkpt><trkpt lat="45.758667111653075" lon="9.277216236354732"><ele>288.5</ele><time>2026-04-10T15:48:42Z</time></trkpt><trkpt lat="45.75880779210056" lon="9.277519135818249"><ele>290.0</ele><time>2026-04-10T15:48:43Z</time></trkpt><trkpt lat="45.758942999162045" lon="9.277824845704783"><ele>291.0</ele><time>2026-04-10T15:48:44Z</time></trkpt><trkpt lat="45.75907851174351" lon="9.27811384382076"><ele>292.0</ele><time>2026-04-10T15:48:45Z</time></trkpt><trkpt lat="45.75921153720728" lon="9.278427525518568"><ele>292.0</ele><time>2026-04-10T15:48:46Z</time></trkpt><trkpt lat="45.75934623249648" lon="9.278740522339472"><ele>292.0</ele><time>2026-04-10T15:48:47Z</time></trkpt><trkpt lat="45.75948211717284" lon="9.279055721143196"><ele>292.5</ele><time>2026-04-10T15:48:48Z</time></trkpt><trkpt lat="45.75961646532944" lon="9.279379450653726"><ele>293.0</ele><time>2026-04-10T15:48:49Z</time></trkpt><trkpt lat="45.759752811281956" lon="9.279701262868926"><ele>294.0</ele><time>2026-04-10T15:48:50Z</time></trkpt><trkpt lat="45.75988975806978" lon="9.280030290498344"><ele>295.0</ele><time>2026-04-10T15:48:51Z</time></trkpt><trkpt lat="45.76002964785102" lon="9.28036921090138"><ele>295.0</ele><time>2026-04-10T15:48:52Z</time></trkpt><trkpt lat="45.76016798556861" lon="9.280699460458193"><ele>295.0</ele><time>2026-04-10T15:48:53Z</time></trkpt><trkpt lat="45.76030766806439" lon="9.281045326384337"><ele>295.5</ele><time>2026-04-10T15:48:54Z</time></trkpt><trkpt lat="45.76044912057189" lon="9.281369297062334"><ele>296.0</ele><time>2026-04-10T15:48:55Z</time></trkpt><trkpt lat="45.760586557829086" lon="9.281723987863995"><ele>299.0</ele><time>2026-04-10T15:48:56Z</time></trkpt><trkpt lat="45.76072907524518" lon="9.282056380411426"><ele>302.0</ele><time>2026-04-10T15:48:57Z</time></trkpt><trkpt lat="45.76087127808452" lon="9.282395393881188"><ele>301.5</ele><time>2026-04-10T15:48:58Z</time></trkpt><trkpt lat="45.761015600293405" lon="9.282735422511372"><ele>301.0</ele><time>2026-04-10T15:48:59Z</time></trkpt><trkpt lat="45.76115685686233" lon="9.283076194378141"><ele>299.5</ele><time>2026-04-10T15:49:00Z</time></trkpt><trkpt lat="45.76130500482095" lon="9.283405380541009"><ele>298.0</ele><time>2026-04-10T15:49:01Z</time></trkpt><trkpt lat="45.76145297583318" lon="9.283730973259795"><ele>301.5</ele><time>2026-04-10T15:49:02Z</time></trkpt><trkpt lat="45.761600886647805" lon="9.284050333459902"><ele>305.0</ele><time>2026-04-10T15:49:03Z</time></trkpt><trkpt lat="45.761714251804264" lon="9.28439443428869"><ele>305.0</ele><time>2026-04-10T15:49:04Z</time></trkpt><trkpt lat="45.76185604733301" lon="9.284715331556814"><ele>305.0</ele><time>2026-04-10T15:49:05Z</time></trkpt><trkpt lat="45.76197845653886" lon="9.285021990359278"><ele>301.5</ele><time>2026-04-10T15:49:06Z</time></trkpt><trkpt lat="45.76211351299119" lon="9.28534773574304"><ele>298.0</ele><time>2026-04-10T15:49:07Z</time></trkpt><trkpt lat="45.7622450168941" lon="9.285669908098392"><ele>298.0</ele><time>2026-04-10T15:49:08Z</time></trkpt><trkpt lat="45.762391079417625" lon="9.285985058205561"><ele>298.0</ele><time>2026-04-10T15:49:09Z</time></trkpt><trkpt lat="45.762540721237855" lon="9.286273796042485"><ele>296.5</ele><time>2026-04-10T15:49:10Z</time></trkpt><trkpt lat="45.76269349561757" lon="9.286534797945258"><ele>295.0</ele><time>2026-04-10T15:49:11Z</time></trkpt><trkpt lat="45.76286731147296" lon="9.286779043105527"><ele>295.0</ele><time>2026-04-10T15:49:12Z</time></trkpt><trkpt lat="45.76305708330242" lon="9.287008936633418"><ele>295.0</ele><time>2026-04-10T15:49:13Z</time></trkpt><trkpt lat="45.76326120731548" lon="9.287194263853218"><ele>295.0</ele><time>2026-04-10T15:49:14Z</time></trkpt><trkpt lat="45.76348924931527" lon="9.287371164005666"><ele>295.0</ele><time>2026-04-10T15:49:15Z</time></trkpt><trkpt lat="45.763715745042575" lon="9.287513373259221"><ele>295.0</ele><time>2026-04-10T15:49:16Z</time></trkpt><trkpt lat="45.763933155912405" lon="9.287639226552287"><ele>295.0</ele><time>2026-04-10T15:49:17Z</time></trkpt><trkpt lat="45.764149455609086" lon="9.287731467874954"><ele>293.5</ele><time>2026-04-10T15:49:18Z</time></trkpt><trkpt lat="45.764374616553425" lon="9.287795948981216"><ele>292.0</ele><time>2026-04-10T15:49:19Z</time></trkpt><trkpt lat="45.76461432198507" lon="9.287833135618426"><ele>292.0</ele><time>2026-04-10T15:49:20Z</time></trkpt><trkpt lat="45.764859022312095" lon="9.287858604773177"><ele>292.0</ele><time>2026-04-10T15:49:21Z</time></trkpt><trkpt lat="45.76511478950518" lon="9.287879986653724"><ele>292.0</ele><time>2026-04-10T15:49:22Z</time></trkpt><trkpt lat="45.76537640704634" lon="9.287889863960086"><ele>292.0</ele><time>2026-04-10T15:49:23Z</time></trkpt><trkpt lat="45.76564918688182" lon="9.28789777094187"><ele>292.0</ele><time>2026-04-10T15:49:24Z</time></trkpt><trkpt lat="45.765946313593446" lon="9.28791450768448"><ele>292.0</ele><time>2026-04-10T15:49:25Z</time></trkpt><trkpt lat="45.76624835098024" lon="9.287942621750695"><ele>291.0</ele><time>2026-04-10T15:49:26Z</time></trkpt><trkpt lat="45.76655891389284" lon="9.287963869270964"><ele>290.0</ele><time>2026-04-10T15:49:27Z</time></trkpt><trkpt lat="45.766862485909165" lon="9.287985663802456"><ele>285.5</ele><time>2026-04-10T15:49:28Z</time></trkpt><trkpt lat="45.76716224955569" lon="9.288009542813729"><ele>281.0</ele><time>2026-04-10T15:49:29Z</time></trkpt><trkpt lat="45.76745071702409" lon="9.288030797075264"><ele>279.5</ele><time>2026-04-10T15:49:30Z</time></trkpt><trkpt lat="45.76773641138292" lon="9.288049571216737"><ele>278.0</ele><time>2026-04-10T15:49:31Z</time></trkpt><trkpt lat="45.76803828619721" lon="9.288073520964709"><ele>278.0</ele><time>2026-04-10T15:49:32Z</time></trkpt><trkpt lat="45.76832727197177" lon="9.288093384882854"><ele>278.0</ele><time>2026-04-10T15:49:33Z</time></trkpt><trkpt lat="45.768616688302274" lon="9.288109935196982"><ele>278.0</ele><time>2026-04-10T15:49:34Z</time></trkpt><trkpt lat="45.768906630947605" lon="9.288125794492986"><ele>278.0</ele><time>2026-04-10T15:49:35Z</time></trkpt><trkpt lat="45.769191637416874" lon="9.288142957854898"><ele>274.5</ele><time>2026-04-10T15:49:36Z</time></trkpt><trkpt lat="45.76948565320506" lon="9.28816148994957"><ele>271.0</ele><time>2026-04-10T15:49:37Z</time></trkpt><trkpt lat="45.769765455940274" lon="9.28817884754924"><ele>271.0</ele><time>2026-04-10T15:49:38Z</time></trkpt><trkpt lat="45.77005090558759" lon="9.28819762490667"><ele>271.0</ele><time>2026-04-10T15:49:39Z</time></trkpt><trkpt lat="45.77033690606139" lon="9.288214152369575"><ele>270.5</ele><time>2026-04-10T15:49:40Z</time></trkpt><trkpt lat="45.77061630509639" lon="9.28823268313011"><ele>270.0</ele><time>2026-04-10T15:49:41Z</time></trkpt><trkpt lat="45.77089866915279" lon="9.288247688387091"><ele>269.5</ele><time>2026-04-10T15:49:42Z</time></trkpt><trkpt lat="45.771180573040304" lon="9.28826258863002"><ele>269.0</ele><time>2026-04-10T15:49:43Z</time></trkpt><trkpt lat="45.77146380135543" lon="9.288282466090996"><ele>269.0</ele><time>2026-04-10T15:49:44Z</time></trkpt><trkpt lat="45.7717449533305" lon="9.288301416438937"><ele>269.0</ele><time>2026-04-10T15:49:45Z</time></trkpt><trkpt lat="45.77202999536163" lon="9.288318796422782"><ele>268.0</ele><time>2026-04-10T15:49:46Z</time></trkpt><trkpt lat="45.77232171988718" lon="9.288338446144902"><ele>267.0</ele><time>2026-04-10T15:49:47Z</time></trkpt><trkpt lat="45.7726011596768" lon="9.288354711760217"><ele>267.0</ele><time>2026-04-10T15:49:48Z</time></trkpt><trkpt lat="45.77289491228111" lon="9.288372772284616"><ele>267.0</ele><time>2026-04-10T15:49:49Z</time></trkpt><trkpt lat="45.773181749153096" lon="9.288386126625397"><ele>267.0</ele><time>2026-04-10T15:49:50Z</time></trkpt><trkpt lat="45.773471142412774" lon="9.288398119610502"><ele>267.0</ele><time>2026-04-10T15:49:51Z</time></trkpt><trkpt lat="45.77375723438726" lon="9.288417212553151"><ele>267.0</ele><time>2026-04-10T15:49:52Z</time></trkpt><trkpt lat="45.774038475684584" lon="9.28844916732874"><ele>267.0</ele><time>2026-04-10T15:49:53Z</time></trkpt><trkpt lat="45.774314427977636" lon="9.288479547823451"><ele>267.0</ele><time>2026-04-10T15:49:54Z</time></trkpt><trkpt lat="45.774591011273785" lon="9.28850155421046"><ele>267.0</ele><time>2026-04-10T15:49:55Z</time></trkpt><trkpt lat="45.77488353125091" lon="9.288541680704823"><ele>267.0</ele><time>2026-04-10T15:49:56Z</time></trkpt><trkpt lat="45.775164441353866" lon="9.288605936882222"><ele>267.0</ele><time>2026-04-10T15:49:57Z</time></trkpt><trkpt lat="45.77544720579554" lon="9.288695487243213"><ele>266.0</ele><time>2026-04-10T15:49:58Z</time></trkpt><trkpt lat="45.77573480390309" lon="9.288805715016668"><ele>265.0</ele><time>2026-04-10T15:49:59Z</time></trkpt><trkpt lat="45.77601912982175" lon="9.288930589129896"><ele>263.0</ele><time>2026-04-10T15:50:00Z</time></trkpt><trkpt lat="45.776301438122175" lon="9.289081271583688"><ele>261.0</ele><time>2026-04-10T15:50:01Z</time></trkpt><trkpt lat="45.7765738058094" lon="9.289264173293375"><ele>261.0</ele><time>2026-04-10T15:50:02Z</time></trkpt><trkpt lat="45.77684554847612" lon="9.289463236386373"><ele>261.0</ele><time>2026-04-10T15:50:03Z</time></trkpt><trkpt lat="45.77710767092617" lon="9.289654128959244"><ele>262.0</ele><time>2026-04-10T15:50:04Z</time></trkpt><trkpt lat="45.77737247473118" lon="9.289829501578268"><ele>263.0</ele><time>2026-04-10T15:50:05Z</time></trkpt><trkpt lat="45.77763299855808" lon="9.28999483042123"><ele>263.5</ele><time>2026-04-10T15:50:06Z</time></trkpt><trkpt lat="45.777893437065615" lon="9.290158634636601"><ele>264.0</ele><time>2026-04-10T15:50:07Z</time></trkpt><trkpt lat="45.77815138039328" lon="9.290321718301493"><ele>264.0</ele><time>2026-04-10T15:50:08Z</time></trkpt><trkpt lat="45.778404504555084" lon="9.290479971639988"><ele>264.0</ele><time>2026-04-10T15:50:09Z</time></trkpt><trkpt lat="45.77866550786777" lon="9.290649357522652"><ele>263.5</ele><time>2026-04-10T15:50:10Z</time></trkpt><trkpt lat="45.7789242801951" lon="9.290820642195577"><ele>263.0</ele><time>2026-04-10T15:50:11Z</time></trkpt><trkpt lat="45.77918020087941" lon="9.290997209253774"><ele>262.0</ele><time>2026-04-10T15:50:12Z</time></trkpt><trkpt lat="45.779439220701356" lon="9.291167878896706"><ele>261.0</ele><time>2026-04-10T15:50:13Z</time></trkpt><trkpt lat="45.77969845139849" lon="9.291338351534906"><ele>262.0</ele><time>2026-04-10T15:50:14Z</time></trkpt><trkpt lat="45.779957250804465" lon="9.291510510282308"><ele>263.0</ele><time>2026-04-10T15:50:15Z</time></trkpt><trkpt lat="45.78020994446405" lon="9.291679774791245"><ele>264.0</ele><time>2026-04-10T15:50:16Z</time></trkpt><trkpt lat="45.78046629390795" lon="9.291853289634975"><ele>265.0</ele><time>2026-04-10T15:50:17Z</time></trkpt><trkpt lat="45.78072406677692" lon="9.292029664209867"><ele>265.0</ele><time>2026-04-10T15:50:18Z</time></trkpt><trkpt lat="45.78097957700698" lon="9.292203802308677"><ele>265.0</ele><time>2026-04-10T15:50:19Z</time></trkpt><trkpt lat="45.7812268145202" lon="9.292377577803844"><ele>267.0</ele><time>2026-04-10T15:50:20Z</time></trkpt><trkpt lat="45.78145104383235" lon="9.292547465503278"><ele>269.0</ele><time>2026-04-10T15:50:21Z</time></trkpt><trkpt lat="45.78167859117292" lon="9.29271575283404"><ele>269.5</ele><time>2026-04-10T15:50:22Z</time></trkpt><trkpt lat="45.7819099566063" lon="9.29288647153425"><ele>270.0</ele><time>2026-04-10T15:50:23Z</time></trkpt><trkpt lat="45.782141495485796" lon="9.293051046861407"><ele>269.5</ele><time>2026-04-10T15:50:24Z</time></trkpt><trkpt lat="45.78237723142533" lon="9.29322322711467"><ele>269.0</ele><time>2026-04-10T15:50:25Z</time></trkpt><trkpt lat="45.78261953788692" lon="9.293401762380247"><ele>271.0</ele><time>2026-04-10T15:50:26Z</time></trkpt><trkpt lat="45.782860029465304" lon="9.293585420659202"><ele>273.0</ele><time>2026-04-10T15:50:27Z</time></trkpt><trkpt lat="45.78310598743436" lon="9.293768680025439"><ele>272.0</ele><time>2026-04-10T15:50:28Z</time></trkpt><trkpt lat="45.78335253072697" lon="9.29394470498685"><ele>271.0</ele><time>2026-04-10T15:50:29Z</time></trkpt><trkpt lat="45.78359961841902" lon="9.294099337908019"><ele>271.0</ele><time>2026-04-10T15:50:30Z</time></trkpt><trkpt lat="45.783860862258116" lon="9.294235825076944"><ele>271.0</ele><time>2026-04-10T15:50:31Z</time></trkpt><trkpt lat="45.78412776788178" lon="9.294383350570108"><ele>270.5</ele><time>2026-04-10T15:50:32Z</time></trkpt><trkpt lat="45.78438687963922" lon="9.294549161687485"><ele>270.0</ele><time>2026-04-10T15:50:33Z</time></trkpt><trkpt lat="45.78464429942856" lon="9.294708850376336"><ele>267.5</ele><time>2026-04-10T15:50:34Z</time></trkpt><trkpt lat="45.78489609097828" lon="9.294870198572246"><ele>265.0</ele><time>2026-04-10T15:50:35Z</time></trkpt><trkpt lat="45.78514689887346" lon="9.295040817613536"><ele>265.0</ele><time>2026-04-10T15:50:36Z</time></trkpt><trkpt lat="45.785395394691236" lon="9.295209258531216"><ele>265.0</ele><time>2026-04-10T15:50:37Z</time></trkpt><trkpt lat="45.7856479012596" lon="9.295373277364908"><ele>265.0</ele><time>2026-04-10T15:50:38Z</time></trkpt><trkpt lat="45.78589763366182" lon="9.29552955248564"><ele>265.0</ele><time>2026-04-10T15:50:39Z</time></trkpt><trkpt lat="45.78614426745286" lon="9.295685028486961"><ele>265.5</ele><time>2026-04-10T15:50:40Z</time></trkpt><trkpt lat="45.78638835428821" lon="9.295846849438462"><ele>266.0</ele><time>2026-04-10T15:50:41Z</time></trkpt><trkpt lat="45.78663365343603" lon="9.296008876400192"><ele>266.5</ele><time>2026-04-10T15:50:42Z</time></trkpt><trkpt lat="45.78687947369778" lon="9.296169562859697"><ele>267.0</ele><time>2026-04-10T15:50:43Z</time></trkpt><trkpt lat="45.78712852205077" lon="9.296330478487157"><ele>267.0</ele><time>2026-04-10T15:50:44Z</time></trkpt><trkpt lat="45.78737308836596" lon="9.296490822945128"><ele>267.0</ele><time>2026-04-10T15:50:45Z</time></trkpt><trkpt lat="45.78762410185733" lon="9.296658443153394"><ele>269.5</ele><time>2026-04-10T15:50:46Z</time></trkpt><trkpt lat="45.787867293454134" lon="9.296823611134899"><ele>272.0</ele><time>2026-04-10T15:50:47Z</time></trkpt><trkpt lat="45.788112916416814" lon="9.296991530267906"><ele>272.0</ele><time>2026-04-10T15:50:48Z</time></trkpt><trkpt lat="45.78835133043314" lon="9.297157684895824"><ele>272.0</ele><time>2026-04-10T15:50:49Z</time></trkpt><trkpt lat="45.78859365207514" lon="9.297321575854639"><ele>272.0</ele><time>2026-04-10T15:50:50Z</time></trkpt><trkpt lat="45.788832740568" lon="9.297478810014765"><ele>272.0</ele><time>2026-04-10T15:50:51Z</time></trkpt><trkpt lat="45.78907664317372" lon="9.297639445280923"><ele>272.0</ele><time>2026-04-10T15:50:52Z</time></trkpt><trkpt lat="45.789314663271234" lon="9.297799421104623"><ele>272.0</ele><time>2026-04-10T15:50:53Z</time></trkpt><trkpt lat="45.78955179041457" lon="9.297959346312627"><ele>271.5</ele><time>2026-04-10T15:50:54Z</time></trkpt><trkpt lat="45.789784131502046" lon="9.298109910528364"><ele>271.0</ele><time>2026-04-10T15:50:55Z</time></trkpt><trkpt lat="45.79002978338799" lon="9.298257531994821"><ele>272.0</ele><time>2026-04-10T15:50:56Z</time></trkpt><trkpt lat="45.79028094085615" lon="9.298422328956777"><ele>273.0</ele><time>2026-04-10T15:50:57Z</time></trkpt><trkpt lat="45.7905337261824" lon="9.298609552822564"><ele>273.0</ele><time>2026-04-10T15:50:58Z</time></trkpt><trkpt lat="45.79079173995709" lon="9.298797459049753"><ele>273.0</ele><time>2026-04-10T15:50:59Z</time></trkpt><trkpt lat="45.791044836378546" lon="9.298970333785103"><ele>271.5</ele><time>2026-04-10T15:51:00Z</time></trkpt><trkpt lat="45.791301504248736" lon="9.299144422249721"><ele>270.0</ele><time>2026-04-10T15:51:01Z</time></trkpt><trkpt lat="45.79155916502434" lon="9.299314489705841"><ele>270.0</ele><time>2026-04-10T15:51:02Z</time></trkpt><trkpt lat="45.7918085101719" lon="9.299469783190156"><ele>270.0</ele><time>2026-04-10T15:51:03Z</time></trkpt><trkpt lat="45.79205768931144" lon="9.299623914892594"><ele>269.0</ele><time>2026-04-10T15:51:04Z</time></trkpt><trkpt lat="45.79229383461191" lon="9.299777858017615"><ele>268.0</ele><time>2026-04-10T15:51:05Z</time></trkpt><trkpt lat="45.792540334271905" lon="9.299939923687077"><ele>272.0</ele><time>2026-04-10T15:51:06Z</time></trkpt><trkpt lat="45.7927858272856" lon="9.300114136366092"><ele>276.0</ele><time>2026-04-10T15:51:07Z</time></trkpt><trkpt lat="45.79302313349712" lon="9.300292523374"><ele>276.0</ele><time>2026-04-10T15:51:08Z</time></trkpt><trkpt lat="45.79325942505721" lon="9.300477535818414"><ele>276.0</ele><time>2026-04-10T15:51:09Z</time></trkpt><trkpt lat="45.79349255476213" lon="9.30069055061089"><ele>276.0</ele><time>2026-04-10T15:51:10Z</time></trkpt><trkpt lat="45.79371937481081" lon="9.300925365217475"><ele>276.0</ele><time>2026-04-10T15:51:11Z</time></trkpt><trkpt lat="45.79394927957126" lon="9.301167691284848"><ele>276.0</ele><time>2026-04-10T15:51:12Z</time></trkpt><trkpt lat="45.794196150586835" lon="9.301411056836242"><ele>276.0</ele><time>2026-04-10T15:51:13Z</time></trkpt><trkpt lat="45.79446809095101" lon="9.301666063480075"><ele>275.5</ele><time>2026-04-10T15:51:14Z</time></trkpt><trkpt lat="45.79471461151399" lon="9.30189886421573"><ele>275.0</ele><time>2026-04-10T15:51:15Z</time></trkpt><trkpt lat="45.79495297482324" lon="9.302123888805374"><ele>275.0</ele><time>2026-04-10T15:51:16Z</time></trkpt><trkpt lat="45.795185927256576" lon="9.30234592459714"><ele>275.0</ele><time>2026-04-10T15:51:17Z</time></trkpt><trkpt lat="45.79542423420595" lon="9.302570303682268"><ele>275.0</ele><time>2026-04-10T15:51:18Z</time></trkpt><trkpt lat="45.79565805690598" lon="9.302791013056556"><ele>275.0</ele><time>2026-04-10T15:51:19Z</time></trkpt><trkpt lat="45.7958936387894" lon="9.303010504062197"><ele>272.0</ele><time>2026-04-10T15:51:20Z</time></trkpt><trkpt lat="45.79613471759172" lon="9.303226403390301"><ele>269.0</ele><time>2026-04-10T15:51:21Z</time></trkpt><trkpt lat="45.79637362896536" lon="9.303445586981493"><ele>269.0</ele><time>2026-04-10T15:51:22Z</time></trkpt><trkpt lat="45.79661469765616" lon="9.303676789418384"><ele>269.0</ele><time>2026-04-10T15:51:23Z</time></trkpt><trkpt lat="45.79684718597351" lon="9.30390821546221"><ele>268.0</ele><time>2026-04-10T15:51:24Z</time></trkpt><trkpt lat="45.79708986271565" lon="9.304141376290792"><ele>267.0</ele><time>2026-04-10T15:51:25Z</time></trkpt><trkpt lat="45.797324846481416" lon="9.304363938444334"><ele>267.0</ele><time>2026-04-10T15:51:26Z</time></trkpt><trkpt lat="45.79755026072276" lon="9.304581905896018"><ele>267.0</ele><time>2026-04-10T15:51:27Z</time></trkpt><trkpt lat="45.797773630164656" lon="9.304795564935898"><ele>265.5</ele><time>2026-04-10T15:51:28Z</time></trkpt><trkpt lat="45.79799999687681" lon="9.305009715601651"><ele>264.0</ele><time>2026-04-10T15:51:29Z</time></trkpt><trkpt lat="45.79822430584471" lon="9.305224762610333"><ele>264.0</ele><time>2026-04-10T15:51:30Z</time></trkpt><trkpt lat="45.79845215811602" lon="9.30544432507459"><ele>264.0</ele><time>2026-04-10T15:51:31Z</time></trkpt><trkpt lat="45.79868281230512" lon="9.305666722823382"><ele>264.5</ele><time>2026-04-10T15:51:32Z</time></trkpt><trkpt lat="45.79891672600905" lon="9.30589217065806"><ele>265.0</ele><time>2026-04-10T15:51:33Z</time></trkpt><trkpt lat="45.79914764082584" lon="9.306117672960406"><ele>265.0</ele><time>2026-04-10T15:51:34Z</time></trkpt><trkpt lat="45.799379840959574" lon="9.30636136582961"><ele>265.0</ele><time>2026-04-10T15:51:35Z</time></trkpt><trkpt lat="45.799603263756204" lon="9.306613112661912"><ele>265.0</ele><time>2026-04-10T15:51:36Z</time></trkpt><trkpt lat="45.799835229453954" lon="9.306867449493815"><ele>265.0</ele><time>2026-04-10T15:51:37Z</time></trkpt><trkpt lat="45.80006707975578" lon="9.307112093693803"><ele>264.0</ele><time>2026-04-10T15:51:38Z</time></trkpt><trkpt lat="45.80030225499314" lon="9.307351157193523"><ele>263.0</ele><time>2026-04-10T15:51:39Z</time></trkpt><trkpt lat="45.800534770401605" lon="9.307585810414583"><ele>263.0</ele><time>2026-04-10T15:51:40Z</time></trkpt><trkpt lat="45.80077029198943" lon="9.307813639239608"><ele>263.0</ele><time>2026-04-10T15:51:41Z</time></trkpt><trkpt lat="45.80100881598541" lon="9.308038089682128"><ele>263.0</ele><time>2026-04-10T15:51:42Z</time></trkpt><trkpt lat="45.80124526864092" lon="9.308260024590126"><ele>263.0</ele><time>2026-04-10T15:51:43Z</time></trkpt><trkpt lat="45.80148563540542" lon="9.308483646090243"><ele>263.0</ele><time>2026-04-10T15:51:44Z</time></trkpt><trkpt lat="45.80171922833288" lon="9.30870425657624"><ele>263.0</ele><time>2026-04-10T15:51:45Z</time></trkpt><trkpt lat="45.801956835598" lon="9.308925230040579"><ele>263.5</ele><time>2026-04-10T15:51:46Z</time></trkpt><trkpt lat="45.80219611591583" lon="9.309146758872254"><ele>264.0</ele><time>2026-04-10T15:51:47Z</time></trkpt><trkpt lat="45.80243212950559" lon="9.309362604951225"><ele>264.0</ele><time>2026-04-10T15:51:48Z</time></trkpt><trkpt lat="45.802671248245666" lon="9.309574168679434"><ele>264.0</ele><time>2026-04-10T15:51:49Z</time></trkpt><trkpt lat="45.80291553729042" lon="9.309785674161956"><ele>264.5</ele><time>2026-04-10T15:51:50Z</time></trkpt><trkpt lat="45.803156228599974" lon="9.309994682317916"><ele>265.0</ele><time>2026-04-10T15:51:51Z</time></trkpt><trkpt lat="45.80339616270254" lon="9.310205489603064"><ele>265.5</ele><time>2026-04-10T15:51:52Z</time></trkpt><trkpt lat="45.80363526658215" lon="9.310411084274081"><ele>266.0</ele><time>2026-04-10T15:51:53Z</time></trkpt><trkpt lat="45.80387288978612" lon="9.310624564923542"><ele>266.0</ele><time>2026-04-10T15:51:54Z</time></trkpt><trkpt lat="45.80410431236232" lon="9.31084122095791"><ele>266.0</ele><time>2026-04-10T15:51:55Z</time></trkpt><trkpt lat="45.80433567275659" lon="9.311068371973597"><ele>266.0</ele><time>2026-04-10T15:51:56Z</time></trkpt><trkpt lat="45.80456547894548" lon="9.31129404271854"><ele>266.0</ele><time>2026-04-10T15:51:57Z</time></trkpt><trkpt lat="45.8047991413705" lon="9.311511332117757"><ele>266.0</ele><time>2026-04-10T15:51:58Z</time></trkpt><trkpt lat="45.805028985745466" lon="9.311730918268308"><ele>266.0</ele><time>2026-04-10T15:51:59Z</time></trkpt><trkpt lat="45.80528232280537" lon="9.311980617550269"><ele>265.5</ele><time>2026-04-10T15:52:00Z</time></trkpt><trkpt lat="45.80552498256469" lon="9.31221368697819"><ele>265.0</ele><time>2026-04-10T15:52:01Z</time></trkpt><trkpt lat="45.80576930762299" lon="9.312433973963035"><ele>264.0</ele><time>2026-04-10T15:52:02Z</time></trkpt><trkpt lat="45.80600879105222" lon="9.312648639959896"><ele>263.0</ele><time>2026-04-10T15:52:03Z</time></trkpt><trkpt lat="45.80624887565927" lon="9.312867566690505"><ele>263.5</ele><time>2026-04-10T15:52:04Z</time></trkpt><trkpt lat="45.806474013568824" lon="9.31308400236139"><ele>264.0</ele><time>2026-04-10T15:52:05Z</time></trkpt><trkpt lat="45.80668883760095" lon="9.31329148488928"><ele>264.0</ele><time>2026-04-10T15:52:06Z</time></trkpt><trkpt lat="45.80691465975563" lon="9.313495542126983"><ele>264.0</ele><time>2026-04-10T15:52:07Z</time></trkpt><trkpt lat="45.80714215407081" lon="9.313704173766086"><ele>264.5</ele><time>2026-04-10T15:52:08Z</time></trkpt><trkpt lat="45.80737499401496" lon="9.313923032109116"><ele>265.0</ele><time>2026-04-10T15:52:09Z</time></trkpt><trkpt lat="45.80762136067045" lon="9.314137248507969"><ele>264.5</ele><time>2026-04-10T15:52:10Z</time></trkpt><trkpt lat="45.80788079066015" lon="9.314339675388881"><ele>264.0</ele><time>2026-04-10T15:52:11Z</time></trkpt><trkpt lat="45.80814196747499" lon="9.31455117610658"><ele>264.0</ele><time>2026-04-10T15:52:12Z</time></trkpt><trkpt lat="45.80838981983005" lon="9.314768659853156"><ele>264.0</ele><time>2026-04-10T15:52:13Z</time></trkpt><trkpt lat="45.80863754797108" lon="9.314990846014778"><ele>262.0</ele><time>2026-04-10T15:52:14Z</time></trkpt><trkpt lat="45.80888663613501" lon="9.31521123581988"><ele>260.0</ele><time>2026-04-10T15:52:15Z</time></trkpt><trkpt lat="45.80913477974738" lon="9.315429320485622"><ele>254.0</ele><time>2026-04-10T15:52:16Z</time></trkpt><trkpt lat="45.80937908199314" lon="9.315646177038793"><ele>248.0</ele><time>2026-04-10T15:52:17Z</time></trkpt><trkpt lat="45.809625997798385" lon="9.315862061227358"><ele>248.0</ele><time>2026-04-10T15:52:18Z</time></trkpt><trkpt lat="45.80987296323437" lon="9.316081113273535"><ele>248.0</ele><time>2026-04-10T15:52:19Z</time></trkpt><trkpt lat="45.81011641220389" lon="9.316299690707783"><ele>245.0</ele><time>2026-04-10T15:52:20Z</time></trkpt><trkpt lat="45.81035811518258" lon="9.316517038957"><ele>242.0</ele><time>2026-04-10T15:52:21Z</time></trkpt><trkpt lat="45.81060007950975" lon="9.316732750382368"><ele>242.0</ele><time>2026-04-10T15:52:22Z</time></trkpt><trkpt lat="45.81084422210702" lon="9.3169444399407"><ele>242.0</ele><time>2026-04-10T15:52:23Z</time></trkpt><trkpt lat="45.81109378336608" lon="9.317153179492799"><ele>240.5</ele><time>2026-04-10T15:52:24Z</time></trkpt><trkpt lat="45.811339524588604" lon="9.317359935603461"><ele>239.0</ele><time>2026-04-10T15:52:25Z</time></trkpt><trkpt lat="45.811587001087965" lon="9.317566835290636"><ele>242.0</ele><time>2026-04-10T15:52:26Z</time></trkpt><trkpt lat="45.811834194363904" lon="9.317774030845268"><ele>245.0</ele><time>2026-04-10T15:52:27Z</time></trkpt><trkpt lat="45.812077224195875" lon="9.31798457146432"><ele>241.5</ele><time>2026-04-10T15:52:28Z</time></trkpt><trkpt lat="45.8123191918271" lon="9.318196882998933"><ele>238.0</ele><time>2026-04-10T15:52:29Z</time></trkpt><trkpt lat="45.812560592334805" lon="9.318410887015462"><ele>243.0</ele><time>2026-04-10T15:52:30Z</time></trkpt><trkpt lat="45.812796430562464" lon="9.318614860683352"><ele>248.0</ele><time>2026-04-10T15:52:31Z</time></trkpt><trkpt lat="45.81304165746716" lon="9.318834367351876"><ele>244.5</ele><time>2026-04-10T15:52:32Z</time></trkpt><trkpt lat="45.813280417442385" lon="9.31904026071319"><ele>241.0</ele><time>2026-04-10T15:52:33Z</time></trkpt><trkpt lat="45.81351602902793" lon="9.319247903195185"><ele>241.0</ele><time>2026-04-10T15:52:34Z</time></trkpt><trkpt lat="45.81375455075695" lon="9.319461990894208"><ele>241.0</ele><time>2026-04-10T15:52:35Z</time></trkpt><trkpt lat="45.813992959036376" lon="9.319667061011062"><ele>239.0</ele><time>2026-04-10T15:52:36Z</time></trkpt><trkpt lat="45.81424301447879" lon="9.319873079875352"><ele>237.0</ele><time>2026-04-10T15:52:37Z</time></trkpt><trkpt lat="45.81449208335947" lon="9.320051493443787"><ele>236.5</ele><time>2026-04-10T15:52:38Z</time></trkpt><trkpt lat="45.81474928077032" lon="9.32023057806958"><ele>236.0</ele><time>2026-04-10T15:52:39Z</time></trkpt><trkpt lat="45.81501113958278" lon="9.3203983908395"><ele>233.0</ele><time>2026-04-10T15:52:40Z</time></trkpt><trkpt lat="45.815272182696106" lon="9.320562148314636"><ele>230.0</ele><time>2026-04-10T15:52:41Z</time></trkpt><trkpt lat="45.81554188267391" lon="9.320718410120595"><ele>230.0</ele><time>2026-04-10T15:52:42Z</time></trkpt><trkpt lat="45.815816969982315" lon="9.320863758477602"><ele>230.0</ele><time>2026-04-10T15:52:43Z</time></trkpt><trkpt lat="45.81608912553191" lon="9.32100678897554"><ele>229.5</ele><time>2026-04-10T15:52:44Z</time></trkpt><trkpt lat="45.81635739955546" lon="9.32115417769464"><ele>229.0</ele><time>2026-04-10T15:52:45Z</time></trkpt><trkpt lat="45.816630222085955" lon="9.321303278851731"><ele>227.5</ele><time>2026-04-10T15:52:46Z</time></trkpt><trkpt lat="45.81690618930268" lon="9.3214535595722"><ele>226.0</ele><time>2026-04-10T15:52:47Z</time></trkpt><trkpt lat="45.81718168645315" lon="9.321604777258113"><ele>226.0</ele><time>2026-04-10T15:52:48Z</time></trkpt><trkpt lat="45.81745684588893" lon="9.321750874210894"><ele>226.0</ele><time>2026-04-10T15:52:49Z</time></trkpt><trkpt lat="45.81772253233538" lon="9.321891491954895"><ele>227.5</ele><time>2026-04-10T15:52:50Z</time></trkpt><trkpt lat="45.817990907943695" lon="9.322037334280315"><ele>229.0</ele><time>2026-04-10T15:52:51Z</time></trkpt><trkpt lat="45.818259807473865" lon="9.322183925296201"><ele>230.0</ele><time>2026-04-10T15:52:52Z</time></trkpt><trkpt lat="45.81852106911746" lon="9.322326022094083"><ele>231.0</ele><time>2026-04-10T15:52:53Z</time></trkpt><trkpt lat="45.81878513110908" lon="9.32246797164593"><ele>231.0</ele><time>2026-04-10T15:52:54Z</time></trkpt><trkpt lat="45.819047519395305" lon="9.322611342067608"><ele>231.0</ele><time>2026-04-10T15:52:55Z</time></trkpt><trkpt lat="45.819310499872785" lon="9.322752310971394"><ele>231.5</ele><time>2026-04-10T15:52:56Z</time></trkpt><trkpt lat="45.81957304694078" lon="9.322892251056407"><ele>232.0</ele><time>2026-04-10T15:52:57Z</time></trkpt><trkpt lat="45.81984173721659" lon="9.323032293423797"><ele>230.5</ele><time>2026-04-10T15:52:58Z</time></trkpt><trkpt lat="45.82010615073688" lon="9.323166587161097"><ele>229.0</ele><time>2026-04-10T15:52:59Z</time></trkpt><trkpt lat="45.82037444492587" lon="9.32330243036181"><ele>227.5</ele><time>2026-04-10T15:53:00Z</time></trkpt><trkpt lat="45.820641309484195" lon="9.323441244115823"><ele>226.0</ele><time>2026-04-10T15:53:01Z</time></trkpt><trkpt lat="45.82090612061044" lon="9.32358316362801"><ele>226.5</ele><time>2026-04-10T15:53:02Z</time></trkpt><trkpt lat="45.82117319437964" lon="9.323723256652606"><ele>227.0</ele><time>2026-04-10T15:53:03Z</time></trkpt><trkpt lat="45.82143897083364" lon="9.323861204036858"><ele>226.0</ele><time>2026-04-10T15:53:04Z</time></trkpt><trkpt lat="45.8217027823182" lon="9.323999438590718"><ele>225.0</ele><time>2026-04-10T15:53:05Z</time></trkpt><trkpt lat="45.821955493266096" lon="9.324138539366828"><ele>225.0</ele><time>2026-04-10T15:53:06Z</time></trkpt><trkpt lat="45.822198253673015" lon="9.324292599004574"><ele>225.0</ele><time>2026-04-10T15:53:07Z</time></trkpt><trkpt lat="45.82242682202331" lon="9.324471188036517"><ele>225.5</ele><time>2026-04-10T15:53:08Z</time></trkpt><trkpt lat="45.82265133185644" lon="9.324676057625958"><ele>226.0</ele><time>2026-04-10T15:53:09Z</time></trkpt><trkpt lat="45.82285373566658" lon="9.324906568194658"><ele>226.0</ele><time>2026-04-10T15:53:10Z</time></trkpt><trkpt lat="45.823052915639394" lon="9.325162503351098"><ele>226.0</ele><time>2026-04-10T15:53:11Z</time></trkpt><trkpt lat="45.82323480819372" lon="9.325438792632507"><ele>226.0</ele><time>2026-04-10T15:53:12Z</time></trkpt><trkpt lat="45.823402985335164" lon="9.325737141566742"><ele>226.0</ele><time>2026-04-10T15:53:13Z</time></trkpt><trkpt lat="45.82355264685645" lon="9.326045570672608"><ele>234.5</ele><time>2026-04-10T15:53:14Z</time></trkpt><trkpt lat="45.82368930569025" lon="9.326371541485857"><ele>243.0</ele><time>2026-04-10T15:53:15Z</time></trkpt><trkpt lat="45.8238084101396" lon="9.326716858292668"><ele>244.0</ele><time>2026-04-10T15:53:16Z</time></trkpt><trkpt lat="45.8239079548923" lon="9.327075825838993"><ele>245.0</ele><time>2026-04-10T15:53:17Z</time></trkpt><trkpt lat="45.82399153202111" lon="9.327439075363827"><ele>242.5</ele><time>2026-04-10T15:53:18Z</time></trkpt><trkpt lat="45.824063133675544" lon="9.327802269499994"><ele>240.0</ele><time>2026-04-10T15:53:19Z</time></trkpt><trkpt lat="45.82411609316567" lon="9.328180416260345"><ele>239.5</ele><time>2026-04-10T15:53:20Z</time></trkpt><trkpt lat="45.824142298455804" lon="9.328563510984697"><ele>239.0</ele><time>2026-04-10T15:53:21Z</time></trkpt><trkpt lat="45.82417019020059" lon="9.32894871808981"><ele>237.5</ele><time>2026-04-10T15:53:22Z</time></trkpt><trkpt lat="45.824208529471264" lon="9.32934372396524"><ele>236.0</ele><time>2026-04-10T15:53:23Z</time></trkpt><trkpt lat="45.824246925319706" lon="9.329727944130864"><ele>234.0</ele><time>2026-04-10T15:53:24Z</time></trkpt><trkpt lat="45.82428124482759" lon="9.330121686840991"><ele>232.0</ele><time>2026-04-10T15:53:25Z</time></trkpt><trkpt lat="45.82431226501866" lon="9.330517347340498"><ele>244.0</ele><time>2026-04-10T15:53:26Z</time></trkpt><trkpt lat="45.824342080610705" lon="9.330914409437252"><ele>256.0</ele><time>2026-04-10T15:53:27Z</time></trkpt><trkpt lat="45.824372240245026" lon="9.331309047420103"><ele>255.0</ele><time>2026-04-10T15:53:28Z</time></trkpt><trkpt lat="45.824404462610126" lon="9.331713769688172"><ele>254.0</ele><time>2026-04-10T15:53:29Z</time></trkpt><trkpt lat="45.824436047190986" lon="9.332110729096403"><ele>252.5</ele><time>2026-04-10T15:53:30Z</time></trkpt><trkpt lat="45.82446834424178" lon="9.332514215313218"><ele>251.0</ele><time>2026-04-10T15:53:31Z</time></trkpt><trkpt lat="45.824499771761246" lon="9.332912043594149"><ele>249.5</ele><time>2026-04-10T15:53:32Z</time></trkpt><trkpt lat="45.82451502699531" lon="9.33329551176546"><ele>248.0</ele><time>2026-04-10T15:53:33Z</time></trkpt><trkpt lat="45.82452319900959" lon="9.333695212791095"><ele>247.5</ele><time>2026-04-10T15:53:34Z</time></trkpt><trkpt lat="45.824524221325575" lon="9.334084580865348"><ele>247.0</ele><time>2026-04-10T15:53:35Z</time></trkpt><trkpt lat="45.824518866782576" lon="9.3344837799393"><ele>247.0</ele><time>2026-04-10T15:53:36Z</time></trkpt><trkpt lat="45.82450989638098" lon="9.334895025887162"><ele>247.0</ele><time>2026-04-10T15:53:37Z</time></trkpt><trkpt lat="45.82451155947814" lon="9.335319809635184"><ele>247.0</ele><time>2026-04-10T15:53:38Z</time></trkpt><trkpt lat="45.82452172580219" lon="9.335742632146703"><ele>247.0</ele><time>2026-04-10T15:53:39Z</time></trkpt><trkpt lat="45.82453388568065" lon="9.336165681953243"><ele>245.5</ele><time>2026-04-10T15:53:40Z</time></trkpt><trkpt lat="45.82455059694332" lon="9.336588705558556"><ele>244.0</ele><time>2026-04-10T15:53:41Z</time></trkpt><trkpt lat="45.824564616598636" lon="9.33700064619063"><ele>242.5</ele><time>2026-04-10T15:53:42Z</time></trkpt><trkpt lat="45.8245852317466" lon="9.33741351745519"><ele>241.0</ele><time>2026-04-10T15:53:43Z</time></trkpt><trkpt lat="45.82460892710373" lon="9.337824575761653"><ele>239.5</ele><time>2026-04-10T15:53:44Z</time></trkpt><trkpt lat="45.82462904241232" lon="9.338230492164737"><ele>238.0</ele><time>2026-04-10T15:53:45Z</time></trkpt><trkpt lat="45.82464439754632" lon="9.338635686345743"><ele>237.0</ele><time>2026-04-10T15:53:46Z</time></trkpt><trkpt lat="45.82466120875152" lon="9.33904862170349"><ele>236.0</ele><time>2026-04-10T15:53:47Z</time></trkpt><trkpt lat="45.82466185002878" lon="9.339456877369223"><ele>234.5</ele><time>2026-04-10T15:53:48Z</time></trkpt><trkpt lat="45.82463939171316" lon="9.339859006205998"><ele>233.0</ele><time>2026-04-10T15:53:49Z</time></trkpt><trkpt lat="45.824610300947604" lon="9.34027194359775"><ele>235.5</ele><time>2026-04-10T15:53:50Z</time></trkpt><trkpt lat="45.824586645083805" lon="9.340675541071098"><ele>238.0</ele><time>2026-04-10T15:53:51Z</time></trkpt><trkpt lat="45.824564228392155" lon="9.341085445912267"><ele>241.0</ele><time>2026-04-10T15:53:52Z</time></trkpt><trkpt lat="45.82453651579874" lon="9.341481972947417"><ele>244.0</ele><time>2026-04-10T15:53:53Z</time></trkpt><trkpt lat="45.82450848211936" lon="9.341893047191988"><ele>243.5</ele><time>2026-04-10T15:53:54Z</time></trkpt><trkpt lat="45.82448337206883" lon="9.342296357325454"><ele>243.0</ele><time>2026-04-10T15:53:55Z</time></trkpt><trkpt lat="45.824456108735234" lon="9.34269191481497"><ele>239.5</ele><time>2026-04-10T15:53:56Z</time></trkpt><trkpt lat="45.82442438182023" lon="9.343108775648975"><ele>236.0</ele><time>2026-04-10T15:53:57Z</time></trkpt><trkpt lat="45.82439256584795" lon="9.343510572339657"><ele>232.5</ele><time>2026-04-10T15:53:58Z</time></trkpt><trkpt lat="45.82435963285643" lon="9.343911741420978"><ele>229.0</ele><time>2026-04-10T15:53:59Z</time></trkpt><trkpt lat="45.824330014672064" lon="9.344309392581996"><ele>227.0</ele><time>2026-04-10T15:54:00Z</time></trkpt><trkpt lat="45.82429394784134" lon="9.344687874007436"><ele>225.0</ele><time>2026-04-10T15:54:01Z</time></trkpt><trkpt lat="45.82427326465093" lon="9.345098635572095"><ele>225.0</ele><time>2026-04-10T15:54:02Z</time></trkpt><trkpt lat="45.824251218365184" lon="9.345494246850395"><ele>225.0</ele><time>2026-04-10T15:54:03Z</time></trkpt><trkpt lat="45.824230921313465" lon="9.34588645546058"><ele>225.0</ele><time>2026-04-10T15:54:04Z</time></trkpt><trkpt lat="45.82422219749183" lon="9.346265018076299"><ele>225.0</ele><time>2026-04-10T15:54:05Z</time></trkpt><trkpt lat="45.82423465393923" lon="9.346641533018726"><ele>225.5</ele><time>2026-04-10T15:54:06Z</time></trkpt><trkpt lat="45.82426535915752" lon="9.346987095014082"><ele>226.0</ele><time>2026-04-10T15:54:07Z</time></trkpt><trkpt lat="45.82431413918754" lon="9.34730446994676"><ele>228.5</ele><time>2026-04-10T15:54:08Z</time></trkpt><trkpt lat="45.82438150850522" lon="9.347632279483697"><ele>231.0</ele><time>2026-04-10T15:54:09Z</time></trkpt><trkpt lat="45.82446272381649" lon="9.347949182285465"><ele>229.0</ele><time>2026-04-10T15:54:10Z</time></trkpt><trkpt lat="45.82456864051615" lon="9.348279242620556"><ele>227.0</ele><time>2026-04-10T15:54:11Z</time></trkpt><trkpt lat="45.824691537536204" lon="9.34858379438435"><ele>229.5</ele><time>2026-04-10T15:54:12Z</time></trkpt><trkpt lat="45.82483883974191" lon="9.348880040863449"><ele>232.0</ele><time>2026-04-10T15:54:13Z</time></trkpt><trkpt lat="45.825007422166536" lon="9.34916281343269"><ele>229.0</ele><time>2026-04-10T15:54:14Z</time></trkpt><trkpt lat="45.82518817830958" lon="9.349417727528799"><ele>226.0</ele><time>2026-04-10T15:54:15Z</time></trkpt><trkpt lat="45.82536675981394" lon="9.349625759958053"><ele>229.5</ele><time>2026-04-10T15:54:16Z</time></trkpt><trkpt lat="45.82556957120223" lon="9.34983800896975"><ele>233.0</ele><time>2026-04-10T15:54:17Z</time></trkpt><trkpt lat="45.82580031842119" lon="9.350049527932788"><ele>231.5</ele><time>2026-04-10T15:54:18Z</time></trkpt><trkpt lat="45.826044425418" lon="9.35025722725203"><ele>230.0</ele><time>2026-04-10T15:54:19Z</time></trkpt><trkpt lat="45.826282826067036" lon="9.350450168744628"><ele>231.5</ele><time>2026-04-10T15:54:20Z</time></trkpt><trkpt lat="45.82650699022997" lon="9.350631625893296"><ele>233.0</ele><time>2026-04-10T15:54:21Z</time></trkpt><trkpt lat="45.82672087575953" lon="9.35080923660057"><ele>233.0</ele><time>2026-04-10T15:54:22Z</time></trkpt><trkpt lat="45.82693886056185" lon="9.350985802102821"><ele>233.0</ele><time>2026-04-10T15:54:23Z</time></trkpt><trkpt lat="45.827158483695776" lon="9.351166858149583"><ele>233.0</ele><time>2026-04-10T15:54:24Z</time></trkpt><trkpt lat="45.82737963789132" lon="9.351351649987599"><ele>233.0</ele><time>2026-04-10T15:54:25Z</time></trkpt><trkpt lat="45.82760090664624" lon="9.351543903278376"><ele>231.5</ele><time>2026-04-10T15:54:26Z</time></trkpt><trkpt lat="45.827824001917094" lon="9.35174681703974"><ele>230.0</ele><time>2026-04-10T15:54:27Z</time></trkpt><trkpt lat="45.82804558764179" lon="9.351962863577045"><ele>230.0</ele><time>2026-04-10T15:54:28Z</time></trkpt><trkpt lat="45.82826629691627" lon="9.352196661501297"><ele>230.0</ele><time>2026-04-10T15:54:29Z</time></trkpt><trkpt lat="45.82846900587239" lon="9.35243977834831"><ele>232.0</ele><time>2026-04-10T15:54:30Z</time></trkpt><trkpt lat="45.8286502631762" lon="9.352703697661031"><ele>234.0</ele><time>2026-04-10T15:54:31Z</time></trkpt><trkpt lat="45.82882111789404" lon="9.353001481811221"><ele>236.5</ele><time>2026-04-10T15:54:32Z</time></trkpt><trkpt lat="45.829006722825945" lon="9.35332532589261"><ele>239.0</ele><time>2026-04-10T15:54:33Z</time></trkpt><trkpt lat="45.82918357985575" lon="9.353638439174958"><ele>241.5</ele><time>2026-04-10T15:54:34Z</time></trkpt><trkpt lat="45.82933978161618" lon="9.353951270053496"><ele>244.0</ele><time>2026-04-10T15:54:35Z</time></trkpt><trkpt lat="45.829467372822464" lon="9.354236526581145"><ele>244.0</ele><time>2026-04-10T15:54:36Z</time></trkpt><trkpt lat="45.82959758372769" lon="9.354529799594662"><ele>244.0</ele><time>2026-04-10T15:54:37Z</time></trkpt><trkpt lat="45.82973730494881" lon="9.35486294947434"><ele>250.0</ele><time>2026-04-10T15:54:38Z</time></trkpt><trkpt lat="45.82986848916763" lon="9.355229444249188"><ele>256.0</ele><time>2026-04-10T15:54:39Z</time></trkpt><trkpt lat="45.82999487327547" lon="9.355622603367243"><ele>261.5</ele><time>2026-04-10T15:54:40Z</time></trkpt><trkpt lat="45.83012875700419" lon="9.356039752083003"><ele>267.0</ele><time>2026-04-10T15:54:41Z</time></trkpt><trkpt lat="45.83026912119919" lon="9.356467237930572"><ele>277.0</ele><time>2026-04-10T15:54:42Z</time></trkpt><trkpt lat="45.83041159429311" lon="9.35689658990395"><ele>287.0</ele><time>2026-04-10T15:54:43Z</time></trkpt><trkpt lat="45.830552600459676" lon="9.357321637910196"><ele>295.0</ele><time>2026-04-10T15:54:44Z</time></trkpt><trkpt lat="45.83069513180628" lon="9.357747631019675"><ele>303.0</ele><time>2026-04-10T15:54:45Z</time></trkpt><trkpt lat="45.830848029778586" lon="9.358207395218631"><ele>323.0</ele><time>2026-04-10T15:54:46.072Z</time></trkpt><trkpt lat="45.83097926237707" lon="9.35861407146888"><ele>343.0</ele><time>2026-04-10T15:54:47.066Z</time></trkpt><trkpt lat="45.83111682149927" lon="9.35903320863064"><ele>465.0</ele><time>2026-04-10T15:54:48.066Z</time></trkpt><trkpt lat="45.83188029596605" lon="9.361725879243748"><ele>206.0</ele><time>2026-04-10T15:54:51.977Z</time></trkpt><trkpt lat="45.838480367254405" lon="9.395239250625847"><ele>205.0</ele><time>2026-04-10T15:56:18.999Z</time></trkpt><trkpt lat="45.83845669179406" lon="9.395593412833035"><ele>204.0</ele><time>2026-04-10T15:56:19.999Z</time></trkpt><trkpt lat="45.838477260746714" lon="9.396034723241991"><ele>202.0</ele><time>2026-04-10T15:56:20.999Z</time></trkpt><trkpt lat="45.83848227525338" lon="9.396459478447008"><ele>200.0</ele><time>2026-04-10T15:56:21.999Z</time></trkpt><trkpt lat="45.83850158509628" lon="9.396830867384454"><ele>200.0</ele><time>2026-04-10T15:56:22.999Z</time></trkpt><trkpt lat="45.83853102472861" lon="9.39718941450369"><ele>200.0</ele><time>2026-04-10T15:56:23.999Z</time></trkpt><trkpt lat="45.8385755091884" lon="9.397549748008597"><ele>200.0</ele><time>2026-04-10T15:56:24.999Z</time></trkpt><trkpt lat="45.83863413559278" lon="9.397919989914037"><ele>200.0</ele><time>2026-04-10T15:56:26Z</time></trkpt><trkpt lat="45.83869077946289" lon="9.398294266155196"><ele>199.0</ele><time>2026-04-10T15:56:27Z</time></trkpt><trkpt lat="45.83873788782658" lon="9.398684608814724"><ele>198.0</ele><time>2026-04-10T15:56:28Z</time></trkpt><trkpt lat="45.83878169686769" lon="9.399069423628411"><ele>198.0</ele><time>2026-04-10T15:56:29Z</time></trkpt><trkpt lat="45.83882444035975" lon="9.399431945892788"><ele>198.0</ele><time>2026-04-10T15:56:30Z</time></trkpt><trkpt lat="45.83887166607385" lon="9.399783528163807"><ele>198.0</ele><time>2026-04-10T15:56:31Z</time></trkpt><trkpt lat="45.8389190376707" lon="9.40015239409281"><ele>198.0</ele><time>2026-04-10T15:56:32Z</time></trkpt><trkpt lat="45.83896275038113" lon="9.400516541263837"><ele>198.5</ele><time>2026-04-10T15:56:33Z</time></trkpt><trkpt lat="45.83901149175036" lon="9.400896014552751"><ele>199.0</ele><time>2026-04-10T15:56:34Z</time></trkpt><trkpt lat="45.83905332624204" lon="9.401261352659557"><ele>200.0</ele><time>2026-04-10T15:56:35Z</time></trkpt><trkpt lat="45.839093694412114" lon="9.401618349159287"><ele>201.0</ele><time>2026-04-10T15:56:36Z</time></trkpt><trkpt lat="45.839135610253265" lon="9.40196553760234"><ele>202.0</ele><time>2026-04-10T15:56:37Z</time></trkpt><trkpt lat="45.839182371441474" lon="9.402319966108257"><ele>203.0</ele><time>2026-04-10T15:56:38Z</time></trkpt><trkpt lat="45.839226750117554" lon="9.402651535058784"><ele>203.0</ele><time>2026-04-10T15:56:39Z</time></trkpt><trkpt lat="45.83928107733866" lon="9.40296027567355"><ele>203.0</ele><time>2026-04-10T15:56:40Z</time></trkpt><trkpt lat="45.83935898713096" lon="9.403267403868483"><ele>203.5</ele><time>2026-04-10T15:56:41Z</time></trkpt><trkpt lat="45.83946229648925" lon="9.403556540256394"><ele>204.0</ele><time>2026-04-10T15:56:42Z</time></trkpt><trkpt lat="45.839595160710466" lon="9.403842168319231"><ele>205.0</ele><time>2026-04-10T15:56:43Z</time></trkpt><trkpt lat="45.839749837003545" lon="9.404088271479077"><ele>206.0</ele><time>2026-04-10T15:56:44Z</time></trkpt><trkpt lat="45.839926003379716" lon="9.404315973330524"><ele>206.0</ele><time>2026-04-10T15:56:45Z</time></trkpt><trkpt lat="45.84012195680563" lon="9.404508860851102"><ele>206.0</ele><time>2026-04-10T15:56:46Z</time></trkpt><trkpt lat="45.84033194641348" lon="9.40466790445035"><ele>206.0</ele><time>2026-04-10T15:56:47Z</time></trkpt><trkpt lat="45.84054861514966" lon="9.404790449284139"><ele>206.0</ele><time>2026-04-10T15:56:48Z</time></trkpt><trkpt lat="45.84075846233939" lon="9.404868907366534"><ele>206.0</ele><time>2026-04-10T15:56:49Z</time></trkpt><trkpt lat="45.840952310260406" lon="9.404903724138883"><ele>206.0</ele><time>2026-04-10T15:56:50Z</time></trkpt><trkpt lat="45.84115871522555" lon="9.404915332497387"><ele>206.0</ele><time>2026-04-10T15:56:51Z</time></trkpt><trkpt lat="45.841390607769945" lon="9.40493810161345"><ele>207.5</ele><time>2026-04-10T15:56:52Z</time></trkpt><trkpt lat="45.841630316157534" lon="9.404982057284089"><ele>209.0</ele><time>2026-04-10T15:56:53Z</time></trkpt><trkpt lat="45.84184095847153" lon="9.405022901765653"><ele>209.0</ele><time>2026-04-10T15:56:54Z</time></trkpt><trkpt lat="45.84203679125612" lon="9.405055075443103"><ele>209.0</ele><time>2026-04-10T15:56:55Z</time></trkpt><trkpt lat="45.84221167229778" lon="9.405078696256156"><ele>209.0</ele><time>2026-04-10T15:56:56Z</time></trkpt><trkpt lat="45.84238108506967" lon="9.405104375129461"><ele>209.0</ele><time>2026-04-10T15:56:57Z</time></trkpt><trkpt lat="45.842557414393596" lon="9.405146299942214"><ele>209.0</ele><time>2026-04-10T15:56:58Z</time></trkpt><trkpt lat="45.84273922229135" lon="9.405210219381173"><ele>209.0</ele><time>2026-04-10T15:56:59Z</time></trkpt><trkpt lat="45.842905315030286" lon="9.405281438946774"><ele>208.66666666666669</ele><time>2026-04-10T15:57:00Z</time></trkpt><trkpt lat="45.84305942825542" lon="9.405348090800375"><ele>208.33333333333331</ele><time>2026-04-10T15:57:01Z</time></trkpt><trkpt lat="45.84321989947915" lon="9.40542395251316"><ele>208.0</ele><time>2026-04-10T15:57:02Z</time></trkpt><trkpt lat="45.843370245277505" lon="9.405498770019062"><ele>208.33333333333331</ele><time>2026-04-10T15:57:03Z</time></trkpt><trkpt lat="45.843521008327514" lon="9.40556500587569"><ele>208.66666666666669</ele><time>2026-04-10T15:57:04Z</time></trkpt><trkpt lat="45.84369366525929" lon="9.405642466904382"><ele>209.0</ele><time>2026-04-10T15:57:05Z</time></trkpt><trkpt lat="45.84385388465244" lon="9.40572483246431"><ele>209.0</ele><time>2026-04-10T15:57:06Z</time></trkpt><trkpt lat="45.84399331462277" lon="9.40578962898537"><ele>209.0</ele><time>2026-04-10T15:57:07Z</time></trkpt><trkpt lat="45.844131240882184" lon="9.405827818135466"><ele>209.0</ele><time>2026-04-10T15:57:08Z</time></trkpt><trkpt lat="45.84428104298419" lon="9.405819642710169"><ele>209.0</ele><time>2026-04-10T15:57:09Z</time></trkpt><trkpt lat="45.84443183188487" lon="9.405751703427079"><ele>209.0</ele><time>2026-04-10T15:57:10Z</time></trkpt><trkpt lat="45.84457031432032" lon="9.405640513295632"><ele>209.0</ele><time>2026-04-10T15:57:11Z</time></trkpt><trkpt lat="45.84466526838101" lon="9.405519977657613"><ele>209.0</ele><time>2026-04-10T15:57:12Z</time></trkpt><trkpt lat="45.844757072283265" lon="9.405418896985324"><ele>209.0</ele><time>2026-04-10T15:57:13Z</time></trkpt><trkpt lat="45.84489185494007" lon="9.405248312454276"><ele>209.0</ele><time>2026-04-10T15:57:14Z</time></trkpt><trkpt lat="45.84500255534565" lon="9.405155268399847"><ele>209.0</ele><time>2026-04-10T15:57:15Z</time></trkpt><trkpt lat="45.84507708364337" lon="9.40506519253542"><ele>209.0</ele><time>2026-04-10T15:57:16Z</time></trkpt><trkpt lat="45.845123421021604" lon="9.40495655335053"><ele>209.0</ele><time>2026-04-10T15:57:17Z</time></trkpt><trkpt lat="45.845151231454786" lon="9.404836552757157"><ele>209.0</ele><time>2026-04-10T15:57:18Z</time></trkpt><trkpt lat="45.84515648904597" lon="9.404728475602374"><ele>209.2</ele><time>2026-04-10T15:57:19Z</time></trkpt><trkpt lat="45.84515670507258" lon="9.404606201615097"><ele>209.39999999999998</ele><time>2026-04-10T15:57:20Z</time></trkpt><trkpt lat="45.84513158673825" lon="9.404480454343883"><ele>209.6</ele><time>2026-04-10T15:57:21Z</time></trkpt><trkpt lat="45.845090117841046" lon="9.404365890129458"><ele>209.8</ele><time>2026-04-10T15:57:22Z</time></trkpt><trkpt lat="45.84502038332121" lon="9.404245611155442"><ele>210.0</ele><time>2026-04-10T15:57:23Z</time></trkpt><trkpt lat="45.844935061951404" lon="9.404154852773148"><ele>209.6</ele><time>2026-04-10T15:57:24Z</time></trkpt><trkpt lat="45.84484131989858" lon="9.404098143640812"><ele>209.2</ele><time>2026-04-10T15:57:25Z</time></trkpt><trkpt lat="45.844734667171586" lon="9.404078982154369"><ele>208.8</ele><time>2026-04-10T15:57:26Z</time></trkpt><trkpt lat="45.844611699768706" lon="9.404107039759118"><ele>208.4</ele><time>2026-04-10T15:57:27Z</time></trkpt><trkpt lat="45.84450545465665" lon="9.40416859718304"><ele>208.0</ele><time>2026-04-10T15:57:28Z</time></trkpt><trkpt lat="45.844384114493046" lon="9.404273126652535"><ele>208.0</ele><time>2026-04-10T15:57:29Z</time></trkpt><trkpt lat="45.84427165954493" lon="9.404368299823807"><ele>208.0</ele><time>2026-04-10T15:57:30Z</time></trkpt><trkpt lat="45.84415975360672" lon="9.40445693961026"><ele>208.0</ele><time>2026-04-10T15:57:31Z</time></trkpt><trkpt lat="45.84405769366498" lon="9.40454745715142"><ele>208.0</ele><time>2026-04-10T15:57:32Z</time></trkpt><trkpt lat="45.84397939503892" lon="9.404597193744225"><ele>208.0</ele><time>2026-04-10T15:57:33Z</time></trkpt><trkpt lat="45.84389412890862" lon="9.404661160825295"><ele>208.0</ele><time>2026-04-10T15:57:34Z</time></trkpt><trkpt lat="45.84376100985642" lon="9.404795886523013"><ele>208.0</ele><time>2026-04-10T15:57:35Z</time></trkpt><trkpt lat="45.8437148208758" lon="9.404943014551597"><ele>208.0</ele><time>2026-04-10T15:57:36Z</time></trkpt><trkpt lat="45.843661942058176" lon="9.405087588317436"><ele>208.2</ele><time>2026-04-10T15:57:37Z</time></trkpt><trkpt lat="45.84362973881828" lon="9.405213172118858"><ele>208.4</ele><time>2026-04-10T15:57:38Z</time></trkpt><trkpt lat="45.84359882164304" lon="9.405340208070196"><ele>208.6</ele><time>2026-04-10T15:57:39.077Z</time></trkpt><trkpt lat="45.8435681939451" lon="9.405478853080028"><ele>208.79999999999998</ele><time>2026-04-10T15:57:40.076Z</time></trkpt><trkpt lat="45.84354371302065" lon="9.405601942181793"><ele>209.0</ele><time>2026-04-10T15:57:41.067Z</time></trkpt><trkpt lat="45.84411610088897" lon="9.407367520868815"><ele>366.0</ele><time>2026-04-10T15:57:44.976Z</time></trkpt><trkpt lat="45.85932141995132" lon="9.41638162430602"><ele>355.5</ele><time>2026-04-10T15:59:46.999Z</time></trkpt><trkpt lat="45.85966915415828" lon="9.416285052748876"><ele>345.0</ele><time>2026-04-10T15:59:48.999Z</time></trkpt><trkpt lat="45.859920847668214" lon="9.416080953532559"><ele>356.0</ele><time>2026-04-10T15:59:49.999Z</time></trkpt><trkpt lat="45.86014495627789" lon="9.415882862893321"><ele>367.0</ele><time>2026-04-10T15:59:50.999Z</time></trkpt><trkpt lat="45.86039130140008" lon="9.415662859791759"><ele>357.5</ele><time>2026-04-10T15:59:51.999Z</time></trkpt><trkpt lat="45.8606547390698" lon="9.415460047288681"><ele>348.0</ele><time>2026-04-10T15:59:53Z</time></trkpt><trkpt lat="45.860862550237236" lon="9.415199018766803"><ele>352.0</ele><time>2026-04-10T15:59:54Z</time></trkpt><trkpt lat="45.86104334422072" lon="9.41504859560489"><ele>356.0</ele><time>2026-04-10T15:59:55Z</time></trkpt><trkpt lat="45.861250111443624" lon="9.414910264538312"><ele>360.0</ele><time>2026-04-10T15:59:56Z</time></trkpt><trkpt lat="45.86143541986817" lon="9.414835973678292"><ele>360.0</ele><time>2026-04-10T15:59:57Z</time></trkpt><trkpt lat="45.861631425682546" lon="9.41480668521047"><ele>360.0</ele><time>2026-04-10T15:59:58Z</time></trkpt><trkpt lat="45.861833503829445" lon="9.41479931584147"><ele>360.0</ele><time>2026-04-10T15:59:59Z</time></trkpt><trkpt lat="45.86203509846861" lon="9.414852825645205"><ele>364.6666666666667</ele><time>2026-04-10T16:00:00Z</time></trkpt><trkpt lat="45.86223300006214" lon="9.414958888737415"><ele>369.33333333333337</ele><time>2026-04-10T16:00:01Z</time></trkpt><trkpt lat="45.862409587291864" lon="9.415106156705699"><ele>374.0</ele><time>2026-04-10T16:00:02Z</time></trkpt><trkpt lat="45.86257231382681" lon="9.415266016162386"><ele>372.0</ele><time>2026-04-10T16:00:03Z</time></trkpt><trkpt lat="45.86273690453277" lon="9.415485742830992"><ele>370.0</ele><time>2026-04-10T16:00:04Z</time></trkpt><trkpt lat="45.862873751779446" lon="9.415756118691933"><ele>370.0</ele><time>2026-04-10T16:00:05Z</time></trkpt><trkpt lat="45.86300450502115" lon="9.416052599507056"><ele>370.0</ele><time>2026-04-10T16:00:06Z</time></trkpt><trkpt lat="45.863152326146825" lon="9.416405415084432"><ele>370.5</ele><time>2026-04-10T16:00:07Z</time></trkpt><trkpt lat="45.86330268373275" lon="9.416727730659769"><ele>371.0</ele><time>2026-04-10T16:00:08Z</time></trkpt><trkpt lat="45.8634511361763" lon="9.417051063395585"><ele>377.5</ele><time>2026-04-10T16:00:09Z</time></trkpt><trkpt lat="45.86360846281844" lon="9.417393445847889"><ele>384.0</ele><time>2026-04-10T16:00:10Z</time></trkpt><trkpt lat="45.86375372160804" lon="9.417709606461386"><ele>389.0</ele><time>2026-04-10T16:00:11Z</time></trkpt><trkpt lat="45.86390050084589" lon="9.418029447519643"><ele>394.0</ele><time>2026-04-10T16:00:12Z</time></trkpt><trkpt lat="45.864051525988685" lon="9.418359610835877"><ele>394.0</ele><time>2026-04-10T16:00:13Z</time></trkpt><trkpt lat="45.86419962118093" lon="9.418665256664205"><ele>394.0</ele><time>2026-04-10T16:00:14Z</time></trkpt><trkpt lat="45.86434705223201" lon="9.419006051063176"><ele>393.0</ele><time>2026-04-10T16:00:15Z</time></trkpt><trkpt lat="45.864514826581406" lon="9.419368421463979"><ele>392.0</ele><time>2026-04-10T16:00:16Z</time></trkpt><trkpt lat="45.86466778437895" lon="9.419699769106833"><ele>404.0</ele><time>2026-04-10T16:00:17Z</time></trkpt><trkpt lat="45.86481612989274" lon="9.420019360501742"><ele>416.0</ele><time>2026-04-10T16:00:18Z</time></trkpt><trkpt lat="45.86497499213952" lon="9.420326028175669"><ele>430.0</ele><time>2026-04-10T16:00:19Z</time></trkpt><trkpt lat="45.8658047466006" lon="9.42195442498045"><ele>430.6666666666667</ele><time>2026-04-10T16:00:24Z</time></trkpt><trkpt lat="45.86598318801562" lon="9.422107505648148"><ele>431.33333333333337</ele><time>2026-04-10T16:00:25Z</time></trkpt><trkpt lat="45.86613735623708" lon="9.422313273601718"><ele>432.0</ele><time>2026-04-10T16:00:26Z</time></trkpt><trkpt lat="45.86628833303202" lon="9.422568118528986"><ele>440.0</ele><time>2026-04-10T16:00:27Z</time></trkpt><trkpt lat="45.866485161503554" lon="9.422999657015234"><ele>448.0</ele><time>2026-04-10T16:00:28Z</time></trkpt><trkpt lat="45.866626251632724" lon="9.423289982455268"><ele>448.0</ele><time>2026-04-10T16:00:29Z</time></trkpt><trkpt lat="45.866706558743104" lon="9.423619995507075"><ele>448.0</ele><time>2026-04-10T16:00:30Z</time></trkpt><trkpt lat="45.866784714413264" lon="9.423972707197628"><ele>445.0</ele><time>2026-04-10T16:00:31.074Z</time></trkpt><trkpt lat="45.866888634159594" lon="9.424393669632966"><ele>442.0</ele><time>2026-04-10T16:00:35Z</time></trkpt><trkpt lat="45.866987042028605" lon="9.42468312361428"><ele>442.0</ele><time>2026-04-10T16:00:36Z</time></trkpt><trkpt lat="45.86708924994065" lon="9.424902126301552"><ele>442.0</ele><time>2026-04-10T16:00:37Z</time></trkpt><trkpt lat="45.86719467776774" lon="9.425072906529952"><ele>442.0</ele><time>2026-04-10T16:00:38Z</time></trkpt><trkpt lat="45.86732376501776" lon="9.425256709995702"><ele>442.0</ele><time>2026-04-10T16:00:39Z</time></trkpt><trkpt lat="45.86747119303726" lon="9.42544463425675"><ele>442.0</ele><time>2026-04-10T16:00:40Z</time></trkpt><trkpt lat="45.86764315663724" lon="9.425668974797825"><ele>442.0</ele><time>2026-04-10T16:00:41Z</time></trkpt><trkpt lat="45.867865102744894" lon="9.425881379590438"><ele>449.5</ele><time>2026-04-10T16:00:42Z</time></trkpt><trkpt lat="45.868067992731504" lon="9.426113919465692"><ele>457.0</ele><time>2026-04-10T16:00:43Z</time></trkpt><trkpt lat="45.86829168595934" lon="9.426348568616152"><ele>459.5</ele><time>2026-04-10T16:00:44Z</time></trkpt><trkpt lat="45.8684929803459" lon="9.426570141931752"><ele>462.0</ele><time>2026-04-10T16:00:45Z</time></trkpt><trkpt lat="45.8686888923195" lon="9.426784830944614"><ele>462.0</ele><time>2026-04-10T16:00:46Z</time></trkpt><trkpt lat="45.86887049299713" lon="9.426987835316698"><ele>462.0</ele><time>2026-04-10T16:00:47Z</time></trkpt><trkpt lat="45.86905277485658" lon="9.427190254651316"><ele>462.33333333333337</ele><time>2026-04-10T16:00:48Z</time></trkpt><trkpt lat="45.86921892142065" lon="9.427368354031833"><ele>462.6666666666667</ele><time>2026-04-10T16:00:49Z</time></trkpt><trkpt lat="45.86936813075908" lon="9.427530306714626"><ele>463.0</ele><time>2026-04-10T16:00:50Z</time></trkpt><trkpt lat="45.86950899255142" lon="9.427684510262553"><ele>463.0</ele><time>2026-04-10T16:00:51Z</time></trkpt><trkpt lat="45.86967099176519" lon="9.427812301597221"><ele>463.0</ele><time>2026-04-10T16:00:52Z</time></trkpt><trkpt lat="45.869854795625386" lon="9.427913798807731"><ele>463.0</ele><time>2026-04-10T16:00:53Z</time></trkpt><trkpt lat="45.8700688818663" lon="9.42801937628064"><ele>473.0</ele><time>2026-04-10T16:00:54Z</time></trkpt><trkpt lat="45.870313008430365" lon="9.428115654031963"><ele>483.0</ele><time>2026-04-10T16:00:55Z</time></trkpt><trkpt lat="45.870592343227194" lon="9.428218510735965"><ele>483.0</ele><time>2026-04-10T16:00:56Z</time></trkpt><trkpt lat="45.87089431746749" lon="9.428328281627238"><ele>483.0</ele><time>2026-04-10T16:00:57Z</time></trkpt><trkpt lat="45.871182710921104" lon="9.428442577489287"><ele>478.5</ele><time>2026-04-10T16:00:58Z</time></trkpt><trkpt lat="45.87144811924243" lon="9.428568260761473"><ele>474.0</ele><time>2026-04-10T16:00:59Z</time></trkpt><trkpt lat="45.87169217642169" lon="9.428684926959441"><ele>473.5</ele><time>2026-04-10T16:01:00Z</time></trkpt><trkpt lat="45.87192926141647" lon="9.428794595973795"><ele>473.0</ele><time>2026-04-10T16:01:01Z</time></trkpt><trkpt lat="45.87215267181716" lon="9.428889066657815"><ele>480.66666666666663</ele><time>2026-04-10T16:01:02Z</time></trkpt><trkpt lat="45.8723571476319" lon="9.428971012404439"><ele>488.33333333333337</ele><time>2026-04-10T16:01:03Z</time></trkpt><trkpt lat="45.87256231661028" lon="9.42905147029614"><ele>496.0</ele><time>2026-04-10T16:01:04Z</time></trkpt><trkpt lat="45.87275182440347" lon="9.429127884693496"><ele>496.0</ele><time>2026-04-10T16:01:05Z</time></trkpt><trkpt lat="45.87291695205673" lon="9.429212930014522"><ele>496.0</ele><time>2026-04-10T16:01:06Z</time></trkpt><trkpt lat="45.87306122639975" lon="9.429332341528786"><ele>496.0</ele><time>2026-04-10T16:01:07Z</time></trkpt><trkpt lat="45.87321803579685" lon="9.429498324686795"><ele>493.33333333333337</ele><time>2026-04-10T16:01:08Z</time></trkpt><trkpt lat="45.87335207541783" lon="9.429698825474025"><ele>490.66666666666663</ele><time>2026-04-10T16:01:09Z</time></trkpt><trkpt lat="45.873460533801115" lon="9.429913260843856"><ele>488.0</ele><time>2026-04-10T16:01:10Z</time></trkpt><trkpt lat="45.8735448015185" lon="9.430136315604084"><ele>488.0</ele><time>2026-04-10T16:01:11Z</time></trkpt><trkpt lat="45.873612848984976" lon="9.430363896813839"><ele>488.0</ele><time>2026-04-10T16:01:12Z</time></trkpt><trkpt lat="45.87367608801172" lon="9.4306129763189"><ele>488.0</ele><time>2026-04-10T16:01:13Z</time></trkpt><trkpt lat="45.8737368820544" lon="9.430881435525807"><ele>493.3333333333333</ele><time>2026-04-10T16:01:14Z</time></trkpt><trkpt lat="45.873798492193565" lon="9.431148559310554"><ele>498.66666666666663</ele><time>2026-04-10T16:01:15Z</time></trkpt><trkpt lat="45.87383990582671" lon="9.431374704619838"><ele>504.0</ele><time>2026-04-10T16:01:16Z</time></trkpt><trkpt lat="45.87388530865381" lon="9.431581094008424"><ele>509.0</ele><time>2026-04-10T16:01:17Z</time></trkpt><trkpt lat="45.87393965851123" lon="9.431796253969791"><ele>514.0</ele><time>2026-04-10T16:01:18Z</time></trkpt><trkpt lat="45.87402128352435" lon="9.432023903486531"><ele>519.0</ele><time>2026-04-10T16:01:19Z</time></trkpt><trkpt lat="45.87411077390736" lon="9.432242559663772"><ele>516.3333333333334</ele><time>2026-04-10T16:01:20Z</time></trkpt><trkpt lat="45.8742166988226" lon="9.432448790441958"><ele>513.6666666666667</ele><time>2026-04-10T16:01:21Z</time></trkpt><trkpt lat="45.87433731554153" lon="9.432643680628695"><ele>511.0</ele><time>2026-04-10T16:01:22Z</time></trkpt><trkpt lat="45.87448486019653" lon="9.432855119265662"><ele>516.0</ele><time>2026-04-10T16:01:23Z</time></trkpt><trkpt lat="45.874631268913234" lon="9.433045101169444"><ele>521.0</ele><time>2026-04-10T16:01:24Z</time></trkpt><trkpt lat="45.874783180957735" lon="9.433212010916073"><ele>526.0</ele><time>2026-04-10T16:01:25Z</time></trkpt><trkpt lat="45.87492136909259" lon="9.433343810803049"><ele>526.0</ele><time>2026-04-10T16:01:26Z</time></trkpt><trkpt lat="45.87503676530283" lon="9.4334302616339"><ele>526.0</ele><time>2026-04-10T16:01:27Z</time></trkpt><trkpt lat="45.87514181428364" lon="9.433503978279857"><ele>526.0</ele><time>2026-04-10T16:01:28Z</time></trkpt><trkpt lat="45.87525607780202" lon="9.433571605340447"><ele>526.0</ele><time>2026-04-10T16:01:29Z</time></trkpt><trkpt lat="45.875403803070434" lon="9.433648197480126"><ele>532.0</ele><time>2026-04-10T16:01:30Z</time></trkpt><trkpt lat="45.875558633574094" lon="9.43372123224251"><ele>538.0</ele><time>2026-04-10T16:01:31Z</time></trkpt><trkpt lat="45.87570163810025" lon="9.433785041067084"><ele>544.0</ele><time>2026-04-10T16:01:32Z</time></trkpt><trkpt lat="45.87585133765946" lon="9.433846271579798"><ele>561.6666666666667</ele><time>2026-04-10T16:01:33Z</time></trkpt><trkpt lat="45.875996821653594" lon="9.433907658786007"><ele>579.3333333333334</ele><time>2026-04-10T16:01:33.999Z</time></trkpt><trkpt lat="45.87616071553938" lon="9.433977196199843"><ele>597.0</ele><time>2026-04-10T16:01:34.999Z</time></trkpt><trkpt lat="45.87633830669927" lon="9.434051493489989"><ele>597.0</ele><time>2026-04-10T16:01:36.054Z</time></trkpt><trkpt lat="45.87648958995109" lon="9.434101886119066"><ele>597.0</ele><time>2026-04-10T16:01:37.053Z</time></trkpt><trkpt lat="45.876643388793674" lon="9.434149704934777"><ele>597.0</ele><time>2026-04-10T16:01:38.055Z</time></trkpt><trkpt lat="45.87775414073203" lon="9.433569671011348"><ele>587.3333333333334</ele><time>2026-04-10T16:01:40.999Z</time></trkpt><trkpt lat="45.87797673895981" lon="9.433583821278374"><ele>577.6666666666667</ele><time>2026-04-10T16:01:41.999Z</time></trkpt><trkpt lat="45.878192644685114" lon="9.433556916585673"><ele>568.0</ele><time>2026-04-10T16:01:42.999Z</time></trkpt><trkpt lat="45.878423367376506" lon="9.433570559644778"><ele>580.0</ele><time>2026-04-10T16:01:43.999Z</time></trkpt><trkpt lat="45.87866406415834" lon="9.433560669488914"><ele>592.0</ele><time>2026-04-10T16:01:44.999Z</time></trkpt><trkpt lat="45.87889052411298" lon="9.433553034508796"><ele>592.0</ele><time>2026-04-10T16:01:45.999Z</time></trkpt><trkpt lat="45.8791242496093" lon="9.433552323925161"><ele>592.0</ele><time>2026-04-10T16:01:46.999Z</time></trkpt><trkpt lat="45.87936426165828" lon="9.433568432309404"><ele>603.0</ele><time>2026-04-10T16:01:47.999Z</time></trkpt><trkpt lat="45.87962533144798" lon="9.43357595665209"><ele>614.0</ele><time>2026-04-10T16:01:49.065Z</time></trkpt><trkpt lat="45.87987796473839" lon="9.433578905376319"><ele>634.0</ele><time>2026-04-10T16:01:50.056Z</time></trkpt><trkpt lat="45.88012624971454" lon="9.433561747897793"><ele>654.0</ele><time>2026-04-10T16:01:51.056Z</time></trkpt><trkpt lat="45.88036936683954" lon="9.433550989624138"><ele>654.0</ele><time>2026-04-10T16:01:52.041Z</time></trkpt><trkpt lat="45.88060776705589" lon="9.43354621109707"><ele>654.0</ele><time>2026-04-10T16:01:53.038Z</time></trkpt><trkpt lat="45.89526431936991" lon="9.426412617185516"><ele>658.6666666666666</ele><time>2026-04-10T16:02:59.999Z</time></trkpt><trkpt lat="45.895448725016564" lon="9.426291307298053"><ele>663.3333333333333</ele><time>2026-04-10T16:03:00.999Z</time></trkpt><trkpt lat="45.89553742419536" lon="9.426120813521559"><ele>668.0</ele><time>2026-04-10T16:03:01.999Z</time></trkpt><trkpt lat="45.895670316414524" lon="9.426001865413955"><ele>668.0</ele><time>2026-04-10T16:03:02.999Z</time></trkpt><trkpt lat="45.89579688716915" lon="9.425880980475192"><ele>668.0</ele><time>2026-04-10T16:03:03.999Z</time></trkpt><trkpt lat="45.89590111914838" lon="9.425770749149402"><ele>668.0</ele><time>2026-04-10T16:03:04.999Z</time></trkpt><trkpt lat="45.89599506172743" lon="9.425695184552817"><ele>668.0</ele><time>2026-04-10T16:03:06Z</time></trkpt><trkpt lat="45.89607242944391" lon="9.425651964108138"><ele>669.5999999999999</ele><time>2026-04-10T16:03:07Z</time></trkpt><trkpt lat="45.89616125279584" lon="9.425640341509622"><ele>671.1999999999999</ele><time>2026-04-10T16:03:08Z</time></trkpt><trkpt lat="45.896258166157786" lon="9.42563921756309"><ele>672.8</ele><time>2026-04-10T16:03:09Z</time></trkpt><trkpt lat="45.89634838707285" lon="9.425595097401372"><ele>674.4</ele><time>2026-04-10T16:03:10Z</time></trkpt><trkpt lat="45.896408663639086" lon="9.425502076971654"><ele>676.0</ele><time>2026-04-10T16:03:11Z</time></trkpt><trkpt lat="45.8964502512084" lon="9.425362312900004"><ele>676.0</ele><time>2026-04-10T16:03:12Z</time></trkpt><trkpt lat="45.89649020584905" lon="9.425246287016295"><ele>676.0</ele><time>2026-04-10T16:03:13Z</time></trkpt><trkpt lat="45.896564273270094" lon="9.425195477317567"><ele>676.0</ele><time>2026-04-10T16:03:14Z</time></trkpt><trkpt lat="45.89668267621797" lon="9.425220334879324"><ele>676.0</ele><time>2026-04-10T16:03:15Z</time></trkpt><trkpt lat="45.89682051406687" lon="9.425232402853633"><ele>676.0</ele><time>2026-04-10T16:03:16Z</time></trkpt><trkpt lat="45.89696151139494" lon="9.425259542029778"><ele>677.0</ele><time>2026-04-10T16:03:17Z</time></trkpt><trkpt lat="45.89708919686213" lon="9.425299469897784"><ele>678.0</ele><time>2026-04-10T16:03:18Z</time></trkpt><trkpt lat="45.89722739225872" lon="9.425366696829107"><ele>679.0</ele><time>2026-04-10T16:03:19Z</time></trkpt><trkpt lat="45.89737471724277" lon="9.42545031073275"><ele>680.0</ele><time>2026-04-10T16:03:20Z</time></trkpt><trkpt lat="45.89752152274245" lon="9.425536172070364"><ele>681.75</ele><time>2026-04-10T16:03:21Z</time></trkpt><trkpt lat="45.89764063595828" lon="9.425605837162827"><ele>683.5</ele><time>2026-04-10T16:03:22Z</time></trkpt><trkpt lat="45.897734101332674" lon="9.4256602674183"><ele>685.25</ele><time>2026-04-10T16:03:23Z</time></trkpt><trkpt lat="45.89785314120335" lon="9.42572956485035"><ele>687.0</ele><time>2026-04-10T16:03:24Z</time></trkpt><trkpt lat="45.89797546351188" lon="9.425776671148869"><ele>687.0</ele><time>2026-04-10T16:03:25Z</time></trkpt><trkpt lat="45.89806085880659" lon="9.425850099243203"><ele>687.0</ele><time>2026-04-10T16:03:26Z</time></trkpt><trkpt lat="45.89814529326347" lon="9.425898899330118"><ele>687.0</ele><time>2026-04-10T16:03:27Z</time></trkpt><trkpt lat="45.89823739423161" lon="9.425952130421491"><ele>687.0</ele><time>2026-04-10T16:03:28Z</time></trkpt><trkpt lat="45.89832255113772" lon="9.426002594542586"><ele>687.0</ele><time>2026-04-10T16:03:29Z</time></trkpt><trkpt lat="45.89840796808036" lon="9.426053121788424"><ele>688.0</ele><time>2026-04-10T16:03:30Z</time></trkpt><trkpt lat="45.898530973486395" lon="9.426125883981246"><ele>689.0</ele><time>2026-04-10T16:03:31Z</time></trkpt><trkpt lat="45.89867232074512" lon="9.426208714842407"><ele>690.0</ele><time>2026-04-10T16:03:32Z</time></trkpt><trkpt lat="45.89882455520291" lon="9.426297192583469"><ele>691.0</ele><time>2026-04-10T16:03:33Z</time></trkpt><trkpt lat="45.89897349238974" lon="9.4263710019064"><ele>692.0</ele><time>2026-04-10T16:03:34Z</time></trkpt><trkpt lat="45.89914750338708" lon="9.426432449768587"><ele>693.0</ele><time>2026-04-10T16:03:35Z</time></trkpt><trkpt lat="45.89930571758926" lon="9.426476758063977"><ele>694.0</ele><time>2026-04-10T16:03:36Z</time></trkpt><trkpt lat="45.89943468226771" lon="9.426510764858058"><ele>695.0</ele><time>2026-04-10T16:03:37Z</time></trkpt><trkpt lat="45.89952844806803" lon="9.426536366495721"><ele>696.0</ele><time>2026-04-10T16:03:38Z</time></trkpt><trkpt lat="45.899618364783294" lon="9.426560726949418"><ele>697.0</ele><time>2026-04-10T16:03:39Z</time></trkpt><trkpt lat="45.89970219071774" lon="9.42658343729869"><ele>698.0</ele><time>2026-04-10T16:03:40Z</time></trkpt><trkpt lat="45.89978449201674" lon="9.426605736521477"><ele>698.0</ele><time>2026-04-10T16:03:41Z</time></trkpt><trkpt lat="45.89987041184523" lon="9.426607487923318"><ele>698.0</ele><time>2026-04-10T16:03:42Z</time></trkpt><trkpt lat="45.89997515544645" lon="9.426657391522248"><ele>698.0</ele><time>2026-04-10T16:03:43Z</time></trkpt><trkpt lat="45.90009840510322" lon="9.426692537786334"><ele>698.0</ele><time>2026-04-10T16:03:44Z</time></trkpt><trkpt lat="45.9002018053242" lon="9.426722247530979"><ele>698.0</ele><time>2026-04-10T16:03:45Z</time></trkpt><trkpt lat="45.90028085441751" lon="9.426744960520782"><ele>698.75</ele><time>2026-04-10T16:03:46Z</time></trkpt><trkpt lat="45.90035748263197" lon="9.42676697792897"><ele>699.5</ele><time>2026-04-10T16:03:47Z</time></trkpt><trkpt lat="45.90046329318307" lon="9.42679738022705"><ele>700.25</ele><time>2026-04-10T16:03:48Z</time></trkpt><trkpt lat="45.900599095431105" lon="9.42683639996461"><ele>701.0</ele><time>2026-04-10T16:03:49Z</time></trkpt><trkpt lat="45.900751904184304" lon="9.426881613752737"><ele>701.0</ele><time>2026-04-10T16:03:50Z</time></trkpt><trkpt lat="45.900879772893816" lon="9.426919408713669"><ele>701.0</ele><time>2026-04-10T16:03:51Z</time></trkpt><trkpt lat="45.9009925567387" lon="9.426952744942149"><ele>701.0</ele><time>2026-04-10T16:03:52Z</time></trkpt><trkpt lat="45.90111055293423" lon="9.426987621823075"><ele>701.0</ele><time>2026-04-10T16:03:53Z</time></trkpt><trkpt lat="45.90122927715191" lon="9.427022713890784"><ele>701.0</ele><time>2026-04-10T16:03:54Z</time></trkpt><trkpt lat="45.9013283419613" lon="9.427051897256288"><ele>701.0</ele><time>2026-04-10T16:03:55Z</time></trkpt><trkpt lat="45.90141540603889" lon="9.427077527068526"><ele>701.0</ele><time>2026-04-10T16:03:56Z</time></trkpt><trkpt lat="45.901519780480236" lon="9.427108252680378"><ele>701.0</ele><time>2026-04-10T16:03:57Z</time></trkpt><trkpt lat="45.90163439531352" lon="9.427141992849034"><ele>701.0</ele><time>2026-04-10T16:03:58Z</time></trkpt><trkpt lat="45.901762019565865" lon="9.427179562714693"><ele>700.0</ele><time>2026-04-10T16:03:59Z</time></trkpt><trkpt lat="45.90191775767966" lon="9.427225408698044"><ele>699.0</ele><time>2026-04-10T16:04:00Z</time></trkpt><trkpt lat="45.90209841081662" lon="9.427259996945303"><ele>698.0</ele><time>2026-04-10T16:04:01Z</time></trkpt><trkpt lat="45.90229395944404" lon="9.427322546084165"><ele>698.0</ele><time>2026-04-10T16:04:02Z</time></trkpt><trkpt lat="45.90246474119452" lon="9.427373050873618"><ele>698.0</ele><time>2026-04-10T16:04:03Z</time></trkpt><trkpt lat="45.90262675460378" lon="9.42741902142804"><ele>698.0</ele><time>2026-04-10T16:04:04Z</time></trkpt><trkpt lat="45.902775375821456" lon="9.427470626332523"><ele>697.3333333333333</ele><time>2026-04-10T16:04:05Z</time></trkpt><trkpt lat="45.9029256513187" lon="9.42756117802823"><ele>696.6666666666666</ele><time>2026-04-10T16:04:06Z</time></trkpt><trkpt lat="45.9030804690757" lon="9.427638572214372"><ele>696.0</ele><time>2026-04-10T16:04:07Z</time></trkpt><trkpt lat="45.90323473308274" lon="9.42772265748863"><ele>696.0</ele><time>2026-04-10T16:04:08Z</time></trkpt><trkpt lat="45.90338514051755" lon="9.427807032395243"><ele>696.0</ele><time>2026-04-10T16:04:09Z</time></trkpt><trkpt lat="45.903554242735595" lon="9.427901814112248"><ele>696.0</ele><time>2026-04-10T16:04:10Z</time></trkpt><trkpt lat="45.903721125014364" lon="9.427995295457222"><ele>695.3333333333334</ele><time>2026-04-10T16:04:11Z</time></trkpt><trkpt lat="45.903898128972095" lon="9.428094700826104"><ele>694.6666666666667</ele><time>2026-04-10T16:04:12Z</time></trkpt><trkpt lat="45.90410074335843" lon="9.42819158471408"><ele>694.0</ele><time>2026-04-10T16:04:13Z</time></trkpt><trkpt lat="45.90430721938792" lon="9.428306762317494"><ele>692.3333333333334</ele><time>2026-04-10T16:04:14Z</time></trkpt><trkpt lat="45.90449487495751" lon="9.428430387991115"><ele>690.6666666666666</ele><time>2026-04-10T16:04:15Z</time></trkpt><trkpt lat="45.90468296608457" lon="9.42853646023295"><ele>689.0</ele><time>2026-04-10T16:04:16Z</time></trkpt><trkpt lat="45.90486962948544" lon="9.428641725543851"><ele>689.0</ele><time>2026-04-10T16:04:17Z</time></trkpt><trkpt lat="45.90504703463275" lon="9.428741769710754"><ele>689.0</ele><time>2026-04-10T16:04:18Z</time></trkpt><trkpt lat="45.9052285802645" lon="9.42884267171684"><ele>689.0</ele><time>2026-04-10T16:04:19Z</time></trkpt><trkpt lat="45.90542532068496" lon="9.42895279983179"><ele>688.0</ele><time>2026-04-10T16:04:20Z</time></trkpt><trkpt lat="45.90563916039106" lon="9.429071374914495"><ele>687.0</ele><time>2026-04-10T16:04:21Z</time></trkpt><trkpt lat="45.90586411593351" lon="9.429175791846717"><ele>691.0</ele><time>2026-04-10T16:04:22Z</time></trkpt><trkpt lat="45.906091215366935" lon="9.42931641436078"><ele>695.0</ele><time>2026-04-10T16:04:23Z</time></trkpt><trkpt lat="45.906330958759185" lon="9.429448050717625"><ele>695.0</ele><time>2026-04-10T16:04:24Z</time></trkpt><trkpt lat="45.90657333091407" lon="9.429578364017763"><ele>695.0</ele><time>2026-04-10T16:04:25Z</time></trkpt><trkpt lat="45.906804013667255" lon="9.429710871044113"><ele>695.0</ele><time>2026-04-10T16:04:26Z</time></trkpt><trkpt lat="45.90702836652211" lon="9.429838641415282"><ele>695.0</ele><time>2026-04-10T16:04:27Z</time></trkpt><trkpt lat="45.90724195759728" lon="9.429959603703525"><ele>695.0</ele><time>2026-04-10T16:04:28Z</time></trkpt><trkpt lat="45.907458576123815" lon="9.430078620083336"><ele>695.0</ele><time>2026-04-10T16:04:28.999Z</time></trkpt><trkpt lat="45.907692965837036" lon="9.430190663456907"><ele>703.5</ele><time>2026-04-10T16:04:29.999Z</time></trkpt><trkpt lat="45.907936134289706" lon="9.430284593706268"><ele>712.0</ele><time>2026-04-10T16:04:30.999Z</time></trkpt><trkpt lat="45.90816560074716" lon="9.430355937046857"><ele>712.0</ele><time>2026-04-10T16:04:31.999Z</time></trkpt><trkpt lat="45.90836459711744" lon="9.430415236644235"><ele>712.0</ele><time>2026-04-10T16:04:32.999Z</time></trkpt><trkpt lat="45.90854554328385" lon="9.430487687156319"><ele>712.0</ele><time>2026-04-10T16:04:33.999Z</time></trkpt><trkpt lat="45.9087252993729" lon="9.430549079644313"><ele>708.3333333333334</ele><time>2026-04-10T16:04:34.999Z</time></trkpt><trkpt lat="45.90889585904736" lon="9.430579264677517"><ele>704.6666666666666</ele><time>2026-04-10T16:04:35.999Z</time></trkpt><trkpt lat="45.90907926223767" lon="9.430658046691086"><ele>701.0</ele><time>2026-04-10T16:04:36.999Z</time></trkpt><trkpt lat="45.90927375838712" lon="9.430724906492195"><ele>701.0</ele><time>2026-04-10T16:04:37.999Z</time></trkpt><trkpt lat="45.90949742230434" lon="9.430782003313462"><ele>701.0</ele><time>2026-04-10T16:04:38.999Z</time></trkpt><trkpt lat="45.90970574471412" lon="9.430875309327172"><ele>701.0</ele><time>2026-04-10T16:04:39.999Z</time></trkpt><trkpt lat="45.90990281660069" lon="9.430940270014437"><ele>702.0</ele><time>2026-04-10T16:04:40.999Z</time></trkpt><trkpt lat="45.910101605148654" lon="9.431005796804243"><ele>703.0</ele><time>2026-04-10T16:04:41.999Z</time></trkpt><trkpt lat="45.91030345662394" lon="9.431071638502832"><ele>704.0</ele><time>2026-04-10T16:04:42.999Z</time></trkpt><trkpt lat="45.91051337078246" lon="9.431140092999943"><ele>704.0</ele><time>2026-04-10T16:04:43.999Z</time></trkpt><trkpt lat="45.910726215260944" lon="9.431187145850828"><ele>704.0</ele><time>2026-04-10T16:04:44.999Z</time></trkpt><trkpt lat="45.910950252345266" lon="9.431263375882429"><ele>704.0</ele><time>2026-04-10T16:04:45.999Z</time></trkpt><trkpt lat="45.91116454515555" lon="9.431371571417252"><ele>698.0</ele><time>2026-04-10T16:04:46.999Z</time></trkpt><trkpt lat="45.91138665640711" lon="9.431473849551612"><ele>692.0</ele><time>2026-04-10T16:04:47.999Z</time></trkpt><trkpt lat="45.911595024613696" lon="9.431591789730213"><ele>697.0</ele><time>2026-04-10T16:04:48.999Z</time></trkpt><trkpt lat="45.91179783160923" lon="9.431698585181872"><ele>702.0</ele><time>2026-04-10T16:04:49.999Z</time></trkpt><trkpt lat="45.912000855205946" lon="9.431837815682314"><ele>707.0</ele><time>2026-04-10T16:04:50.999Z</time></trkpt><trkpt lat="45.91221397848876" lon="9.431977828439553"><ele>707.0</ele><time>2026-04-10T16:04:51.999Z</time></trkpt><trkpt lat="45.91243931943617" lon="9.43212379080465"><ele>707.0</ele><time>2026-04-10T16:04:52.999Z</time></trkpt><trkpt lat="45.912665595815405" lon="9.43227477375169"><ele>702.0</ele><time>2026-04-10T16:04:53.999Z</time></trkpt><trkpt lat="45.912890942754466" lon="9.432428392125033"><ele>697.0</ele><time>2026-04-10T16:04:54.999Z</time></trkpt><trkpt lat="45.91312126931075" lon="9.432582207792526"><ele>697.0</ele><time>2026-04-10T16:04:55.999Z</time></trkpt><trkpt lat="45.913340275085396" lon="9.432730539934017"><ele>697.0</ele><time>2026-04-10T16:04:56.999Z</time></trkpt><trkpt lat="45.91354979538242" lon="9.432873133213453"><ele>693.5</ele><time>2026-04-10T16:04:57.999Z</time></trkpt><trkpt lat="45.91375665969355" lon="9.433015848683457"><ele>690.0</ele><time>2026-04-10T16:04:58.999Z</time></trkpt><trkpt lat="45.91395921333165" lon="9.43316123867683"><ele>690.0</ele><time>2026-04-10T16:04:59.999Z</time></trkpt><trkpt lat="45.91417083228481" lon="9.433319823399774"><ele>690.0</ele><time>2026-04-10T16:05:00.999Z</time></trkpt><trkpt lat="45.914383724092005" lon="9.43348173657962"><ele>701.0</ele><time>2026-04-10T16:05:01.999Z</time></trkpt><trkpt lat="45.914589003799385" lon="9.433636215234102"><ele>712.0</ele><time>2026-04-10T16:05:02.999Z</time></trkpt><trkpt lat="45.91478554644187" lon="9.43378773434241"><ele>706.5</ele><time>2026-04-10T16:05:03.999Z</time></trkpt><trkpt lat="45.91498818931604" lon="9.433947536749713"><ele>701.0</ele><time>2026-04-10T16:05:04.999Z</time></trkpt><trkpt lat="45.91521392310776" lon="9.434122625163008"><ele>714.5</ele><time>2026-04-10T16:05:05.999Z</time></trkpt><trkpt lat="45.91546406540657" lon="9.4343147484638"><ele>728.0</ele><time>2026-04-10T16:05:06.999Z</time></trkpt><trkpt lat="45.91570727174033" lon="9.434509991651318"><ele>722.0</ele><time>2026-04-10T16:05:07.999Z</time></trkpt><trkpt lat="45.91594566765277" lon="9.434709729838723"><ele>716.0</ele><time>2026-04-10T16:05:08.999Z</time></trkpt><trkpt lat="45.91618921148353" lon="9.434906491272741"><ele>716.0</ele><time>2026-04-10T16:05:09.999Z</time></trkpt><trkpt lat="45.91642200152405" lon="9.435084812364904"><ele>716.0</ele><time>2026-04-10T16:05:11Z</time></trkpt><trkpt lat="45.91665022177476" lon="9.435258142864031"><ele>714.5</ele><time>2026-04-10T16:05:12Z</time></trkpt><trkpt lat="45.916866747280615" lon="9.43542898995107"><ele>713.0</ele><time>2026-04-10T16:05:13Z</time></trkpt><trkpt lat="45.91707486006779" lon="9.435595990896758"><ele>713.0</ele><time>2026-04-10T16:05:14Z</time></trkpt><trkpt lat="45.91727037726134" lon="9.435751614028812"><ele>713.0</ele><time>2026-04-10T16:05:15Z</time></trkpt><trkpt lat="45.91744632289264" lon="9.435891769908979"><ele>713.0</ele><time>2026-04-10T16:05:16Z</time></trkpt><trkpt lat="45.91762195064436" lon="9.436032735835731"><ele>715.3333333333333</ele><time>2026-04-10T16:05:17Z</time></trkpt><trkpt lat="45.917786501291125" lon="9.436166897657587"><ele>717.6666666666666</ele><time>2026-04-10T16:05:18Z</time></trkpt><trkpt lat="45.91794881490878" lon="9.436293081819949"><ele>720.0</ele><time>2026-04-10T16:05:19Z</time></trkpt><trkpt lat="45.9181168091173" lon="9.43642241106888"><ele>720.0</ele><time>2026-04-10T16:05:20Z</time></trkpt><trkpt lat="45.91828173932093" lon="9.436551240201172"><ele>720.0</ele><time>2026-04-10T16:05:21Z</time></trkpt><trkpt lat="45.91846413834742" lon="9.436681495053351"><ele>720.0</ele><time>2026-04-10T16:05:22Z</time></trkpt><trkpt lat="45.918661461969705" lon="9.436836203417954"><ele>721.5</ele><time>2026-04-10T16:05:23Z</time></trkpt><trkpt lat="45.91887013269617" lon="9.436993166789067"><ele>723.0</ele><time>2026-04-10T16:05:24Z</time></trkpt><trkpt lat="45.91908631449237" lon="9.437161371637425"><ele>725.0</ele><time>2026-04-10T16:05:25Z</time></trkpt><trkpt lat="45.91929977005205" lon="9.437330525975728"><ele>727.0</ele><time>2026-04-10T16:05:26Z</time></trkpt><trkpt lat="45.91949289222201" lon="9.4374886852224"><ele>727.0</ele><time>2026-04-10T16:05:27Z</time></trkpt><trkpt lat="45.919667859867666" lon="9.437632382219787"><ele>727.0</ele><time>2026-04-10T16:05:28Z</time></trkpt><trkpt lat="45.919834477393344" lon="9.437778663045584"><ele>727.0</ele><time>2026-04-10T16:05:29Z</time></trkpt><trkpt lat="45.920000910234954" lon="9.437947294177489"><ele>728.0</ele><time>2026-04-10T16:05:30Z</time></trkpt><trkpt lat="45.92014769712149" lon="9.438112058836857"><ele>729.0</ele><time>2026-04-10T16:05:31Z</time></trkpt><trkpt lat="45.920273968916504" lon="9.438265452794525"><ele>730.0</ele><time>2026-04-10T16:05:32Z</time></trkpt><trkpt lat="45.92038592414311" lon="9.438406116345563"><ele>730.0</ele><time>2026-04-10T16:05:33Z</time></trkpt><trkpt lat="45.920490231273654" lon="9.438536396228281"><ele>730.0</ele><time>2026-04-10T16:05:34Z</time></trkpt><trkpt lat="45.92056642778706" lon="9.438632770166508"><ele>730.0</ele><time>2026-04-10T16:05:35Z</time></trkpt><trkpt lat="45.920625997630324" lon="9.438704234490382"><ele>730.0</ele><time>2026-04-10T16:05:36Z</time></trkpt><trkpt lat="45.92069737617322" lon="9.438789562580169"><ele>730.0</ele><time>2026-04-10T16:05:38Z</time></trkpt><trkpt lat="45.920747412333554" lon="9.438855533220037"><ele>730.4</ele><time>2026-04-10T16:05:39Z</time></trkpt><trkpt lat="45.920799480428364" lon="9.438922500923443"><ele>730.8</ele><time>2026-04-10T16:05:40Z</time></trkpt><trkpt lat="45.920879179005446" lon="9.439073333827567"><ele>731.2</ele><time>2026-04-10T16:05:42Z</time></trkpt><trkpt lat="45.92092856553806" lon="9.439201580802816"><ele>731.6</ele><time>2026-04-10T16:05:43Z</time></trkpt><trkpt lat="45.9209575468199" lon="9.439328490818792"><ele>732.0</ele><time>2026-04-10T16:05:44Z</time></trkpt><trkpt lat="45.92099372161228" lon="9.439418072940443"><ele>730.5</ele><time>2026-04-10T16:05:45Z</time></trkpt><trkpt lat="45.92106099927366" lon="9.439462432126618"><ele>729.0</ele><time>2026-04-10T16:05:46Z</time></trkpt><trkpt lat="45.92116622138715" lon="9.439498214157611"><ele>727.5</ele><time>2026-04-10T16:05:47Z</time></trkpt><trkpt lat="45.921288657960886" lon="9.439574782379157"><ele>726.0</ele><time>2026-04-10T16:05:48Z</time></trkpt><trkpt lat="45.92141767397954" lon="9.439694343681063"><ele>726.0</ele><time>2026-04-10T16:05:49Z</time></trkpt><trkpt lat="45.92155775889275" lon="9.439861821394455"><ele>726.0</ele><time>2026-04-10T16:05:50Z</time></trkpt><trkpt lat="45.92168111808146" lon="9.440021993462118"><ele>726.0</ele><time>2026-04-10T16:05:51Z</time></trkpt><trkpt lat="45.921799755211545" lon="9.440182609622298"><ele>722.3333333333334</ele><time>2026-04-10T16:05:52Z</time></trkpt><trkpt lat="45.92191170005415" lon="9.440331175864522"><ele>718.6666666666667</ele><time>2026-04-10T16:05:53Z</time></trkpt><trkpt lat="45.92203303370512" lon="9.440497513452955"><ele>715.0</ele><time>2026-04-10T16:05:54Z</time></trkpt><trkpt lat="45.92213642246437" lon="9.4406719230044"><ele>715.0</ele><time>2026-04-10T16:05:55Z</time></trkpt><trkpt lat="45.92223144639475" lon="9.440858601826259"><ele>715.0</ele><time>2026-04-10T16:05:56Z</time></trkpt><trkpt lat="45.92232894486715" lon="9.441068183456062"><ele>715.0</ele><time>2026-04-10T16:05:57Z</time></trkpt><trkpt lat="45.92240807121323" lon="9.441264053093116"><ele>714.0</ele><time>2026-04-10T16:05:58Z</time></trkpt><trkpt lat="45.922505876180665" lon="9.441517757723817"><ele>713.0</ele><time>2026-04-10T16:05:59Z</time></trkpt><trkpt lat="45.9225975938667" lon="9.441778462736778"><ele>712.0</ele><time>2026-04-10T16:06:00Z</time></trkpt><trkpt lat="45.922695521719305" lon="9.442051425519045"><ele>708.3333333333334</ele><time>2026-04-10T16:06:01Z</time></trkpt><trkpt lat="45.92279175996415" lon="9.442300162521843"><ele>704.6666666666666</ele><time>2026-04-10T16:06:02Z</time></trkpt><trkpt lat="45.922872996177034" lon="9.442537239959105"><ele>701.0</ele><time>2026-04-10T16:06:03Z</time></trkpt><trkpt lat="45.92295031655358" lon="9.44276858246962"><ele>703.0</ele><time>2026-04-10T16:06:04Z</time></trkpt><trkpt lat="45.923016126726345" lon="9.442995194240886"><ele>705.0</ele><time>2026-04-10T16:06:05Z</time></trkpt><trkpt lat="45.923090937398634" lon="9.443195201193959"><ele>707.0</ele><time>2026-04-10T16:06:06Z</time></trkpt><trkpt lat="45.92315812986018" lon="9.443368031305402"><ele>707.0</ele><time>2026-04-10T16:06:07Z</time></trkpt><trkpt lat="45.9232279649244" lon="9.443534176815978"><ele>707.0</ele><time>2026-04-10T16:06:08Z</time></trkpt><trkpt lat="45.92332311481397" lon="9.44367278808478"><ele>707.0</ele><time>2026-04-10T16:06:09Z</time></trkpt><trkpt lat="45.92341912430318" lon="9.443807710514784"><ele>707.0</ele><time>2026-04-10T16:06:10Z</time></trkpt><trkpt lat="45.92353073230033" lon="9.443931215698834"><ele>702.3333333333333</ele><time>2026-04-10T16:06:11Z</time></trkpt><trkpt lat="45.92364672105387" lon="9.444048848751187"><ele>697.6666666666666</ele><time>2026-04-10T16:06:12Z</time></trkpt><trkpt lat="45.92378612284446" lon="9.444218474391098"><ele>693.0</ele><time>2026-04-10T16:06:13Z</time></trkpt><trkpt lat="45.923934760646524" lon="9.444372829039372"><ele>693.0</ele><time>2026-04-10T16:06:14Z</time></trkpt><trkpt lat="45.924064932434334" lon="9.444509692677101"><ele>693.0</ele><time>2026-04-10T16:06:15Z</time></trkpt><trkpt lat="45.92419947760155" lon="9.44465206998479"><ele>693.0</ele><time>2026-04-10T16:06:16Z</time></trkpt><trkpt lat="45.92431409298657" lon="9.444780593683403"><ele>691.75</ele><time>2026-04-10T16:06:17Z</time></trkpt><trkpt lat="45.924409149755" lon="9.444898063660826"><ele>690.5</ele><time>2026-04-10T16:06:18Z</time></trkpt><trkpt lat="45.92449659410935" lon="9.445010698109265"><ele>689.25</ele><time>2026-04-10T16:06:19Z</time></trkpt><trkpt lat="45.92458382763812" lon="9.44509705163256"><ele>688.0</ele><time>2026-04-10T16:06:20Z</time></trkpt><trkpt lat="45.924662413971724" lon="9.445198197085862"><ele>688.0</ele><time>2026-04-10T16:06:21Z</time></trkpt><trkpt lat="45.92475197696827" lon="9.445297225774572"><ele>688.0</ele><time>2026-04-10T16:06:22Z</time></trkpt><trkpt lat="45.92485352216805" lon="9.445377963389896"><ele>688.0</ele><time>2026-04-10T16:06:23Z</time></trkpt><trkpt lat="45.924959014491066" lon="9.445439597428702"><ele>688.0</ele><time>2026-04-10T16:06:24Z</time></trkpt><trkpt lat="45.92505448176182" lon="9.445518422627746"><ele>687.25</ele><time>2026-04-10T16:06:25Z</time></trkpt><trkpt lat="45.92515522344521" lon="9.445557578871727"><ele>686.5</ele><time>2026-04-10T16:06:26Z</time></trkpt><trkpt lat="45.925235966407975" lon="9.445645823006771"><ele>685.75</ele><time>2026-04-10T16:06:27Z</time></trkpt><trkpt lat="45.92532504890083" lon="9.445736200077956"><ele>685.0</ele><time>2026-04-10T16:06:28Z</time></trkpt><trkpt lat="45.92543607001831" lon="9.445869288989979"><ele>685.0</ele><time>2026-04-10T16:06:29Z</time></trkpt><trkpt lat="45.92555194433273" lon="9.446015584803229"><ele>685.0</ele><time>2026-04-10T16:06:30Z</time></trkpt><trkpt lat="45.92566053956443" lon="9.44615080615846"><ele>685.0</ele><time>2026-04-10T16:06:31Z</time></trkpt><trkpt lat="45.9257651744482" lon="9.44624998770414"><ele>685.0</ele><time>2026-04-10T16:06:32Z</time></trkpt><trkpt lat="45.925860322685395" lon="9.446376650685654"><ele>685.0</ele><time>2026-04-10T16:06:33Z</time></trkpt><trkpt lat="45.9259551266077" lon="9.44649582290125"><ele>685.0</ele><time>2026-04-10T16:06:33.999Z</time></trkpt><trkpt lat="45.926043046446544" lon="9.446607809497737"><ele>685.0</ele><time>2026-04-10T16:06:34.999Z</time></trkpt><trkpt lat="45.92612640565414" lon="9.446719982364925"><ele>685.0</ele><time>2026-04-10T16:06:35.999Z</time></trkpt><trkpt lat="45.92620874356233" lon="9.446837921936686"><ele>685.0</ele><time>2026-04-10T16:06:36.999Z</time></trkpt><trkpt lat="45.92629267637459" lon="9.44697422987654"><ele>685.0</ele><time>2026-04-10T16:06:37.999Z</time></trkpt><trkpt lat="45.926354823673506" lon="9.447126043795649"><ele>685.0</ele><time>2026-04-10T16:06:38.999Z</time></trkpt><trkpt lat="45.92643550908912" lon="9.447276968914027"><ele>685.0</ele><time>2026-04-10T16:06:39.999Z</time></trkpt><trkpt lat="45.9265299139795" lon="9.447457994897148"><ele>685.25</ele><time>2026-04-10T16:06:40.999Z</time></trkpt><trkpt lat="45.92662254197584" lon="9.447635998167364"><ele>685.5</ele><time>2026-04-10T16:06:41.999Z</time></trkpt><trkpt lat="45.92670920130502" lon="9.447803619333204"><ele>685.75</ele><time>2026-04-10T16:06:42.999Z</time></trkpt><trkpt lat="45.926783317282954" lon="9.447946978494178"><ele>686.0</ele><time>2026-04-10T16:06:43.999Z</time></trkpt><trkpt lat="45.92685638900248" lon="9.448093227031576"><ele>684.5</ele><time>2026-04-10T16:06:44.999Z</time></trkpt><trkpt lat="45.92692844839613" lon="9.448237254440604"><ele>683.0</ele><time>2026-04-10T16:06:45.999Z</time></trkpt><trkpt lat="45.92700281265924" lon="9.44837750476594"><ele>681.5</ele><time>2026-04-10T16:06:46.999Z</time></trkpt><trkpt lat="45.927078499121556" lon="9.448510500337278"><ele>680.0</ele><time>2026-04-10T16:06:47.999Z</time></trkpt><trkpt lat="45.92716179907594" lon="9.448639222661958"><ele>680.0</ele><time>2026-04-10T16:06:48.999Z</time></trkpt><trkpt lat="45.92725055541845" lon="9.44875659761342"><ele>680.0</ele><time>2026-04-10T16:06:49.999Z</time></trkpt><trkpt lat="45.92735388355484" lon="9.448866704290312"><ele>680.0</ele><time>2026-04-10T16:06:50.999Z</time></trkpt><trkpt lat="45.92745823460814" lon="9.44894755111365"><ele>680.0</ele><time>2026-04-10T16:06:51.999Z</time></trkpt><trkpt lat="45.927582041573366" lon="9.448991615644898"><ele>676.4</ele><time>2026-04-10T16:06:52.999Z</time></trkpt><trkpt lat="45.92769407114374" lon="9.449063942233211"><ele>672.8</ele><time>2026-04-10T16:06:53.999Z</time></trkpt><trkpt lat="45.9278050423084" lon="9.449101138098262"><ele>669.2</ele><time>2026-04-10T16:06:54.999Z</time></trkpt><trkpt lat="45.927911901120176" lon="9.449117979458036"><ele>665.6</ele><time>2026-04-10T16:06:55.999Z</time></trkpt><trkpt lat="45.92801415292015" lon="9.44910237867031"><ele>662.0</ele><time>2026-04-10T16:06:56.999Z</time></trkpt><trkpt lat="45.9281161274981" lon="9.44910446916222"><ele>662.0</ele><time>2026-04-10T16:06:57.999Z</time></trkpt><trkpt lat="45.928212165709695" lon="9.449103143678794"><ele>662.0</ele><time>2026-04-10T16:06:58.999Z</time></trkpt><trkpt lat="45.92831177981081" lon="9.449097278805915"><ele>662.0</ele><time>2026-04-10T16:06:59.999Z</time></trkpt><trkpt lat="45.92842933551466" lon="9.449091511250929"><ele>662.0</ele><time>2026-04-10T16:07:00.999Z</time></trkpt><trkpt lat="45.928558529287116" lon="9.44908609685858"><ele>662.0</ele><time>2026-04-10T16:07:01.999Z</time></trkpt><trkpt lat="45.92867884657304" lon="9.449082616276291"><ele>662.4000000000001</ele><time>2026-04-10T16:07:02.999Z</time></trkpt><trkpt lat="45.928796638284126" lon="9.449079635712941"><ele>662.8000000000001</ele><time>2026-04-10T16:07:03.999Z</time></trkpt><trkpt lat="45.92890837319921" lon="9.449073757915947"><ele>663.2</ele><time>2026-04-10T16:07:04.999Z</time></trkpt><trkpt lat="45.92901661083086" lon="9.449067776663593"><ele>663.6</ele><time>2026-04-10T16:07:05.999Z</time></trkpt><trkpt lat="45.929124291608616" lon="9.449067868342443"><ele>664.0</ele><time>2026-04-10T16:07:06.999Z</time></trkpt><trkpt lat="45.92924532588576" lon="9.4490649881871"><ele>663.0</ele><time>2026-04-10T16:07:07.999Z</time></trkpt><trkpt lat="45.92935631779226" lon="9.449073914547242"><ele>662.0</ele><time>2026-04-10T16:07:08.999Z</time></trkpt><trkpt lat="45.92947137548005" lon="9.44910494027245"><ele>661.0</ele><time>2026-04-10T16:07:09.999Z</time></trkpt><trkpt lat="45.929559223668136" lon="9.449163812644283"><ele>660.0</ele><time>2026-04-10T16:07:10.999Z</time></trkpt><trkpt lat="45.9296730254505" lon="9.449238649239366"><ele>660.0</ele><time>2026-04-10T16:07:11.999Z</time></trkpt><trkpt lat="45.92978361008581" lon="9.449337481042964"><ele>660.0</ele><time>2026-04-10T16:07:12.999Z</time></trkpt><trkpt lat="45.92990419916019" lon="9.449456492395516"><ele>660.0</ele><time>2026-04-10T16:07:13.999Z</time></trkpt><trkpt lat="45.93002883843813" lon="9.44957985433993"><ele>660.0</ele><time>2026-04-10T16:07:14.999Z</time></trkpt><trkpt lat="45.930193654473484" lon="9.449746374016376"><ele>656.5</ele><time>2026-04-10T16:07:15.999Z</time></trkpt><trkpt lat="45.93039620586149" lon="9.44995150857263"><ele>653.0</ele><time>2026-04-10T16:07:17Z</time></trkpt><trkpt lat="45.930605663665034" lon="9.450165300079322"><ele>653.0</ele><time>2026-04-10T16:07:18Z</time></trkpt><trkpt lat="45.93080927654087" lon="9.450360463551473"><ele>653.0</ele><time>2026-04-10T16:07:19Z</time></trkpt><trkpt lat="45.93098889225617" lon="9.450537346636738"><ele>652.3333333333333</ele><time>2026-04-10T16:07:20Z</time></trkpt><trkpt lat="45.93115745759218" lon="9.450696526378099"><ele>651.6666666666666</ele><time>2026-04-10T16:07:21Z</time></trkpt><trkpt lat="45.93133531526784" lon="9.450817193630897"><ele>651.0</ele><time>2026-04-10T16:07:22Z</time></trkpt><trkpt lat="45.931535800402585" lon="9.45087512850695"><ele>652.0</ele><time>2026-04-10T16:07:23Z</time></trkpt><trkpt lat="45.93174974603205" lon="9.450921738506858"><ele>653.0</ele><time>2026-04-10T16:07:24Z</time></trkpt><trkpt lat="45.93193391685028" lon="9.450971252122402"><ele>654.0</ele><time>2026-04-10T16:07:25Z</time></trkpt><trkpt lat="45.93210895905914" lon="9.451047196945847"><ele>654.0</ele><time>2026-04-10T16:07:26Z</time></trkpt><trkpt lat="45.93228228632145" lon="9.451182317621258"><ele>654.0</ele><time>2026-04-10T16:07:27Z</time></trkpt><trkpt lat="45.93241640038022" lon="9.451418277415888"><ele>654.0</ele><time>2026-04-10T16:07:28Z</time></trkpt><trkpt lat="45.93256843594715" lon="9.451592258389807"><ele>652.3333333333334</ele><time>2026-04-10T16:07:29Z</time></trkpt><trkpt lat="45.93271929532187" lon="9.451751601667691"><ele>650.6666666666667</ele><time>2026-04-10T16:07:30Z</time></trkpt><trkpt lat="45.932869350305374" lon="9.451881092720122"><ele>649.0</ele><time>2026-04-10T16:07:31Z</time></trkpt><trkpt lat="45.93300355609751" lon="9.451998271478534"><ele>649.0</ele><time>2026-04-10T16:07:32Z</time></trkpt><trkpt lat="45.93315634000447" lon="9.452094236562424"><ele>649.0</ele><time>2026-04-10T16:07:33Z</time></trkpt><trkpt lat="45.93335107695811" lon="9.45215253684367"><ele>649.0</ele><time>2026-04-10T16:07:34Z</time></trkpt><trkpt lat="45.93356527475817" lon="9.452186219582474"><ele>642.6666666666667</ele><time>2026-04-10T16:07:35Z</time></trkpt><trkpt lat="45.933782240898836" lon="9.452213577641192"><ele>636.3333333333334</ele><time>2026-04-10T16:07:36Z</time></trkpt><trkpt lat="45.9340024534989" lon="9.452240728405952"><ele>630.0</ele><time>2026-04-10T16:07:37Z</time></trkpt><trkpt lat="45.93420703778838" lon="9.45227126198719"><ele>628.6666666666666</ele><time>2026-04-10T16:07:38Z</time></trkpt><trkpt lat="45.93439663823462" lon="9.452301111262766"><ele>627.3333333333333</ele><time>2026-04-10T16:07:39Z</time></trkpt><trkpt lat="45.93458925147584" lon="9.452299829594903"><ele>626.0</ele><time>2026-04-10T16:07:40Z</time></trkpt><trkpt lat="45.93479695153158" lon="9.452231112432516"><ele>626.0</ele><time>2026-04-10T16:07:41Z</time></trkpt><trkpt lat="45.93503126343515" lon="9.452151510090456"><ele>626.0</ele><time>2026-04-10T16:07:42Z</time></trkpt><trkpt lat="45.93527397345204" lon="9.452082468593861"><ele>628.0</ele><time>2026-04-10T16:07:43Z</time></trkpt><trkpt lat="45.93551604116998" lon="9.45201558973852"><ele>630.0</ele><time>2026-04-10T16:07:44Z</time></trkpt><trkpt lat="45.93576111619578" lon="9.451957319682682"><ele>628.3333333333334</ele><time>2026-04-10T16:07:45Z</time></trkpt><trkpt lat="45.935988713582034" lon="9.451902154649135"><ele>626.6666666666667</ele><time>2026-04-10T16:07:46Z</time></trkpt><trkpt lat="45.93620219483948" lon="9.451851851196773"><ele>625.0</ele><time>2026-04-10T16:07:47Z</time></trkpt><trkpt lat="45.93640985710036" lon="9.451804591206148"><ele>625.0</ele><time>2026-04-10T16:07:48Z</time></trkpt><trkpt lat="45.93662447133311" lon="9.45175897040001"><ele>625.0</ele><time>2026-04-10T16:07:49Z</time></trkpt><trkpt lat="45.93684321552456" lon="9.45174286046145"><ele>625.0</ele><time>2026-04-10T16:07:50Z</time></trkpt><trkpt lat="45.937060177645414" lon="9.451806177631472"><ele>623.0</ele><time>2026-04-10T16:07:51Z</time></trkpt><trkpt lat="45.9372768783914" lon="9.451893653384003"><ele>621.0</ele><time>2026-04-10T16:07:52Z</time></trkpt><trkpt lat="45.93749598282039" lon="9.452012185629746"><ele>617.5</ele><time>2026-04-10T16:07:53Z</time></trkpt><trkpt lat="45.93773048558532" lon="9.452124929500929"><ele>614.0</ele><time>2026-04-10T16:07:54Z</time></trkpt><trkpt lat="45.9379442732139" lon="9.452240746364543"><ele>614.0</ele><time>2026-04-10T16:07:55Z</time></trkpt><trkpt lat="45.93816376304742" lon="9.452330219069534"><ele>614.0</ele><time>2026-04-10T16:07:56Z</time></trkpt><trkpt lat="45.93838645017648" lon="9.45238783176152"><ele>614.5</ele><time>2026-04-10T16:07:57Z</time></trkpt><trkpt lat="45.938622931767874" lon="9.452412129759466"><ele>615.0</ele><time>2026-04-10T16:07:58Z</time></trkpt><trkpt lat="45.938860136350286" lon="9.452390230144937"><ele>615.0</ele><time>2026-04-10T16:07:59Z</time></trkpt><trkpt lat="45.93910691646718" lon="9.452323791945508"><ele>615.0</ele><time>2026-04-10T16:08:00Z</time></trkpt><trkpt lat="45.939325320105226" lon="9.45225551498989"><ele>615.0</ele><time>2026-04-10T16:08:01Z</time></trkpt><trkpt lat="45.93953625546679" lon="9.452198459907896"><ele>615.0</ele><time>2026-04-10T16:08:02Z</time></trkpt><trkpt lat="45.93973692276874" lon="9.452196109708682"><ele>615.0</ele><time>2026-04-10T16:08:03Z</time></trkpt><trkpt lat="45.93992563490993" lon="9.452230364052943"><ele>613.6666666666666</ele><time>2026-04-10T16:08:04Z</time></trkpt><trkpt lat="45.94011090517874" lon="9.452271666281915"><ele>612.3333333333333</ele><time>2026-04-10T16:08:05Z</time></trkpt><trkpt lat="45.940303485123785" lon="9.452285919853981"><ele>611.0</ele><time>2026-04-10T16:08:06Z</time></trkpt><trkpt lat="45.940507685809735" lon="9.45225144468728"><ele>611.0</ele><time>2026-04-10T16:08:07Z</time></trkpt><trkpt lat="45.94071675612208" lon="9.452147073141456"><ele>611.0</ele><time>2026-04-10T16:08:08Z</time></trkpt><trkpt lat="45.94092848409247" lon="9.452012217787898"><ele>615.0</ele><time>2026-04-10T16:08:09Z</time></trkpt><trkpt lat="45.94115371928093" lon="9.451882364682957"><ele>619.0</ele><time>2026-04-10T16:08:10Z</time></trkpt><trkpt lat="45.941354303040775" lon="9.45177375074177"><ele>619.0</ele><time>2026-04-10T16:08:11Z</time></trkpt><trkpt lat="45.941538041149656" lon="9.45167205055776"><ele>619.0</ele><time>2026-04-10T16:08:12Z</time></trkpt><trkpt lat="45.941706262385054" lon="9.4515823346892"><ele>619.0</ele><time>2026-04-10T16:08:13Z</time></trkpt><trkpt lat="45.9418594027297" lon="9.451498255235869"><ele>615.75</ele><time>2026-04-10T16:08:14Z</time></trkpt><trkpt lat="45.94199320481309" lon="9.45143155625128"><ele>612.5</ele><time>2026-04-10T16:08:15Z</time></trkpt><trkpt lat="45.94211334844488" lon="9.451386581116155"><ele>609.25</ele><time>2026-04-10T16:08:16Z</time></trkpt><trkpt lat="45.94223939703586" lon="9.451367830338624"><ele>606.0</ele><time>2026-04-10T16:08:17Z</time></trkpt><trkpt lat="45.94235659932011" lon="9.451365593759848"><ele>606.0</ele><time>2026-04-10T16:08:18Z</time></trkpt><trkpt lat="45.94245709422935" lon="9.45132272799582"><ele>606.0</ele><time>2026-04-10T16:08:19Z</time></trkpt><trkpt lat="45.942559623038285" lon="9.45121354589484"><ele>606.0</ele><time>2026-04-10T16:08:20Z</time></trkpt><trkpt lat="45.94268243423282" lon="9.45107007637434"><ele>606.0</ele><time>2026-04-10T16:08:21Z</time></trkpt><trkpt lat="45.942840270947684" lon="9.45097829304975"><ele>606.25</ele><time>2026-04-10T16:08:22Z</time></trkpt><trkpt lat="45.942999441564396" lon="9.450893295653788"><ele>606.5</ele><time>2026-04-10T16:08:23Z</time></trkpt><trkpt lat="45.94314061011061" lon="9.45081913748532"><ele>606.75</ele><time>2026-04-10T16:08:24Z</time></trkpt><trkpt lat="45.94324973944952" lon="9.450743868644421"><ele>607.0</ele><time>2026-04-10T16:08:25Z</time></trkpt><trkpt lat="45.94337396140545" lon="9.45069605810517"><ele>604.75</ele><time>2026-04-10T16:08:26Z</time></trkpt><trkpt lat="45.94350178185438" lon="9.450659136588438"><ele>602.5</ele><time>2026-04-10T16:08:27Z</time></trkpt><trkpt lat="45.943626249617296" lon="9.450640427612292"><ele>600.25</ele><time>2026-04-10T16:08:28Z</time></trkpt><trkpt lat="45.94375629522264" lon="9.450633479947516"><ele>598.0</ele><time>2026-04-10T16:08:29Z</time></trkpt><trkpt lat="45.943888975285745" lon="9.450632663187205"><ele>598.0</ele><time>2026-04-10T16:08:30Z</time></trkpt><trkpt lat="45.944017676911976" lon="9.450620257528604"><ele>598.0</ele><time>2026-04-10T16:08:31Z</time></trkpt><trkpt lat="45.94415873328488" lon="9.45060640362153"><ele>598.0</ele><time>2026-04-10T16:08:31.999Z</time></trkpt><trkpt lat="45.94429161793667" lon="9.450611533137145"><ele>598.0</ele><time>2026-04-10T16:08:32.999Z</time></trkpt><trkpt lat="45.94442234354947" lon="9.450631914690964"><ele>598.0</ele><time>2026-04-10T16:08:33.999Z</time></trkpt><trkpt lat="45.944572354630125" lon="9.450650454950498"><ele>598.0</ele><time>2026-04-10T16:08:34.999Z</time></trkpt><trkpt lat="45.94474795359418" lon="9.450679110455544"><ele>598.0</ele><time>2026-04-10T16:08:35.999Z</time></trkpt><trkpt lat="45.9448972116606" lon="9.45071231494332"><ele>598.0</ele><time>2026-04-10T16:08:36.999Z</time></trkpt><trkpt lat="45.94500808793994" lon="9.450730087392026"><ele>598.0</ele><time>2026-04-10T16:08:37.999Z</time></trkpt><trkpt lat="45.94509094012013" lon="9.450741522810995"><ele>598.0</ele><time>2026-04-10T16:08:38.999Z</time></trkpt><trkpt lat="45.94516706914316" lon="9.45075140269644"><ele>598.0</ele><time>2026-04-10T16:08:39.999Z</time></trkpt><trkpt lat="45.945240556366755" lon="9.450763366790289"><ele>598.0</ele><time>2026-04-10T16:08:41.999Z</time></trkpt><trkpt lat="45.94532721967497" lon="9.450776168609735"><ele>598.0</ele><time>2026-04-10T16:08:44.999Z</time></trkpt><trkpt lat="45.94540798605113" lon="9.450786146329406"><ele>597.25</ele><time>2026-04-10T16:08:45.999Z</time></trkpt><trkpt lat="45.94552148601589" lon="9.450791579259317"><ele>596.5</ele><time>2026-04-10T16:08:46.999Z</time></trkpt><trkpt lat="45.94567452686082" lon="9.450807154999515"><ele>595.75</ele><time>2026-04-10T16:08:47.999Z</time></trkpt><trkpt lat="45.945855181614284" lon="9.450835892812165"><ele>595.0</ele><time>2026-04-10T16:08:48.999Z</time></trkpt><trkpt lat="45.946039742016836" lon="9.450878618122342"><ele>594.0</ele><time>2026-04-10T16:08:49.999Z</time></trkpt><trkpt lat="45.94624939195873" lon="9.450918634655507"><ele>593.0</ele><time>2026-04-10T16:08:50.999Z</time></trkpt><trkpt lat="45.946451132903285" lon="9.450951462354553"><ele>592.0</ele><time>2026-04-10T16:08:51.999Z</time></trkpt><trkpt lat="45.946639231314755" lon="9.450979065514538"><ele>591.6666666666667</ele><time>2026-04-10T16:08:52.999Z</time></trkpt><trkpt lat="45.94681318263589" lon="9.451006086565416"><ele>591.3333333333334</ele><time>2026-04-10T16:08:53.999Z</time></trkpt><trkpt lat="45.94698184646867" lon="9.451033717938243"><ele>591.0</ele><time>2026-04-10T16:08:54.999Z</time></trkpt><trkpt lat="45.947142440633954" lon="9.451061723567685"><ele>591.0</ele><time>2026-04-10T16:08:55.999Z</time></trkpt><trkpt lat="45.947281975291894" lon="9.451086546511139"><ele>591.0</ele><time>2026-04-10T16:08:56.999Z</time></trkpt><trkpt lat="45.94741543218145" lon="9.451102451349822"><ele>591.0</ele><time>2026-04-10T16:08:57.999Z</time></trkpt><trkpt lat="45.947525999499106" lon="9.451109223931576"><ele>591.0</ele><time>2026-04-10T16:08:58.999Z</time></trkpt><trkpt lat="45.94761713626061" lon="9.45112018129216"><ele>590.6666666666666</ele><time>2026-04-10T16:08:59.999Z</time></trkpt><trkpt lat="45.94769481776166" lon="9.451130325523492"><ele>590.3333333333334</ele><time>2026-04-10T16:09:00.999Z</time></trkpt><trkpt lat="45.94779016540806" lon="9.451134267482544"><ele>590.0</ele><time>2026-04-10T16:09:01.999Z</time></trkpt><trkpt lat="45.94788847956277" lon="9.451142258682108"><ele>589.6666666666667</ele><time>2026-04-10T16:09:02.999Z</time></trkpt><trkpt lat="45.94798523412768" lon="9.451160639128807"><ele>589.3333333333334</ele><time>2026-04-10T16:09:03.999Z</time></trkpt><trkpt lat="45.94805840653208" lon="9.451177727610398"><ele>589.0</ele><time>2026-04-10T16:09:04.999Z</time></trkpt><trkpt lat="45.94816400962728" lon="9.451265117032694"><ele>589.0</ele><time>2026-04-10T16:09:06.999Z</time></trkpt><trkpt lat="45.9482257227395" lon="9.45141711748236"><ele>589.0</ele><time>2026-04-10T16:09:08.999Z</time></trkpt><trkpt lat="45.94828774741751" lon="9.451448448675679"><ele>589.0</ele><time>2026-04-10T16:09:09.999Z</time></trkpt><trkpt lat="45.94837522914037" lon="9.451443154261975"><ele>589.0</ele><time>2026-04-10T16:09:10.999Z</time></trkpt><trkpt lat="45.948461520178725" lon="9.451409291184433"><ele>589.0</ele><time>2026-04-10T16:09:11.999Z</time></trkpt><trkpt lat="45.948547876897095" lon="9.451373411858274"><ele>588.5</ele><time>2026-04-10T16:09:12.999Z</time></trkpt><trkpt lat="45.948661514153784" lon="9.451341660112844"><ele>588.0</ele><time>2026-04-10T16:09:13.999Z</time></trkpt><trkpt lat="45.948808628637245" lon="9.451322560890215"><ele>587.5</ele><time>2026-04-10T16:09:14.999Z</time></trkpt><trkpt lat="45.948957482906685" lon="9.451321102714486"><ele>587.0</ele><time>2026-04-10T16:09:15.999Z</time></trkpt><trkpt lat="45.94912801378563" lon="9.45132530201953"><ele>586.6666666666666</ele><time>2026-04-10T16:09:16.999Z</time></trkpt><trkpt lat="45.94930908674435" lon="9.451363968437919"><ele>586.3333333333334</ele><time>2026-04-10T16:09:17.999Z</time></trkpt><trkpt lat="45.94949900205137" lon="9.451417774100298"><ele>586.0</ele><time>2026-04-10T16:09:18.999Z</time></trkpt><trkpt lat="45.949700137699296" lon="9.451451234826287"><ele>586.0</ele><time>2026-04-10T16:09:19.999Z</time></trkpt><trkpt lat="45.949880793392104" lon="9.45147161273161"><ele>586.0</ele><time>2026-04-10T16:09:20.999Z</time></trkpt><trkpt lat="45.95003920266855" lon="9.451494099693113"><ele>586.0</ele><time>2026-04-10T16:09:21.999Z</time></trkpt><trkpt lat="45.950200184703675" lon="9.451516946343496"><ele>585.0</ele><time>2026-04-10T16:09:23Z</time></trkpt><trkpt lat="45.95038845480602" lon="9.451540204734663"><ele>584.0</ele><time>2026-04-10T16:09:24Z</time></trkpt><trkpt lat="45.950569474875195" lon="9.45157093386638"><ele>583.0</ele><time>2026-04-10T16:09:25Z</time></trkpt><trkpt lat="45.95072885767843" lon="9.451598945741924"><ele>582.6666666666667</ele><time>2026-04-10T16:09:26Z</time></trkpt><trkpt lat="45.95088121814159" lon="9.451619342119912"><ele>582.3333333333334</ele><time>2026-04-10T16:09:27Z</time></trkpt><trkpt lat="45.95104159421992" lon="9.451643968293277"><ele>582.0</ele><time>2026-04-10T16:09:28Z</time></trkpt><trkpt lat="45.95122071539952" lon="9.451677616721472"><ele>582.0</ele><time>2026-04-10T16:09:29Z</time></trkpt><trkpt lat="45.95138033089803" lon="9.451707077889969"><ele>582.0</ele><time>2026-04-10T16:09:30Z</time></trkpt><trkpt lat="45.951536207037826" lon="9.451729989157409"><ele>582.0</ele><time>2026-04-10T16:09:31Z</time></trkpt><trkpt lat="45.951714097680124" lon="9.451740227499826"><ele>581.0</ele><time>2026-04-10T16:09:32Z</time></trkpt><trkpt lat="45.95192234509097" lon="9.451717410334814"><ele>580.0</ele><time>2026-04-10T16:09:33Z</time></trkpt><trkpt lat="45.95213205585968" lon="9.45166551035277"><ele>579.0</ele><time>2026-04-10T16:09:34Z</time></trkpt><trkpt lat="45.95232698392015" lon="9.451601370625696"><ele>579.0</ele><time>2026-04-10T16:09:35Z</time></trkpt><trkpt lat="45.9525254522595" lon="9.451534676072777"><ele>579.0</ele><time>2026-04-10T16:09:36Z</time></trkpt><trkpt lat="45.952717192721785" lon="9.451478058021374"><ele>579.0</ele><time>2026-04-10T16:09:37Z</time></trkpt><trkpt lat="45.95290668624835" lon="9.451422412457438"><ele>578.6666666666666</ele><time>2026-04-10T16:09:38Z</time></trkpt><trkpt lat="45.9530934422921" lon="9.451364638664636"><ele>578.3333333333333</ele><time>2026-04-10T16:09:39Z</time></trkpt><trkpt lat="45.95326861051549" lon="9.451314148534882"><ele>578.0</ele><time>2026-04-10T16:09:40Z</time></trkpt><trkpt lat="45.953437931141686" lon="9.451264458173167"><ele>578.0</ele><time>2026-04-10T16:09:41Z</time></trkpt><trkpt lat="45.95358907261811" lon="9.451221000170474"><ele>578.0</ele><time>2026-04-10T16:09:42Z</time></trkpt><trkpt lat="45.95372771922164" lon="9.451182823254003"><ele>578.0</ele><time>2026-04-10T16:09:43Z</time></trkpt><trkpt lat="45.95385615184588" lon="9.451148164946058"><ele>578.0</ele><time>2026-04-10T16:09:44Z</time></trkpt><trkpt lat="45.95398402539519" lon="9.451113600088663"><ele>578.0</ele><time>2026-04-10T16:09:45Z</time></trkpt><trkpt lat="45.954119856193984" lon="9.451077272266101"><ele>578.0</ele><time>2026-04-10T16:09:46Z</time></trkpt><trkpt lat="45.9542572234847" lon="9.45103520816754"><ele>578.0</ele><time>2026-04-10T16:09:47Z</time></trkpt><trkpt lat="45.954413249439924" lon="9.451009637819132"><ele>578.0</ele><time>2026-04-10T16:09:48Z</time></trkpt><trkpt lat="45.95458388868094" lon="9.450961084214512"><ele>577.0</ele><time>2026-04-10T16:09:49Z</time></trkpt><trkpt lat="45.95476615346463" lon="9.450888139209061"><ele>576.0</ele><time>2026-04-10T16:09:50Z</time></trkpt><trkpt lat="45.95495931335552" lon="9.450838845160252"><ele>575.0</ele><time>2026-04-10T16:09:51Z</time></trkpt><trkpt lat="45.9551243529989" lon="9.450790348905691"><ele>574.0</ele><time>2026-04-10T16:09:52Z</time></trkpt><trkpt lat="45.95527907501074" lon="9.450766358221289"><ele>573.0</ele><time>2026-04-10T16:09:53Z</time></trkpt><trkpt lat="45.95544326130277" lon="9.450720582412362"><ele>572.0</ele><time>2026-04-10T16:09:54Z</time></trkpt><trkpt lat="45.95561799381601" lon="9.450671776087711"><ele>572.0</ele><time>2026-04-10T16:09:55Z</time></trkpt><trkpt lat="45.95576889232448" lon="9.450609983844178"><ele>572.0</ele><time>2026-04-10T16:09:56Z</time></trkpt><trkpt lat="45.95588184073254" lon="9.450579783177783"><ele>572.0</ele><time>2026-04-10T16:09:57Z</time></trkpt><trkpt lat="45.95598776073051" lon="9.45055314959052"><ele>572.0</ele><time>2026-04-10T16:09:58Z</time></trkpt><trkpt lat="45.95610539619445" lon="9.450517467582294"><ele>572.0</ele><time>2026-04-10T16:09:59Z</time></trkpt><trkpt lat="45.956226418825665" lon="9.450501054166383"><ele>572.0</ele><time>2026-04-10T16:10:00Z</time></trkpt><trkpt lat="45.956337879362934" lon="9.450470526498627"><ele>572.0</ele><time>2026-04-10T16:10:01Z</time></trkpt><trkpt lat="45.956446932880986" lon="9.450438552988958"><ele>572.0</ele><time>2026-04-10T16:10:02Z</time></trkpt><trkpt lat="45.95656354287003" lon="9.450401847802178"><ele>571.75</ele><time>2026-04-10T16:10:03Z</time></trkpt><trkpt lat="45.95666702453073" lon="9.450340240331068"><ele>571.5</ele><time>2026-04-10T16:10:04Z</time></trkpt><trkpt lat="45.95676677828678" lon="9.450303149250786"><ele>571.25</ele><time>2026-04-10T16:10:05Z</time></trkpt><trkpt lat="45.956881909854786" lon="9.450246486254372"><ele>571.0</ele><time>2026-04-10T16:10:06Z</time></trkpt><trkpt lat="45.95701571629702" lon="9.450173379602447"><ele>570.6666666666667</ele><time>2026-04-10T16:10:07Z</time></trkpt><trkpt lat="45.95715639454714" lon="9.450090233280662"><ele>570.3333333333334</ele><time>2026-04-10T16:10:08Z</time></trkpt><trkpt lat="45.957316035088766" lon="9.450005466611847"><ele>570.0</ele><time>2026-04-10T16:10:09Z</time></trkpt><trkpt lat="45.95746911098119" lon="9.449938109817449"><ele>569.6666666666666</ele><time>2026-04-10T16:10:10Z</time></trkpt><trkpt lat="45.95760922515218" lon="9.449862552348263"><ele>569.3333333333333</ele><time>2026-04-10T16:10:11Z</time></trkpt><trkpt lat="45.957766926512726" lon="9.449762896314779"><ele>569.0</ele><time>2026-04-10T16:10:12Z</time></trkpt><trkpt lat="45.95792941896795" lon="9.449670922584525"><ele>568.0</ele><time>2026-04-10T16:10:13Z</time></trkpt><trkpt lat="45.958084767233416" lon="9.449593765273807"><ele>567.0</ele><time>2026-04-10T16:10:14Z</time></trkpt><trkpt lat="45.95822693544472" lon="9.449510778027951"><ele>566.0</ele><time>2026-04-10T16:10:15Z</time></trkpt><trkpt lat="45.95835070317336" lon="9.449438865429899"><ele>566.4</ele><time>2026-04-10T16:10:16Z</time></trkpt><trkpt lat="45.95845798055954" lon="9.449382327725248"><ele>566.8</ele><time>2026-04-10T16:10:17Z</time></trkpt><trkpt lat="45.95855463933134" lon="9.449331509762823"><ele>567.1999999999999</ele><time>2026-04-10T16:10:18Z</time></trkpt><trkpt lat="45.95864916354838" lon="9.449274752160292"><ele>567.6</ele><time>2026-04-10T16:10:19Z</time></trkpt><trkpt lat="45.95875156260831" lon="9.449192978388542"><ele>568.0</ele><time>2026-04-10T16:10:20Z</time></trkpt><trkpt lat="45.958870771355386" lon="9.449112062442676"><ele>568.0</ele><time>2026-04-10T16:10:21Z</time></trkpt><trkpt lat="45.95901055182671" lon="9.449062072688282"><ele>568.0</ele><time>2026-04-10T16:10:22Z</time></trkpt><trkpt lat="45.959165691048355" lon="9.449041675447944"><ele>568.0</ele><time>2026-04-10T16:10:23Z</time></trkpt><trkpt lat="45.95932190219424" lon="9.449089524677978"><ele>570.0</ele><time>2026-04-10T16:10:24Z</time></trkpt><trkpt lat="45.95950651576187" lon="9.449140086854559"><ele>572.0</ele><time>2026-04-10T16:10:25Z</time></trkpt><trkpt lat="45.95970140883379" lon="9.449202404799886"><ele>574.0</ele><time>2026-04-10T16:10:26Z</time></trkpt><trkpt lat="45.95990678171321" lon="9.44927585051003"><ele>591.0</ele><time>2026-04-10T16:10:27Z</time></trkpt><trkpt lat="45.96009374855511" lon="9.449353129959473"><ele>608.0</ele><time>2026-04-10T16:10:28Z</time></trkpt><trkpt lat="45.96025383848536" lon="9.449431808022807"><ele>625.0</ele><time>2026-04-10T16:10:29Z</time></trkpt><trkpt lat="45.96041520480777" lon="9.449544513072679"><ele>606.6666666666667</ele><time>2026-04-10T16:10:30Z</time></trkpt><trkpt lat="45.960552507856725" lon="9.449674941456722"><ele>588.3333333333334</ele><time>2026-04-10T16:10:31Z</time></trkpt><trkpt lat="45.96068595033195" lon="9.449834745071461"><ele>570.0</ele><time>2026-04-10T16:10:32Z</time></trkpt><trkpt lat="45.960828098461754" lon="9.450001064380528"><ele>568.3333333333334</ele><time>2026-04-10T16:10:33Z</time></trkpt><trkpt lat="45.96096434015797" lon="9.450161530888535"><ele>566.6666666666667</ele><time>2026-04-10T16:10:34Z</time></trkpt><trkpt lat="45.96109929321508" lon="9.450312312059092"><ele>565.0</ele><time>2026-04-10T16:10:35Z</time></trkpt><trkpt lat="45.961229257809876" lon="9.450423647288893"><ele>565.0</ele><time>2026-04-10T16:10:36Z</time></trkpt><trkpt lat="45.96139781236413" lon="9.450515786626697"><ele>565.0</ele><time>2026-04-10T16:10:36.999Z</time></trkpt><trkpt lat="45.9615958064704" lon="9.450583624752237"><ele>565.0</ele><time>2026-04-10T16:10:37.999Z</time></trkpt><trkpt lat="45.96181314424401" lon="9.450643340908197"><ele>565.0</ele><time>2026-04-10T16:10:38.999Z</time></trkpt><trkpt lat="45.96199143065522" lon="9.450689934577415"><ele>565.0</ele><time>2026-04-10T16:10:39.999Z</time></trkpt><trkpt lat="45.962130764515244" lon="9.450726348317405"><ele>565.0</ele><time>2026-04-10T16:10:40.999Z</time></trkpt><trkpt lat="45.96226787069966" lon="9.450762179877895"><ele>565.0</ele><time>2026-04-10T16:10:41.999Z</time></trkpt><trkpt lat="45.962399371561844" lon="9.450796546533802"><ele>565.0</ele><time>2026-04-10T16:10:42.999Z</time></trkpt><trkpt lat="45.962531218447616" lon="9.450829883012599"><ele>565.0</ele><time>2026-04-10T16:10:43.999Z</time></trkpt><trkpt lat="45.96264656309953" lon="9.450858962219261"><ele>565.0</ele><time>2026-04-10T16:10:44.999Z</time></trkpt><trkpt lat="45.96274956889997" lon="9.45088569705024"><ele>564.4</ele><time>2026-04-10T16:10:45.999Z</time></trkpt><trkpt lat="45.96285124702854" lon="9.45091232084692"><ele>563.8</ele><time>2026-04-10T16:10:46.999Z</time></trkpt><trkpt lat="45.96295938031323" lon="9.450940634876032"><ele>563.2</ele><time>2026-04-10T16:10:47.999Z</time></trkpt><trkpt lat="45.96306420485144" lon="9.450967915199733"><ele>562.6</ele><time>2026-04-10T16:10:48.999Z</time></trkpt><trkpt lat="45.963172366139034" lon="9.45097265149942"><ele>562.0</ele><time>2026-04-10T16:10:49.999Z</time></trkpt><trkpt lat="45.963278106104724" lon="9.451005230053896"><ele>562.0</ele><time>2026-04-10T16:10:50.999Z</time></trkpt><trkpt lat="45.963386747832445" lon="9.451034298160224"><ele>562.0</ele><time>2026-04-10T16:10:51.999Z</time></trkpt><trkpt lat="45.963489491494" lon="9.451055411842896"><ele>562.0</ele><time>2026-04-10T16:10:52.999Z</time></trkpt><trkpt lat="45.96358369688723" lon="9.45107417471216"><ele>562.0</ele><time>2026-04-10T16:10:53.999Z</time></trkpt><trkpt lat="45.963676252672876" lon="9.451079072160157"><ele>562.0</ele><time>2026-04-10T16:10:54.999Z</time></trkpt><trkpt lat="45.96375618352293" lon="9.451073642117034"><ele>562.0</ele><time>2026-04-10T16:10:55.999Z</time></trkpt><trkpt lat="45.96383224226306" lon="9.451051320278337"><ele>562.0</ele><time>2026-04-10T16:10:56.999Z</time></trkpt><trkpt lat="45.96391210347913" lon="9.451028390246455"><ele>562.0</ele><time>2026-04-10T16:10:57.999Z</time></trkpt><trkpt lat="45.96398579809751" lon="9.451000164914005"><ele>562.0</ele><time>2026-04-10T16:10:58.999Z</time></trkpt><trkpt lat="45.9640747952997" lon="9.450967755542948"><ele>562.0</ele><time>2026-04-10T16:11:00.999Z</time></trkpt><trkpt lat="45.96414880701409" lon="9.450959126992972"><ele>562.0</ele><time>2026-04-10T16:11:02.999Z</time></trkpt><trkpt lat="45.96424904881334" lon="9.45091695617522"><ele>561.8000000000001</ele><time>2026-04-10T16:11:04.999Z</time></trkpt><trkpt lat="45.96432395851591" lon="9.450861856290855"><ele>561.6</ele><time>2026-04-10T16:11:06.999Z</time></trkpt><trkpt lat="45.96441353282145" lon="9.450850214100516"><ele>561.4000000000001</ele><time>2026-04-10T16:11:17.999Z</time></trkpt><trkpt lat="45.96452836349043" lon="9.450803773990218"><ele>561.2</ele><time>2026-04-10T16:11:19.999Z</time></trkpt><trkpt lat="45.96461989651807" lon="9.450758941111134"><ele>561.0</ele><time>2026-04-10T16:11:46Z</time></trkpt><trkpt lat="45.964715743901344" lon="9.450735336160347"><ele>561.0</ele><time>2026-04-10T16:11:47Z</time></trkpt><trkpt lat="45.96482398737872" lon="9.450700225717094"><ele>561.0</ele><time>2026-04-10T16:11:48Z</time></trkpt><trkpt lat="45.964950748083965" lon="9.450646749064358"><ele>561.0</ele><time>2026-04-10T16:11:49Z</time></trkpt><trkpt lat="45.96508594018349" lon="9.450585035517022"><ele>561.0</ele><time>2026-04-10T16:11:50Z</time></trkpt><trkpt lat="45.965243911756005" lon="9.450518106501214"><ele>560.3333333333334</ele><time>2026-04-10T16:11:51Z</time></trkpt><trkpt lat="45.96542496669202" lon="9.450445047603466"><ele>559.6666666666667</ele><time>2026-04-10T16:11:52Z</time></trkpt><trkpt lat="45.96560808121955" lon="9.45037357707305"><ele>559.0</ele><time>2026-04-10T16:11:53Z</time></trkpt><trkpt lat="45.96577416642933" lon="9.450305239138304"><ele>558.75</ele><time>2026-04-10T16:11:54Z</time></trkpt><trkpt lat="45.9659235356762" lon="9.450244569040096"><ele>558.5</ele><time>2026-04-10T16:11:55Z</time></trkpt><trkpt lat="45.96606151012223" lon="9.450194496886688"><ele>558.25</ele><time>2026-04-10T16:11:56Z</time></trkpt><trkpt lat="45.96619948907517" lon="9.450162468539418"><ele>558.0</ele><time>2026-04-10T16:11:57Z</time></trkpt><trkpt lat="45.96633220121226" lon="9.450171470246811"><ele>558.0</ele><time>2026-04-10T16:11:58Z</time></trkpt><trkpt lat="45.96644447347575" lon="9.450220333594924"><ele>558.0</ele><time>2026-04-10T16:11:59Z</time></trkpt><trkpt lat="45.96653581893692" lon="9.450271459671912"><ele>558.0</ele><time>2026-04-10T16:12:00Z</time></trkpt><trkpt lat="45.96662992133532" lon="9.450404694741383"><ele>558.0</ele><time>2026-04-10T16:12:01Z</time></trkpt><trkpt lat="45.96671434711128" lon="9.450506486210966"><ele>560.6666666666666</ele><time>2026-04-10T16:12:02Z</time></trkpt><trkpt lat="45.966841715088755" lon="9.45063118553007"><ele>563.3333333333333</ele><time>2026-04-10T16:12:03Z</time></trkpt><trkpt lat="45.96698930186366" lon="9.450757683087216"><ele>566.0</ele><time>2026-04-10T16:12:04Z</time></trkpt><trkpt lat="45.96713081891956" lon="9.450900637396115"><ele>566.0</ele><time>2026-04-10T16:12:05Z</time></trkpt><trkpt lat="45.96727067549524" lon="9.451068089707414"><ele>566.0</ele><time>2026-04-10T16:12:06Z</time></trkpt><trkpt lat="45.96743315506621" lon="9.451210986680769"><ele>566.0</ele><time>2026-04-10T16:12:07Z</time></trkpt><trkpt lat="45.96757679365541" lon="9.451365722405022"><ele>568.0</ele><time>2026-04-10T16:12:08Z</time></trkpt><trkpt lat="45.96772155000243" lon="9.451512768386015"><ele>570.0</ele><time>2026-04-10T16:12:09Z</time></trkpt><trkpt lat="45.967853182009975" lon="9.451637130810898"><ele>572.0</ele><time>2026-04-10T16:12:10Z</time></trkpt><trkpt lat="45.96798948161661" lon="9.451755071304072"><ele>572.0</ele><time>2026-04-10T16:12:11Z</time></trkpt><trkpt lat="45.96814382173243" lon="9.451852411658647"><ele>572.0</ele><time>2026-04-10T16:12:12Z</time></trkpt><trkpt lat="45.968313068839784" lon="9.451902559024498"><ele>572.0</ele><time>2026-04-10T16:12:13Z</time></trkpt><trkpt lat="45.968488653183584" lon="9.451937090021353"><ele>573.0</ele><time>2026-04-10T16:12:14Z</time></trkpt><trkpt lat="45.968649979341514" lon="9.45196932845125"><ele>574.0</ele><time>2026-04-10T16:12:15Z</time></trkpt><trkpt lat="45.96879516080884" lon="9.452008842662408"><ele>575.0</ele><time>2026-04-10T16:12:16Z</time></trkpt><trkpt lat="45.968958336697746" lon="9.452055851903145"><ele>575.0</ele><time>2026-04-10T16:12:17Z</time></trkpt><trkpt lat="45.96913441791779" lon="9.452105507926206"><ele>575.0</ele><time>2026-04-10T16:12:18Z</time></trkpt><trkpt lat="45.96932408810816" lon="9.452151792529666"><ele>575.0</ele><time>2026-04-10T16:12:19Z</time></trkpt><trkpt lat="45.96949188953671" lon="9.452193058034949"><ele>577.25</ele><time>2026-04-10T16:12:20Z</time></trkpt><trkpt lat="45.969638363830924" lon="9.452236135697865"><ele>579.5</ele><time>2026-04-10T16:12:21Z</time></trkpt><trkpt lat="45.969767651492525" lon="9.452285222169138"><ele>581.75</ele><time>2026-04-10T16:12:21.999Z</time></trkpt><trkpt lat="45.96987699604473" lon="9.452359172980437"><ele>584.0</ele><time>2026-04-10T16:12:22.999Z</time></trkpt><trkpt lat="45.96996062259943" lon="9.452503650347577"><ele>583.75</ele><time>2026-04-10T16:12:23.999Z</time></trkpt><trkpt lat="45.97004865897924" lon="9.452669368009392"><ele>583.5</ele><time>2026-04-10T16:12:24.999Z</time></trkpt><trkpt lat="45.97013260241063" lon="9.452841632483732"><ele>583.25</ele><time>2026-04-10T16:12:25.999Z</time></trkpt><trkpt lat="45.97020294032169" lon="9.452995678790373"><ele>583.0</ele><time>2026-04-10T16:12:26.999Z</time></trkpt><trkpt lat="45.970261714896715" lon="9.453129504275115"><ele>583.8</ele><time>2026-04-10T16:12:27.999Z</time></trkpt><trkpt lat="45.97031901475528" lon="9.453256186480466"><ele>584.5999999999999</ele><time>2026-04-10T16:12:28.999Z</time></trkpt><trkpt lat="45.970383700260825" lon="9.453358016276963"><ele>585.4000000000001</ele><time>2026-04-10T16:12:29.999Z</time></trkpt><trkpt lat="45.97044581197088" lon="9.453419276691283"><ele>586.2</ele><time>2026-04-10T16:12:30.999Z</time></trkpt><trkpt lat="45.970544497252384" lon="9.453372171680382"><ele>587.0</ele><time>2026-04-10T16:12:31.999Z</time></trkpt><trkpt lat="45.970646673414336" lon="9.45331404801362"><ele>587.0</ele><time>2026-04-10T16:12:32.999Z</time></trkpt><trkpt lat="45.97078166127779" lon="9.453257699316994"><ele>587.0</ele><time>2026-04-10T16:12:33.999Z</time></trkpt><trkpt lat="45.970906530425026" lon="9.453208842516919"><ele>587.0</ele><time>2026-04-10T16:12:34.999Z</time></trkpt><trkpt lat="45.97101186135781" lon="9.453165785312754"><ele>587.0</ele><time>2026-04-10T16:12:35.999Z</time></trkpt><trkpt lat="45.971106306380264" lon="9.453106675118155"><ele>586.8000000000001</ele><time>2026-04-10T16:12:36.999Z</time></trkpt><trkpt lat="45.97121637354369" lon="9.45305319820189"><ele>586.6</ele><time>2026-04-10T16:12:37.999Z</time></trkpt><trkpt lat="45.971320291616806" lon="9.453002031436103"><ele>586.4000000000001</ele><time>2026-04-10T16:12:38.999Z</time></trkpt><trkpt lat="45.97142027656167" lon="9.452971635509643"><ele>586.2</ele><time>2026-04-10T16:12:39.999Z</time></trkpt><trkpt lat="45.971517596593266" lon="9.452917513288162"><ele>586.0</ele><time>2026-04-10T16:12:40.999Z</time></trkpt><trkpt lat="45.97161187313737" lon="9.452869305729108"><ele>586.2</ele><time>2026-04-10T16:12:41.999Z</time></trkpt><trkpt lat="45.97170349402372" lon="9.452848923995658"><ele>586.4000000000001</ele><time>2026-04-10T16:12:42.999Z</time></trkpt><trkpt lat="45.971783832330495" lon="9.452793710101554"><ele>586.6</ele><time>2026-04-10T16:12:43.999Z</time></trkpt><trkpt lat="45.97185371437433" lon="9.452763244826674"><ele>586.8000000000001</ele><time>2026-04-10T16:12:44.999Z</time></trkpt><trkpt lat="45.971960665501186" lon="9.452693507032143"><ele>587.0</ele><time>2026-04-10T16:12:46.999Z</time></trkpt><trkpt lat="45.97206101570095" lon="9.452749219348812"><ele>587.0</ele><time>2026-04-10T16:12:48.999Z</time></trkpt><trkpt lat="45.97211318860715" lon="9.452843923114344"><ele>587.0</ele><time>2026-04-10T16:12:49.999Z</time></trkpt><trkpt lat="45.9722066369966" lon="9.452950876797315"><ele>587.0</ele><time>2026-04-10T16:12:50.999Z</time></trkpt><trkpt lat="45.972300078181846" lon="9.453095195703979"><ele>587.0</ele><time>2026-04-10T16:12:51.999Z</time></trkpt><trkpt lat="45.97238353152662" lon="9.453218467525716"><ele>587.5</ele><time>2026-04-10T16:12:52.999Z</time></trkpt><trkpt lat="45.97245720130998" lon="9.45331434775292"><ele>588.0</ele><time>2026-04-10T16:12:53.999Z</time></trkpt><trkpt lat="45.97253316853839" lon="9.453407920836982"><ele>588.5</ele><time>2026-04-10T16:12:54.999Z</time></trkpt><trkpt lat="45.97259330028073" lon="9.453498382102634"><ele>589.0</ele><time>2026-04-10T16:12:55.999Z</time></trkpt><trkpt lat="45.972658867305455" lon="9.453574110482501"><ele>589.5</ele><time>2026-04-10T16:12:56.999Z</time></trkpt><trkpt lat="45.97271454745141" lon="9.453627762527475"><ele>590.0</ele><time>2026-04-10T16:12:57.999Z</time></trkpt><trkpt lat="45.972774129129974" lon="9.45368508461337"><ele>590.0</ele><time>2026-04-10T16:12:58.999Z</time></trkpt><trkpt lat="45.97287337334469" lon="9.453707265202098"><ele>590.0</ele><time>2026-04-10T16:12:59.999Z</time></trkpt><trkpt lat="45.972999138640645" lon="9.453699125204036"><ele>590.0</ele><time>2026-04-10T16:13:00.999Z</time></trkpt><trkpt lat="45.97311837966812" lon="9.453669174277916"><ele>590.0</ele><time>2026-04-10T16:13:01.999Z</time></trkpt><trkpt lat="45.97323925655105" lon="9.453620183641576"><ele>590.0</ele><time>2026-04-10T16:13:02.999Z</time></trkpt><trkpt lat="45.97334840659808" lon="9.453563443030896"><ele>590.0</ele><time>2026-04-10T16:13:03.999Z</time></trkpt><trkpt lat="45.97344163366079" lon="9.453506055747614"><ele>590.0</ele><time>2026-04-10T16:13:04.999Z</time></trkpt><trkpt lat="45.97353095484373" lon="9.453436846559152"><ele>590.0</ele><time>2026-04-10T16:13:05.999Z</time></trkpt><trkpt lat="45.97362939790535" lon="9.453357050093649"><ele>590.0</ele><time>2026-04-10T16:13:06.999Z</time></trkpt><trkpt lat="45.97373196762308" lon="9.453282215230306"><ele>590.5</ele><time>2026-04-10T16:13:07.999Z</time></trkpt><trkpt lat="45.97384347661025" lon="9.453195888876948"><ele>591.0</ele><time>2026-04-10T16:13:08.999Z</time></trkpt><trkpt lat="45.973952253013465" lon="9.453113195300569"><ele>591.5</ele><time>2026-04-10T16:13:09.999Z</time></trkpt><trkpt lat="45.97404562203633" lon="9.453040960321148"><ele>592.0</ele><time>2026-04-10T16:13:10.999Z</time></trkpt><trkpt lat="45.97413514970986" lon="9.452976811096118"><ele>592.4</ele><time>2026-04-10T16:13:11.999Z</time></trkpt><trkpt lat="45.97421872094075" lon="9.452910950428373"><ele>592.8000000000001</ele><time>2026-04-10T16:13:12.999Z</time></trkpt><trkpt lat="45.97429488437361" lon="9.452845894332098"><ele>593.2</ele><time>2026-04-10T16:13:13.999Z</time></trkpt><trkpt lat="45.97436495045939" lon="9.452786501586742"><ele>593.6</ele><time>2026-04-10T16:13:14.999Z</time></trkpt><trkpt lat="45.97444937772364" lon="9.452691046113026"><ele>594.0</ele><time>2026-04-10T16:13:15.999Z</time></trkpt><trkpt lat="45.97452671240325" lon="9.452581245509977"><ele>594.0</ele><time>2026-04-10T16:13:16.999Z</time></trkpt><trkpt lat="45.97459941947511" lon="9.452471692243918"><ele>594.0</ele><time>2026-04-10T16:13:17.999Z</time></trkpt><trkpt lat="45.97467485192017" lon="9.452345332928887"><ele>594.0</ele><time>2026-04-10T16:13:18.999Z</time></trkpt><trkpt lat="45.974765125186074" lon="9.45219904323966"><ele>594.0</ele><time>2026-04-10T16:13:19.999Z</time></trkpt><trkpt lat="45.97488439283468" lon="9.452029335278848"><ele>595.0</ele><time>2026-04-10T16:13:20.999Z</time></trkpt><trkpt lat="45.97502288040603" lon="9.451849460850925"><ele>596.0</ele><time>2026-04-10T16:13:21.999Z</time></trkpt><trkpt lat="45.975142225675306" lon="9.451689885081143"><ele>597.0</ele><time>2026-04-10T16:13:22.999Z</time></trkpt><trkpt lat="45.975243027955855" lon="9.451548215707506"><ele>597.0</ele><time>2026-04-10T16:13:23.999Z</time></trkpt><trkpt lat="45.97533973249978" lon="9.451410367730697"><ele>597.0</ele><time>2026-04-10T16:13:24.999Z</time></trkpt><trkpt lat="45.975440371542504" lon="9.451271683595568"><ele>597.0</ele><time>2026-04-10T16:13:25.999Z</time></trkpt><trkpt lat="45.975555111968276" lon="9.451112790970983"><ele>597.0</ele><time>2026-04-10T16:13:26.999Z</time></trkpt><trkpt lat="45.975661841254" lon="9.450958661879467"><ele>595.75</ele><time>2026-04-10T16:13:27.999Z</time></trkpt><trkpt lat="45.9757628644115" lon="9.450834354219804"><ele>594.5</ele><time>2026-04-10T16:13:28.999Z</time></trkpt><trkpt lat="45.9758650356341" lon="9.45072567385489"><ele>593.25</ele><time>2026-04-10T16:13:29.999Z</time></trkpt><trkpt lat="45.97596700709603" lon="9.450633573724614"><ele>592.0</ele><time>2026-04-10T16:13:30.999Z</time></trkpt><trkpt lat="45.97607827072344" lon="9.450533648392772"><ele>591.0</ele><time>2026-04-10T16:13:31.999Z</time></trkpt><trkpt lat="45.97619595222635" lon="9.45042828586862"><ele>590.0</ele><time>2026-04-10T16:13:32.999Z</time></trkpt><trkpt lat="45.97630276198799" lon="9.450332803933401"><ele>589.0</ele><time>2026-04-10T16:13:33.999Z</time></trkpt><trkpt lat="45.97640017876871" lon="9.45024480643013"><ele>588.0</ele><time>2026-04-10T16:13:35Z</time></trkpt><trkpt lat="45.976491203482034" lon="9.450163102779065"><ele>588.0</ele><time>2026-04-10T16:13:36Z</time></trkpt><trkpt lat="45.97657372081353" lon="9.450086895798936"><ele>588.0</ele><time>2026-04-10T16:13:37Z</time></trkpt><trkpt lat="45.97664631415424" lon="9.450015869717111"><ele>588.0</ele><time>2026-04-10T16:13:38Z</time></trkpt><trkpt lat="45.9767189733401" lon="9.449946738350759"><ele>588.0</ele><time>2026-04-10T16:13:39Z</time></trkpt><trkpt lat="45.97678575951619" lon="9.449887564168776"><ele>588.0</ele><time>2026-04-10T16:13:40Z</time></trkpt><trkpt lat="45.97684690835056" lon="9.449832440815321"><ele>588.0</ele><time>2026-04-10T16:13:41Z</time></trkpt><trkpt lat="45.97690538284928" lon="9.449779290503889"><ele>590.0</ele><time>2026-04-10T16:13:42Z</time></trkpt><trkpt lat="45.97699327016069" lon="9.449692541164437"><ele>590.0</ele><time>2026-04-10T16:13:44Z</time></trkpt><trkpt lat="45.97705263729375" lon="9.449618112689507"><ele>587.0</ele><time>2026-04-10T16:13:48Z</time></trkpt><trkpt lat="45.977056048784355" lon="9.449709417587949"><ele>590.0</ele><time>2026-04-10T16:14:52.999Z</time></trkpt><trkpt lat="45.977131379738545" lon="9.449633100421078"><ele>590.0</ele><time>2026-04-10T16:14:53.999Z</time></trkpt><trkpt lat="45.97706544545948" lon="9.449574197396789"><ele>587.0</ele><time>2026-04-10T16:16:19.999Z</time></trkpt></trkseg><trkseg><trkpt lat="45.9771666034709" lon="9.44949500653337"><ele>587.0</ele><time>2026-04-10T16:31:01.999Z</time></trkpt><trkpt lat="45.97723966982545" lon="9.449421486493973"><ele>587.0</ele><time>2026-04-10T16:31:02.999Z</time></trkpt><trkpt lat="45.97732766778813" lon="9.44933727905247"><ele>587.0</ele><time>2026-04-10T16:31:03.999Z</time></trkpt><trkpt lat="45.97742726567356" lon="9.449251340955918"><ele>587.0</ele><time>2026-04-10T16:31:04.999Z</time></trkpt><trkpt lat="45.97752208344805" lon="9.449163401618849"><ele>587.0</ele><time>2026-04-10T16:31:05.999Z</time></trkpt><trkpt lat="45.9776160961877" lon="9.449079362893167"><ele>587.0</ele><time>2026-04-10T16:31:06.999Z</time></trkpt><trkpt lat="45.97768993041283" lon="9.44897040478712"><ele>587.0</ele><time>2026-04-10T16:31:07.999Z</time></trkpt><trkpt lat="45.97780749807549" lon="9.44895184427405"><ele>587.0</ele><time>2026-04-10T16:31:08.999Z</time></trkpt><trkpt lat="45.97794998233983" lon="9.448854333292719"><ele>587.0</ele><time>2026-04-10T16:31:10.999Z</time></trkpt><trkpt lat="45.97809574389608" lon="9.448786385583986"><ele>586.3333333333333</ele><time>2026-04-10T16:31:11.999Z</time></trkpt><trkpt lat="45.97824511872923" lon="9.448719527468027"><ele>585.6666666666666</ele><time>2026-04-10T16:31:12.999Z</time></trkpt><trkpt lat="45.97838698147691" lon="9.448657631505574"><ele>585.0</ele><time>2026-04-10T16:31:13.999Z</time></trkpt><trkpt lat="45.978528334014555" lon="9.448611838472535"><ele>584.6666666666666</ele><time>2026-04-10T16:31:14.999Z</time></trkpt><trkpt lat="45.9786797006292" lon="9.448505115847132"><ele>584.3333333333333</ele><time>2026-04-10T16:31:15.999Z</time></trkpt><trkpt lat="45.978832197330505" lon="9.448406851134477"><ele>584.0</ele><time>2026-04-10T16:31:16.999Z</time></trkpt><trkpt lat="45.97897237034364" lon="9.448275987296011"><ele>584.0</ele><time>2026-04-10T16:31:17.999Z</time></trkpt><trkpt lat="45.97909994715046" lon="9.448097468981214"><ele>584.0</ele><time>2026-04-10T16:31:18.999Z</time></trkpt><trkpt lat="45.97921868953199" lon="9.447878367109986"><ele>584.0</ele><time>2026-04-10T16:31:19.999Z</time></trkpt><trkpt lat="45.9793175243395" lon="9.447630213034904"><ele>583.3333333333333</ele><time>2026-04-10T16:31:20.999Z</time></trkpt><trkpt lat="45.97941450058417" lon="9.44736404419341"><ele>582.6666666666666</ele><time>2026-04-10T16:31:21.999Z</time></trkpt><trkpt lat="45.979509356727874" lon="9.447107964149613"><ele>582.0</ele><time>2026-04-10T16:31:22.999Z</time></trkpt><trkpt lat="45.97960107241358" lon="9.446853382198128"><ele>580.0</ele><time>2026-04-10T16:31:23.999Z</time></trkpt><trkpt lat="45.97969816663047" lon="9.446595214820377"><ele>578.0</ele><time>2026-04-10T16:31:24.999Z</time></trkpt><trkpt lat="45.979798012626404" lon="9.44633874070632"><ele>576.0</ele><time>2026-04-10T16:31:25.999Z</time></trkpt><trkpt lat="45.979896108361295" lon="9.446086050435317"><ele>576.3333333333334</ele><time>2026-04-10T16:31:26.999Z</time></trkpt><trkpt lat="45.979985047184144" lon="9.445852566595423"><ele>576.6666666666667</ele><time>2026-04-10T16:31:27.999Z</time></trkpt><trkpt lat="45.98006949235034" lon="9.44562003876364"><ele>577.0</ele><time>2026-04-10T16:31:28.999Z</time></trkpt><trkpt lat="45.980149094416326" lon="9.445369942688064"><ele>577.0</ele><time>2026-04-10T16:31:29.999Z</time></trkpt><trkpt lat="45.98021820635648" lon="9.44510667457346"><ele>577.0</ele><time>2026-04-10T16:31:30.999Z</time></trkpt><trkpt lat="45.98028155637223" lon="9.44482020892127"><ele>577.0</ele><time>2026-04-10T16:31:31.999Z</time></trkpt><trkpt lat="45.98034655584821" lon="9.444538055110787"><ele>574.0</ele><time>2026-04-10T16:31:32.999Z</time></trkpt><trkpt lat="45.9804127479481" lon="9.444262771500913"><ele>571.0</ele><time>2026-04-10T16:31:33.999Z</time></trkpt><trkpt lat="45.98048164035129" lon="9.443984650984543"><ele>568.0</ele><time>2026-04-10T16:31:34.999Z</time></trkpt><trkpt lat="45.980551271354564" lon="9.443707524181955"><ele>567.3333333333334</ele><time>2026-04-10T16:31:35.999Z</time></trkpt><trkpt lat="45.98062039184278" lon="9.443448473527317"><ele>566.6666666666666</ele><time>2026-04-10T16:31:36.999Z</time></trkpt><trkpt lat="45.980683138998145" lon="9.443202159914005"><ele>566.0</ele><time>2026-04-10T16:31:37.999Z</time></trkpt><trkpt lat="45.980740324402134" lon="9.442961159095898"><ele>564.3333333333333</ele><time>2026-04-10T16:31:38.999Z</time></trkpt><trkpt lat="45.980801992906464" lon="9.442701680067968"><ele>562.6666666666666</ele><time>2026-04-10T16:31:39.999Z</time></trkpt><trkpt lat="45.980866225475836" lon="9.44243970555173"><ele>561.0</ele><time>2026-04-10T16:31:40.999Z</time></trkpt><trkpt lat="45.980928437669384" lon="9.442201067844955"><ele>562.3333333333334</ele><time>2026-04-10T16:31:41.999Z</time></trkpt><trkpt lat="45.980989298301026" lon="9.44196905557035"><ele>563.6666666666667</ele><time>2026-04-10T16:31:42.999Z</time></trkpt><trkpt lat="45.9810507886939" lon="9.441746046674425"><ele>565.0</ele><time>2026-04-10T16:31:43.999Z</time></trkpt><trkpt lat="45.981129457966105" lon="9.4415127087691"><ele>562.3333333333334</ele><time>2026-04-10T16:31:44.999Z</time></trkpt><trkpt lat="45.98124238421596" lon="9.441269857307722"><ele>559.6666666666666</ele><time>2026-04-10T16:31:45.999Z</time></trkpt><trkpt lat="45.981383688895285" lon="9.441035168302662"><ele>557.0</ele><time>2026-04-10T16:31:46.999Z</time></trkpt><trkpt lat="45.98153184006557" lon="9.4407859448356"><ele>557.0</ele><time>2026-04-10T16:31:47.999Z</time></trkpt><trkpt lat="45.98168340800113" lon="9.440521401568303"><ele>557.0</ele><time>2026-04-10T16:31:48.999Z</time></trkpt><trkpt lat="45.981838234195294" lon="9.440245209167832"><ele>557.0</ele><time>2026-04-10T16:31:49.999Z</time></trkpt><trkpt lat="45.9819925493348" lon="9.43996513240655"><ele>557.0</ele><time>2026-04-10T16:31:50.999Z</time></trkpt><trkpt lat="45.982143899319304" lon="9.439696416355776"><ele>553.0</ele><time>2026-04-10T16:31:51.999Z</time></trkpt><trkpt lat="45.982291372668406" lon="9.439450142897247"><ele>549.0</ele><time>2026-04-10T16:31:52.999Z</time></trkpt><trkpt lat="45.98243556680245" lon="9.439199248219856"><ele>550.0</ele><time>2026-04-10T16:31:53.999Z</time></trkpt><trkpt lat="45.98257979385378" lon="9.438942640535743"><ele>551.0</ele><time>2026-04-10T16:31:54.999Z</time></trkpt><trkpt lat="45.982716593583454" lon="9.438701153138524"><ele>552.0</ele><time>2026-04-10T16:31:55.999Z</time></trkpt><trkpt lat="45.98284361220942" lon="9.438469870611668"><ele>552.0</ele><time>2026-04-10T16:31:56.999Z</time></trkpt><trkpt lat="45.982960482873466" lon="9.43827126305516"><ele>552.0</ele><time>2026-04-10T16:31:57.999Z</time></trkpt><trkpt lat="45.983068354116455" lon="9.438079408321192"><ele>552.0</ele><time>2026-04-10T16:31:58.999Z</time></trkpt><trkpt lat="45.983166614769594" lon="9.437892886061542"><ele>551.6666666666666</ele><time>2026-04-10T16:31:59.999Z</time></trkpt><trkpt lat="45.983255304804025" lon="9.43768805048169"><ele>551.3333333333333</ele><time>2026-04-10T16:32:00.999Z</time></trkpt><trkpt lat="45.98332859424638" lon="9.437428080001837"><ele>551.0</ele><time>2026-04-10T16:32:01.999Z</time></trkpt><trkpt lat="45.98339698435721" lon="9.437138256803431"><ele>554.6666666666666</ele><time>2026-04-10T16:32:02.999Z</time></trkpt><trkpt lat="45.983467938109825" lon="9.436860128013334"><ele>558.3333333333334</ele><time>2026-04-10T16:32:03.999Z</time></trkpt><trkpt lat="45.98353708281894" lon="9.4366161317819"><ele>562.0</ele><time>2026-04-10T16:32:04.999Z</time></trkpt><trkpt lat="45.983612334782435" lon="9.436388057432417"><ele>559.3333333333334</ele><time>2026-04-10T16:32:05.999Z</time></trkpt><trkpt lat="45.983697562140584" lon="9.43619310448697"><ele>556.6666666666666</ele><time>2026-04-10T16:32:06.999Z</time></trkpt><trkpt lat="45.98380671844489" lon="9.436006609814672"><ele>554.0</ele><time>2026-04-10T16:32:07.999Z</time></trkpt><trkpt lat="45.983943187131764" lon="9.43582536707646"><ele>554.0</ele><time>2026-04-10T16:32:08.999Z</time></trkpt><trkpt lat="45.984104397529066" lon="9.435641538469076"><ele>554.0</ele><time>2026-04-10T16:32:09.999Z</time></trkpt><trkpt lat="45.98426733431603" lon="9.435479116958474"><ele>554.0</ele><time>2026-04-10T16:32:10.999Z</time></trkpt><trkpt lat="45.98441343758221" lon="9.435323579595462"><ele>555.3333333333333</ele><time>2026-04-10T16:32:11.999Z</time></trkpt><trkpt lat="45.98453862173683" lon="9.435180106069108"><ele>556.6666666666666</ele><time>2026-04-10T16:32:12.999Z</time></trkpt><trkpt lat="45.98465537681006" lon="9.435034910373117"><ele>558.0</ele><time>2026-04-10T16:32:13.999Z</time></trkpt><trkpt lat="45.98475254904113" lon="9.434897296064785"><ele>558.0</ele><time>2026-04-10T16:32:14.999Z</time></trkpt><trkpt lat="45.98484951272108" lon="9.434733394241585"><ele>558.0</ele><time>2026-04-10T16:32:15.999Z</time></trkpt><trkpt lat="45.984936377262144" lon="9.434516177188655"><ele>558.0</ele><time>2026-04-10T16:32:16.999Z</time></trkpt><trkpt lat="45.985011002034106" lon="9.43424384880869"><ele>558.3333333333334</ele><time>2026-04-10T16:32:17.999Z</time></trkpt><trkpt lat="45.985066415193025" lon="9.433932376770885"><ele>558.6666666666667</ele><time>2026-04-10T16:32:18.999Z</time></trkpt><trkpt lat="45.98510832441786" lon="9.433619941560508"><ele>559.0</ele><time>2026-04-10T16:32:19.999Z</time></trkpt><trkpt lat="45.985145736928494" lon="9.433353625823928"><ele>559.0</ele><time>2026-04-10T16:32:20.999Z</time></trkpt><trkpt lat="45.98518866235574" lon="9.433113780941502"><ele>559.0</ele><time>2026-04-10T16:32:21.999Z</time></trkpt><trkpt lat="45.98523634517541" lon="9.432897332773642"><ele>559.0</ele><time>2026-04-10T16:32:22.999Z</time></trkpt><trkpt lat="45.98529383510346" lon="9.432698741266726"><ele>556.6666666666667</ele><time>2026-04-10T16:32:23.999Z</time></trkpt><trkpt lat="45.985369216411485" lon="9.432511024611287"><ele>554.3333333333334</ele><time>2026-04-10T16:32:24.999Z</time></trkpt><trkpt lat="45.98547301631123" lon="9.432337318952293"><ele>552.0</ele><time>2026-04-10T16:32:25.999Z</time></trkpt><trkpt lat="45.98559523060095" lon="9.432183208831566"><ele>551.25</ele><time>2026-04-10T16:32:26.999Z</time></trkpt><trkpt lat="45.98571083898083" lon="9.432061747937809"><ele>550.5</ele><time>2026-04-10T16:32:27.999Z</time></trkpt><trkpt lat="45.985811573106794" lon="9.431945608642762"><ele>549.75</ele><time>2026-04-10T16:32:28.999Z</time></trkpt><trkpt lat="45.98591148789595" lon="9.431840622443403"><ele>549.0</ele><time>2026-04-10T16:32:29.999Z</time></trkpt><trkpt lat="45.9860020836162" lon="9.431721792732505"><ele>551.75</ele><time>2026-04-10T16:32:30.999Z</time></trkpt><trkpt lat="45.98608939218482" lon="9.431561403923038"><ele>554.5</ele><time>2026-04-10T16:32:31.999Z</time></trkpt><trkpt lat="45.98616416313139" lon="9.431385466371404"><ele>557.25</ele><time>2026-04-10T16:32:32.999Z</time></trkpt><trkpt lat="45.986209028128734" lon="9.431206913035131"><ele>560.0</ele><time>2026-04-10T16:32:33.999Z</time></trkpt><trkpt lat="45.9862410261766" lon="9.43103477138875"><ele>560.0</ele><time>2026-04-10T16:32:34.999Z</time></trkpt><trkpt lat="45.98625026602693" lon="9.430852635675816"><ele>560.0</ele><time>2026-04-10T16:32:35.999Z</time></trkpt><trkpt lat="45.98624652087276" lon="9.430617496440869"><ele>560.0</ele><time>2026-04-10T16:32:36.999Z</time></trkpt><trkpt lat="45.98630418244602" lon="9.430363466097722"><ele>560.25</ele><time>2026-04-10T16:32:37.999Z</time></trkpt><trkpt lat="45.98631287136374" lon="9.43014034217011"><ele>560.5</ele><time>2026-04-10T16:32:38.999Z</time></trkpt><trkpt lat="45.98626554412669" lon="9.42998043953315"><ele>560.75</ele><time>2026-04-10T16:32:39.999Z</time></trkpt><trkpt lat="45.98627337652937" lon="9.429845102601154"><ele>561.0</ele><time>2026-04-10T16:32:40.999Z</time></trkpt><trkpt lat="45.98629223957859" lon="9.4296930708893"><ele>560.75</ele><time>2026-04-10T16:32:41.999Z</time></trkpt><trkpt lat="45.98629901168598" lon="9.42950129929056"><ele>560.5</ele><time>2026-04-10T16:32:42.999Z</time></trkpt><trkpt lat="45.986306324768485" lon="9.429280380891289"><ele>560.25</ele><time>2026-04-10T16:32:43.999Z</time></trkpt><trkpt lat="45.986312028662105" lon="9.429058615537693"><ele>560.0</ele><time>2026-04-10T16:32:44.999Z</time></trkpt><trkpt lat="45.98631688342856" lon="9.428839572921566"><ele>558.6666666666666</ele><time>2026-04-10T16:32:45.999Z</time></trkpt><trkpt lat="45.98633978677953" lon="9.428595749575953"><ele>557.3333333333334</ele><time>2026-04-10T16:32:46.999Z</time></trkpt><trkpt lat="45.986375287043785" lon="9.428326099756818"><ele>556.0</ele><time>2026-04-10T16:32:47.999Z</time></trkpt><trkpt lat="45.986411664020295" lon="9.42806795556023"><ele>554.6666666666667</ele><time>2026-04-10T16:32:48.999Z</time></trkpt><trkpt lat="45.98644643817115" lon="9.427834633141346"><ele>553.3333333333334</ele><time>2026-04-10T16:32:49.999Z</time></trkpt><trkpt lat="45.986474339147954" lon="9.427603711181042"><ele>552.0</ele><time>2026-04-10T16:32:50.999Z</time></trkpt><trkpt lat="45.986476310301335" lon="9.427349878449375"><ele>550.6666666666666</ele><time>2026-04-10T16:32:51.999Z</time></trkpt><trkpt lat="45.98644415372725" lon="9.427091303878273"><ele>549.3333333333333</ele><time>2026-04-10T16:32:52.999Z</time></trkpt><trkpt lat="45.98640233791393" lon="9.426818311091207"><ele>548.0</ele><time>2026-04-10T16:32:53.999Z</time></trkpt><trkpt lat="45.98637891219239" lon="9.42656714343233"><ele>548.0</ele><time>2026-04-10T16:32:54.999Z</time></trkpt><trkpt lat="45.98638156989782" lon="9.426312348475982"><ele>548.0</ele><time>2026-04-10T16:32:55.999Z</time></trkpt><trkpt lat="45.98641573010046" lon="9.426045406664958"><ele>548.0</ele><time>2026-04-10T16:32:57Z</time></trkpt><trkpt lat="45.98648143596195" lon="9.425779022067605"><ele>549.6666666666666</ele><time>2026-04-10T16:32:58Z</time></trkpt><trkpt lat="45.98655371467311" lon="9.425496782862728"><ele>551.3333333333334</ele><time>2026-04-10T16:32:59Z</time></trkpt><trkpt lat="45.98662141656327" lon="9.425205208331"><ele>553.0</ele><time>2026-04-10T16:33:00Z</time></trkpt><trkpt lat="45.98668482599212" lon="9.424939271763453"><ele>553.0</ele><time>2026-04-10T16:33:01Z</time></trkpt><trkpt lat="45.98674076934003" lon="9.424701622506246"><ele>553.0</ele><time>2026-04-10T16:33:02Z</time></trkpt><trkpt lat="45.98679063670902" lon="9.424491960832484"><ele>553.0</ele><time>2026-04-10T16:33:03Z</time></trkpt><trkpt lat="45.986842382386556" lon="9.424278801466171"><ele>550.25</ele><time>2026-04-10T16:33:04Z</time></trkpt><trkpt lat="45.98689332408328" lon="9.424067588527214"><ele>547.5</ele><time>2026-04-10T16:33:05Z</time></trkpt><trkpt lat="45.98693805043173" lon="9.423867269151115"><ele>544.75</ele><time>2026-04-10T16:33:06Z</time></trkpt><trkpt lat="45.98697972458105" lon="9.423672022829734"><ele>542.0</ele><time>2026-04-10T16:33:07Z</time></trkpt><trkpt lat="45.98702577622936" lon="9.423459628600172"><ele>539.3333333333333</ele><time>2026-04-10T16:33:08Z</time></trkpt><trkpt lat="45.987085744872815" lon="9.423193308429273"><ele>536.6666666666666</ele><time>2026-04-10T16:33:09Z</time></trkpt><trkpt lat="45.987163579471506" lon="9.422912526557145"><ele>534.0</ele><time>2026-04-10T16:33:10Z</time></trkpt><trkpt lat="45.98722961373342" lon="9.422646437137653"><ele>531.6666666666666</ele><time>2026-04-10T16:33:11Z</time></trkpt><trkpt lat="45.98728415389104" lon="9.422377200159795"><ele>529.3333333333333</ele><time>2026-04-10T16:33:12Z</time></trkpt><trkpt lat="45.98734244828275" lon="9.422130909513568"><ele>527.0</ele><time>2026-04-10T16:33:13Z</time></trkpt><trkpt lat="45.987401359320735" lon="9.42191181745804"><ele>527.0</ele><time>2026-04-10T16:33:14Z</time></trkpt><trkpt lat="45.98747363698506" lon="9.421686282433377"><ele>527.0</ele><time>2026-04-10T16:33:15Z</time></trkpt><trkpt lat="45.98756507973234" lon="9.421466842277031"><ele>527.0</ele><time>2026-04-10T16:33:16Z</time></trkpt><trkpt lat="45.98767807073632" lon="9.421252166669067"><ele>527.0</ele><time>2026-04-10T16:33:17Z</time></trkpt><trkpt lat="45.98780138703478" lon="9.42104110644682"><ele>527.0</ele><time>2026-04-10T16:33:18Z</time></trkpt><trkpt lat="45.98793125831775" lon="9.420806888894584"><ele>527.0</ele><time>2026-04-10T16:33:19Z</time></trkpt><trkpt lat="45.98806430227701" lon="9.420551976487692"><ele>523.5</ele><time>2026-04-10T16:33:20Z</time></trkpt><trkpt lat="45.988199329289316" lon="9.42024924069724"><ele>520.0</ele><time>2026-04-10T16:33:21Z</time></trkpt><trkpt lat="45.98831658415226" lon="9.419945928273014"><ele>523.3333333333334</ele><time>2026-04-10T16:33:22Z</time></trkpt><trkpt lat="45.988412829344064" lon="9.419677607266369"><ele>526.6666666666666</ele><time>2026-04-10T16:33:23Z</time></trkpt><trkpt lat="45.98849534376818" lon="9.419457011821054"><ele>530.0</ele><time>2026-04-10T16:33:24Z</time></trkpt><trkpt lat="45.9885728506492" lon="9.419241861255244"><ele>530.0</ele><time>2026-04-10T16:33:25Z</time></trkpt><trkpt lat="45.988643307999276" lon="9.419010691805367"><ele>530.0</ele><time>2026-04-10T16:33:26Z</time></trkpt><trkpt lat="45.98868609761752" lon="9.418785582504036"><ele>530.0</ele><time>2026-04-10T16:33:27Z</time></trkpt><trkpt lat="45.988706457465476" lon="9.418547208023995"><ele>526.3333333333333</ele><time>2026-04-10T16:33:28Z</time></trkpt><trkpt lat="45.98871274872624" lon="9.418325665851235"><ele>522.6666666666666</ele><time>2026-04-10T16:33:29Z</time></trkpt><trkpt lat="45.98874489749449" lon="9.418082551854264"><ele>519.0</ele><time>2026-04-10T16:33:30Z</time></trkpt><trkpt lat="45.98881514381202" lon="9.417840521002597"><ele>516.6666666666666</ele><time>2026-04-10T16:33:31Z</time></trkpt><trkpt lat="45.98889843610646" lon="9.417614084891884"><ele>514.3333333333333</ele><time>2026-04-10T16:33:32Z</time></trkpt><trkpt lat="45.98897125808967" lon="9.417437337104417"><ele>512.0</ele><time>2026-04-10T16:33:33Z</time></trkpt><trkpt lat="45.989037353901544" lon="9.417273889554156"><ele>513.25</ele><time>2026-04-10T16:33:34Z</time></trkpt><trkpt lat="45.989101559339574" lon="9.417106397521918"><ele>514.5</ele><time>2026-04-10T16:33:35Z</time></trkpt><trkpt lat="45.989167877647375" lon="9.416923714383286"><ele>515.75</ele><time>2026-04-10T16:33:36Z</time></trkpt><trkpt lat="45.98924302447981" lon="9.416708575700051"><ele>517.0</ele><time>2026-04-10T16:33:37Z</time></trkpt><trkpt lat="45.989337786409585" lon="9.416478223304226"><ele>515.0</ele><time>2026-04-10T16:33:38Z</time></trkpt><trkpt lat="45.98941665901951" lon="9.416251039614346"><ele>513.0</ele><time>2026-04-10T16:33:39Z</time></trkpt><trkpt lat="45.98947886176791" lon="9.416044258305458"><ele>511.0</ele><time>2026-04-10T16:33:40Z</time></trkpt><trkpt lat="45.98954173128566" lon="9.415846010233501"><ele>511.0</ele><time>2026-04-10T16:33:41Z</time></trkpt><trkpt lat="45.989611169729166" lon="9.415617434406336"><ele>511.0</ele><time>2026-04-10T16:33:42Z</time></trkpt><trkpt lat="45.98968960516448" lon="9.415330213296707"><ele>511.0</ele><time>2026-04-10T16:33:43Z</time></trkpt><trkpt lat="45.989783436990635" lon="9.415047376088825"><ele>509.33333333333337</ele><time>2026-04-10T16:33:44Z</time></trkpt><trkpt lat="45.989896351535045" lon="9.414770203953317"><ele>507.66666666666663</ele><time>2026-04-10T16:33:45Z</time></trkpt><trkpt lat="45.99000526563898" lon="9.414512409616064"><ele>506.0</ele><time>2026-04-10T16:33:46Z</time></trkpt><trkpt lat="45.99009998800609" lon="9.414268336912881"><ele>506.0</ele><time>2026-04-10T16:33:47Z</time></trkpt><trkpt lat="45.99018587875533" lon="9.414043748121925"><ele>506.0</ele><time>2026-04-10T16:33:48Z</time></trkpt><trkpt lat="45.99027764654904" lon="9.413825527974497"><ele>506.0</ele><time>2026-04-10T16:33:49Z</time></trkpt><trkpt lat="45.99038045293639" lon="9.41360236997869"><ele>504.0</ele><time>2026-04-10T16:33:50Z</time></trkpt><trkpt lat="45.990509081960106" lon="9.413382777389376"><ele>502.0</ele><time>2026-04-10T16:33:51Z</time></trkpt><trkpt lat="45.99066291752497" lon="9.413190647324086"><ele>500.0</ele><time>2026-04-10T16:33:52Z</time></trkpt><trkpt lat="45.990837993247574" lon="9.4130166224353"><ele>501.0</ele><time>2026-04-10T16:33:53Z</time></trkpt><trkpt lat="45.991020788530555" lon="9.412844390572566"><ele>502.0</ele><time>2026-04-10T16:33:54Z</time></trkpt><trkpt lat="45.99119780783409" lon="9.41266384672596"><ele>503.0</ele><time>2026-04-10T16:33:55Z</time></trkpt><trkpt lat="45.991350491223976" lon="9.412509702361554"><ele>503.0</ele><time>2026-04-10T16:33:56Z</time></trkpt><trkpt lat="45.991499357975115" lon="9.41235026461897"><ele>503.0</ele><time>2026-04-10T16:33:57Z</time></trkpt><trkpt lat="45.991635076054216" lon="9.412152630371768"><ele>503.0</ele><time>2026-04-10T16:33:58Z</time></trkpt><trkpt lat="45.99175187293565" lon="9.411914004967628"><ele>505.5</ele><time>2026-04-10T16:33:59Z</time></trkpt><trkpt lat="45.99184708443269" lon="9.41162199500015"><ele>508.0</ele><time>2026-04-10T16:34:00Z</time></trkpt><trkpt lat="45.99191941472693" lon="9.411305134132325"><ele>508.0</ele><time>2026-04-10T16:34:01Z</time></trkpt><trkpt lat="45.991987674336684" lon="9.41097889105577"><ele>508.0</ele><time>2026-04-10T16:34:02Z</time></trkpt><trkpt lat="45.99206325022933" lon="9.410659253316512"><ele>505.0</ele><time>2026-04-10T16:34:03Z</time></trkpt><trkpt lat="45.99213672973589" lon="9.410384888489807"><ele>502.0</ele><time>2026-04-10T16:34:04Z</time></trkpt><trkpt lat="45.99220279501189" lon="9.410128004785669"><ele>499.0</ele><time>2026-04-10T16:34:05Z</time></trkpt><trkpt lat="45.992263265465766" lon="9.409884290175698"><ele>495.33333333333337</ele><time>2026-04-10T16:34:06Z</time></trkpt><trkpt lat="45.99232796570867" lon="9.409640464764125"><ele>491.66666666666663</ele><time>2026-04-10T16:34:07Z</time></trkpt><trkpt lat="45.99241068640992" lon="9.409392067322912"><ele>488.0</ele><time>2026-04-10T16:34:08Z</time></trkpt><trkpt lat="45.99251352051222" lon="9.409149101270648"><ele>495.5</ele><time>2026-04-10T16:34:09Z</time></trkpt><trkpt lat="45.992662433160056" lon="9.40892118343386"><ele>503.0</ele><time>2026-04-10T16:34:10Z</time></trkpt><trkpt lat="45.992812073214516" lon="9.408661398463817"><ele>503.0</ele><time>2026-04-10T16:34:11Z</time></trkpt><trkpt lat="45.9929458059743" lon="9.40841059174541"><ele>503.0</ele><time>2026-04-10T16:34:12Z</time></trkpt><trkpt lat="45.99308777325763" lon="9.408181387642841"><ele>503.0</ele><time>2026-04-10T16:34:13Z</time></trkpt><trkpt lat="45.99321087641766" lon="9.407935106651792"><ele>499.5</ele><time>2026-04-10T16:34:14Z</time></trkpt><trkpt lat="45.99330489942471" lon="9.407645941446809"><ele>496.0</ele><time>2026-04-10T16:34:15Z</time></trkpt><trkpt lat="45.993353683510165" lon="9.40731289345543"><ele>515.5</ele><time>2026-04-10T16:34:16Z</time></trkpt><trkpt lat="45.9933759646297" lon="9.406953754346654"><ele>535.0</ele><time>2026-04-10T16:34:17Z</time></trkpt><trkpt lat="45.993386615972994" lon="9.406568401460389"><ele>530.5</ele><time>2026-04-10T16:34:18Z</time></trkpt><trkpt lat="45.993412771974704" lon="9.40618791700389"><ele>526.0</ele><time>2026-04-10T16:34:19Z</time></trkpt><trkpt lat="45.99345583393264" lon="9.405806380709462"><ele>521.5</ele><time>2026-04-10T16:34:20Z</time></trkpt><trkpt lat="45.99351453488354" lon="9.405449169894457"><ele>517.0</ele><time>2026-04-10T16:34:21Z</time></trkpt><trkpt lat="45.99359405822093" lon="9.405090531110437"><ele>517.0</ele><time>2026-04-10T16:34:22Z</time></trkpt><trkpt lat="45.993689685429665" lon="9.404743043166894"><ele>517.0</ele><time>2026-04-10T16:34:23Z</time></trkpt><trkpt lat="45.993787504317346" lon="9.404383532789085"><ele>509.5</ele><time>2026-04-10T16:34:24Z</time></trkpt><trkpt lat="45.99388348122396" lon="9.404020514810712"><ele>502.0</ele><time>2026-04-10T16:34:25Z</time></trkpt><trkpt lat="45.99398089505793" lon="9.403655662572008"><ele>505.5</ele><time>2026-04-10T16:34:26Z</time></trkpt><trkpt lat="45.99409295693806" lon="9.403298232098079"><ele>509.0</ele><time>2026-04-10T16:34:27Z</time></trkpt><trkpt lat="45.99421648477512" lon="9.4029490358"><ele>509.0</ele><time>2026-04-10T16:34:28Z</time></trkpt><trkpt lat="45.99434254982177" lon="9.40260664669656"><ele>509.0</ele><time>2026-04-10T16:34:29Z</time></trkpt><trkpt lat="45.994468050878154" lon="9.40226592332464"><ele>500.0</ele><time>2026-04-10T16:34:30Z</time></trkpt><trkpt lat="45.99459070647264" lon="9.401927141004503"><ele>491.0</ele><time>2026-04-10T16:34:31Z</time></trkpt><trkpt lat="45.99471416376812" lon="9.401586847522806"><ele>486.0</ele><time>2026-04-10T16:34:32Z</time></trkpt><trkpt lat="45.9948398750628" lon="9.401243831503152"><ele>481.0</ele><time>2026-04-10T16:34:33Z</time></trkpt><trkpt lat="45.99496447689935" lon="9.400904949489615"><ele>486.0</ele><time>2026-04-10T16:34:34Z</time></trkpt><trkpt lat="45.99509141797687" lon="9.400557651332504"><ele>491.0</ele><time>2026-04-10T16:34:35Z</time></trkpt><trkpt lat="45.9952172319779" lon="9.400212898546787"><ele>491.0</ele><time>2026-04-10T16:34:36Z</time></trkpt><trkpt lat="45.99534337060656" lon="9.399865104935387"><ele>491.0</ele><time>2026-04-10T16:34:37Z</time></trkpt><trkpt lat="45.99546327731044" lon="9.39953238153893"><ele>485.5</ele><time>2026-04-10T16:34:38Z</time></trkpt><trkpt lat="45.995575654742595" lon="9.399227453794433"><ele>480.0</ele><time>2026-04-10T16:34:39Z</time></trkpt><trkpt lat="45.99568886536419" lon="9.398932921835087"><ele>478.0</ele><time>2026-04-10T16:34:40Z</time></trkpt><trkpt lat="45.99581527434665" lon="9.398644988988826"><ele>476.0</ele><time>2026-04-10T16:34:41Z</time></trkpt><trkpt lat="45.99597169409231" lon="9.398364758358728"><ele>475.0</ele><time>2026-04-10T16:34:42Z</time></trkpt><trkpt lat="45.996159051466655" lon="9.398093847849802"><ele>474.0</ele><time>2026-04-10T16:34:43Z</time></trkpt><trkpt lat="45.9963599894927" lon="9.39782698213436"><ele>474.0</ele><time>2026-04-10T16:34:44Z</time></trkpt><trkpt lat="45.9965633128832" lon="9.397553064440435"><ele>474.0</ele><time>2026-04-10T16:34:45Z</time></trkpt><trkpt lat="45.99676311865051" lon="9.397281311653103"><ele>474.0</ele><time>2026-04-10T16:34:46Z</time></trkpt><trkpt lat="45.996951247511454" lon="9.397017039140772"><ele>474.0</ele><time>2026-04-10T16:34:47Z</time></trkpt><trkpt lat="45.997118473593574" lon="9.396783510462857"><ele>474.0</ele><time>2026-04-10T16:34:48Z</time></trkpt><trkpt lat="45.99728294065193" lon="9.396547956230012"><ele>474.0</ele><time>2026-04-10T16:34:49Z</time></trkpt><trkpt lat="45.99745489281655" lon="9.39629997375039"><ele>479.0</ele><time>2026-04-10T16:34:50Z</time></trkpt><trkpt lat="45.997636803962" lon="9.396030093502395"><ele>484.0</ele><time>2026-04-10T16:34:51Z</time></trkpt><trkpt lat="45.99783467714513" lon="9.39576031445786"><ele>484.0</ele><time>2026-04-10T16:34:52Z</time></trkpt><trkpt lat="45.99803706099367" lon="9.395508915464056"><ele>484.0</ele><time>2026-04-10T16:34:53Z</time></trkpt><trkpt lat="45.998234901765194" lon="9.395257437925315"><ele>489.0</ele><time>2026-04-10T16:34:54Z</time></trkpt><trkpt lat="45.99841459507567" lon="9.395012874082092"><ele>494.0</ele><time>2026-04-10T16:34:55Z</time></trkpt><trkpt lat="45.998589134437196" lon="9.394775369551585"><ele>486.66666666666663</ele><time>2026-04-10T16:34:56Z</time></trkpt><trkpt lat="45.99874770491351" lon="9.39453787123657"><ele>479.33333333333337</ele><time>2026-04-10T16:34:57Z</time></trkpt><trkpt lat="45.99887956809868" lon="9.394298160283432"><ele>472.0</ele><time>2026-04-10T16:34:58Z</time></trkpt><trkpt lat="45.99899870165243" lon="9.394011115182092"><ele>470.0</ele><time>2026-04-10T16:34:59Z</time></trkpt><trkpt lat="45.999094397077876" lon="9.39368621731622"><ele>468.0</ele><time>2026-04-10T16:35:00Z</time></trkpt><trkpt lat="45.99916848030038" lon="9.393323018886866"><ele>471.0</ele><time>2026-04-10T16:35:01Z</time></trkpt><trkpt lat="45.999231185120564" lon="9.392934006137388"><ele>474.0</ele><time>2026-04-10T16:35:02Z</time></trkpt><trkpt lat="45.999294881629204" lon="9.392543060481916"><ele>474.0</ele><time>2026-04-10T16:35:03Z</time></trkpt><trkpt lat="45.99936096962887" lon="9.392201376902655"><ele>474.0</ele><time>2026-04-10T16:35:04Z</time></trkpt><trkpt lat="45.99942329487172" lon="9.391888339384664"><ele>474.0</ele><time>2026-04-10T16:35:05Z</time></trkpt><trkpt lat="45.99948152026452" lon="9.391583069009423"><ele>474.0</ele><time>2026-04-10T16:35:06Z</time></trkpt><trkpt lat="45.99953701972168" lon="9.391276301544615"><ele>474.0</ele><time>2026-04-10T16:35:07Z</time></trkpt><trkpt lat="45.99959046669093" lon="9.390981539866795"><ele>473.66666666666663</ele><time>2026-04-10T16:35:08Z</time></trkpt><trkpt lat="45.9996407058191" lon="9.390701819958585"><ele>473.3333333333333</ele><time>2026-04-10T16:35:09Z</time></trkpt><trkpt lat="45.999684199057" lon="9.390450979520281"><ele>473.0</ele><time>2026-04-10T16:35:10Z</time></trkpt><trkpt lat="45.99972745070601" lon="9.390215438035337"><ele>473.0</ele><time>2026-04-10T16:35:11Z</time></trkpt><trkpt lat="45.99977152919993" lon="9.389987087503368"><ele>473.0</ele><time>2026-04-10T16:35:12Z</time></trkpt><trkpt lat="45.999837271136926" lon="9.38977205427063"><ele>473.0</ele><time>2026-04-10T16:35:13Z</time></trkpt><trkpt lat="45.99994221545589" lon="9.389562927871152"><ele>472.66666666666663</ele><time>2026-04-10T16:35:14Z</time></trkpt><trkpt lat="46.0000879968215" lon="9.389349704642816"><ele>472.33333333333337</ele><time>2026-04-10T16:35:15Z</time></trkpt><trkpt lat="46.00025622040982" lon="9.389136417307098"><ele>472.0</ele><time>2026-04-10T16:35:16Z</time></trkpt><trkpt lat="46.0004320534315" lon="9.388926845574167"><ele>471.6666666666667</ele><time>2026-04-10T16:35:17Z</time></trkpt><trkpt lat="46.00059138421195" lon="9.388735662563901"><ele>471.33333333333337</ele><time>2026-04-10T16:35:18Z</time></trkpt><trkpt lat="46.00074930577986" lon="9.388540582726462"><ele>471.0</ele><time>2026-04-10T16:35:19Z</time></trkpt><trkpt lat="46.000896383747694" lon="9.388361677943417"><ele>471.0</ele><time>2026-04-10T16:35:20Z</time></trkpt><trkpt lat="46.001042421804904" lon="9.388184368945398"><ele>471.0</ele><time>2026-04-10T16:35:21Z</time></trkpt><trkpt lat="46.001202882656564" lon="9.38799896928342"><ele>471.0</ele><time>2026-04-10T16:35:22Z</time></trkpt><trkpt lat="46.00136033270779" lon="9.387835162538975"><ele>470.66666666666663</ele><time>2026-04-10T16:35:23Z</time></trkpt><trkpt lat="46.00152110020882" lon="9.387689269792052"><ele>470.3333333333333</ele><time>2026-04-10T16:35:24Z</time></trkpt><trkpt lat="46.001679580165444" lon="9.387560855298178"><ele>470.0</ele><time>2026-04-10T16:35:25Z</time></trkpt><trkpt lat="46.00182794300536" lon="9.387433916734475"><ele>470.0</ele><time>2026-04-10T16:35:26Z</time></trkpt><trkpt lat="46.002002259102795" lon="9.387256237322434"><ele>470.0</ele><time>2026-04-10T16:35:27Z</time></trkpt><trkpt lat="46.00219692687741" lon="9.387071240447044"><ele>470.0</ele><time>2026-04-10T16:35:28Z</time></trkpt><trkpt lat="46.002412406265634" lon="9.386897992601137"><ele>468.5</ele><time>2026-04-10T16:35:29Z</time></trkpt><trkpt lat="46.002623220552294" lon="9.386727216888143"><ele>467.0</ele><time>2026-04-10T16:35:30Z</time></trkpt><trkpt lat="46.00280457015607" lon="9.386566695742408"><ele>467.0</ele><time>2026-04-10T16:35:31Z</time></trkpt><trkpt lat="46.00297289343484" lon="9.386415489531654"><ele>467.0</ele><time>2026-04-10T16:35:32Z</time></trkpt><trkpt lat="46.00314231056274" lon="9.38626067441188"><ele>467.0</ele><time>2026-04-10T16:35:33Z</time></trkpt><trkpt lat="46.0033332838744" lon="9.386130577006268"><ele>463.5</ele><time>2026-04-10T16:35:34Z</time></trkpt><trkpt lat="46.00354843955683" lon="9.386038646746211"><ele>460.0</ele><time>2026-04-10T16:35:35Z</time></trkpt><trkpt lat="46.00376963329991" lon="9.385956927328722"><ele>460.0</ele><time>2026-04-10T16:35:36Z</time></trkpt><trkpt lat="46.003993998526546" lon="9.385853840941847"><ele>460.0</ele><time>2026-04-10T16:35:37Z</time></trkpt><trkpt lat="46.004201048486884" lon="9.38574036277239"><ele>458.5</ele><time>2026-04-10T16:35:38Z</time></trkpt><trkpt lat="46.00440194271807" lon="9.385584645533338"><ele>457.0</ele><time>2026-04-10T16:35:39Z</time></trkpt><trkpt lat="46.00459198512049" lon="9.385393237276434"><ele>457.0</ele><time>2026-04-10T16:35:40Z</time></trkpt><trkpt lat="46.0047750357104" lon="9.385185336303673"><ele>457.0</ele><time>2026-04-10T16:35:41Z</time></trkpt><trkpt lat="46.00496166433102" lon="9.384975996863943"><ele>455.5</ele><time>2026-04-10T16:35:42Z</time></trkpt><trkpt lat="46.00514153025429" lon="9.38476416148068"><ele>454.0</ele><time>2026-04-10T16:35:43Z</time></trkpt><trkpt lat="46.00532181273071" lon="9.38453422368819"><ele>454.0</ele><time>2026-04-10T16:35:44Z</time></trkpt><trkpt lat="46.005500007704576" lon="9.384294695822796"><ele>454.0</ele><time>2026-04-10T16:35:45Z</time></trkpt><trkpt lat="46.00567457753199" lon="9.384050257040059"><ele>454.0</ele><time>2026-04-10T16:35:46Z</time></trkpt><trkpt lat="46.005848974286955" lon="9.383805561393265"><ele>454.0</ele><time>2026-04-10T16:35:47Z</time></trkpt><trkpt lat="46.00604507028131" lon="9.383563749340578"><ele>454.0</ele><time>2026-04-10T16:35:48Z</time></trkpt><trkpt lat="46.00620778872167" lon="9.383304711063028"><ele>454.0</ele><time>2026-04-10T16:35:49Z</time></trkpt><trkpt lat="46.006388476626505" lon="9.382995457733553"><ele>452.5</ele><time>2026-04-10T16:35:50.075Z</time></trkpt><trkpt lat="46.00654562745057" lon="9.382725647311046"><ele>451.0</ele><time>2026-04-10T16:35:51Z</time></trkpt><trkpt lat="46.00672409800072" lon="9.382417685208615"><ele>448.0</ele><time>2026-04-10T16:35:52Z</time></trkpt><trkpt lat="46.00680567531143" lon="9.382101210314858"><ele>445.0</ele><time>2026-04-10T16:35:53Z</time></trkpt><trkpt lat="46.006944051104625" lon="9.38185123480067"><ele>445.0</ele><time>2026-04-10T16:35:54Z</time></trkpt><trkpt lat="46.007087808584124" lon="9.381606531522458"><ele>445.0</ele><time>2026-04-10T16:35:55Z</time></trkpt><trkpt lat="46.007232354521676" lon="9.381354979030267"><ele>445.0</ele><time>2026-04-10T16:35:56Z</time></trkpt><trkpt lat="46.007375467409425" lon="9.38109978126153"><ele>446.0</ele><time>2026-04-10T16:35:57Z</time></trkpt><trkpt lat="46.00752222890317" lon="9.38084300002067"><ele>447.0</ele><time>2026-04-10T16:35:58Z</time></trkpt><trkpt lat="46.00767638008728" lon="9.380582560781772"><ele>447.5</ele><time>2026-04-10T16:35:59Z</time></trkpt><trkpt lat="46.00782794277346" lon="9.380325574329884"><ele>448.0</ele><time>2026-04-10T16:36:00Z</time></trkpt><trkpt lat="46.00798146916176" lon="9.380066841349075"><ele>448.0</ele><time>2026-04-10T16:36:01Z</time></trkpt><trkpt lat="46.00813706634438" lon="9.379799469530392"><ele>448.0</ele><time>2026-04-10T16:36:02Z</time></trkpt><trkpt lat="46.00828392443204" lon="9.379543665366535"><ele>448.6666666666667</ele><time>2026-04-10T16:36:03Z</time></trkpt><trkpt lat="46.00842534962444" lon="9.379307126850504"><ele>449.33333333333337</ele><time>2026-04-10T16:36:04Z</time></trkpt><trkpt lat="46.00854775782365" lon="9.379086699678323"><ele>450.0</ele><time>2026-04-10T16:36:05Z</time></trkpt><trkpt lat="46.00865798240944" lon="9.37883437237205"><ele>447.0</ele><time>2026-04-10T16:36:06Z</time></trkpt><trkpt lat="46.008735979875304" lon="9.378545918965958"><ele>444.0</ele><time>2026-04-10T16:36:07Z</time></trkpt><trkpt lat="46.008824041855014" lon="9.378231921402273"><ele>444.0</ele><time>2026-04-10T16:36:08Z</time></trkpt><trkpt lat="46.00896334844627" lon="9.377963052472325"><ele>444.0</ele><time>2026-04-10T16:36:09Z</time></trkpt><trkpt lat="46.0091241413615" lon="9.377669049702364"><ele>443.5</ele><time>2026-04-10T16:36:10Z</time></trkpt><trkpt lat="46.009304002229854" lon="9.377406853398805"><ele>443.0</ele><time>2026-04-10T16:36:11Z</time></trkpt><trkpt lat="46.00946010458991" lon="9.377161309683464"><ele>443.0</ele><time>2026-04-10T16:36:12Z</time></trkpt><trkpt lat="46.0096044782266" lon="9.376925677843856"><ele>443.0</ele><time>2026-04-10T16:36:13Z</time></trkpt><trkpt lat="46.00973861505252" lon="9.376709459719573"><ele>443.0</ele><time>2026-04-10T16:36:14Z</time></trkpt><trkpt lat="46.00986638760061" lon="9.376505129824222"><ele>441.0</ele><time>2026-04-10T16:36:15Z</time></trkpt><trkpt lat="46.00999626083242" lon="9.376287340453505"><ele>439.0</ele><time>2026-04-10T16:36:16Z</time></trkpt><trkpt lat="46.01014029774676" lon="9.376026298049164"><ele>437.0</ele><time>2026-04-10T16:36:17Z</time></trkpt><trkpt lat="46.01030752646808" lon="9.375769530527931"><ele>437.0</ele><time>2026-04-10T16:36:18Z</time></trkpt><trkpt lat="46.01047504377503" lon="9.375509735364261"><ele>437.0</ele><time>2026-04-10T16:36:19Z</time></trkpt><trkpt lat="46.01063431665266" lon="9.375255117079927"><ele>437.0</ele><time>2026-04-10T16:36:20Z</time></trkpt><trkpt lat="46.01079554183569" lon="9.374991255307501"><ele>437.0</ele><time>2026-04-10T16:36:21Z</time></trkpt><trkpt lat="46.01095658821267" lon="9.374734400711239"><ele>437.5</ele><time>2026-04-10T16:36:22Z</time></trkpt><trkpt lat="46.011125956158736" lon="9.37446743030863"><ele>438.0</ele><time>2026-04-10T16:36:23Z</time></trkpt><trkpt lat="46.011287754321096" lon="9.374224776773197"><ele>438.0</ele><time>2026-04-10T16:36:24Z</time></trkpt><trkpt lat="46.01145036623555" lon="9.373993105286658"><ele>438.0</ele><time>2026-04-10T16:36:25Z</time></trkpt><trkpt lat="46.01164018967745" lon="9.373796079192486"><ele>437.0</ele><time>2026-04-10T16:36:26Z</time></trkpt><trkpt lat="46.01186343317444" lon="9.373638062249789"><ele>436.0</ele><time>2026-04-10T16:36:27Z</time></trkpt><trkpt lat="46.01222292969761" lon="9.373563619167243"><ele>436.0</ele><time>2026-04-10T16:36:28Z</time></trkpt><trkpt lat="46.012414132814534" lon="9.37352208537782"><ele>436.0</ele><time>2026-04-10T16:36:29Z</time></trkpt><trkpt lat="46.01263765469022" lon="9.37332607642017"><ele>437.5</ele><time>2026-04-10T16:36:30Z</time></trkpt><trkpt lat="46.012862947698906" lon="9.373126702797913"><ele>439.0</ele><time>2026-04-10T16:36:31Z</time></trkpt><trkpt lat="46.013087124261006" lon="9.37298426514931"><ele>439.0</ele><time>2026-04-10T16:36:32Z</time></trkpt><trkpt lat="46.01329682094267" lon="9.372876701199733"><ele>439.0</ele><time>2026-04-10T16:36:33Z</time></trkpt><trkpt lat="46.0135025324783" lon="9.372782780921042"><ele>439.0</ele><time>2026-04-10T16:36:34Z</time></trkpt><trkpt lat="46.01370326717548" lon="9.372682709939207"><ele>438.5</ele><time>2026-04-10T16:36:35Z</time></trkpt><trkpt lat="46.013911319623986" lon="9.372569370033498"><ele>438.0</ele><time>2026-04-10T16:36:36Z</time></trkpt><trkpt lat="46.01412618464682" lon="9.372429501674725"><ele>436.5</ele><time>2026-04-10T16:36:37Z</time></trkpt><trkpt lat="46.01432922130391" lon="9.372249057373002"><ele>435.0</ele><time>2026-04-10T16:36:38Z</time></trkpt><trkpt lat="46.014523134155475" lon="9.372017862557014"><ele>435.0</ele><time>2026-04-10T16:36:39Z</time></trkpt><trkpt lat="46.01472250150828" lon="9.371764525904997"><ele>435.0</ele><time>2026-04-10T16:36:40Z</time></trkpt><trkpt lat="46.01492814907261" lon="9.371518288724193"><ele>434.5</ele><time>2026-04-10T16:36:41Z</time></trkpt><trkpt lat="46.01514139634179" lon="9.371265339248383"><ele>434.0</ele><time>2026-04-10T16:36:42Z</time></trkpt><trkpt lat="46.015358393795815" lon="9.371012098698158"><ele>434.0</ele><time>2026-04-10T16:36:43Z</time></trkpt><trkpt lat="46.01557863310124" lon="9.37075916572203"><ele>434.0</ele><time>2026-04-10T16:36:44Z</time></trkpt><trkpt lat="46.015796953417635" lon="9.370501163003782"><ele>433.0</ele><time>2026-04-10T16:36:45Z</time></trkpt><trkpt lat="46.016017489402245" lon="9.370243095772532"><ele>432.0</ele><time>2026-04-10T16:36:46Z</time></trkpt><trkpt lat="46.01623073788757" lon="9.369992203091051"><ele>432.0</ele><time>2026-04-10T16:36:47Z</time></trkpt><trkpt lat="46.016422452822184" lon="9.36977280002845"><ele>432.0</ele><time>2026-04-10T16:36:48Z</time></trkpt><trkpt lat="46.016605983600975" lon="9.369558493349356"><ele>431.0</ele><time>2026-04-10T16:36:49Z</time></trkpt><trkpt lat="46.01679149835146" lon="9.369345645041554"><ele>430.0</ele><time>2026-04-10T16:36:50Z</time></trkpt><trkpt lat="46.01696479551394" lon="9.369150135173474"><ele>430.0</ele><time>2026-04-10T16:36:51Z</time></trkpt><trkpt lat="46.01713455555623" lon="9.368957780661546"><ele>430.0</ele><time>2026-04-10T16:36:52Z</time></trkpt><trkpt lat="46.01728435009883" lon="9.368762455385083"><ele>430.0</ele><time>2026-04-10T16:36:53Z</time></trkpt><trkpt lat="46.01742726089567" lon="9.36854944944819"><ele>429.6666666666667</ele><time>2026-04-10T16:36:54Z</time></trkpt><trkpt lat="46.01756653753432" lon="9.368316361594841"><ele>429.33333333333337</ele><time>2026-04-10T16:36:55Z</time></trkpt><trkpt lat="46.017695889510726" lon="9.368085178313208"><ele>429.0</ele><time>2026-04-10T16:36:56Z</time></trkpt><trkpt lat="46.01781295947957" lon="9.367881570875515"><ele>429.0</ele><time>2026-04-10T16:36:57Z</time></trkpt><trkpt lat="46.01792529815172" lon="9.367682307065461"><ele>429.0</ele><time>2026-04-10T16:36:58Z</time></trkpt><trkpt lat="46.01803695686402" lon="9.367497365236419"><ele>429.0</ele><time>2026-04-10T16:36:59Z</time></trkpt><trkpt lat="46.0181680397583" lon="9.367311175995205"><ele>428.66666666666663</ele><time>2026-04-10T16:37:00Z</time></trkpt><trkpt lat="46.018319005699766" lon="9.367179671987747"><ele>428.3333333333333</ele><time>2026-04-10T16:37:01Z</time></trkpt><trkpt lat="46.01850135045088" lon="9.367092277754049"><ele>428.0</ele><time>2026-04-10T16:37:02Z</time></trkpt><trkpt lat="46.018703280927845" lon="9.36709388758759"><ele>428.0</ele><time>2026-04-10T16:37:03Z</time></trkpt><trkpt lat="46.01889915176291" lon="9.367038180514012"><ele>428.0</ele><time>2026-04-10T16:37:04Z</time></trkpt><trkpt lat="46.0190951068862" lon="9.366970471144894"><ele>428.0</ele><time>2026-04-10T16:37:05Z</time></trkpt><trkpt lat="46.019278786470785" lon="9.366851413264305"><ele>432.3333333333333</ele><time>2026-04-10T16:37:06Z</time></trkpt><trkpt lat="46.019461343707995" lon="9.366715657174598"><ele>436.66666666666663</ele><time>2026-04-10T16:37:07Z</time></trkpt><trkpt lat="46.01962870329223" lon="9.36659687338069"><ele>441.0</ele><time>2026-04-10T16:37:08Z</time></trkpt><trkpt lat="46.019762878190285" lon="9.366505882624436"><ele>441.0</ele><time>2026-04-10T16:37:09Z</time></trkpt><trkpt lat="46.01988984659921" lon="9.366402204422515"><ele>441.0</ele><time>2026-04-10T16:37:10Z</time></trkpt><trkpt lat="46.01999840106568" lon="9.366253806750029"><ele>441.0</ele><time>2026-04-10T16:37:11Z</time></trkpt><trkpt lat="46.020089388469" lon="9.366040489096488"><ele>444.33333333333337</ele><time>2026-04-10T16:37:12Z</time></trkpt><trkpt lat="46.02016540535455" lon="9.36577977658574"><ele>447.6666666666667</ele><time>2026-04-10T16:37:13Z</time></trkpt><trkpt lat="46.020232734683105" lon="9.365520201709666"><ele>451.0</ele><time>2026-04-10T16:37:14Z</time></trkpt><trkpt lat="46.020303709453486" lon="9.365300059804758"><ele>451.0</ele><time>2026-04-10T16:37:15Z</time></trkpt><trkpt lat="46.02039437859546" lon="9.365098550162466"><ele>451.0</ele><time>2026-04-10T16:37:16Z</time></trkpt><trkpt lat="46.020522204345546" lon="9.364908087281686"><ele>451.0</ele><time>2026-04-10T16:37:17Z</time></trkpt><trkpt lat="46.02067554232883" lon="9.364708513793392"><ele>454.0</ele><time>2026-04-10T16:37:18Z</time></trkpt><trkpt lat="46.02081809237741" lon="9.364521568914885"><ele>457.0</ele><time>2026-04-10T16:37:19Z</time></trkpt><trkpt lat="46.020951316479724" lon="9.364351493234949"><ele>460.0</ele><time>2026-04-10T16:37:20Z</time></trkpt><trkpt lat="46.02107371435857" lon="9.364216343382468"><ele>460.0</ele><time>2026-04-10T16:37:21Z</time></trkpt><trkpt lat="46.02119173274631" lon="9.364109859603463"><ele>460.0</ele><time>2026-04-10T16:37:22Z</time></trkpt><trkpt lat="46.02131484006767" lon="9.36399648536177"><ele>460.0</ele><time>2026-04-10T16:37:23Z</time></trkpt><trkpt lat="46.021446783613335" lon="9.363877340012305"><ele>460.0</ele><time>2026-04-10T16:37:24Z</time></trkpt><trkpt lat="46.02159457940805" lon="9.36373096235884"><ele>461.0</ele><time>2026-04-10T16:37:25Z</time></trkpt><trkpt lat="46.02175132836225" lon="9.363589634040766"><ele>462.0</ele><time>2026-04-10T16:37:26Z</time></trkpt><trkpt lat="46.02188584377146" lon="9.363461309947162"><ele>463.0</ele><time>2026-04-10T16:37:27Z</time></trkpt><trkpt lat="46.0220077884123" lon="9.363345654620394"><ele>463.0</ele><time>2026-04-10T16:37:28Z</time></trkpt><trkpt lat="46.022121482106236" lon="9.363246579135751"><ele>463.0</ele><time>2026-04-10T16:37:29Z</time></trkpt><trkpt lat="46.022227093230434" lon="9.363179356501362"><ele>463.0</ele><time>2026-04-10T16:37:30Z</time></trkpt><trkpt lat="46.022326059930904" lon="9.363161345961927"><ele>463.0</ele><time>2026-04-10T16:37:31Z</time></trkpt><trkpt lat="46.02243159230145" lon="9.36322149543993"><ele>465.6666666666667</ele><time>2026-04-10T16:37:32Z</time></trkpt><trkpt lat="46.022545840671015" lon="9.363329689883603"><ele>468.33333333333337</ele><time>2026-04-10T16:37:33Z</time></trkpt><trkpt lat="46.022675108623254" lon="9.363496055418643"><ele>471.0</ele><time>2026-04-10T16:37:34Z</time></trkpt><trkpt lat="46.0228178280122" lon="9.363668970170483"><ele>471.0</ele><time>2026-04-10T16:37:35Z</time></trkpt><trkpt lat="46.02294804012864" lon="9.36380781395584"><ele>471.0</ele><time>2026-04-10T16:37:36Z</time></trkpt><trkpt lat="46.02306976538208" lon="9.363918982226734"><ele>471.0</ele><time>2026-04-10T16:37:37Z</time></trkpt><trkpt lat="46.02319343998265" lon="9.364001505673698"><ele>471.0</ele><time>2026-04-10T16:37:38Z</time></trkpt><trkpt lat="46.02329348219442" lon="9.364044962793761"><ele>472.0</ele><time>2026-04-10T16:37:39Z</time></trkpt><trkpt lat="46.0233499496257" lon="9.36410530843616"><ele>473.0</ele><time>2026-04-10T16:37:40Z</time></trkpt><trkpt lat="46.023392602126485" lon="9.364220538737234"><ele>474.0</ele><time>2026-04-10T16:37:42Z</time></trkpt><trkpt lat="46.023287465287666" lon="9.364317802434236"><ele>475.0</ele><time>2026-04-10T16:37:44Z</time></trkpt><trkpt lat="46.02320577992598" lon="9.364262355212299"><ele>476.0</ele><time>2026-04-10T16:37:45Z</time></trkpt><trkpt lat="46.023111849333084" lon="9.364213706740562"><ele>476.0</ele><time>2026-04-10T16:37:46Z</time></trkpt><trkpt lat="46.023002672996824" lon="9.36421312621994"><ele>476.0</ele><time>2026-04-10T16:37:47Z</time></trkpt><trkpt lat="46.0228941126409" lon="9.36423370604346"><ele>476.0</ele><time>2026-04-10T16:37:48Z</time></trkpt><trkpt lat="46.02279935394034" lon="9.364313067312992"><ele>476.0</ele><time>2026-04-10T16:37:49Z</time></trkpt><trkpt lat="46.02273286634083" lon="9.36443852359244"><ele>476.0</ele><time>2026-04-10T16:37:50Z</time></trkpt><trkpt lat="46.02268755151623" lon="9.364601180386423"><ele>477.5</ele><time>2026-04-10T16:37:51Z</time></trkpt><trkpt lat="46.02268353741706" lon="9.364774160404421"><ele>479.0</ele><time>2026-04-10T16:37:52Z</time></trkpt><trkpt lat="46.02272137290027" lon="9.364946332134414"><ele>480.5</ele><time>2026-04-10T16:37:53Z</time></trkpt><trkpt lat="46.02279344390953" lon="9.365113404314714"><ele>482.0</ele><time>2026-04-10T16:37:54Z</time></trkpt><trkpt lat="46.02287086352846" lon="9.365271650936343"><ele>482.0</ele><time>2026-04-10T16:37:55Z</time></trkpt><trkpt lat="46.022937390293" lon="9.36541333718811"><ele>482.0</ele><time>2026-04-10T16:37:56Z</time></trkpt><trkpt lat="46.023021234168105" lon="9.365531869474465"><ele>482.0</ele><time>2026-04-10T16:37:57Z</time></trkpt><trkpt lat="46.02313352992757" lon="9.365595128616455"><ele>482.0</ele><time>2026-04-10T16:37:58Z</time></trkpt><trkpt lat="46.023263259523326" lon="9.365610804969121"><ele>484.40000000000003</ele><time>2026-04-10T16:37:59Z</time></trkpt><trkpt lat="46.023407181062744" lon="9.365591087755773"><ele>486.80000000000007</ele><time>2026-04-10T16:38:00Z</time></trkpt><trkpt lat="46.02353823567454" lon="9.365558938598024"><ele>489.2</ele><time>2026-04-10T16:38:01Z</time></trkpt><trkpt lat="46.02363256509384" lon="9.365545258479996"><ele>491.6</ele><time>2026-04-10T16:38:02Z</time></trkpt><trkpt lat="46.02370583910701" lon="9.365569962969602"><ele>494.0</ele><time>2026-04-10T16:38:03Z</time></trkpt><trkpt lat="46.023755551591904" lon="9.365639134037636"><ele>494.0</ele><time>2026-04-10T16:38:04Z</time></trkpt><trkpt lat="46.023777149511595" lon="9.365751255389844"><ele>494.0</ele><time>2026-04-10T16:38:05Z</time></trkpt><trkpt lat="46.02373640939714" lon="9.36591750074772"><ele>494.0</ele><time>2026-04-10T16:38:06Z</time></trkpt><trkpt lat="46.02372892091761" lon="9.366125367121096"><ele>494.0</ele><time>2026-04-10T16:38:07Z</time></trkpt><trkpt lat="46.02372881544883" lon="9.366316097676679"><ele>495.0</ele><time>2026-04-10T16:38:08Z</time></trkpt><trkpt lat="46.02372719987953" lon="9.366434915579008"><ele>496.0</ele><time>2026-04-10T16:38:09Z</time></trkpt><trkpt lat="46.02381704627778" lon="9.366572946108898"><ele>497.0</ele><time>2026-04-10T16:38:11Z</time></trkpt><trkpt lat="46.02394233840258" lon="9.366496421151567"><ele>498.0</ele><time>2026-04-10T16:38:12Z</time></trkpt><trkpt lat="46.02406711270936" lon="9.366428102768428"><ele>497.75</ele><time>2026-04-10T16:38:13Z</time></trkpt><trkpt lat="46.024214249545516" lon="9.366357729846108"><ele>497.5</ele><time>2026-04-10T16:38:14Z</time></trkpt><trkpt lat="46.024343001189465" lon="9.366311752806421"><ele>497.25</ele><time>2026-04-10T16:38:15Z</time></trkpt><trkpt lat="46.02443744154204" lon="9.366252932990822"><ele>497.0</ele><time>2026-04-10T16:38:16Z</time></trkpt><trkpt lat="46.0245192872081" lon="9.366237436732524"><ele>497.0</ele><time>2026-04-10T16:38:17Z</time></trkpt><trkpt lat="46.02458484036731" lon="9.366216527746499"><ele>497.00000000000006</ele><time>2026-04-10T16:38:18Z</time></trkpt><trkpt lat="46.024652520151776" lon="9.366300850018831"><ele>497.00000000000006</ele><time>2026-04-10T16:38:20Z</time></trkpt><trkpt lat="46.02457725845211" lon="9.366462695634937"><ele>497.0</ele><time>2026-04-10T16:38:22Z</time></trkpt><trkpt lat="46.02447431198584" lon="9.36648149228316"><ele>497.0</ele><time>2026-04-10T16:38:23Z</time></trkpt><trkpt lat="46.02436022101994" lon="9.366545143409612"><ele>500.0</ele><time>2026-04-10T16:38:24Z</time></trkpt><trkpt lat="46.024267860116936" lon="9.366631361548894"><ele>503.00000000000006</ele><time>2026-04-10T16:38:25Z</time></trkpt><trkpt lat="46.02420366922943" lon="9.366708830875966"><ele>506.00000000000006</ele><time>2026-04-10T16:38:26Z</time></trkpt><trkpt lat="46.024181348503895" lon="9.366820269071457"><ele>509.0</ele><time>2026-04-10T16:38:27Z</time></trkpt><trkpt lat="46.02419822205314" lon="9.366958529609573"><ele>512.0</ele><time>2026-04-10T16:38:28Z</time></trkpt><trkpt lat="46.024295120607704" lon="9.367082246777912"><ele>514.75</ele><time>2026-04-10T16:38:29Z</time></trkpt><trkpt lat="46.02436503698545" lon="9.36724904049956"><ele>517.5</ele><time>2026-04-10T16:38:30Z</time></trkpt><trkpt lat="46.02444422342397" lon="9.367416438593896"><ele>520.25</ele><time>2026-04-10T16:38:31Z</time></trkpt><trkpt lat="46.02449409515489" lon="9.367557597970473"><ele>523.0</ele><time>2026-04-10T16:38:32Z</time></trkpt><trkpt lat="46.02451555120977" lon="9.367703265079246"><ele>523.0</ele><time>2026-04-10T16:38:33Z</time></trkpt><trkpt lat="46.02451510808681" lon="9.367855675390313"><ele>523.0</ele><time>2026-04-10T16:38:34Z</time></trkpt><trkpt lat="46.024477590938226" lon="9.367986845889417"><ele>523.0</ele><time>2026-04-10T16:38:35Z</time></trkpt><trkpt lat="46.024418807749605" lon="9.368082384993162"><ele>523.0</ele><time>2026-04-10T16:38:36Z</time></trkpt><trkpt lat="46.02431306267256" lon="9.3681156526193"><ele>523.0</ele><time>2026-04-10T16:38:37Z</time></trkpt><trkpt lat="46.0241886752471" lon="9.368131903969495"><ele>524.25</ele><time>2026-04-10T16:38:38Z</time></trkpt><trkpt lat="46.02404724240083" lon="9.368142398801776"><ele>525.5</ele><time>2026-04-10T16:38:39Z</time></trkpt><trkpt lat="46.023926511627785" lon="9.36817094127814"><ele>526.75</ele><time>2026-04-10T16:38:40Z</time></trkpt><trkpt lat="46.023830965205576" lon="9.368191511132897"><ele>528.0</ele><time>2026-04-10T16:38:41Z</time></trkpt><trkpt lat="46.023748323153036" lon="9.368285011708341"><ele>528.0</ele><time>2026-04-10T16:38:42Z</time></trkpt><trkpt lat="46.023664297793815" lon="9.368446988982088"><ele>528.0</ele><time>2026-04-10T16:38:43Z</time></trkpt><trkpt lat="46.02356656551514" lon="9.368617922506463"><ele>528.0</ele><time>2026-04-10T16:38:44Z</time></trkpt><trkpt lat="46.02346343729086" lon="9.368773142018327"><ele>528.0</ele><time>2026-04-10T16:38:45Z</time></trkpt><trkpt lat="46.02336582399357" lon="9.368876546454837"><ele>531.1999999999999</ele><time>2026-04-10T16:38:46Z</time></trkpt><trkpt lat="46.02328038630794" lon="9.368965840421813"><ele>534.4</ele><time>2026-04-10T16:38:47Z</time></trkpt><trkpt lat="46.02321307438468" lon="9.369040838433007"><ele>537.5999999999999</ele><time>2026-04-10T16:38:48Z</time></trkpt><trkpt lat="46.02318298840656" lon="9.369126186709629"><ele>540.8</ele><time>2026-04-10T16:38:49Z</time></trkpt><trkpt lat="46.02319196779698" lon="9.3693009089314"><ele>544.0</ele><time>2026-04-10T16:38:51Z</time></trkpt><trkpt lat="46.02328055292636" lon="9.36935971252103"><ele>545.0</ele><time>2026-04-10T16:38:52Z</time></trkpt><trkpt lat="46.023391800530796" lon="9.369283951320762"><ele>546.0</ele><time>2026-04-10T16:38:53Z</time></trkpt><trkpt lat="46.02348141155467" lon="9.369183805909193"><ele>547.0</ele><time>2026-04-10T16:38:54Z</time></trkpt><trkpt lat="46.023580463266924" lon="9.369065063214146"><ele>548.0</ele><time>2026-04-10T16:38:55Z</time></trkpt><trkpt lat="46.02371066838922" lon="9.368999762358634"><ele>548.0</ele><time>2026-04-10T16:38:56Z</time></trkpt><trkpt lat="46.023854898918934" lon="9.368934648871035"><ele>548.0</ele><time>2026-04-10T16:38:57Z</time></trkpt><trkpt lat="46.023977747440085" lon="9.36886419884199"><ele>548.0</ele><time>2026-04-10T16:38:58Z</time></trkpt><trkpt lat="46.02408187617847" lon="9.36882951437702"><ele>548.0</ele><time>2026-04-10T16:38:59Z</time></trkpt><trkpt lat="46.024180014933755" lon="9.368829221645768"><ele>550.0</ele><time>2026-04-10T16:39:00Z</time></trkpt><trkpt lat="46.024274450163865" lon="9.36888773766819"><ele>552.0</ele><time>2026-04-10T16:39:01Z</time></trkpt><trkpt lat="46.02434920935055" lon="9.368995099006078"><ele>554.0</ele><time>2026-04-10T16:39:02Z</time></trkpt><trkpt lat="46.024362085557186" lon="9.36914221151815"><ele>556.0</ele><time>2026-04-10T16:39:03Z</time></trkpt><trkpt lat="46.02436000519203" lon="9.369277446432507"><ele>558.0</ele><time>2026-04-10T16:39:04Z</time></trkpt><trkpt lat="46.02430974345905" lon="9.369391086254279"><ele>558.0</ele><time>2026-04-10T16:39:05Z</time></trkpt><trkpt lat="46.02423013192588" lon="9.369476058136899"><ele>558.0</ele><time>2026-04-10T16:39:06Z</time></trkpt><trkpt lat="46.024119381630655" lon="9.369570199786578"><ele>558.0</ele><time>2026-04-10T16:39:07Z</time></trkpt><trkpt lat="46.023990840768306" lon="9.369696543710997"><ele>558.0</ele><time>2026-04-10T16:39:08Z</time></trkpt><trkpt lat="46.023864445347314" lon="9.369818637692813"><ele>560.0</ele><time>2026-04-10T16:39:09Z</time></trkpt><trkpt lat="46.023753081399875" lon="9.369946600949303"><ele>562.0</ele><time>2026-04-10T16:39:10Z</time></trkpt><trkpt lat="46.02368587561362" lon="9.370161811336237"><ele>564.0</ele><time>2026-04-10T16:39:11Z</time></trkpt><trkpt lat="46.02361035841405" lon="9.370378547017872"><ele>567.5</ele><time>2026-04-10T16:39:12Z</time></trkpt><trkpt lat="46.023559728669724" lon="9.370554076088036"><ele>571.0</ele><time>2026-04-10T16:39:13Z</time></trkpt><trkpt lat="46.02350407759008" lon="9.370695686490873"><ele>574.5</ele><time>2026-04-10T16:39:14Z</time></trkpt><trkpt lat="46.023432826031495" lon="9.370804202894668"><ele>578.0</ele><time>2026-04-10T16:39:15Z</time></trkpt><trkpt lat="46.02331993256032" lon="9.370852811922667"><ele>578.0</ele><time>2026-04-10T16:39:16Z</time></trkpt><trkpt lat="46.02318287249947" lon="9.370853098619248"><ele>578.0</ele><time>2026-04-10T16:39:17Z</time></trkpt><trkpt lat="46.0230222369836" lon="9.370837431113893"><ele>578.0</ele><time>2026-04-10T16:39:18Z</time></trkpt><trkpt lat="46.022863964474816" lon="9.370842707066446"><ele>578.0</ele><time>2026-04-10T16:39:19Z</time></trkpt><trkpt lat="46.02271097221083" lon="9.370913418947765"><ele>578.0</ele><time>2026-04-10T16:39:20Z</time></trkpt><trkpt lat="46.0225600177201" lon="9.371007368922951"><ele>578.0</ele><time>2026-04-10T16:39:21Z</time></trkpt><trkpt lat="46.022450203447924" lon="9.371124053232533"><ele>578.5</ele><time>2026-04-10T16:39:22Z</time></trkpt><trkpt lat="46.02232564167904" lon="9.371157353911647"><ele>579.0</ele><time>2026-04-10T16:39:23Z</time></trkpt><trkpt lat="46.02217427145872" lon="9.371136231345265"><ele>579.5</ele><time>2026-04-10T16:39:24Z</time></trkpt><trkpt lat="46.02201844537042" lon="9.371092614093833"><ele>580.0</ele><time>2026-04-10T16:39:25Z</time></trkpt><trkpt lat="46.02184973793006" lon="9.371078978243196"><ele>580.0</ele><time>2026-04-10T16:39:26Z</time></trkpt><trkpt lat="46.02167622140598" lon="9.37112020223128"><ele>580.0</ele><time>2026-04-10T16:39:27Z</time></trkpt><trkpt lat="46.02153704605271" lon="9.371187486206193"><ele>580.0</ele><time>2026-04-10T16:39:28Z</time></trkpt><trkpt lat="46.021414597530296" lon="9.371268732108305"><ele>580.3333333333334</ele><time>2026-04-10T16:39:29Z</time></trkpt><trkpt lat="46.021300743279994" lon="9.37140824051993"><ele>580.6666666666666</ele><time>2026-04-10T16:39:30Z</time></trkpt><trkpt lat="46.0211924660075" lon="9.371590119088475"><ele>581.0</ele><time>2026-04-10T16:39:31Z</time></trkpt><trkpt lat="46.02110325304134" lon="9.3717450250134"><ele>581.0</ele><time>2026-04-10T16:39:32Z</time></trkpt><trkpt lat="46.02101955847429" lon="9.371884068132884"><ele>581.0</ele><time>2026-04-10T16:39:33Z</time></trkpt><trkpt lat="46.0209529482119" lon="9.371989651657408"><ele>581.0</ele><time>2026-04-10T16:39:34Z</time></trkpt><trkpt lat="46.02090289842631" lon="9.372076369821096"><ele>581.0</ele><time>2026-04-10T16:39:35Z</time></trkpt><trkpt lat="46.020866785399" lon="9.372163693808053"><ele>581.0</ele><time>2026-04-10T16:39:36Z</time></trkpt><trkpt lat="46.020891397468944" lon="9.372264294749916"><ele>581.0</ele><time>2026-04-10T16:39:37Z</time></trkpt><trkpt lat="46.02095353850787" lon="9.372337725469851"><ele>581.0</ele><time>2026-04-10T16:39:38Z</time></trkpt><trkpt lat="46.02104520563732" lon="9.372338866554411"><ele>581.0</ele><time>2026-04-10T16:39:39Z</time></trkpt><trkpt lat="46.02110498911067" lon="9.372255373254228"><ele>581.0</ele><time>2026-04-10T16:39:40Z</time></trkpt><trkpt lat="46.02118071496683" lon="9.37211904009235"><ele>581.0</ele><time>2026-04-10T16:39:41Z</time></trkpt><trkpt lat="46.021257728643896" lon="9.371950407978991"><ele>581.0</ele><time>2026-04-10T16:39:42Z</time></trkpt><trkpt lat="46.02135053450269" lon="9.371814418654417"><ele>581.0</ele><time>2026-04-10T16:39:43Z</time></trkpt><trkpt lat="46.021447636215505" lon="9.371737608797154"><ele>581.0</ele><time>2026-04-10T16:39:44Z</time></trkpt><trkpt lat="46.02155840061058" lon="9.3717575253756"><ele>581.0</ele><time>2026-04-10T16:39:45Z</time></trkpt><trkpt lat="46.02168913828751" lon="9.37182806268035"><ele>587.6666666666666</ele><time>2026-04-10T16:39:46Z</time></trkpt><trkpt lat="46.0218550947875" lon="9.371885027909435"><ele>594.3333333333334</ele><time>2026-04-10T16:39:47Z</time></trkpt><trkpt lat="46.02202586861835" lon="9.371945096683312"><ele>601.0</ele><time>2026-04-10T16:39:48Z</time></trkpt><trkpt lat="46.02218211767829" lon="9.372034459497282"><ele>601.0</ele><time>2026-04-10T16:39:49Z</time></trkpt><trkpt lat="46.02232114490331" lon="9.372174775172985"><ele>601.0</ele><time>2026-04-10T16:39:50Z</time></trkpt><trkpt lat="46.0224937482242" lon="9.37235443508837"><ele>601.0</ele><time>2026-04-10T16:39:51Z</time></trkpt><trkpt lat="46.02264449539836" lon="9.372509937451307"><ele>607.6666666666667</ele><time>2026-04-10T16:39:52Z</time></trkpt><trkpt lat="46.022764188624606" lon="9.372658245032381"><ele>614.3333333333334</ele><time>2026-04-10T16:39:53Z</time></trkpt><trkpt lat="46.02286250653028" lon="9.372834472237217"><ele>621.0</ele><time>2026-04-10T16:39:54Z</time></trkpt><trkpt lat="46.02295050369163" lon="9.373056396626431"><ele>627.0</ele><time>2026-04-10T16:39:55Z</time></trkpt><trkpt lat="46.0230540344458" lon="9.373314620634655"><ele>633.0</ele><time>2026-04-10T16:39:56Z</time></trkpt><trkpt lat="46.02318031495369" lon="9.373503681770213"><ele>639.0</ele><time>2026-04-10T16:39:57Z</time></trkpt><trkpt lat="46.02327994371926" lon="9.373666723891235"><ele>640.0</ele><time>2026-04-10T16:39:58Z</time></trkpt><trkpt lat="46.023368830794354" lon="9.373799520900723"><ele>641.0</ele><time>2026-04-10T16:39:59Z</time></trkpt><trkpt lat="46.023425024706164" lon="9.373869167649966"><ele>642.0</ele><time>2026-04-10T16:40:00Z</time></trkpt><trkpt lat="46.023537241937156" lon="9.373913846716666"><ele>643.0</ele><time>2026-04-10T16:40:02Z</time></trkpt><trkpt lat="46.023616056799895" lon="9.373877263102303"><ele>644.0</ele><time>2026-04-10T16:40:03Z</time></trkpt><trkpt lat="46.02371452231322" lon="9.37377638739486"><ele>638.0</ele><time>2026-04-10T16:40:04Z</time></trkpt><trkpt lat="46.02382245480936" lon="9.373618172180688"><ele>632.0</ele><time>2026-04-10T16:40:05Z</time></trkpt><trkpt lat="46.02390058500277" lon="9.373427081922635"><ele>626.0</ele><time>2026-04-10T16:40:06Z</time></trkpt><trkpt lat="46.02395955523356" lon="9.373215489162503"><ele>626.0</ele><time>2026-04-10T16:40:07Z</time></trkpt><trkpt lat="46.024026765228385" lon="9.373033551053243"><ele>626.0</ele><time>2026-04-10T16:40:08Z</time></trkpt><trkpt lat="46.02414291537848" lon="9.372944355151654"><ele>626.0</ele><time>2026-04-10T16:40:09Z</time></trkpt><trkpt lat="46.02429026969583" lon="9.372904382912681"><ele>626.0</ele><time>2026-04-10T16:40:10Z</time></trkpt><trkpt lat="46.024478556762915" lon="9.372842338265858"><ele>625.6666666666666</ele><time>2026-04-10T16:40:11Z</time></trkpt><trkpt lat="46.02468518309679" lon="9.372776267129453"><ele>625.3333333333334</ele><time>2026-04-10T16:40:12Z</time></trkpt><trkpt lat="46.024878918225845" lon="9.372714986523583"><ele>625.0</ele><time>2026-04-10T16:40:13Z</time></trkpt><trkpt lat="46.02503582523099" lon="9.372668064579452"><ele>627.6</ele><time>2026-04-10T16:40:14Z</time></trkpt><trkpt lat="46.02516379285572" lon="9.372633807761444"><ele>630.2</ele><time>2026-04-10T16:40:15Z</time></trkpt><trkpt lat="46.02526029791665" lon="9.372587926591503"><ele>632.8</ele><time>2026-04-10T16:40:17Z</time></trkpt><trkpt lat="46.02535426481278" lon="9.372574846315938"><ele>635.4</ele><time>2026-04-10T16:40:19Z</time></trkpt><trkpt lat="46.02545331703413" lon="9.372569213710284"><ele>638.0</ele><time>2026-04-10T16:40:21Z</time></trkpt><trkpt lat="46.02550571293906" lon="9.372645534598433"><ele>638.0</ele><time>2026-04-10T16:40:22Z</time></trkpt><trkpt lat="46.02551123997801" lon="9.372785454937144"><ele>638.0</ele><time>2026-04-10T16:40:23Z</time></trkpt><trkpt lat="46.02548007485293" lon="9.372949600766745"><ele>638.0</ele><time>2026-04-10T16:40:24Z</time></trkpt><trkpt lat="46.02550570045908" lon="9.373227332770002"><ele>638.0</ele><time>2026-04-10T16:40:25Z</time></trkpt><trkpt lat="46.02556600900291" lon="9.373477153711745"><ele>642.5</ele><time>2026-04-10T16:40:26Z</time></trkpt><trkpt lat="46.02564019988537" lon="9.3737700807641"><ele>647.0</ele><time>2026-04-10T16:40:27Z</time></trkpt><trkpt lat="46.02572128378523" lon="9.37409846548663"><ele>650.6666666666666</ele><time>2026-04-10T16:40:28Z</time></trkpt><trkpt lat="46.02580027064062" lon="9.374420043806593"><ele>654.3333333333334</ele><time>2026-04-10T16:40:29Z</time></trkpt><trkpt lat="46.02586581149338" lon="9.37468354690119"><ele>658.0</ele><time>2026-04-10T16:40:30Z</time></trkpt><trkpt lat="46.02592071583468" lon="9.374912793111806"><ele>659.25</ele><time>2026-04-10T16:40:31Z</time></trkpt><trkpt lat="46.02598375490426" lon="9.375110831852819"><ele>660.5</ele><time>2026-04-10T16:40:32Z</time></trkpt><trkpt lat="46.026075874316135" lon="9.375280169512363"><ele>661.75</ele><time>2026-04-10T16:40:33Z</time></trkpt><trkpt lat="46.02619433150752" lon="9.375377392011261"><ele>663.0</ele><time>2026-04-10T16:40:34Z</time></trkpt><trkpt lat="46.02627994383695" lon="9.37550254070351"><ele>666.5999999999999</ele><time>2026-04-10T16:40:35Z</time></trkpt><trkpt lat="46.02636121741406" lon="9.375598858646374"><ele>670.1999999999999</ele><time>2026-04-10T16:40:36Z</time></trkpt><trkpt lat="46.026437529097564" lon="9.37566515567592"><ele>673.8</ele><time>2026-04-10T16:40:37Z</time></trkpt><trkpt lat="46.0264932862136" lon="9.375737519504096"><ele>677.4</ele><time>2026-04-10T16:40:38Z</time></trkpt><trkpt lat="46.026515340334385" lon="9.375858314986306"><ele>681.0</ele><time>2026-04-10T16:40:40Z</time></trkpt><trkpt lat="46.026421601668424" lon="9.37589930042696"><ele>681.0</ele><time>2026-04-10T16:40:42Z</time></trkpt><trkpt lat="46.026344585345996" lon="9.375743190727164"><ele>681.0</ele><time>2026-04-10T16:40:44Z</time></trkpt><trkpt lat="46.026281094696735" lon="9.375657626377667"><ele>681.0</ele><time>2026-04-10T16:40:45Z</time></trkpt><trkpt lat="46.026173148236175" lon="9.375590831405555"><ele>681.0</ele><time>2026-04-10T16:40:46Z</time></trkpt><trkpt lat="46.026037484366334" lon="9.375537135812799"><ele>678.3333333333334</ele><time>2026-04-10T16:40:47Z</time></trkpt><trkpt lat="46.0258638610897" lon="9.375462664267605"><ele>675.6666666666667</ele><time>2026-04-10T16:40:48Z</time></trkpt><trkpt lat="46.025680571857364" lon="9.375403647988218"><ele>673.0</ele><time>2026-04-10T16:40:49Z</time></trkpt><trkpt lat="46.02548429554065" lon="9.375355970512851"><ele>673.0</ele><time>2026-04-10T16:40:50Z</time></trkpt><trkpt lat="46.025321268552176" lon="9.375283131118788"><ele>673.0</ele><time>2026-04-10T16:40:51Z</time></trkpt><trkpt lat="46.025168415617166" lon="9.375262297100928"><ele>673.0</ele><time>2026-04-10T16:40:52Z</time></trkpt><trkpt lat="46.02503379180016" lon="9.375220700731875"><ele>673.25</ele><time>2026-04-10T16:40:53Z</time></trkpt><trkpt lat="46.02490412663351" lon="9.375189662092232"><ele>673.5</ele><time>2026-04-10T16:40:54Z</time></trkpt><trkpt lat="46.02477971320423" lon="9.375163242867256"><ele>673.75</ele><time>2026-04-10T16:40:55Z</time></trkpt><trkpt lat="46.02464543610287" lon="9.375131197501437"><ele>674.0</ele><time>2026-04-10T16:40:56Z</time></trkpt><trkpt lat="46.02449460464709" lon="9.37510939004572"><ele>674.0</ele><time>2026-04-10T16:40:57Z</time></trkpt><trkpt lat="46.0243269401135" lon="9.375114464770748"><ele>674.0</ele><time>2026-04-10T16:40:58Z</time></trkpt><trkpt lat="46.02416896972016" lon="9.37514318339183"><ele>674.0</ele><time>2026-04-10T16:40:59Z</time></trkpt><trkpt lat="46.02401724249631" lon="9.375159260379826"><ele>673.5</ele><time>2026-04-10T16:41:00Z</time></trkpt><trkpt lat="46.02387654170229" lon="9.375238587362947"><ele>673.0</ele><time>2026-04-10T16:41:01Z</time></trkpt><trkpt lat="46.02374781307131" lon="9.37529938079879"><ele>672.5</ele><time>2026-04-10T16:41:02Z</time></trkpt><trkpt lat="46.02362371838399" lon="9.375330265669136"><ele>672.0</ele><time>2026-04-10T16:41:03Z</time></trkpt><trkpt lat="46.02351277550274" lon="9.37536757423527"><ele>672.0</ele><time>2026-04-10T16:41:04Z</time></trkpt><trkpt lat="46.02341062467212" lon="9.37539689126952"><ele>672.0</ele><time>2026-04-10T16:41:05Z</time></trkpt><trkpt lat="46.0233153953158" lon="9.375424221862424"><ele>672.0</ele><time>2026-04-10T16:41:06Z</time></trkpt><trkpt lat="46.02323978382936" lon="9.37544868650775"><ele>672.0</ele><time>2026-04-10T16:41:07Z</time></trkpt><trkpt lat="46.02317206335319" lon="9.375489041014966"><ele>672.0</ele><time>2026-04-10T16:41:08Z</time></trkpt><trkpt lat="46.02310595554291" lon="9.3755415485885"><ele>672.0</ele><time>2026-04-10T16:41:09Z</time></trkpt><trkpt lat="46.02304510209207" lon="9.375615107311942"><ele>672.6666666666666</ele><time>2026-04-10T16:41:10Z</time></trkpt><trkpt lat="46.023025495940836" lon="9.37573176727104"><ele>673.3333333333334</ele><time>2026-04-10T16:41:11Z</time></trkpt><trkpt lat="46.02297250382953" lon="9.375827232278045"><ele>674.0</ele><time>2026-04-10T16:41:12Z</time></trkpt><trkpt lat="46.02292981694889" lon="9.375915332137259"><ele>674.6666666666667</ele><time>2026-04-10T16:41:13Z</time></trkpt><trkpt lat="46.02288316712213" lon="9.375991938190298"><ele>675.3333333333334</ele><time>2026-04-10T16:41:14Z</time></trkpt><trkpt lat="46.02283447668827" lon="9.376064290683443"><ele>676.0</ele><time>2026-04-10T16:41:15Z</time></trkpt><trkpt lat="46.02274666173598" lon="9.376119504179895"><ele>676.0</ele><time>2026-04-10T16:41:17Z</time></trkpt><trkpt lat="46.02267969670045" lon="9.376205807663144"><ele>676.0</ele><time>2026-04-10T16:41:19Z</time></trkpt><trkpt lat="46.0225855218831" lon="9.376256438021008"><ele>676.0</ele><time>2026-04-10T16:41:21Z</time></trkpt><trkpt lat="46.02251356216346" lon="9.376292276760793"><ele>676.0</ele><time>2026-04-10T16:41:24Z</time></trkpt><trkpt lat="46.02243724688775" lon="9.376330292909472"><ele>653.0</ele><time>2026-04-10T16:41:27Z</time></trkpt></trkseg></trk></gpx>